# Wetter Temperatur Luftdruck Luftfeuchtigkeit Sichtweite Windgeschwindigkeit Windrichtung Zeit
1 Haze 17 1021 59 4000 1.16 233 20:20 12.07.2020
2 Haze 14 1022 58 4000 1.5 250 19:59 12.07.2020
3 Haze 14 1022 58 4000 1.5 250 19:40 12.07.2020
4 Haze 14 1022 58 4000 1.5 250 19:21 12.07.2020
5 Haze 14 1022 58 4000 1.5 270 18:55 12.07.2020
6 Haze 13 1022 58 4000 1.5 270 18:37 12.07.2020
7 Haze 11 1022 66 5000 0.41 244 18:18 12.07.2020
8 Haze 11 1022 66 5000 0.41 244 17:38 12.07.2020
9 Haze 11 1022 66 5000 0.33 293 17:20 12.07.2020
10 Haze 9 1022 81 4000 0.33 293 16:48 12.07.2020
11 Haze 9 1022 81 4000 0.75 40 16:23 12.07.2020
12 Mist 7 1022 93 4000 1 60 15:51 12.07.2020
13 Mist 7 1022 93 4000 1 60 15:31 12.07.2020
14 Mist 5 1022 93 3000 1 60 14:58 12.07.2020
15 Mist 5 1022 93 3000 1 60 14:40 12.07.2020
16 Mist 5 1022 93 3000 1 60 14:22 12.07.2020
17 Fog 6 1021 100 350 2.6 20 13:40 12.07.2020
18 Fog 6 1021 100 350 2.6 20 13:21 12.07.2020
19 Fog 5 1021 100 400 2.1 320 12:57 12.07.2020
20 Fog 5 1021 100 400 2.1 320 12:38 12.07.2020
21 Fog 5 1021 100 400 2.1 320 12:19 12.07.2020
22 Clouds 12 1019 51 0 0.95 56 11:45 12.07.2020
23 Clouds 12 1019 53 0 0.92 59 11:21 12.07.2020
24 Fog 6 1021 100 1200 0.5 0 10:57 12.07.2020
25 Fog 6 1021 100 1200 0.5 0 10:39 12.07.2020
26 Fog 6 1021 100 1200 0.5 0 10:19 12.07.2020
27 Fog 6 1021 100 1200 0.5 0 10:19 12.07.2020
28 Fog 6 1021 100 1200 1 280 09:43 12.07.2020
29 Fog 7 1021 100 400 1 0 09:21 12.07.2020
30 Fog 7 1021 100 450 1.5 240 08:55 12.07.2020
31 Fog 7 1022 100 500 1 0 08:37 12.07.2020
32 Fog 7 1022 100 500 1 0 08:18 12.07.2020
33 Mist 8 1022 100 2400 3.1 180 07:46 12.07.2020
34 Mist 8 1022 100 2400 3.1 180 07:27 12.07.2020
35 Mist 9 1022 93 3800 1 0 06:53 12.07.2020
36 Mist 9 1022 93 3800 1 0 06:22 12.07.2020
37 Haze 9 1022 93 4000 2.1 230 05:59 12.07.2020
38 Clouds 11 1022 81 6000 3.6 150 04:57 12.07.2020
39 Clouds 11 1022 81 6000 3.6 150 04:28 12.07.2020
40 Clouds 11 1021 87 6000 3.6 150 03:45 12.07.2020
41 Clouds 11 1021 87 6000 3.6 150 03:24 12.07.2020
42 Clouds 12 1021 81 7000 2.1 160 01:54 12.07.2020
43 Haze 13 1021 67 5000 0.24 241 01:18 12.07.2020
44 Haze 14 1021 67 5000 0.24 241 00:39 12.07.2020
45 Haze 14 1021 67 5000 0.32 194 00:20 12.07.2020
46 Haze 14 1021 58 4000 0.32 194 23:40 11.07.2020
47 Haze 14 1021 58 4000 1.04 231 23:20 11.07.2020
48 Haze 15 1021 58 4000 1.04 231 22:57 11.07.2020
49 Haze 15 1021 58 4000 1.04 231 22:37 11.07.2020
50 Haze 15 1021 58 4000 0.89 268 22:19 11.07.2020
51 Haze 15 1020 54 4000 0.89 268 21:43 11.07.2020
52 Haze 15 1020 54 4000 1.24 231 21:24 11.07.2020
53 Haze 15 1020 58 4000 1.24 231 20:59 11.07.2020
54 Haze 15 1020 58 4000 1.24 231 20:41 11.07.2020
55 Haze 15 1020 58 4000 1.44 246 20:21 11.07.2020
56 Haze 13 1021 66 4000 1.44 246 19:59 11.07.2020
57 Haze 13 1021 66 4000 1.44 246 19:40 11.07.2020
58 Haze 13 1021 66 4000 1.04 244 19:22 11.07.2020
59 Haze 12 1022 71 4000 1.04 244 18:56 11.07.2020
60 Haze 12 1022 71 4000 1.04 244 18:38 11.07.2020
61 Haze 12 1022 71 4000 0.18 204 18:19 11.07.2020
62 Clouds 10 1022 76 7000 0.18 204 17:55 11.07.2020
63 Clouds 10 1022 76 7000 0.18 204 17:37 11.07.2020
64 Clouds 10 1022 76 7000 0.86 281 17:18 11.07.2020
65 Clouds 8 1021 81 7000 0.86 281 16:42 11.07.2020
66 Clouds 8 1021 81 7000 0.14 331 16:23 11.07.2020
67 Clouds 5 1021 93 7000 0.14 331 15:58 11.07.2020
68 Clouds 5 1021 93 7000 0.14 331 15:58 11.07.2020
69 Clouds 5 1021 93 7000 0.14 331 15:39 11.07.2020
70 Clouds 5 1021 93 7000 0.56 54 15:20 11.07.2020
71 Clouds 6 1021 81 7000 0.56 54 14:56 11.07.2020
72 Clouds 6 1021 81 7000 0.77 62 14:36 11.07.2020
73 Clouds 6 1021 81 7000 0.77 62 14:36 11.07.2020
74 Clouds 6 1021 81 7000 0.47 51 14:18 11.07.2020
75 Fog 4 1020 100 2000 0.47 51 13:42 11.07.2020
76 Fog 4 1020 100 2000 0.98 44 13:21 11.07.2020
77 Mist 6 1020 100 2300 0.5 110 12:55 11.07.2020
78 Mist 6 1020 100 2300 0.5 110 12:37 11.07.2020
79 Mist 6 1020 100 2300 0.5 110 12:18 11.07.2020
80 Mist 5 1020 100 2500 2.1 40 11:41 11.07.2020
81 Mist 5 1020 100 2500 2.1 40 11:21 11.07.2020
82 Mist 5 1020 100 2900 1 0 10:56 11.07.2020
83 Mist 5 1020 100 3900 2.1 350 10:38 11.07.2020
84 Mist 5 1020 100 3900 2.1 350 10:19 11.07.2020
85 Mist 7 1021 93 4700 2.1 180 09:39 11.07.2020
86 Mist 7 1021 93 4700 2.1 180 09:20 11.07.2020
87 Mist 8 1020 93 4100 3.1 150 08:46 11.07.2020
88 Mist 8 1020 93 4100 3.1 150 08:28 11.07.2020
89 Mist 7 1020 93 4500 2.1 150 07:56 11.07.2020
90 Mist 7 1020 93 4500 2.1 150 07:36 11.07.2020
91 Mist 8 1020 93 4700 1 140 07:18 11.07.2020
92 Mist 8 1020 93 4700 1 140 06:27 11.07.2020
93 Mist 8 1020 100 5000 1.5 30 05:59 11.07.2020
94 Mist 8 1020 100 5000 1.5 30 05:20 11.07.2020
95 Clouds 9 1021 93 6000 0.41 5 04:50 11.07.2020
96 Clouds 9 1021 93 6000 0.96 37 04:20 11.07.2020
97 Clouds 9 1021 93 6000 0.96 37 04:20 11.07.2020
98 Clouds 12 1021 81 8000 0.38 243 02:55 11.07.2020
99 Clouds 12 1021 81 8000 0.29 112 02:27 11.07.2020
100 Clouds 11 1022 76 6000 0.5 190 01:25 11.07.2020
101 Clouds 12 1022 76 6000 0.5 190 00:57 11.07.2020
102 Clouds 12 1022 76 6000 0.5 190 00:38 11.07.2020
103 Clouds 12 1022 76 6000 0.5 190 00:18 11.07.2020
104 Clouds 13 1021 66 7000 0.52 261 23:45 10.07.2020
105 Clouds 13 1021 66 7000 0.24 351 23:26 10.07.2020
106 Clouds 13 1021 62 6000 0.24 351 22:57 10.07.2020
107 Clouds 13 1021 62 6000 0.24 351 22:38 10.07.2020
108 Clouds 13 1021 62 6000 1.2 247 22:19 10.07.2020
109 Clouds 14 1021 58 8000 1 190 21:39 10.07.2020
110 Clouds 14 1021 58 8000 1 190 21:20 10.07.2020
111 Clouds 13 1021 62 7000 0.5 180 20:57 10.07.2020
112 Clouds 13 1021 62 7000 0.5 180 20:38 10.07.2020
113 Clouds 13 1021 62 7000 0.5 180 20:38 10.07.2020
114 Clouds 13 1021 62 7000 0.5 180 20:19 10.07.2020
115 Clouds 12 1021 62 10000 1 240 19:56 10.07.2020
116 Clouds 12 1021 62 10000 1 240 19:38 10.07.2020
117 Clouds 12 1021 62 10000 1 240 19:18 10.07.2020
118 Clouds 12 1022 66 10000 2.6 190 18:41 10.07.2020
119 Clouds 12 1022 66 10000 2.6 190 18:19 10.07.2020
120 Clouds 11 1022 71 10000 1 360 17:55 10.07.2020
121 Clouds 11 1022 71 10000 1 360 17:37 10.07.2020
122 Clouds 11 1022 71 10000 1 360 17:37 10.07.2020
123 Clouds 11 1022 71 10000 1 360 17:18 10.07.2020
124 Clouds 10 1022 71 10000 1 180 16:41 10.07.2020
125 Clouds 10 1022 71 10000 1 180 16:20 10.07.2020
126 Clouds 8 1022 75 10000 1 60 15:44 10.07.2020
127 Clouds 8 1022 75 10000 1 60 15:22 10.07.2020
128 Clouds 8 1021 87 10000 1.5 270 14:55 10.07.2020
129 Clouds 8 1021 87 10000 1.5 270 14:55 10.07.2020
130 Clouds 8 1021 87 10000 1.5 270 14:37 10.07.2020
131 Clouds 8 1021 87 10000 1.5 270 14:18 10.07.2020
132 Clouds 7 1021 87 6000 3.1 20 13:56 10.07.2020
133 Clouds 7 1021 87 6000 3.1 20 13:37 10.07.2020
134 Clouds 7 1021 87 6000 3.1 20 13:19 10.07.2020
135 Clouds 7 1021 87 6000 1.5 270 12:43 10.07.2020
136 Clouds 7 1021 87 6000 1.5 270 12:24 10.07.2020
137 Clouds 8 1020 87 7000 1.5 200 11:59 10.07.2020
138 Clouds 8 1020 87 7000 1.5 200 11:38 10.07.2020
139 Clouds 8 1020 87 7000 1.5 200 11:19 10.07.2020
140 Clouds 8 1020 81 7000 1.5 0 10:55 10.07.2020
141 Clouds 7 1020 93 6000 1.5 350 10:36 10.07.2020
142 Clouds 7 1020 93 6000 1.5 350 10:18 10.07.2020
143 Clouds 7 1020 93 6000 1.5 350 09:37 10.07.2020
144 Clouds 7 1020 93 6000 1.5 350 09:19 10.07.2020
145 Mist 7 1020 93 5000 2.6 30 08:57 10.07.2020
146 Clouds 7 1020 93 6000 1.5 10 08:38 10.07.2020
147 Clouds 7 1020 93 6000 1.5 10 08:20 10.07.2020
148 Clouds 8 1021 87 7000 2.1 50 07:42 10.07.2020
149 Clouds 8 1021 87 7000 2.1 50 07:22 10.07.2020
150 Clouds 8 1020 87 8000 2.1 320 06:49 10.07.2020
151 Clouds 8 1020 87 8000 1 0 05:58 10.07.2020
152 Clouds 9 1019 87 8000 2.1 280 04:39 10.07.2020
153 Clouds 11 1020 76 8000 2.1 130 03:37 10.07.2020
154 Clear 11 1020 76 10000 1 0 02:52 10.07.2020
155 Clouds 11 1019 76 10000 2.1 20 01:49 10.07.2020
156 Clouds 14 1021 58 10000 0.55 96 00:48 10.07.2020
157 Clouds 14 1021 58 10000 0.74 55 00:20 10.07.2020
158 Clouds 16 1021 48 10000 0.74 55 23:46 09.07.2020
159 Clouds 16 1021 48 10000 0.4 46 23:22 09.07.2020
160 Clouds 16 1021 44 10000 1.5 260 22:58 09.07.2020
161 Clouds 16 1021 44 10000 1.5 260 22:40 09.07.2020
162 Clouds 16 1021 44 10000 1.5 260 22:21 09.07.2020
163 Clouds 16 1022 41 10000 1.39 241 21:56 09.07.2020
164 Clouds 16 1022 41 10000 1.39 241 21:38 09.07.2020
165 Clouds 16 1022 41 10000 1.39 241 21:38 09.07.2020
166 Clouds 16 1022 41 10000 0.24 254 21:19 09.07.2020
167 Clouds 15 1022 47 10000 1 230 20:45 09.07.2020
168 Clouds 15 1022 47 10000 1 230 20:25 09.07.2020
169 Clouds 14 1023 54 10000 1 270 19:58 09.07.2020
170 Clouds 14 1023 54 10000 1 270 19:40 09.07.2020
171 Clouds 14 1023 54 10000 1 270 19:21 09.07.2020
172 Clouds 12 1023 62 10000 1.5 250 18:42 09.07.2020
173 Clouds 12 1023 62 10000 1.5 250 18:22 09.07.2020
174 Clouds 12 1023 62 10000 1.5 250 18:22 09.07.2020
175 Clouds 11 1024 66 10000 0.1 11 17:55 09.07.2020
176 Clouds 11 1024 66 10000 0.1 11 17:37 09.07.2020
177 Clouds 11 1024 66 10000 0.63 221 17:18 09.07.2020
178 Clouds 9 1024 76 10000 2.1 230 16:55 09.07.2020
179 Clouds 9 1024 76 10000 2.1 230 16:37 09.07.2020
180 Clouds 9 1024 76 10000 2.1 230 16:18 09.07.2020
181 Clouds 8 1024 87 10000 1 50 15:46 09.07.2020
182 Clouds 8 1024 87 10000 1 50 15:28 09.07.2020
183 Clouds 9 1023 71 10000 0.45 97 14:59 09.07.2020
184 Clouds 9 1023 71 10000 0.45 97 14:41 09.07.2020
185 Clouds 9 1023 71 10000 0.78 62 14:23 09.07.2020
186 Mist 7 1023 93 5000 1.5 180 13:59 09.07.2020
187 Mist 7 1023 93 5000 1.5 180 13:41 09.07.2020
188 Mist 7 1023 93 5000 1.5 180 13:20 09.07.2020
189 Clouds 7 1022 93 6000 1 0 12:57 09.07.2020
190 Clouds 7 1022 93 6000 1 0 12:38 09.07.2020
191 Clouds 7 1022 93 6000 1 0 12:20 09.07.2020
192 Clouds 7 1022 93 6000 1 0 11:44 09.07.2020
193 Clouds 7 1022 93 6000 1 0 11:26 09.07.2020
194 Clouds 7 1023 93 7000 1 0 10:59 09.07.2020
195 Clouds 7 1023 93 7000 1 0 10:41 09.07.2020
196 Clouds 7 1023 93 7000 1 0 10:23 09.07.2020
197 Clouds 7 1023 93 7000 1.5 50 09:58 09.07.2020
198 Clouds 7 1023 93 7000 1.5 50 09:39 09.07.2020
199 Clouds 7 1023 93 7000 1.5 50 09:21 09.07.2020
200 Clouds 7 1023 93 8000 1.25 56 08:43 09.07.2020
201 Clouds 7 1023 93 8000 1.37 51 08:24 09.07.2020
202 Clouds 7 1024 93 10000 1 0 07:47 09.07.2020
203 Clouds 7 1024 93 10000 1 0 07:22 09.07.2020
204 Clouds 7 1024 93 10000 1 290 06:50 09.07.2020
205 Clouds 7 1024 93 10000 1 290 06:19 09.07.2020
206 Clouds 8 1024 87 8000 0.5 0 04:29 09.07.2020
207 Clouds 9 1024 81 10000 1 0 03:32 09.07.2020
208 Clouds 10 1024 76 10000 0.69 96 02:19 09.07.2020
209 Clouds 11 1024 62 10000 0.69 96 01:32 09.07.2020
210 Clouds 12 1024 62 10000 0.88 70 00:47 09.07.2020
211 Clouds 12 1024 62 10000 0.28 176 00:23 09.07.2020
212 Clouds 13 1024 58 10000 1.5 210 23:46 08.07.2020
213 Clouds 13 1024 58 10000 1.5 210 23:27 08.07.2020
214 Clouds 13 1024 58 10000 1.5 180 22:58 08.07.2020
215 Clouds 13 1024 58 10000 1.5 180 22:39 08.07.2020
216 Clouds 13 1024 58 10000 1.5 180 22:21 08.07.2020
217 Clouds 13 1025 58 10000 1.5 180 21:58 08.07.2020
218 Clouds 13 1025 58 10000 1.5 180 21:58 08.07.2020
219 Clouds 13 1025 58 10000 1.5 180 21:58 08.07.2020
220 Clouds 13 1025 58 10000 1.5 180 21:38 08.07.2020
221 Clouds 13 1025 58 10000 1.5 180 21:20 08.07.2020
222 Clouds 12 1026 66 7000 1.5 180 20:54 08.07.2020
223 Clouds 12 1026 66 7000 1.5 180 20:36 08.07.2020
224 Clouds 12 1026 66 7000 1.5 180 20:18 08.07.2020
225 Clouds 10 1026 71 6000 1.5 210 19:42 08.07.2020
226 Clouds 10 1026 71 6000 1.5 210 19:22 08.07.2020
227 Clouds 10 1027 76 6000 1.56 13 18:57 08.07.2020
228 Clouds 10 1027 76 6000 1.56 13 18:38 08.07.2020
229 Clouds 10 1027 76 6000 1.07 337 18:19 08.07.2020
230 Clouds 10 1027 76 6000 1.07 337 18:19 08.07.2020
231 Clouds 8 1027 87 6000 1.5 180 17:55 08.07.2020
232 Clouds 8 1027 87 6000 1.5 180 17:37 08.07.2020
233 Clouds 8 1027 87 6000 1.5 180 17:18 08.07.2020
234 Drizzle 7 1026 93 6000 0.66 32 16:39 08.07.2020
235 Drizzle 7 1026 93 6000 1.82 307 16:20 08.07.2020
236 Haze 7 1027 87 5000 1.82 307 15:58 08.07.2020
237 Haze 7 1027 87 5000 1.82 307 15:40 08.07.2020
238 Haze 7 1027 87 5000 3.47 10 15:19 08.07.2020
239 Haze 9 1025 76 5000 2.1 240 14:48 08.07.2020
240 Haze 9 1025 76 5000 2.1 240 14:29 08.07.2020
241 Clouds 9 1023 76 10000 4.1 130 13:58 08.07.2020
242 Clouds 9 1023 76 10000 4.1 130 13:58 08.07.2020
243 Clouds 9 1023 76 10000 4.1 130 13:40 08.07.2020
244 Clouds 9 1023 76 10000 4.1 130 13:22 08.07.2020
245 Rain 8 1022 81 10000 3.1 250 12:44 08.07.2020
246 Rain 8 1022 81 10000 3.1 250 12:21 08.07.2020
247 Rain 8 1022 81 10000 2.6 20 11:57 08.07.2020
248 Rain 8 1022 81 10000 2.6 20 11:38 08.07.2020
249 Clouds 8 1022 81 10000 2.6 20 11:20 08.07.2020
250 Clouds 8 1022 81 10000 2.6 20 11:20 08.07.2020
251 Clouds 8 1023 87 9000 1.5 170 10:44 08.07.2020
252 Clouds 8 1023 87 9000 1.5 170 10:26 08.07.2020
253 Clouds 8 1023 87 8000 2.1 240 09:47 08.07.2020
254 Clouds 8 1023 87 8000 2.1 240 09:26 08.07.2020
255 Clouds 8 1023 87 7000 1.5 160 08:58 08.07.2020
256 Clouds 8 1023 87 7000 1.5 160 08:39 08.07.2020
257 Clouds 8 1023 87 7000 1.5 160 08:20 08.07.2020
258 Clouds 8 1023 87 7000 1.5 160 08:20 08.07.2020
259 Clouds 8 1023 87 8000 3.1 90 07:46 08.07.2020
260 Clouds 8 1023 87 8000 3.1 90 07:22 08.07.2020
261 Clouds 9 1023 76 10000 1 250 06:53 08.07.2020
262 Clouds 9 1023 76 10000 1 250 06:32 08.07.2020
263 Clouds 8 1023 81 8000 1 0 05:54 08.07.2020
264 Clouds 8 1023 81 8000 1 0 05:18 08.07.2020
265 Clouds 8 1024 87 8000 1.5 10 04:20 08.07.2020
266 Clouds 10 1024 76 10000 1.24 65 02:20 08.07.2020
267 Clouds 11 1024 66 10000 2.1 150 01:44 08.07.2020
268 Clouds 11 1024 62 7000 1 230 00:59 08.07.2020
269 Clouds 11 1024 62 7000 1 230 00:22 08.07.2020
270 Clouds 12 1024 54 6000 2.1 220 23:45 07.07.2020
271 Clouds 12 1024 54 6000 2.1 220 23:24 07.07.2020
272 Haze 12 1023 46 5000 1 230 22:59 07.07.2020
273 Haze 12 1023 46 5000 1 230 22:41 07.07.2020
274 Haze 12 1023 46 5000 1 230 22:21 07.07.2020
275 Clouds 12 1023 50 6000 1 250 21:59 07.07.2020
276 Clouds 12 1023 50 6000 1 250 21:39 07.07.2020
277 Clouds 12 1023 50 6000 1 250 21:21 07.07.2020
278 Haze 12 1023 62 5000 1.5 270 20:56 07.07.2020
279 Haze 12 1023 62 5000 1.5 270 20:37 07.07.2020
280 Haze 12 1023 62 5000 1.5 270 20:19 07.07.2020
281 Clouds 11 1023 62 6000 1.5 270 19:39 07.07.2020
282 Clouds 11 1023 62 6000 1.5 270 19:21 07.07.2020
283 Clouds 10 1023 66 7000 1 50 18:56 07.07.2020
284 Clouds 10 1023 66 7000 1 50 18:38 07.07.2020
285 Clouds 10 1023 66 7000 1 50 18:19 07.07.2020
286 Clouds 8 1023 75 7000 1 200 17:57 07.07.2020
287 Clouds 8 1023 75 7000 1 200 17:38 07.07.2020
288 Clouds 8 1023 75 7000 1 200 17:20 07.07.2020
289 Clouds 8 1023 75 7000 1 100 16:43 07.07.2020
290 Clouds 8 1023 75 7000 1 100 16:23 07.07.2020
291 Clouds 6 1022 93 7000 1.5 100 15:57 07.07.2020
292 Clouds 6 1022 93 7000 1.5 100 15:38 07.07.2020
293 Clouds 6 1022 93 7000 1.5 100 15:20 07.07.2020
294 Clouds 6 1022 81 7000 1 50 14:46 07.07.2020
295 Clouds 6 1022 81 7000 1 50 14:25 07.07.2020
296 Mist 5 1021 100 5000 1 0 13:46 07.07.2020
297 Mist 5 1020 93 5000 1 0 13:22 07.07.2020
298 Mist 5 1019 100 5000 1 0 12:59 07.07.2020
299 Mist 5 1019 100 5000 1 0 12:40 07.07.2020
300 Mist 5 1019 100 5000 1 0 12:22 07.07.2020
301 Clouds 5 1019 93 6000 0.52 12 11:49 07.07.2020
302 Clouds 5 1019 93 6000 0.8 39 11:25 07.07.2020
303 Clouds 6 1019 93 6000 2.1 270 10:59 07.07.2020
304 Clouds 6 1019 93 6000 2.1 270 10:41 07.07.2020
305 Clouds 6 1019 93 6000 2.1 270 10:21 07.07.2020
306 Clouds 5 1018 93 7000 1.5 70 09:55 07.07.2020
307 Clouds 5 1018 93 7000 1.5 70 09:37 07.07.2020
308 Rain 5 1018 93 7000 1.5 70 09:18 07.07.2020
309 Rain 5 1018 100 6000 1.5 90 08:41 07.07.2020
310 Clouds 5 1018 100 6000 1.5 90 08:22 07.07.2020
311 Clouds 6 1018 93 7000 2.1 260 07:42 07.07.2020
312 Clouds 6 1018 93 7000 2.1 260 07:22 07.07.2020
313 Clouds 8 1017 87 9000 1 260 06:49 07.07.2020
314 Clouds 8 1017 87 9000 1 260 06:28 07.07.2020
315 Clouds 7 1017 93 8000 1 0 05:51 07.07.2020
316 Clouds 8 1017 87 7000 2.6 180 05:22 07.07.2020
317 Clouds 8 1016 87 8000 1 0 04:38 07.07.2020
318 Clouds 10 1016 76 8000 1 0 03:35 07.07.2020
319 Clouds 10 1015 81 8000 1 0 02:21 07.07.2020
320 Clouds 11 1015 66 10000 1 230 01:22 07.07.2020
321 Clouds 11 1015 66 10000 1 230 00:42 07.07.2020
322 Clouds 11 1015 66 10000 1 230 00:24 07.07.2020
323 Clouds 12 1015 58 10000 1.5 260 23:46 06.07.2020
324 Clouds 12 1015 58 10000 1.5 260 23:26 06.07.2020
325 Clouds 12 1015 62 10000 1 260 22:59 06.07.2020
326 Clouds 12 1015 62 10000 1 260 22:40 06.07.2020
327 Clouds 12 1015 62 10000 1 260 22:19 06.07.2020
328 Clouds 12 1015 62 10000 1 240 21:57 06.07.2020
329 Clouds 12 1015 62 10000 1 240 21:38 06.07.2020
330 Clouds 12 1015 62 10000 1 240 21:19 06.07.2020
331 Clouds 12 1015 62 10000 1.5 210 20:57 06.07.2020
332 Clouds 12 1015 62 10000 1.5 210 20:37 06.07.2020
333 Clouds 12 1015 62 10000 1.5 210 20:19 06.07.2020
334 Clouds 11 1015 66 10000 1 240 19:56 06.07.2020
335 Clouds 11 1015 66 10000 1 240 19:37 06.07.2020
336 Clouds 11 1015 66 10000 1 240 19:18 06.07.2020
337 Clouds 10 1015 71 10000 1 230 18:41 06.07.2020
338 Clouds 10 1015 71 10000 1 230 18:23 06.07.2020
339 Clouds 9 1017 76 10000 1.5 200 17:59 06.07.2020
340 Clouds 9 1017 76 10000 1.5 200 17:40 06.07.2020
341 Clouds 9 1017 76 10000 1.5 200 17:20 06.07.2020
342 Clouds 9 1016 87 8000 2.1 190 16:44 06.07.2020
343 Clouds 7 1016 87 10000 1 180 16:25 06.07.2020
344 Clouds 8 1016 87 10000 1 180 15:59 06.07.2020
345 Clouds 7 1016 87 10000 1 180 15:41 06.07.2020
346 Clouds 7 1016 87 10000 1 180 15:23 06.07.2020
347 Clouds 6 1016 93 10000 1 180 14:55 06.07.2020
348 Clouds 6 1016 93 10000 1 180 14:37 06.07.2020
349 Clouds 6 1016 93 10000 1 180 14:37 06.07.2020
350 Clouds 6 1016 93 10000 1 180 14:18 06.07.2020
351 Clouds 7 1016 93 8000 1 0 13:44 06.07.2020
352 Clouds 7 1016 93 8000 1 0 13:24 06.07.2020
353 Clouds 7 1016 93 10000 2.6 260 12:56 06.07.2020
354 Clouds 7 1016 93 10000 2.6 260 12:38 06.07.2020
355 Clouds 7 1016 93 10000 2.6 260 12:18 06.07.2020
356 Clouds 7 1016 93 10000 0.5 0 11:42 06.07.2020
357 Clouds 7 1016 93 10000 0.5 0 11:24 06.07.2020
358 Clouds 7 1016 93 10000 2.1 120 10:59 06.07.2020
359 Clouds 7 1016 93 10000 2.1 120 10:41 06.07.2020
360 Clouds 7 1016 93 10000 2.1 120 10:21 06.07.2020
361 Clouds 7 1017 93 10000 0.5 0 09:55 06.07.2020
362 Clouds 7 1017 93 10000 0.5 0 09:37 06.07.2020
363 Clouds 7 1017 93 10000 0.5 0 09:18 06.07.2020
364 Clouds 8 1017 93 10000 0.5 0 08:40 06.07.2020
365 Clouds 8 1017 93 10000 0.5 0 08:22 06.07.2020
366 Clouds 9 1018 81 10000 0.5 0 07:53 06.07.2020
367 Clouds 9 1018 81 10000 0.5 0 07:31 06.07.2020
368 Clouds 9 1019 81 10000 1.5 160 06:56 06.07.2020
369 Clouds 9 1019 81 10000 1.5 160 06:37 06.07.2020
370 Clouds 9 1019 81 10000 1.5 180 05:55 06.07.2020
371 Clouds 9 1019 81 10000 1.5 180 05:28 06.07.2020
372 Clouds 10 1019 76 10000 2.6 150 04:33 06.07.2020
373 Clouds 10 1019 81 10000 2.1 170 02:44 06.07.2020
374 Clouds 11 1019 76 10000 2.1 220 01:59 06.07.2020
375 Clouds 11 1020 66 10000 0.29 214 00:51 06.07.2020
376 Clouds 11 1020 66 10000 1.11 237 00:25 06.07.2020
377 Clouds 11 1020 57 10000 1.11 237 23:58 05.07.2020
378 Clouds 11 1020 57 10000 1.11 237 23:39 05.07.2020
379 Clouds 11 1020 57 10000 1.46 239 23:21 05.07.2020
380 Clouds 12 1020 58 10000 1.46 239 22:57 05.07.2020
381 Clouds 12 1020 58 10000 1.46 239 22:37 05.07.2020
382 Clouds 12 1020 58 10000 1.45 227 22:18 05.07.2020
383 Clouds 12 1020 58 10000 1.45 227 21:41 05.07.2020
384 Clouds 12 1020 58 10000 1.66 236 21:19 05.07.2020
385 Clouds 11 1020 66 10000 2.1 190 20:59 05.07.2020
386 Clouds 11 1020 66 10000 2.1 190 20:41 05.07.2020
387 Clouds 11 1020 66 10000 2.1 190 20:22 05.07.2020
388 Clouds 10 1022 66 10000 1.37 211 19:57 05.07.2020
389 Clouds 11 1022 66 10000 1.37 211 19:39 05.07.2020
390 Clouds 10 1022 66 10000 1.28 219 19:19 05.07.2020
391 Clouds 9 1023 76 10000 1.5 0 18:42 05.07.2020
392 Clouds 9 1023 76 10000 1.5 0 18:23 05.07.2020
393 Clouds 8 1023 75 10000 0.93 258 17:58 05.07.2020
394 Clouds 8 1023 75 10000 0.93 258 17:39 05.07.2020
395 Clouds 8 1023 75 10000 0.65 271 17:19 05.07.2020
396 Clouds 8 1023 75 10000 0.65 271 17:19 05.07.2020
397 Clouds 6 1023 93 10000 0.65 271 16:44 05.07.2020
398 Clouds 6 1023 93 10000 0.31 349 16:25 05.07.2020
399 Clouds 4 1023 93 10000 0.31 349 15:58 05.07.2020
400 Clouds 4 1023 93 10000 0.31 349 15:38 05.07.2020
401 Clouds 4 1023 93 10000 1.16 92 15:19 05.07.2020
402 Clouds 6 1022 81 10000 1.16 92 14:42 05.07.2020
403 Clouds 5 1022 81 10000 1.4 75 14:23 05.07.2020
404 Fog 4 1022 100 2000 1.5 10 13:54 05.07.2020
405 Mist 5 1022 100 5000 1 0 13:36 05.07.2020
406 Mist 5 1022 100 5000 1 0 13:18 05.07.2020
407 Mist 4 1021 100 5000 0.5 0 12:38 05.07.2020
408 Mist 4 1021 100 5000 0.5 0 12:20 05.07.2020
409 Rain 5 1021 100 10000 2.1 240 11:55 05.07.2020
410 Rain 5 1021 100 10000 2.1 240 11:55 05.07.2020
411 Rain 6 1021 100 10000 2.1 240 11:36 05.07.2020
412 Rain 5 1021 100 10000 2.1 240 11:18 05.07.2020
413 Rain 6 1021 93 10000 0.5 0 10:42 05.07.2020
414 Rain 6 1021 93 10000 0.5 0 10:20 05.07.2020
415 Rain 6 1022 93 10000 2.1 50 09:59 05.07.2020
416 Rain 6 1022 93 10000 2.1 50 09:40 05.07.2020
417 Rain 6 1022 93 10000 2.1 50 09:20 05.07.2020
418 Rain 7 1021 87 10000 1.5 340 08:51 05.07.2020
419 Rain 7 1021 87 10000 1.5 340 08:33 05.07.2020
420 Rain 7 1021 87 10000 1.5 340 07:49 05.07.2020
421 Rain 7 1021 87 10000 1.5 340 07:30 05.07.2020
422 Rain 7 1021 81 10000 1 0 06:53 05.07.2020
423 Clouds 7 1021 81 10000 3.1 30 05:48 05.07.2020
424 Rain 7 1020 87 10000 6.7 10 03:37 05.07.2020
425 Rain 8 1019 81 8000 6.7 360 02:46 05.07.2020
426 Rain 8 1019 81 8000 6.7 360 02:28 05.07.2020
427 Rain 8 1018 87 10000 4.1 320 01:41 05.07.2020
428 Clouds 9 1017 61 10000 5.7 30 01:20 05.07.2020
429 Clouds 8 1017 61 10000 5.7 30 00:41 05.07.2020
430 Clouds 8 1017 61 10000 5.7 30 00:23 05.07.2020
431 Clouds 8 1017 66 8000 4.1 360 23:48 04.07.2020
432 Clouds 8 1017 66 8000 4.1 360 23:30 04.07.2020
433 Rain 6 1016 87 4000 2.1 10 22:57 04.07.2020
434 Rain 6 1016 87 4000 2.1 10 22:38 04.07.2020
435 Rain 6 1016 87 4000 2.1 10 22:20 04.07.2020
436 Rain 5 1016 93 4000 2.1 30 21:43 04.07.2020
437 Rain 5 1016 93 4000 2.1 30 21:23 04.07.2020
438 Rain 5 1017 93 3000 0.5 270 20:59 04.07.2020
439 Rain 5 1017 93 3000 0.5 270 20:41 04.07.2020
440 Rain 5 1017 93 3000 0.5 270 20:20 04.07.2020
441 Rain 5 1016 93 4000 1.5 350 19:45 04.07.2020
442 Rain 6 1016 87 3000 2.1 170 19:22 04.07.2020
443 Rain 6 1016 87 3000 2.1 170 18:59 04.07.2020
444 Rain 6 1016 87 3000 2.1 170 18:41 04.07.2020
445 Rain 6 1015 100 3000 1.5 210 18:21 04.07.2020
446 Rain 7 1015 100 3000 1.5 210 17:44 04.07.2020
447 Rain 7 1015 100 3000 1.5 210 17:26 04.07.2020
448 Rain 8 1014 93 4000 1.5 330 16:58 04.07.2020
449 Rain 8 1014 93 4000 1.5 330 16:38 04.07.2020
450 Rain 8 1014 93 4000 1.5 330 16:20 04.07.2020
451 Rain 9 1014 87 4000 3.1 240 15:55 04.07.2020
452 Rain 9 1014 87 4000 3.1 240 15:37 04.07.2020
453 Rain 9 1014 87 4000 3.1 240 15:18 04.07.2020
454 Clouds 9 1012 81 8000 1.5 180 14:38 04.07.2020
455 Clouds 9 1012 81 8000 1.5 180 14:19 04.07.2020
456 Clouds 8 1011 87 7000 2.1 260 13:59 04.07.2020
457 Clouds 8 1011 87 7000 2.1 260 13:40 04.07.2020
458 Clouds 8 1011 87 7000 2.1 260 13:18 04.07.2020
459 Clouds 8 1011 87 7000 2.1 260 13:18 04.07.2020
460 Rain 8 1012 93 8000 2.1 190 12:43 04.07.2020
461 Rain 8 1012 93 8000 2.1 190 12:21 04.07.2020
462 Rain 8 1013 93 7000 2.1 180 11:56 04.07.2020
463 Rain 8 1013 93 7000 2.1 180 11:38 04.07.2020
464 Rain 8 1013 93 7000 2.1 180 11:19 04.07.2020
465 Rain 10 1014 81 9000 1.5 0 10:42 04.07.2020
466 Rain 10 1014 81 9000 1.5 0 10:22 04.07.2020
467 Rain 8 1015 93 8000 1 360 09:59 04.07.2020
468 Rain 8 1015 93 8000 1 360 09:38 04.07.2020
469 Rain 9 1015 93 8000 1 360 09:20 04.07.2020
470 Rain 9 1015 87 8000 0.38 64 08:48 04.07.2020
471 Rain 9 1015 87 8000 0.38 64 08:30 04.07.2020
472 Rain 9 1015 87 10000 3.1 20 07:50 04.07.2020
473 Rain 9 1015 87 10000 3.1 20 07:31 04.07.2020
474 Rain 8 1016 87 10000 3.1 30 06:56 04.07.2020
475 Clouds 8 1016 87 10000 3.1 30 06:23 04.07.2020
476 Clouds 8 1016 87 8000 1 0 05:36 04.07.2020
477 Clouds 9 1016 87 10000 2.1 240 04:50 04.07.2020
478 Clouds 11 1016 76 10000 2.6 140 03:18 04.07.2020
479 Clouds 11 1016 76 10000 4.6 140 02:26 04.07.2020
480 Clouds 13 1017 47 10000 3.1 200 01:35 04.07.2020
481 Clouds 14 1017 47 10000 3.1 200 00:44 04.07.2020
482 Clouds 13 1017 47 10000 3.1 200 00:25 04.07.2020
483 Clouds 16 1016 47 10000 2.6 230 23:41 03.07.2020
484 Clouds 16 1016 42 10000 2.6 230 23:19 03.07.2020
485 Clouds 17 1016 36 10000 2.1 260 22:58 03.07.2020
486 Clouds 17 1016 36 10000 2.1 260 22:39 03.07.2020
487 Clouds 17 1016 36 10000 2.1 260 22:21 03.07.2020
488 Clouds 17 1016 39 10000 1.5 230 21:43 03.07.2020
489 Clouds 17 1016 39 10000 1.5 230 21:20 03.07.2020
490 Clouds 16 1017 51 6000 2.1 250 20:56 03.07.2020
491 Clouds 16 1017 51 6000 2.1 250 20:56 03.07.2020
492 Clouds 16 1017 51 6000 2.1 250 20:38 03.07.2020
493 Clear 16 1017 51 6000 2.1 250 20:20 03.07.2020
494 Clear 15 1014 40 0 1.52 266 19:41 03.07.2020
495 Clear 14 1018 58 10000 1 210 19:20 03.07.2020
496 Clear 14 1018 58 10000 1 210 18:57 03.07.2020
497 Clear 14 1018 58 10000 1 210 18:39 03.07.2020
498 Clear 11 1019 66 10000 1 280 18:20 03.07.2020
499 Clear 11 1019 66 10000 1 280 17:43 03.07.2020
500 Clear 11 1019 66 10000 1 280 17:22 03.07.2020
501 Clouds 8 1019 87 10000 1.01 272 16:46 03.07.2020
502 Clouds 8 1019 87 10000 0.78 283 16:28 03.07.2020
503 Clear 5 1019 93 10000 1 60 15:49 03.07.2020
504 Clear 5 1019 93 10000 1 60 15:26 03.07.2020
505 Clear 8 1019 71 10000 2.1 40 15:00 03.07.2020
506 Clear 8 1019 71 10000 2.1 40 14:41 03.07.2020
507 Clear 8 1019 71 10000 2.1 40 14:41 03.07.2020
508 Clouds 8 1019 71 10000 2.1 40 14:22 03.07.2020
509 Fog 5 1018 100 3000 1.5 80 13:56 03.07.2020
510 Mist 6 1018 100 3000 0.72 30 13:37 03.07.2020
511 Mist 6 1018 100 3000 0.89 26 13:19 03.07.2020
512 Fog 7 1018 100 1800 1 0 12:40 03.07.2020
513 Fog 7 1018 100 1800 1 0 12:21 03.07.2020
514 Fog 6 1017 100 1400 2.6 30 11:44 03.07.2020
515 Mist 6 1018 100 2100 2.1 40 11:25 03.07.2020
516 Mist 7 1018 100 2300 1.5 50 10:59 03.07.2020
517 Mist 7 1018 100 2100 1.63 44 10:40 03.07.2020
518 Mist 7 1018 100 2100 1.82 43 10:21 03.07.2020
519 Mist 8 1018 93 2800 1.5 10 09:57 03.07.2020
520 Mist 9 1018 93 2800 1.5 10 09:38 03.07.2020
521 Mist 7 1018 93 2800 1.5 10 09:18 03.07.2020
522 Mist 7 1018 100 4000 1 0 08:40 03.07.2020
523 Mist 7 1018 100 4000 1 0 08:19 03.07.2020
524 Mist 7 1018 100 4500 1 30 07:52 03.07.2020
525 Mist 9 1018 100 4500 1 30 07:28 03.07.2020
526 Mist 7 1019 100 4900 2.6 40 06:59 03.07.2020
527 Clouds 11 932 99 0 1.34 50 06:25 03.07.2020
528 Mist 10 1018 100 4000 1.5 310 05:28 03.07.2020
529 Clouds 11 1018 93 6000 2.1 270 03:54 03.07.2020
530 Clouds 13 1018 82 8000 1.5 150 02:50 03.07.2020
531 Clouds 13 1018 82 8000 1.5 150 02:30 03.07.2020
532 Clouds 15 1018 59 7000 1.3 70 01:30 03.07.2020
533 Clouds 16 1018 59 7000 1.94 59 00:58 03.07.2020
534 Clouds 16 1018 59 7000 1.94 59 00:39 03.07.2020
535 Clouds 17 1018 51 7000 0.77 57 23:53 02.07.2020
536 Clouds 17 1018 51 7000 0.42 256 23:21 02.07.2020
537 Clouds 17 1018 55 10000 0.42 256 22:59 02.07.2020
538 Clouds 17 1018 55 10000 0.42 256 22:41 02.07.2020
539 Clouds 17 1018 55 10000 0.7 246 22:21 02.07.2020
540 Clouds 17 1018 51 10000 0.7 246 21:58 02.07.2020
541 Clouds 17 1018 51 10000 0.7 246 21:39 02.07.2020
542 Clouds 17 1018 51 10000 0.79 254 21:19 02.07.2020
543 Clouds 15 1019 59 10000 0.79 254 20:58 02.07.2020
544 Clouds 15 1019 59 10000 0.79 254 20:39 02.07.2020
545 Clouds 15 1019 59 10000 1.06 242 20:19 02.07.2020
546 Clouds 15 1020 58 10000 1.06 242 19:42 02.07.2020
547 Clouds 14 1020 58 10000 0.73 227 19:24 02.07.2020
548 Clouds 12 1021 66 10000 1.5 210 18:58 02.07.2020
549 Clouds 12 1021 66 10000 1.5 210 18:40 02.07.2020
550 Clouds 12 1021 66 10000 1.5 210 18:21 02.07.2020
551 Clouds 9 1021 76 10000 0.4 237 17:55 02.07.2020
552 Clouds 10 1021 76 10000 0.4 237 17:36 02.07.2020
553 Clouds 10 1021 76 10000 0.09 220 17:18 02.07.2020
554 Clouds 8 1022 87 10000 0.09 220 16:41 02.07.2020
555 Clouds 7 1022 87 10000 0.34 65 16:20 02.07.2020
556 Clouds 4 1021 100 10000 0.34 65 15:57 02.07.2020
557 Clouds 6 1021 100 10000 0.34 65 15:38 02.07.2020
558 Clouds 6 1021 100 10000 0.34 65 15:38 02.07.2020
559 Clouds 4 1021 100 10000 1.4 60 15:19 02.07.2020
560 Clouds 7 1022 71 10000 1.4 60 14:45 02.07.2020
561 Clouds 7 1022 71 10000 1.32 62 14:23 02.07.2020
562 Fog 5 1022 100 300 1.5 250 13:57 02.07.2020
563 Fog 5 1022 100 300 1.5 250 13:38 02.07.2020
564 Fog 5 1022 100 300 1.5 250 13:18 02.07.2020
565 Fog 6 1021 100 300 1.5 90 12:41 02.07.2020
566 Fog 6 1021 100 300 1.5 90 12:22 02.07.2020
567 Fog 5 1021 100 300 1 210 11:59 02.07.2020
568 Fog 5 1021 100 300 1 0 11:40 02.07.2020
569 Fog 6 1021 100 300 1 0 11:22 02.07.2020
570 Fog 4 1021 100 400 1 0 10:44 02.07.2020
571 Fog 6 1021 100 800 0.5 0 10:26 02.07.2020
572 Fog 6 1021 100 400 2.2 58 09:56 02.07.2020
573 Fog 6 1021 100 700 0.5 20 09:37 02.07.2020
574 Fog 7 1021 100 700 0.5 20 09:18 02.07.2020
575 Fog 6 1021 100 450 1 60 08:42 02.07.2020
576 Fog 7 1022 100 600 1 20 08:22 02.07.2020
577 Mist 7 1022 100 1700 0.5 0 07:43 02.07.2020
578 Mist 7 1022 100 1700 0.5 0 07:25 02.07.2020
579 Fog 8 1022 100 2600 1.5 350 06:53 02.07.2020
580 Mist 7 1021 100 5000 2.1 60 06:35 02.07.2020
581 Mist 8 1021 100 5000 1 0 05:50 02.07.2020
582 Mist 8 1021 100 5000 1 0 05:29 02.07.2020
583 Clouds 10 1021 100 8000 2.6 10 03:35 02.07.2020
584 Clouds 11 1021 76 10000 1.5 240 01:53 02.07.2020
585 Clouds 11 1021 71 10000 1 220 00:46 02.07.2020
586 Clouds 12 1021 71 10000 1 220 00:22 02.07.2020
587 Clouds 13 1021 66 10000 1.5 270 23:45 01.07.2020
588 Clouds 13 1021 66 10000 1.5 270 23:26 01.07.2020
589 Clouds 13 1021 76 10000 2.1 220 22:56 01.07.2020
590 Clouds 13 1021 76 10000 2.1 220 22:38 01.07.2020
591 Clouds 13 1021 76 10000 2.1 220 22:19 01.07.2020
592 Clouds 13 1021 71 10000 1 180 21:58 01.07.2020
593 Clouds 13 1021 71 10000 1 180 21:39 01.07.2020
594 Clouds 13 1021 71 10000 1 180 21:20 01.07.2020
595 Clouds 12 1021 81 10000 1.5 180 20:47 01.07.2020
596 Clouds 12 1021 81 10000 1.5 180 20:29 01.07.2020
597 Clouds 11 1022 87 10000 1 50 19:58 01.07.2020
598 Clouds 11 1022 87 10000 1 50 19:40 01.07.2020
599 Clouds 11 1022 87 10000 1 50 19:21 01.07.2020
600 Clouds 10 1022 87 10000 1 270 18:58 01.07.2020
601 Clouds 11 1022 87 10000 1 270 18:40 01.07.2020
602 Clouds 10 1022 87 10000 1 270 18:21 01.07.2020
603 Clouds 9 1023 93 10000 1 200 17:55 01.07.2020
604 Clouds 9 1023 93 10000 1 200 17:55 01.07.2020
605 Clouds 10 1023 93 10000 1 200 17:37 01.07.2020
606 Clouds 9 1023 93 10000 1 200 17:18 01.07.2020
607 Rain 9 1023 93 7000 2.6 90 16:42 01.07.2020
608 Rain 9 1023 93 7000 2.6 90 16:23 01.07.2020
609 Rain 9 1023 87 8000 2.1 180 15:43 01.07.2020
610 Rain 9 1023 87 8000 2.1 180 15:23 01.07.2020
611 Rain 9 1023 81 7000 1 50 14:58 01.07.2020
612 Rain 9 1023 81 7000 1 50 14:38 01.07.2020
613 Rain 9 1023 81 7000 1 50 14:20 01.07.2020
614 Rain 8 1023 93 7000 1 0 13:54 01.07.2020
615 Rain 9 1022 93 10000 3.6 170 13:36 01.07.2020
616 Rain 10 1022 71 10000 3.6 220 13:18 01.07.2020
617 Rain 10 1022 71 10000 3.6 220 12:41 01.07.2020
618 Rain 10 1022 71 10000 3.6 220 12:23 01.07.2020
619 Rain 10 1022 71 10000 3.6 220 12:23 01.07.2020
620 Rain 11 1022 66 10000 3.1 0 11:58 01.07.2020
621 Rain 11 1022 66 10000 3.1 0 11:40 01.07.2020
622 Rain 11 1022 66 10000 3.1 0 11:21 01.07.2020
623 Rain 9 1022 81 10000 3.1 140 10:55 01.07.2020
624 Rain 9 1021 87 10000 3.1 120 10:36 01.07.2020
625 Rain 8 1021 87 10000 3.1 120 10:18 01.07.2020
626 Clouds 10 1021 81 10000 2.1 0 09:38 01.07.2020
627 Clouds 9 1021 81 10000 2.1 0 09:20 01.07.2020
628 Clouds 9 1021 87 10000 5.1 310 08:57 01.07.2020
629 Clouds 9 1022 81 10000 3.6 110 08:38 01.07.2020
630 Clouds 10 1022 81 10000 3.6 110 08:19 01.07.2020
631 Clouds 10 1022 81 10000 3.1 210 07:41 01.07.2020
632 Clouds 10 1022 81 10000 3.1 210 07:22 01.07.2020
633 Clouds 10 1021 81 10000 3.1 70 06:54 01.07.2020
634 Clouds 9 1021 81 10000 3.1 70 06:32 01.07.2020
635 Clouds 10 1021 81 10000 4.1 280 05:44 01.07.2020
636 Clouds 10 1022 76 10000 3.6 120 04:26 01.07.2020
637 Clouds 9 1021 87 10000 1.33 47 03:40 01.07.2020
638 Clouds 10 1021 87 10000 1.52 66 03:20 01.07.2020
639 Clouds 11 1021 71 10000 2.1 140 01:56 01.07.2020
640 Clouds 11 1022 66 10000 1.13 76 00:48 01.07.2020
641 Clouds 11 1022 66 10000 1.15 65 00:27 01.07.2020
642 Clouds 12 1021 58 10000 1.15 65 23:57 30.06.2020
643 Clouds 12 1021 58 10000 1.15 65 23:39 30.06.2020
644 Clouds 12 1021 58 10000 0.26 131 23:19 30.06.2020
645 Clouds 12 1022 58 10000 0.26 131 22:42 30.06.2020
646 Clouds 12 1022 58 10000 1.27 222 22:19 30.06.2020
647 Clouds 12 1022 62 10000 1 210 21:42 30.06.2020
648 Clouds 12 1022 62 10000 1 210 21:19 30.06.2020
649 Clouds 11 1024 62 10000 0.14 136 20:59 30.06.2020
650 Clouds 12 1024 62 10000 0.14 136 20:40 30.06.2020
651 Clouds 11 1024 62 10000 0.3 165 20:20 30.06.2020
652 Clouds 11 1024 66 10000 1 0 19:43 30.06.2020
653 Clouds 11 1024 66 10000 1 0 19:20 30.06.2020
654 Clouds 10 1025 66 10000 0.39 181 18:55 30.06.2020
655 Clouds 10 1025 66 10000 0.39 181 18:36 30.06.2020
656 Clouds 10 1025 66 10000 0.82 217 18:18 30.06.2020
657 Clouds 11 1025 58 10000 1.5 220 17:39 30.06.2020
658 Clouds 11 1025 58 10000 1.5 220 17:20 30.06.2020
659 Clouds 6 1025 81 10000 0.3 200 16:56 30.06.2020
660 Clouds 6 1025 81 10000 0.3 200 16:37 30.06.2020
661 Clouds 6 1025 81 10000 1.43 77 16:19 30.06.2020
662 Clouds 2 1025 100 10000 1.43 77 15:42 30.06.2020
663 Clear 2 1025 100 10000 2.18 74 15:22 30.06.2020
664 Clouds 5 1025 70 10000 1 0 14:58 30.06.2020
665 Clouds 5 1025 70 10000 1 0 14:40 30.06.2020
666 Clouds 5 1025 70 10000 1 0 14:21 30.06.2020
667 Mist 2 1025 100 5000 2.63 73 13:42 30.06.2020
668 Mist 4 1025 100 5000 2.39 73 13:21 30.06.2020
669 Clouds 4 1025 100 6000 1.5 240 12:59 30.06.2020
670 Clouds 3 1025 100 6000 1.5 240 12:41 30.06.2020
671 Clouds 3 1025 100 6000 1.5 240 12:23 30.06.2020
672 Clouds 4 1024 100 6000 1 0 11:59 30.06.2020
673 Clouds 3 1024 100 6000 1 0 11:39 30.06.2020
674 Clouds 3 1024 100 6000 1 0 11:20 30.06.2020
675 Clouds 3 1024 100 6000 1 0 11:20 30.06.2020
676 Clouds 3 1024 100 6000 1 0 11:20 30.06.2020
677 Clouds 4 1024 100 10000 2.21 59 10:59 30.06.2020
678 Clouds 8 1015 70 10000 0.67 322 16:45 28.06.2020
679 Clouds 8 1015 70 10000 0.92 5 16:26 28.06.2020
680 Clouds 8 1015 75 10000 0.92 5 15:58 28.06.2020
681 Clouds 8 1015 75 10000 0.92 5 15:39 28.06.2020
682 Clouds 8 1015 75 10000 0.8 15 15:20 28.06.2020
683 Clouds 7 1014 75 10000 1.5 90 14:55 28.06.2020
684 Clouds 7 1014 75 10000 1.5 90 14:37 28.06.2020
685 Clouds 7 1014 75 10000 1.5 90 14:19 28.06.2020
686 Haze 6 1013 93 5000 0.5 0 13:38 28.06.2020
687 Haze 6 1013 93 5000 0.5 0 13:20 28.06.2020
688 Mist 8 1013 93 4900 1 230 12:57 28.06.2020
689 Mist 8 1013 93 4900 1 230 12:37 28.06.2020
690 Mist 8 1013 93 4900 1 230 12:37 28.06.2020
691 Mist 6 1013 93 4900 1 230 12:19 28.06.2020
692 Mist 6 1014 93 4900 1.5 260 11:57 28.06.2020
693 Mist 6 1014 93 4900 1.5 260 11:57 28.06.2020
694 Mist 6 1014 93 5000 2.6 40 11:39 28.06.2020
695 Mist 6 1014 93 5000 2.6 40 11:20 28.06.2020
696 Mist 6 1014 93 5000 2.6 70 10:56 28.06.2020
697 Mist 8 1014 93 5000 2.6 70 10:38 28.06.2020
698 Mist 8 1014 93 5000 2.6 70 10:19 28.06.2020
699 Mist 9 1015 87 5000 0.5 0 09:40 28.06.2020
700 Mist 9 1015 87 5000 0.5 0 09:21 28.06.2020
701 Mist 9 1015 87 5000 2.1 40 08:48 28.06.2020
702 Mist 9 1015 87 5000 2.1 40 08:28 28.06.2020
703 Mist 9 1016 93 5000 2.1 340 07:50 28.06.2020
704 Mist 9 1016 93 5000 2.1 340 07:30 28.06.2020
705 Clouds 10 1015 87 6000 1.5 300 06:44 28.06.2020
706 Clouds 10 1015 87 6000 1.5 300 06:24 28.06.2020
707 Clouds 12 1015 71 6000 2.6 170 05:26 28.06.2020
708 Clouds 10 1014 87 7000 2.1 70 03:45 28.06.2020
709 Clouds 10 1013 87 8000 1.5 10 02:47 28.06.2020
710 Clouds 11 1014 81 8000 0.28 301 01:56 28.06.2020
711 Clouds 12 1015 62 10000 2.1 80 01:27 28.06.2020
712 Clouds 12 1015 62 10000 2.1 80 00:48 28.06.2020
713 Clouds 12 1015 62 10000 2.1 80 00:25 28.06.2020
714 Clouds 13 1014 58 10000 0.17 260 23:42 27.06.2020
715 Clouds 13 1014 58 10000 0.52 304 23:24 27.06.2020
716 Clouds 14 1014 50 10000 2.1 50 22:58 27.06.2020
717 Clouds 14 1014 50 10000 2.1 50 22:40 27.06.2020
718 Clouds 14 1014 50 10000 2.1 50 22:20 27.06.2020
719 Clouds 14 1014 50 10000 0.37 274 21:55 27.06.2020
720 Clouds 15 1014 50 10000 0.37 274 21:37 27.06.2020
721 Clouds 14 1014 50 10000 0.59 270 21:18 27.06.2020
722 Clouds 14 1015 41 10000 1.5 210 20:42 27.06.2020
723 Clouds 14 1015 41 10000 1.5 210 20:19 27.06.2020
724 Clouds 14 1015 38 10000 0.99 235 19:55 27.06.2020
725 Clouds 14 1015 38 10000 0.99 235 19:36 27.06.2020
726 Clouds 14 1015 38 10000 0.21 167 19:18 27.06.2020
727 Clouds 13 1017 44 10000 0.21 167 18:43 27.06.2020
728 Clouds 13 1017 44 10000 0.67 286 18:22 27.06.2020
729 Clouds 10 1018 53 10000 0.67 286 17:57 27.06.2020
730 Clouds 10 1018 53 10000 0.67 286 17:38 27.06.2020
731 Clouds 10 1018 53 10000 0.89 39 17:19 27.06.2020
732 Clouds 7 1019 81 10000 0.89 39 16:43 27.06.2020
733 Clouds 7 1019 81 10000 1.72 41 16:25 27.06.2020
734 Clouds 6 1019 81 10000 1.72 41 15:55 27.06.2020
735 Clouds 6 1019 81 10000 1.72 41 15:37 27.06.2020
736 Clouds 6 1019 81 10000 1.84 68 15:18 27.06.2020
737 Clouds 5 1020 70 10000 1.84 68 14:41 27.06.2020
738 Clouds 5 1020 70 10000 2.01 69 14:23 27.06.2020
739 Mist 3 1019 86 4000 0.5 0 13:57 27.06.2020
740 Mist 3 1019 86 4000 0.5 0 13:37 27.06.2020
741 Clouds 4 1019 86 6000 1.99 67 13:19 27.06.2020
742 Clouds 4 1019 86 6000 1.99 67 12:56 27.06.2020
743 Clouds 4 1019 86 6000 1.99 67 12:37 27.06.2020
744 Clouds 4 1019 86 6000 1.97 74 12:19 27.06.2020
745 Clouds 4 1019 93 7000 1 40 11:42 27.06.2020
746 Clouds 4 1019 93 7000 1 40 11:23 27.06.2020
747 Clouds 5 1020 86 8000 2.6 50 10:57 27.06.2020
748 Clouds 5 1020 86 8000 2.6 50 10:38 27.06.2020
749 Clouds 5 1020 86 8000 2.6 50 10:18 27.06.2020
750 Clouds 5 1021 93 9000 1 270 09:41 27.06.2020
751 Clouds 5 1021 93 9000 1 270 09:21 27.06.2020
752 Clouds 6 1021 87 10000 1.5 60 08:56 27.06.2020
753 Clouds 6 1021 87 10000 1.5 60 08:37 27.06.2020
754 Clouds 6 1021 87 10000 1.5 60 08:19 27.06.2020
755 Clouds 7 1021 81 10000 1 0 07:38 27.06.2020
756 Clouds 7 1021 81 10000 1.5 160 07:19 27.06.2020
757 Clouds 7 1021 81 10000 1.5 160 06:37 27.06.2020
758 Clouds 7 1022 81 10000 1 0 06:18 27.06.2020
759 Clouds 8 1022 75 10000 1.5 10 04:22 27.06.2020
760 Clouds 9 1022 70 10000 3.6 360 03:51 27.06.2020
761 Clouds 10 1022 71 10000 3.1 50 02:48 27.06.2020
762 Clouds 10 1022 71 10000 3.1 50 02:28 27.06.2020
763 Clouds 11 1021 50 10000 1 0 01:41 27.06.2020
764 Clouds 11 1023 76 6000 2.1 20 00:54 27.06.2020
765 Clouds 11 1023 76 6000 2.1 20 00:18 27.06.2020
766 Rain 12 1022 81 5000 3.6 230 23:41 26.06.2020
767 Rain 12 1022 81 5000 3.6 230 23:21 26.06.2020
768 Rain 12 1021 54 6000 1 350 22:55 26.06.2020
769 Rain 13 1021 54 6000 1 350 22:36 26.06.2020
770 Rain 13 1021 54 6000 1 350 22:18 26.06.2020
771 Rain 14 1020 35 10000 1 200 21:56 26.06.2020
772 Rain 14 1020 35 10000 1 200 21:36 26.06.2020
773 Rain 15 1020 35 10000 1 200 21:18 26.06.2020
774 Rain 15 1020 35 10000 1 200 21:18 26.06.2020
775 Clouds 14 1020 33 10000 1.5 250 20:41 26.06.2020
776 Clouds 15 1020 33 10000 1.5 250 20:19 26.06.2020
777 Clouds 15 1019 33 10000 2.1 220 19:41 26.06.2020
778 Clouds 14 1019 33 10000 2.1 220 19:23 26.06.2020
779 Clouds 13 1020 37 10000 1 230 18:45 26.06.2020
780 Clouds 13 1020 37 10000 1 230 18:26 26.06.2020
781 Clouds 12 1019 43 10000 3.1 90 17:58 26.06.2020
782 Clouds 12 1019 43 10000 3.1 90 17:58 26.06.2020
783 Clouds 12 1019 43 10000 3.1 90 17:40 26.06.2020
784 Clouds 12 1019 43 10000 3.1 90 17:22 26.06.2020
785 Clouds 10 1020 45 10000 1.5 90 16:46 26.06.2020
786 Clouds 10 1020 45 10000 1.5 90 16:23 26.06.2020
787 Clouds 8 1019 61 10000 1 350 15:54 26.06.2020
788 Clouds 8 1019 61 10000 1 350 15:36 26.06.2020
789 Clouds 8 1019 61 10000 1 350 15:18 26.06.2020
790 Clouds 8 1020 65 10000 2.1 120 14:40 26.06.2020
791 Clouds 8 1020 65 10000 2.1 120 14:22 26.06.2020
792 Clouds 7 1019 81 8000 3.1 340 13:57 26.06.2020
793 Clouds 7 1019 81 8000 3.1 340 13:38 26.06.2020
794 Clouds 7 1019 81 8000 3.1 340 13:18 26.06.2020
795 Clouds 7 1017 81 10000 1.5 150 12:41 26.06.2020
796 Clouds 7 1017 81 10000 1.5 150 12:23 26.06.2020
797 Clouds 7 1017 81 10000 1.5 150 12:23 26.06.2020
798 Clouds 6 1016 87 10000 1.5 110 11:58 26.06.2020
799 Clouds 6 1016 87 10000 1.5 110 11:39 26.06.2020
800 Clouds 6 1016 87 10000 1.5 110 11:21 26.06.2020
801 Clouds 6 1016 87 9000 1.5 280 10:58 26.06.2020
802 Clouds 6 1016 87 9000 1.5 280 10:38 26.06.2020
803 Clouds 6 1016 87 9000 1.5 280 10:19 26.06.2020
804 Clouds 7 1016 81 9000 2.1 60 09:44 26.06.2020
805 Clouds 7 1016 81 9000 2.1 60 09:25 26.06.2020
806 Clouds 6 1016 87 8000 1.5 110 08:56 26.06.2020
807 Clouds 6 1016 87 8000 1.5 110 08:28 26.06.2020
808 Clouds 7 1016 81 9000 1 0 07:53 26.06.2020
809 Clouds 7 1016 81 9000 1 0 07:25 26.06.2020
810 Clouds 7 1017 81 10000 4.6 280 06:59 26.06.2020
811 Clouds 7 1017 81 10000 4.6 280 06:41 26.06.2020
812 Clouds 7 1017 81 10000 4.6 280 06:18 26.06.2020
813 Clouds 8 1017 75 8000 3.6 170 05:48 26.06.2020
814 Clouds 7 1019 81 8000 2.6 350 03:55 26.06.2020
815 Clouds 8 1018 70 10000 1 0 02:22 26.06.2020
816 Clouds 9 1017 70 10000 1 120 01:20 26.06.2020
817 Clouds 9 1017 70 10000 1 120 00:41 26.06.2020
818 Clouds 9 1017 70 10000 1 120 00:19 26.06.2020
819 Clouds 9 1018 65 10000 1 350 23:42 25.06.2020
820 Clouds 9 1018 65 10000 1 350 23:18 25.06.2020
821 Clouds 10 1018 61 10000 0.76 28 22:56 25.06.2020
822 Clouds 9 1018 61 10000 0.76 28 22:37 25.06.2020
823 Clouds 10 1018 61 10000 0.3 337 22:18 25.06.2020
824 Clouds 10 1019 39 10000 1 90 21:56 25.06.2020
825 Clouds 10 1019 39 10000 1 90 21:56 25.06.2020
826 Clouds 10 1019 39 10000 1 90 21:38 25.06.2020
827 Clouds 10 1019 38 10000 1 90 21:19 25.06.2020
828 Clouds 10 1019 38 10000 1 90 21:19 25.06.2020
829 Clouds 10 1020 38 10000 0.5 330 20:44 25.06.2020
830 Clouds 10 1020 38 10000 0.5 330 20:24 25.06.2020
831 Clouds 9 1021 38 10000 1 330 19:58 25.06.2020
832 Clouds 9 1021 38 10000 1 330 19:39 25.06.2020
833 Clouds 9 1022 37 10000 1 190 19:19 25.06.2020
834 Clouds 8 1022 37 10000 1 190 18:56 25.06.2020
835 Clouds 8 1022 37 10000 1 190 18:37 25.06.2020
836 Clouds 8 1022 38 10000 1 190 18:19 25.06.2020
837 Clouds 7 1023 70 10000 0.85 222 17:41 25.06.2020
838 Clouds 6 1023 70 10000 0.33 153 17:19 25.06.2020
839 Clear 5 1023 80 10000 0.33 153 16:55 25.06.2020
840 Clear 5 1023 80 10000 0.33 153 16:36 25.06.2020
841 Clear 5 1023 80 10000 0.53 126 16:18 25.06.2020
842 Clear 3 1022 80 10000 1 50 15:41 25.06.2020
843 Clear 1 1022 80 10000 1 50 15:19 25.06.2020
844 Clear 0 1022 45 10000 1 60 14:43 25.06.2020
845 Clouds 1 1022 48 10000 1 60 14:23 25.06.2020
846 Mist 1 1022 47 4000 2.05 83 13:56 25.06.2020
847 Mist 1 1022 47 4000 2.05 83 13:37 25.06.2020
848 Mist 1 1022 48 4000 2.35 75 13:19 25.06.2020
849 Mist 2 1022 100 5000 0.5 0 12:44 25.06.2020
850 Mist 3 1022 100 5000 0.5 0 12:20 25.06.2020
851 Clouds 2 1022 100 9000 1 20 11:58 25.06.2020
852 Clouds 2 1022 100 9000 1 20 11:38 25.06.2020
853 Clouds 2 1022 100 9000 1 20 11:20 25.06.2020
854 Clouds 2 1022 100 9000 1 20 11:20 25.06.2020
855 Clouds 3 1023 93 8000 2.6 30 10:42 25.06.2020
856 Clear 3 1023 93 8000 2.6 30 10:23 25.06.2020
857 Clear 3 1023 100 9000 1.5 330 09:41 25.06.2020
858 Clear 3 1023 100 9000 1.5 330 09:23 25.06.2020
859 Clear 3 1024 93 10000 1 0 08:49 25.06.2020
860 Clouds 4 1024 93 10000 1 0 08:21 25.06.2020
861 Clouds 4 1024 100 10000 1.5 20 07:57 25.06.2020
862 Clouds 4 1024 100 10000 1.5 20 07:38 25.06.2020
863 Clouds 4 1024 100 10000 1.5 20 07:38 25.06.2020
864 Clouds 4 1024 93 10000 2.1 70 07:20 25.06.2020
865 Clouds 4 1024 93 10000 2.1 70 06:30 25.06.2020
866 Clouds 5 1024 86 10000 1 0 05:55 25.06.2020
867 Clouds 5 1024 86 10000 1 0 05:25 25.06.2020
868 Clouds 7 1023 81 10000 4.1 160 03:36 25.06.2020
869 Clouds 7 1022 75 10000 3.1 140 02:45 25.06.2020
870 Clouds 8 1022 75 10000 3.1 140 02:19 25.06.2020
871 Clouds 10 1021 60 10000 1.54 70 01:35 25.06.2020
872 Clouds 10 1021 61 10000 0.95 61 00:50 25.06.2020
873 Clouds 10 1021 61 10000 0.15 299 00:22 25.06.2020
874 Clouds 11 1020 61 10000 0.15 299 23:58 24.06.2020
875 Clouds 11 1020 61 10000 0.15 299 23:37 24.06.2020
876 Clouds 11 1020 57 10000 0.48 284 23:19 24.06.2020
877 Clouds 11 1019 50 10000 2.1 70 22:41 24.06.2020
878 Clouds 11 1019 50 10000 2.1 70 22:20 24.06.2020
879 Clouds 11 1019 50 10000 0.71 314 21:57 24.06.2020
880 Clouds 11 1019 50 10000 0.71 314 21:37 24.06.2020
881 Clouds 11 1019 50 10000 1.19 347 21:19 24.06.2020
882 Clouds 10 1019 66 10000 1.5 130 20:58 24.06.2020
883 Clouds 10 1019 66 10000 1.5 130 20:39 24.06.2020
884 Clouds 10 1019 66 10000 1.5 130 20:21 24.06.2020
885 Clouds 10 1020 61 10000 2.6 280 19:57 24.06.2020
886 Clouds 10 1020 61 10000 2.6 280 19:38 24.06.2020
887 Clouds 10 1020 61 10000 2.6 280 19:20 24.06.2020
888 Clouds 9 1020 61 10000 1.5 70 18:58 24.06.2020
889 Clouds 9 1020 61 10000 1.5 70 18:39 24.06.2020
890 Clouds 9 1020 61 10000 1.5 70 18:20 24.06.2020
891 Clouds 8 1020 70 10000 1.5 350 17:55 24.06.2020
892 Clouds 8 1020 70 10000 1.5 350 17:37 24.06.2020
893 Clouds 8 1020 70 10000 1.5 350 17:18 24.06.2020
894 Clouds 6 1020 100 10000 1.4 11 16:55 24.06.2020
895 Clouds 6 1020 100 10000 1.4 11 16:37 24.06.2020
896 Clouds 6 1020 100 10000 0.87 10 16:19 24.06.2020
897 Clouds 4 1020 100 10000 0.87 10 15:54 24.06.2020
898 Clouds 4 1020 100 10000 0.87 10 15:36 24.06.2020
899 Clouds 4 1020 100 10000 0.96 4 15:18 24.06.2020
900 Clouds 5 1019 86 10000 0.96 4 14:40 24.06.2020
901 Clouds 5 1019 86 10000 1.49 347 14:22 24.06.2020
902 Clouds 5 1018 93 10000 3.1 130 13:42 24.06.2020
903 Clouds 5 1018 93 10000 3.1 130 13:21 24.06.2020
904 Clouds 6 1018 93 10000 4.1 180 12:45 24.06.2020
905 Clouds 6 1018 93 10000 4.1 180 12:21 24.06.2020
906 Rain 6 1017 93 10000 2.6 120 11:58 24.06.2020
907 Rain 6 1017 93 10000 2.6 120 11:40 24.06.2020
908 Rain 7 1017 93 10000 2.6 120 11:21 24.06.2020
909 Rain 6 1017 93 10000 1 0 10:47 24.06.2020
910 Rain 6 1017 93 10000 1 0 10:20 24.06.2020
911 Rain 7 1017 93 10000 2.1 180 09:56 24.06.2020
912 Rain 7 1017 87 10000 2.1 180 09:38 24.06.2020
913 Rain 6 1017 87 10000 2.1 180 09:19 24.06.2020
914 Rain 8 1016 87 10000 5.1 220 08:40 24.06.2020
915 Rain 8 1016 87 10000 5.1 220 08:19 24.06.2020
916 Rain 8 1016 87 10000 4.1 40 07:48 24.06.2020
917 Rain 8 1016 87 10000 4.1 40 07:25 24.06.2020
918 Rain 9 1016 81 10000 4.1 40 06:46 24.06.2020
919 Rain 8 1016 81 10000 4.1 40 06:24 24.06.2020
920 Rain 8 1016 81 10000 4.1 40 06:24 24.06.2020
921 Rain 8 1016 81 8000 3.1 340 05:45 24.06.2020
922 Rain 8 1015 100 8000 3.1 160 04:39 24.06.2020
923 Rain 10 1014 76 10000 5.1 330 03:39 24.06.2020
924 Rain 10 1015 81 10000 2.6 320 02:55 24.06.2020
925 Rain 10 1015 81 10000 2.6 320 02:36 24.06.2020
926 Clouds 11 1015 57 10000 2.6 30 00:53 24.06.2020
927 Clouds 11 1015 57 10000 2.6 30 00:53 24.06.2020
928 Clouds 11 1015 57 10000 2.6 30 00:34 24.06.2020
929 Clouds 12 1015 58 10000 2.6 10 23:49 23.06.2020
930 Clouds 12 1015 58 10000 2.6 10 23:23 23.06.2020
931 Clouds 12 1015 58 10000 4.6 40 22:59 23.06.2020
932 Clouds 12 1015 58 10000 4.6 40 22:59 23.06.2020
933 Clouds 12 1015 58 10000 4.6 40 22:41 23.06.2020
934 Clouds 12 1015 58 10000 4.6 40 22:19 23.06.2020
935 Clouds 12 1015 62 10000 4.1 20 21:56 23.06.2020
936 Clouds 12 1015 62 10000 4.1 20 21:37 23.06.2020
937 Clouds 12 1015 62 10000 4.1 20 21:18 23.06.2020
938 Clouds 10 1016 87 10000 2.6 300 20:55 23.06.2020
939 Clouds 10 1016 87 10000 2.6 300 20:36 23.06.2020
940 Clouds 10 1016 87 10000 2.6 300 20:36 23.06.2020
941 Rain 10 1016 87 8000 2.1 240 20:18 23.06.2020
942 Rain 10 1016 87 8000 2.1 240 19:41 23.06.2020
943 Rain 10 1016 87 8000 2.1 240 19:23 23.06.2020
944 Clouds 9 1016 81 10000 0.71 76 18:39 23.06.2020
945 Clouds 9 1016 81 10000 0.81 347 18:19 23.06.2020
946 Clouds 9 1016 81 10000 0.81 347 17:44 23.06.2020
947 Clouds 9 1016 81 10000 2.92 21 17:25 23.06.2020
948 Clouds 9 1016 76 10000 1.5 0 16:57 23.06.2020
949 Clouds 9 1016 76 10000 1.5 0 16:38 23.06.2020
950 Clouds 9 1016 76 10000 1.5 0 16:20 23.06.2020
951 Clouds 8 1016 81 10000 3.1 20 15:59 23.06.2020
952 Clouds 8 1016 81 10000 3.1 20 15:40 23.06.2020
953 Clouds 8 1016 81 10000 3.1 20 15:22 23.06.2020
954 Rain 9 1016 81 10000 1.5 30 14:43 23.06.2020
955 Clouds 8 1015 100 7000 2.1 140 14:20 23.06.2020
956 Clouds 8 1015 100 7000 2.1 140 13:58 23.06.2020
957 Clouds 8 1015 100 7000 2.1 140 13:40 23.06.2020
958 Rain 8 1015 100 6000 1.5 210 13:22 23.06.2020
959 Rain 8 1015 100 6000 1.5 210 12:45 23.06.2020
960 Rain 8 1015 100 6000 1.5 210 12:23 23.06.2020
961 Rain 8 1015 100 8000 1.5 180 11:59 23.06.2020
962 Rain 8 1015 100 9000 1 0 11:40 23.06.2020
963 Rain 8 1015 100 9000 1 0 11:19 23.06.2020
964 Rain 8 1015 100 8000 1.5 290 10:58 23.06.2020
965 Rain 8 1016 100 5000 1.5 50 10:39 23.06.2020
966 Rain 8 1016 100 5000 1.5 50 10:21 23.06.2020
967 Rain 8 1016 100 5000 1.5 50 10:21 23.06.2020
968 Rain 9 1016 100 5000 2.1 280 09:43 23.06.2020
969 Rain 8 1016 100 5000 2.1 280 09:21 23.06.2020
970 Rain 8 1016 100 4800 1 0 08:59 23.06.2020
971 Rain 8 1016 100 5000 2.1 300 08:41 23.06.2020
972 Rain 8 1016 100 5000 2.1 300 08:22 23.06.2020
973 Rain 8 1016 100 6000 2.1 90 07:43 23.06.2020
974 Rain 8 1017 100 5000 2.6 150 07:22 23.06.2020
975 Rain 9 1017 100 5000 2.6 140 06:50 23.06.2020
976 Rain 8 1017 100 5000 2.6 140 06:31 23.06.2020
977 Rain 9 1016 100 5000 0.5 0 05:45 23.06.2020
978 Rain 9 1016 100 5000 1.5 300 03:56 23.06.2020
979 Rain 9 1016 100 5000 1.5 300 03:18 23.06.2020
980 Rain 9 1016 100 7000 1 0 02:42 23.06.2020
981 Rain 9 1016 100 7000 1 0 02:24 23.06.2020
982 Rain 9 1015 100 6000 2.1 160 01:43 23.06.2020
983 Rain 9 1015 93 3000 4.1 50 01:20 23.06.2020
984 Rain 9 1015 93 3000 4.1 50 00:24 23.06.2020
985 Rain 9 1015 87 4000 3.1 200 23:58 22.06.2020
986 Rain 9 1015 87 4000 3.1 200 23:39 22.06.2020
987 Rain 9 1015 87 4000 3.1 200 23:19 22.06.2020
988 Rain 11 1014 93 3000 0.9 251 22:57 22.06.2020
989 Rain 11 1014 93 3000 0.9 251 22:39 22.06.2020
990 Rain 11 1014 93 3000 1.55 288 22:20 22.06.2020
991 Haze 12 1014 81 5000 1.5 70 21:57 22.06.2020
992 Mist 11 1015 87 4000 1.55 288 21:38 22.06.2020
993 Mist 12 1015 87 4000 1.49 356 21:20 22.06.2020
994 Mist 11 1015 87 4000 1.49 356 20:44 22.06.2020
995 Mist 11 1015 87 4000 0.66 291 20:26 22.06.2020
996 Haze 11 1016 87 5000 2.1 360 19:59 22.06.2020
997 Haze 11 1016 87 5000 2.1 360 19:41 22.06.2020
998 Haze 11 1016 87 5000 2.1 360 19:19 22.06.2020
999 Mist 11 1017 93 4000 0.91 26 18:42 22.06.2020
1000 Mist 10 1017 93 4000 0.39 183 18:23 22.06.2020
1001 Mist 10 1017 87 4000 0.39 183 17:57 22.06.2020
1002 Mist 10 1017 87 4000 0.39 183 17:39 22.06.2020
1003 Clouds 9 1016 93 6000 0.83 289 17:21 22.06.2020
1004 Clouds 9 1016 93 6000 0.83 289 16:59 22.06.2020
1005 Clouds 9 1016 93 6000 0.83 289 16:40 22.06.2020
1006 Mist 9 1018 87 4000 1.5 340 16:18 22.06.2020
1007 Mist 9 1018 87 4000 1.5 340 15:44 22.06.2020
1008 Mist 9 1018 87 4000 1.5 340 15:26 22.06.2020
1009 Mist 9 1018 87 4000 0.61 53 14:58 22.06.2020
1010 Mist 9 1018 87 4000 0.82 45 14:39 22.06.2020
1011 Mist 9 1018 87 4000 0.35 89 14:20 22.06.2020
1012 Haze 10 1017 93 5000 3.1 280 13:54 22.06.2020
1013 Haze 10 1017 93 5000 3.1 280 13:36 22.06.2020
1014 Mist 9 1017 100 5000 3.6 40 13:18 22.06.2020
1015 Mist 9 1017 100 5000 3.6 40 12:41 22.06.2020
1016 Mist 9 1017 100 5000 3.6 40 12:22 22.06.2020
1017 Mist 9 1017 93 5000 1.5 300 11:38 22.06.2020
1018 Mist 10 1017 93 5000 1.5 300 11:20 22.06.2020
1019 Clouds 10 1017 87 7000 4.6 140 10:57 22.06.2020
1020 Clouds 11 1017 87 7000 4.6 140 10:39 22.06.2020
1021 Clouds 11 1017 87 7000 4.6 140 10:39 22.06.2020
1022 Clouds 10 1017 87 6000 3.1 130 10:19 22.06.2020
1023 Clouds 10 1017 87 6000 3.1 130 09:59 22.06.2020
1024 Clouds 9 1017 87 6000 3.1 130 09:41 22.06.2020
1025 Clouds 9 1017 87 6000 3.1 130 09:20 22.06.2020
1026 Clouds 10 1016 87 6000 3.1 150 08:57 22.06.2020
1027 Clouds 10 1016 87 6000 3.1 150 08:38 22.06.2020
1028 Clouds 9 1016 87 6000 3.1 150 08:20 22.06.2020
1029 Mist 8 1016 93 5000 2.1 50 07:50 22.06.2020
1030 Mist 8 1016 93 5000 2.1 50 07:31 22.06.2020
1031 Clouds 8 1017 87 6000 2.6 360 06:44 22.06.2020
1032 Clouds 9 1017 87 6000 2.6 360 06:25 22.06.2020
1033 Mist 7 1017 100 5000 3.1 350 05:43 22.06.2020
1034 Clouds 10 1017 87 8000 2.6 40 03:48 22.06.2020
1035 Clouds 11 1017 87 8000 1.5 280 02:28 22.06.2020
1036 Clouds 13 1017 66 8000 1 300 01:18 22.06.2020
1037 Clouds 13 1017 66 8000 1 300 00:39 22.06.2020
1038 Clouds 14 1017 62 8000 0.21 62 23:58 21.06.2020
1039 Clouds 14 1017 62 8000 0.21 62 23:39 21.06.2020
1040 Clouds 14 1017 62 8000 0.84 251 23:20 21.06.2020
1041 Clouds 14 1016 62 10000 1.5 210 22:57 21.06.2020
1042 Clouds 15 1016 62 10000 1.5 210 22:37 21.06.2020
1043 Clouds 15 1016 62 10000 1.5 210 22:19 21.06.2020
1044 Clouds 15 1016 62 10000 1.1 283 21:57 21.06.2020
1045 Clouds 14 1016 62 10000 1.1 283 21:39 21.06.2020
1046 Clouds 15 1016 62 10000 0.17 255 21:20 21.06.2020
1047 Clouds 15 1017 62 10000 0.17 255 20:57 21.06.2020
1048 Clouds 15 1017 62 10000 0.17 255 20:37 21.06.2020
1049 Clouds 13 1018 71 10000 1 30 20:18 21.06.2020
1050 Clouds 13 1018 71 10000 1 30 19:55 21.06.2020
1051 Clouds 13 1018 71 10000 1 30 19:37 21.06.2020
1052 Clouds 12 1019 76 10000 1.07 257 19:18 21.06.2020
1053 Clouds 12 1019 76 10000 1.07 257 18:40 21.06.2020
1054 Clouds 12 1019 76 10000 0.09 28 18:22 21.06.2020
1055 Clouds 10 1021 87 10000 0.09 28 17:59 21.06.2020
1056 Clouds 10 1021 87 10000 0.09 28 17:38 21.06.2020
1057 Clouds 10 1021 87 10000 0.11 324 17:19 21.06.2020
1058 Clouds 8 1021 93 10000 1 30 16:41 21.06.2020
1059 Clouds 9 1021 93 10000 1 30 16:23 21.06.2020
1060 Clouds 7 1021 93 10000 1 60 15:57 21.06.2020
1061 Clouds 7 1021 93 10000 1 60 15:37 21.06.2020
1062 Clouds 5 1021 93 10000 1 60 15:19 21.06.2020
1063 Clouds 6 1021 93 10000 1.5 70 14:39 21.06.2020
1064 Clouds 6 1021 93 10000 1.5 70 14:20 21.06.2020
1065 Fog 6 1020 100 700 1.5 50 13:57 21.06.2020
1066 Fog 6 1020 100 300 2.1 20 13:39 21.06.2020
1067 Fog 6 1020 100 300 2.1 20 13:19 21.06.2020
1068 Fog 6 1020 100 200 0.5 0 12:44 21.06.2020
1069 Fog 6 1020 100 200 0.5 0 12:44 21.06.2020
1070 Fog 6 1020 100 200 0.5 0 12:26 21.06.2020
1071 Fog 6 1020 100 200 1 320 11:58 21.06.2020
1072 Fog 7 1020 100 300 1.5 280 11:40 21.06.2020
1073 Fog 7 1020 100 300 1.5 280 11:40 21.06.2020
1074 Fog 7 1020 100 750 1 360 11:22 21.06.2020
1075 Fog 7 1020 100 750 1 360 10:56 21.06.2020
1076 Mist 8 1020 100 2900 2.1 30 10:38 21.06.2020
1077 Mist 8 1020 100 2900 2.1 30 10:20 21.06.2020
1078 Mist 8 1020 93 4800 1 30 09:41 21.06.2020
1079 Mist 8 1020 100 4700 1.5 0 09:19 21.06.2020
1080 Mist 8 1020 100 4700 1.5 0 08:56 21.06.2020
1081 Clouds 9 1020 93 8000 0.5 0 08:38 21.06.2020
1082 Clouds 10 1020 87 7000 2.6 250 08:19 21.06.2020
1083 Clouds 10 1020 87 7000 2.6 250 07:41 21.06.2020
1084 Clouds 10 1020 87 7000 2.6 250 07:23 21.06.2020
1085 Clouds 10 1020 93 8000 2.1 210 06:49 21.06.2020
1086 Clouds 10 1020 93 7000 2.1 140 06:18 21.06.2020
1087 Clouds 10 1020 93 7000 2.1 140 05:54 21.06.2020
1088 Clouds 11 1019 93 7000 1 290 03:53 21.06.2020
1089 Clouds 11 1019 93 8000 1.5 310 03:18 21.06.2020
1090 Clouds 11 1019 93 8000 1.5 310 02:20 21.06.2020
1091 Rain 11 1019 87 8000 0.49 7 01:34 21.06.2020
1092 Rain 11 1019 87 8000 0.5 79 00:57 21.06.2020
1093 Rain 11 1019 87 8000 0.5 79 00:38 21.06.2020
1094 Rain 11 1019 87 8000 1.14 210 00:19 21.06.2020
1095 Clouds 12 1018 76 8000 0.5 240 23:45 20.06.2020
1096 Clouds 12 1018 76 8000 0.5 240 23:22 20.06.2020
1097 Clouds 11 1018 93 7000 3.1 190 22:56 20.06.2020
1098 Clouds 11 1018 93 7000 3.1 190 22:38 20.06.2020
1099 Clouds 11 1018 93 7000 3.1 190 22:19 20.06.2020
1100 Haze 11 1017 93 5000 1.5 360 21:56 20.06.2020
1101 Haze 12 1017 93 5000 1.5 360 21:38 20.06.2020
1102 Haze 11 1017 93 5000 1.5 360 21:20 20.06.2020
1103 Haze 11 1017 93 5000 1.5 210 20:57 20.06.2020
1104 Haze 12 1017 93 5000 1.5 210 20:38 20.06.2020
1105 Haze 11 1017 93 5000 1.5 210 20:19 20.06.2020
1106 Clouds 11 1017 87 6000 3.1 270 19:44 20.06.2020
1107 Clouds 11 1017 87 6000 3.1 270 19:25 20.06.2020
1108 Clouds 11 1017 81 8000 1.5 330 18:58 20.06.2020
1109 Clouds 11 1017 81 8000 1.5 330 18:40 20.06.2020
1110 Clouds 11 1017 87 10000 0.5 350 18:19 20.06.2020
1111 Clouds 11 1017 87 10000 0.5 350 17:56 20.06.2020
1112 Clouds 10 1017 87 10000 0.5 350 17:38 20.06.2020
1113 Clouds 11 1017 87 10000 0.5 350 17:19 20.06.2020
1114 Clouds 10 1017 93 10000 0.41 316 16:41 20.06.2020
1115 Clouds 10 1017 93 10000 1.37 283 16:19 20.06.2020
1116 Clouds 10 1017 93 10000 1.5 60 15:57 20.06.2020
1117 Clouds 10 1017 93 10000 1.5 60 15:38 20.06.2020
1118 Clouds 9 1016 81 10000 0.5 330 15:18 20.06.2020
1119 Clouds 9 1016 81 10000 0.5 330 14:42 20.06.2020
1120 Clouds 9 1016 81 10000 0.5 330 14:20 20.06.2020
1121 Mist 9 1015 100 5000 3.6 50 13:42 20.06.2020
1122 Mist 9 1016 93 5000 2.6 130 13:20 20.06.2020
1123 Mist 9 1016 93 5000 2.6 130 12:57 20.06.2020
1124 Mist 9 1016 93 5000 2.6 130 12:38 20.06.2020
1125 Mist 9 1016 93 5000 2.6 130 12:19 20.06.2020
1126 Mist 8 1017 100 5000 1.5 340 11:40 20.06.2020
1127 Mist 8 1017 100 5000 1.5 340 11:21 20.06.2020
1128 Mist 9 1017 93 5000 2.1 50 10:59 20.06.2020
1129 Mist 9 1017 93 5000 2.1 50 10:41 20.06.2020
1130 Mist 10 1017 93 5000 2.1 50 10:20 20.06.2020
1131 Mist 10 1018 100 4000 1 270 09:43 20.06.2020
1132 Mist 10 1018 100 4000 1 270 09:25 20.06.2020
1133 Mist 10 1018 100 4600 2.1 170 08:58 20.06.2020
1134 Mist 10 1018 100 4600 2.1 170 08:39 20.06.2020
1135 Mist 10 1018 100 4600 2.1 170 08:21 20.06.2020
1136 Mist 11 1018 93 5000 1.5 110 07:50 20.06.2020
1137 Mist 10 1018 100 4600 0.63 262 07:25 20.06.2020
1138 Mist 10 1018 100 4800 2.1 250 06:49 20.06.2020
1139 Mist 10 1018 100 5000 2.6 50 06:22 20.06.2020
1140 Mist 10 1019 100 5000 1 10 05:48 20.06.2020
1141 Mist 10 1019 100 5000 2.1 350 04:29 20.06.2020
1142 Clouds 12 1019 93 10000 1 0 01:58 20.06.2020
1143 Clouds 11 1019 93 10000 1 0 01:40 20.06.2020
1144 Clouds 12 1020 76 10000 0.63 44 00:49 20.06.2020
1145 Clouds 11 1020 76 10000 0.66 41 00:20 20.06.2020
1146 Clouds 13 1019 71 10000 2.1 220 23:46 19.06.2020
1147 Clouds 13 1019 71 10000 2.1 220 23:21 19.06.2020
1148 Clouds 13 1019 66 10000 1.5 230 22:57 19.06.2020
1149 Clouds 13 1019 66 10000 1.5 230 22:38 19.06.2020
1150 Clouds 14 1019 66 10000 1.5 230 22:20 19.06.2020
1151 Clouds 14 1019 62 10000 1.5 230 21:55 19.06.2020
1152 Clouds 14 1019 62 10000 1.5 230 21:37 19.06.2020
1153 Clouds 14 1019 58 10000 1.5 250 21:18 19.06.2020
1154 Clouds 13 1019 58 10000 1.5 250 20:56 19.06.2020
1155 Clouds 13 1019 58 10000 1.5 250 20:56 19.06.2020
1156 Clouds 13 1019 58 10000 1.5 250 20:56 19.06.2020
1157 Clouds 14 1019 58 10000 1.5 250 20:38 19.06.2020
1158 Clouds 14 1019 58 10000 1.5 250 20:20 19.06.2020
1159 Clouds 14 1019 62 10000 2.1 250 19:55 19.06.2020
1160 Clouds 14 1019 62 10000 2.1 250 19:36 19.06.2020
1161 Clouds 11 1019 81 8000 1.5 180 19:18 19.06.2020
1162 Clouds 11 1019 81 8000 1.5 180 18:40 19.06.2020
1163 Clouds 11 1019 81 8000 1.5 180 18:21 19.06.2020
1164 Clouds 10 1020 81 10000 0.57 152 17:54 19.06.2020
1165 Clouds 10 1020 81 10000 0.57 152 17:36 19.06.2020
1166 Rain 11 1020 93 7000 1.5 90 17:18 19.06.2020
1167 Rain 11 1020 93 7000 1.5 90 16:41 19.06.2020
1168 Rain 9 1020 93 7000 1.5 90 16:22 19.06.2020
1169 Rain 10 1020 87 7000 1 230 15:54 19.06.2020
1170 Rain 10 1020 87 7000 1 230 15:36 19.06.2020
1171 Clouds 10 1019 81 10000 1.68 97 15:18 19.06.2020
1172 Clouds 10 1019 81 10000 1.68 97 14:42 19.06.2020
1173 Clouds 10 1019 81 10000 1.87 346 14:22 19.06.2020
1174 Clouds 10 1019 81 10000 1.87 346 14:22 19.06.2020
1175 Clouds 10 1018 81 10000 1.5 200 13:59 19.06.2020
1176 Clouds 10 1018 81 10000 1.5 200 13:41 19.06.2020
1177 Clouds 10 1018 81 10000 1.5 200 13:23 19.06.2020
1178 Rain 10 1017 81 10000 4.6 140 12:46 19.06.2020
1179 Rain 9 1017 81 10000 4.6 140 12:22 19.06.2020
1180 Rain 8 1017 87 7000 2.1 190 11:57 19.06.2020
1181 Rain 8 1017 87 7000 2.1 190 11:37 19.06.2020
1182 Rain 8 1017 87 7000 2.1 190 11:37 19.06.2020
1183 Rain 8 1017 87 9000 2.76 38 11:18 19.06.2020
1184 Rain 8 1017 87 9000 2.76 38 10:45 19.06.2020
1185 Clouds 8 1017 87 9000 0.97 333 10:26 19.06.2020
1186 Clouds 8 1017 87 9000 0.97 333 10:26 19.06.2020
1187 Clouds 8 1017 87 7000 1.5 240 09:57 19.06.2020
1188 Clouds 8 1017 87 7000 1.5 240 09:39 19.06.2020
1189 Clouds 8 1017 87 7000 1.5 240 09:19 19.06.2020
1190 Clouds 8 1017 87 9000 2.1 10 08:42 19.06.2020
1191 Clouds 8 1017 87 9000 2.1 10 08:23 19.06.2020
1192 Clouds 9 1018 81 8000 3.1 40 07:55 19.06.2020
1193 Clouds 9 1018 81 8000 3.1 40 07:55 19.06.2020
1194 Clouds 10 1018 81 8000 3.1 40 07:36 19.06.2020
1195 Clouds 9 1018 87 6000 1.5 360 07:18 19.06.2020
1196 Clouds 9 1018 87 6000 1.5 360 06:23 19.06.2020
1197 Mist 9 1018 87 5000 1 0 05:43 19.06.2020
1198 Mist 9 1018 93 5000 2.1 280 04:23 19.06.2020
1199 Clouds 8 1017 87 8000 14.4 260 02:33 19.06.2020
1200 Clouds 10 1018 87 10000 1.06 311 00:47 19.06.2020
1201 Clouds 10 1018 87 10000 1.03 317 00:22 19.06.2020
1202 Clouds 10 1018 81 10000 1.03 317 23:58 18.06.2020
1203 Clouds 10 1018 81 10000 1.03 317 23:40 18.06.2020
1204 Clouds 10 1018 81 10000 0.94 290 23:22 18.06.2020
1205 Clouds 11 1017 71 10000 0.94 290 22:57 18.06.2020
1206 Clouds 11 1017 71 10000 0.94 290 22:36 18.06.2020
1207 Clouds 10 1017 76 10000 1.26 266 22:18 18.06.2020
1208 Clouds 10 1017 76 10000 1.26 266 21:38 18.06.2020
1209 Clouds 10 1017 76 10000 1.62 256 21:19 18.06.2020
1210 Clouds 10 1018 76 10000 1.62 256 20:44 18.06.2020
1211 Clouds 10 1018 76 10000 1.46 286 20:23 18.06.2020
1212 Clouds 10 1018 71 10000 1.46 286 19:59 18.06.2020
1213 Clouds 10 1018 71 10000 1.46 286 19:41 18.06.2020
1214 Clouds 10 1018 71 10000 1.35 288 19:20 18.06.2020
1215 Clouds 10 1020 81 10000 1.35 288 18:56 18.06.2020
1216 Clouds 10 1020 81 10000 1.35 288 18:36 18.06.2020
1217 Clouds 9 1019 76 10000 2.6 60 18:18 18.06.2020
1218 Clouds 9 1019 76 10000 2.6 60 17:41 18.06.2020
1219 Clouds 9 1019 76 10000 2.6 60 17:23 18.06.2020
1220 Clouds 8 1019 87 10000 0.76 326 16:44 18.06.2020
1221 Clouds 8 1019 87 10000 0.82 22 16:26 18.06.2020
1222 Clouds 8 1021 87 10000 0.82 22 15:59 18.06.2020
1223 Clouds 8 1021 87 10000 0.82 22 15:40 18.06.2020
1224 Clouds 8 1021 87 10000 1.84 63 15:20 18.06.2020
1225 Clouds 8 1021 81 10000 1.5 180 14:57 18.06.2020
1226 Clouds 8 1021 81 10000 1.5 180 14:39 18.06.2020
1227 Clouds 7 1021 81 10000 1.5 180 14:21 18.06.2020
1228 Clouds 7 1020 93 8000 2.1 350 13:55 18.06.2020
1229 Clouds 8 1020 93 8000 2.1 350 13:36 18.06.2020
1230 Clouds 7 1019 100 7000 1 0 13:18 18.06.2020
1231 Clouds 7 1019 100 7000 1 0 12:40 18.06.2020
1232 Clouds 7 1019 100 7000 1 0 12:20 18.06.2020
1233 Clouds 8 1020 93 9000 1.5 230 11:59 18.06.2020
1234 Clouds 8 1020 93 9000 1.5 230 11:40 18.06.2020
1235 Clouds 8 1020 93 9000 1.5 230 11:20 18.06.2020
1236 Clouds 8 1020 93 9000 1.5 230 11:20 18.06.2020
1237 Clouds 8 1021 93 7000 1.5 120 10:41 18.06.2020
1238 Clouds 8 1021 93 7000 1.5 120 10:19 18.06.2020
1239 Clouds 7 1020 93 10000 1 0 09:55 18.06.2020
1240 Clouds 8 1020 93 10000 1 0 09:37 18.06.2020
1241 Clouds 8 1021 93 10000 2.1 20 09:19 18.06.2020
1242 Clouds 8 1021 93 10000 2.1 20 08:40 18.06.2020
1243 Clouds 8 1021 93 10000 2.1 20 08:21 18.06.2020
1244 Clouds 7 1021 93 10000 2.1 350 07:46 18.06.2020
1245 Clouds 7 1021 93 10000 2.1 350 07:26 18.06.2020
1246 Clouds 8 1022 100 10000 2.1 30 06:55 18.06.2020
1247 Clouds 8 1023 93 10000 1 280 05:58 18.06.2020
1248 Clouds 8 1023 93 10000 1.5 210 04:24 18.06.2020
1249 Clouds 8 1023 81 10000 2.1 70 02:51 18.06.2020
1250 Rain 10 1023 76 10000 0.53 347 01:29 18.06.2020
1251 Rain 10 1023 76 10000 0.53 347 00:56 18.06.2020
1252 Rain 10 1023 76 10000 0.53 347 00:37 18.06.2020
1253 Rain 10 1023 76 10000 1.34 320 00:19 18.06.2020
1254 Clouds 11 1022 76 10000 1.5 280 23:42 17.06.2020
1255 Clouds 11 1022 76 10000 1.5 280 23:20 17.06.2020
1256 Clouds 11 1021 87 10000 2.41 343 22:57 17.06.2020
1257 Clouds 11 1021 87 10000 2.41 343 22:38 17.06.2020
1258 Clouds 10 1020 87 10000 1.5 170 22:20 17.06.2020
1259 Clouds 10 1020 87 10000 1.5 170 21:55 17.06.2020
1260 Clouds 10 1020 87 10000 1.5 170 21:37 17.06.2020
1261 Clouds 10 1018 87 10000 2.73 352 21:18 17.06.2020
1262 Clouds 10 1018 87 10000 2.73 352 21:18 17.06.2020
1263 Clouds 10 1018 87 10000 2.73 352 20:38 17.06.2020
1264 Clouds 10 1018 87 10000 2.73 352 20:38 17.06.2020
1265 Clouds 10 1018 87 10000 3.52 320 20:20 17.06.2020
1266 Haze 10 1018 87 5000 3.52 320 19:55 17.06.2020
1267 Haze 10 1018 87 5000 3.52 320 19:36 17.06.2020
1268 Clouds 10 1017 100 7000 2.1 140 19:18 17.06.2020
1269 Clouds 10 1017 100 7000 2.1 140 18:44 17.06.2020
1270 Clouds 10 1017 100 7000 2.1 140 18:26 17.06.2020
1271 Mist 10 1016 100 4000 1.5 210 17:44 17.06.2020
1272 Mist 10 1016 100 4000 1.5 210 17:22 17.06.2020
1273 Rain 10 1014 87 10000 3.1 40 16:57 17.06.2020
1274 Rain 10 1014 87 10000 3.1 40 16:39 17.06.2020
1275 Rain 10 1014 87 10000 3.1 40 16:21 17.06.2020
1276 Rain 9 1015 100 2000 1.71 306 15:56 17.06.2020
1277 Rain 9 1015 100 2000 1.71 306 15:38 17.06.2020
1278 Rain 11 1013 81 5000 1.5 160 15:19 17.06.2020
1279 Rain 11 1013 81 5000 1.5 160 14:57 17.06.2020
1280 Rain 11 1013 81 5000 1.5 160 14:39 17.06.2020
1281 Haze 11 1013 81 5000 1.5 160 14:19 17.06.2020
1282 Rain 9 1012 100 4000 1 0 13:55 17.06.2020
1283 Rain 9 1012 100 4000 1 0 13:36 17.06.2020
1284 Rain 9 1011 93 5000 0.5 0 13:18 17.06.2020
1285 Rain 9 1011 93 5000 0.5 0 12:41 17.06.2020
1286 Rain 9 1011 93 5000 0.5 0 12:21 17.06.2020
1287 Rain 10 1012 87 9000 0.5 0 11:45 17.06.2020
1288 Rain 10 1012 87 9000 0.5 0 11:26 17.06.2020
1289 Rain 9 1011 93 8000 2.6 250 10:59 17.06.2020
1290 Rain 9 1011 93 8000 2.6 250 10:38 17.06.2020
1291 Rain 9 1011 93 8000 2.6 250 10:19 17.06.2020
1292 Rain 10 1011 87 9000 1 170 09:56 17.06.2020
1293 Rain 10 1011 87 9000 1 170 09:37 17.06.2020
1294 Rain 10 1011 87 9000 1 170 09:19 17.06.2020
1295 Clouds 11 1012 81 10000 5.7 110 08:44 17.06.2020
1296 Clouds 11 1012 81 10000 5.7 110 08:20 17.06.2020
1297 Clouds 11 1011 81 10000 3.6 140 07:44 17.06.2020
1298 Clouds 11 1011 81 10000 3.6 140 07:24 17.06.2020
1299 Clouds 11 1011 81 10000 2.6 220 06:59 17.06.2020
1300 Clouds 11 1011 81 10000 2.6 220 06:41 17.06.2020
1301 Clouds 11 1011 81 10000 2.6 220 06:22 17.06.2020
1302 Clouds 9 1010 87 6000 3.1 50 05:49 17.06.2020
1303 Clouds 9 1011 87 6000 1 0 04:38 17.06.2020
1304 Clouds 11 1012 81 8000 2.6 70 02:41 17.06.2020
1305 Clouds 12 1013 66 7000 0.64 236 00:53 17.06.2020
1306 Clouds 12 1013 66 7000 0.64 236 00:30 17.06.2020
1307 Clouds 13 1014 66 8000 0.82 208 00:00 17.06.2020
1308 Clouds 13 1014 66 8000 0.82 208 23:41 16.06.2020
1309 Clouds 13 1014 66 8000 1.63 241 23:22 16.06.2020
1310 Clouds 13 1013 66 10000 1.63 241 22:57 16.06.2020
1311 Clouds 13 1013 66 10000 1.63 241 22:38 16.06.2020
1312 Clouds 13 1013 66 10000 1.92 256 22:19 16.06.2020
1313 Clouds 13 1013 66 10000 1.92 256 21:57 16.06.2020
1314 Clouds 13 1013 66 10000 2.18 245 21:39 16.06.2020
1315 Clouds 13 1013 66 10000 1.87 257 21:21 16.06.2020
1316 Clouds 14 1014 66 10000 1.87 257 20:43 16.06.2020
1317 Clouds 14 1014 66 10000 1.42 257 20:23 16.06.2020
1318 Clouds 13 1014 66 10000 1 240 19:58 16.06.2020
1319 Clouds 13 1014 66 10000 1 240 19:40 16.06.2020
1320 Clouds 12 1014 66 10000 1 240 19:22 16.06.2020
1321 Clouds 11 1015 71 10000 1.4 259 18:59 16.06.2020
1322 Clouds 11 1015 71 10000 1.4 259 18:59 16.06.2020
1323 Clouds 12 1015 71 10000 1.4 259 18:40 16.06.2020
1324 Clouds 11 1015 71 10000 1.26 261 18:21 16.06.2020
1325 Clouds 9 1015 81 10000 1.26 261 17:57 16.06.2020
1326 Clouds 9 1015 81 10000 1.26 261 17:38 16.06.2020
1327 Clouds 9 1015 81 10000 1.26 261 17:38 16.06.2020
1328 Clouds 9 1015 81 10000 0.98 302 17:19 16.06.2020
1329 Mist 7 1015 93 2000 1.5 270 16:56 16.06.2020
1330 Clouds 9 1015 93 10000 0.98 302 16:38 16.06.2020
1331 Clouds 7 1015 93 10000 0.62 353 16:19 16.06.2020
1332 Clouds 8 1015 93 10000 0.62 353 15:56 16.06.2020
1333 Clouds 8 1015 93 10000 0.62 353 15:38 16.06.2020
1334 Clouds 7 1015 93 10000 0.35 26 15:20 16.06.2020
1335 Clouds 7 1015 93 10000 0.35 26 14:43 16.06.2020
1336 Clouds 7 1015 93 10000 0.28 353 14:25 16.06.2020
1337 Mist 7 1015 100 4000 1 0 13:57 16.06.2020
1338 Mist 7 1015 100 4000 1 0 13:39 16.06.2020
1339 Mist 7 1015 100 4000 1 0 13:20 16.06.2020
1340 Mist 8 1014 93 4400 1.5 200 12:41 16.06.2020
1341 Mist 8 1014 93 4400 1.5 200 12:41 16.06.2020
1342 Mist 7 1014 93 4400 1.5 200 12:21 16.06.2020
1343 Mist 8 1014 93 4100 1.5 150 11:56 16.06.2020
1344 Mist 8 1014 93 4100 1.5 150 11:38 16.06.2020
1345 Mist 8 1014 93 4100 1.5 150 11:19 16.06.2020
1346 Mist 8 1014 93 3700 1 0 10:43 16.06.2020
1347 Mist 8 1014 93 3700 1 0 10:22 16.06.2020
1348 Mist 8 1015 93 4100 1.5 270 09:59 16.06.2020
1349 Mist 8 1015 93 4100 1.5 270 09:41 16.06.2020
1350 Mist 8 1015 93 4100 1.5 270 09:21 16.06.2020
1351 Mist 8 1016 100 4100 3.6 50 08:48 16.06.2020
1352 Mist 8 1016 100 4100 3.6 50 08:30 16.06.2020
1353 Mist 8 1016 100 4900 3.1 50 07:51 16.06.2020
1354 Clouds 9 1016 87 7000 2.6 300 07:28 16.06.2020
1355 Clouds 9 1017 93 6000 2.1 310 06:54 16.06.2020
1356 Clouds 9 1017 93 6000 2.1 310 06:27 16.06.2020
1357 Haze 8 1017 93 5000 2.1 60 05:45 16.06.2020
1358 Clouds 10 1017 87 7000 1 0 04:40 16.06.2020
1359 Clouds 12 1017 81 8000 1.5 130 03:00 16.06.2020
1360 Clouds 12 1017 76 8000 2.1 140 02:00 16.06.2020
1361 Clouds 12 1018 71 7000 1.5 240 01:30 16.06.2020
1362 Clouds 12 1018 71 7000 1.5 240 00:45 16.06.2020
1363 Clouds 12 1018 71 7000 1.5 240 00:21 16.06.2020
1364 Clouds 13 1017 47 8000 1 180 23:43 15.06.2020
1365 Clouds 13 1017 47 8000 1 180 23:23 15.06.2020
1366 Clouds 13 1017 66 8000 1.5 240 22:56 15.06.2020
1367 Clouds 13 1017 66 8000 1.5 240 22:38 15.06.2020
1368 Clouds 13 1017 66 8000 2.1 210 22:18 15.06.2020
1369 Clouds 13 1017 66 8000 2.1 210 21:56 15.06.2020
1370 Clouds 13 1017 66 8000 2.1 210 21:37 15.06.2020
1371 Clouds 12 1017 66 8000 1.5 240 21:19 15.06.2020
1372 Clouds 12 1017 66 8000 1.5 240 21:19 15.06.2020
1373 Clouds 12 1017 66 8000 1.5 240 20:55 15.06.2020
1374 Clouds 12 1017 66 8000 1.5 240 20:37 15.06.2020
1375 Clouds 12 1017 71 8000 1.5 190 20:19 15.06.2020
1376 Clouds 12 1017 71 8000 1.5 190 19:55 15.06.2020
1377 Clouds 12 1017 71 8000 1.5 190 19:36 15.06.2020
1378 Clouds 11 1016 71 7000 2.1 270 19:18 15.06.2020
1379 Clouds 11 1016 71 7000 2.1 270 18:44 15.06.2020
1380 Clouds 11 1016 71 7000 2.1 270 18:22 15.06.2020
1381 Clouds 11 1016 71 7000 2.1 270 18:22 15.06.2020
1382 Clouds 9 1016 76 7000 1.5 260 17:59 15.06.2020
1383 Clouds 9 1016 76 7000 1.5 260 17:41 15.06.2020
1384 Clouds 9 1016 76 7000 1.5 260 17:20 15.06.2020
1385 Mist 9 1015 100 2100 3.1 300 16:58 15.06.2020
1386 Clouds 7 1015 100 7000 2.1 80 16:39 15.06.2020
1387 Clouds 7 1015 100 7000 2.1 80 16:18 15.06.2020
1388 Clouds 7 1015 100 7000 2.1 80 15:55 15.06.2020
1389 Clouds 7 1015 100 7000 2.1 80 15:36 15.06.2020
1390 Fog 6 1014 86 500 2.1 240 15:18 15.06.2020
1391 Fog 5 1014 86 500 2.1 240 14:41 15.06.2020
1392 Fog 5 1014 86 500 2.1 240 14:20 15.06.2020
1393 Fog 6 1012 100 550 0.5 0 13:58 15.06.2020
1394 Fog 6 1012 100 550 0.5 0 13:38 15.06.2020
1395 Fog 5 1012 100 600 1.5 70 13:19 15.06.2020
1396 Fog 6 1012 100 1200 2.1 30 12:43 15.06.2020
1397 Fog 5 1012 100 1200 2.1 30 12:23 15.06.2020
1398 -273 0 0 0 0 0 12:00 15.06.2020
1399 Mist 6 1014 100 3700 2.6 360 11:41 15.06.2020
1400 Mist 7 1014 100 3700 2.6 360 11:23 15.06.2020
1401 Mist 7 1015 100 3800 2.1 310 10:43 15.06.2020
1402 Mist 7 1015 100 3800 2.1 310 10:22 15.06.2020
1403 Mist 6 1015 100 4900 2.1 270 09:45 15.06.2020
1404 Mist 7 1015 100 4900 2.1 270 09:25 15.06.2020
1405 Mist 8 1015 93 5000 3.1 130 08:56 15.06.2020
1406 Mist 8 1015 93 5000 3.6 140 08:37 15.06.2020
1407 Clear 7 1013 100 6000 3.6 160 08:18 15.06.2020
1408 Clear 7 1013 100 6000 3.6 160 07:41 15.06.2020
1409 Clear 7 1013 100 6000 3.6 160 07:20 15.06.2020
1410 Clear 7 1013 93 8000 3.1 150 06:38 15.06.2020
1411 Clear 7 1013 93 8000 3.1 150 06:19 15.06.2020
1412 Clear 8 1012 87 10000 2.6 160 05:39 15.06.2020
1413 Clear 8 1012 87 10000 2.6 160 05:20 15.06.2020
1414 Clear 11 1012 71 10000 4.1 140 04:18 15.06.2020
1415 Clear 11 1012 71 10000 4.1 140 03:37 15.06.2020
1416 Clear 13 1012 62 10000 4.6 160 02:34 15.06.2020
1417 Clear 15 1011 51 10000 3.1 140 01:51 15.06.2020
1418 Clear 17 1012 36 10000 0.5 70 01:30 15.06.2020
1419 Clear 18 1012 36 10000 0.5 70 00:56 15.06.2020
1420 Clear 18 1012 36 10000 0.5 70 00:38 15.06.2020
1421 Clear 22 1012 28 10000 2.6 230 00:18 15.06.2020
1422 Clear 22 1012 28 10000 2.6 230 23:42 14.06.2020
1423 Clear 22 1012 28 10000 2.6 230 23:24 14.06.2020
1424 Clear 24 1011 22 10000 2.6 250 22:58 14.06.2020
1425 Clear 24 1011 22 10000 2.6 250 22:38 14.06.2020
1426 Clear 22 1011 25 10000 1.5 270 22:19 14.06.2020
1427 Clear 22 1011 25 10000 1.5 270 21:57 14.06.2020
1428 Clear 22 1011 25 10000 1.5 270 21:38 14.06.2020
1429 Clear 20 1011 32 10000 1.5 230 21:19 14.06.2020
1430 Clear 20 1011 32 10000 1.5 230 20:58 14.06.2020
1431 Clear 20 1011 32 10000 1.5 230 20:38 14.06.2020
1432 Clear 20 1011 32 10000 1.5 230 20:19 14.06.2020
1433 Clear 17 1012 39 10000 0.5 260 19:57 14.06.2020
1434 Clear 17 1012 39 10000 0.5 260 19:37 14.06.2020
1435 Clear 14 1012 50 10000 0.51 290 19:19 14.06.2020
1436 Clear 14 1012 50 10000 0.51 290 18:56 14.06.2020
1437 Clear 14 1012 50 10000 0.51 290 18:38 14.06.2020
1438 Clear 10 1012 66 10000 0.5 350 18:19 14.06.2020
1439 Clear 10 1012 66 10000 0.5 350 17:57 14.06.2020
1440 Clear 10 1012 66 10000 0.5 350 17:38 14.06.2020
1441 Clear 5 1012 80 10000 1.12 57 17:19 14.06.2020
1442 Clear 5 1012 80 10000 1.12 57 16:41 14.06.2020
1443 Clear 5 1012 80 10000 1.69 69 16:21 14.06.2020
1444 Clear 2 1012 25 10000 1 90 15:59 14.06.2020
1445 Clear 2 1012 25 10000 1 90 15:40 14.06.2020
1446 Clear 2 1012 27 10000 0.5 10 15:18 14.06.2020
1447 Clear 2 1012 27 10000 0.5 10 14:58 14.06.2020
1448 Clear 2 1012 27 10000 0.5 10 14:40 14.06.2020
1449 Mist 1 1011 29 5000 2.88 68 14:19 14.06.2020
1450 Mist 1 1011 29 5000 2.88 68 13:55 14.06.2020
1451 Mist 1 1011 29 5000 2.88 68 13:36 14.06.2020
1452 Mist 2 1011 93 5000 0.5 0 13:18 14.06.2020
1453 Mist 2 1011 93 5000 0.5 0 12:54 14.06.2020
1454 Mist 2 1011 93 5000 0.5 0 12:36 14.06.2020
1455 Mist 2 1012 93 4800 1 330 12:18 14.06.2020
1456 Mist 2 1012 93 4800 1 330 11:55 14.06.2020
1457 Mist 2 1012 93 4800 1 330 11:36 14.06.2020
1458 Mist 3 1013 93 5000 2.1 20 11:18 14.06.2020
1459 Mist 7 1013 93 5000 2.1 20 10:40 14.06.2020
1460 Mist 6 1013 100 3400 2.1 70 10:19 14.06.2020
1461 Fog 6 1013 100 2400 1 330 09:44 14.06.2020
1462 Fog 6 1013 100 2400 1 330 09:24 14.06.2020
1463 Mist 7 1014 93 4800 2.62 74 08:44 14.06.2020
1464 Mist 8 1014 93 4800 2.75 74 08:22 14.06.2020
1465 Mist 8 1015 93 5000 0.5 0 07:58 14.06.2020
1466 Mist 8 1015 93 5000 0.5 0 07:37 14.06.2020
1467 Mist 8 1015 93 5000 0.5 0 07:19 14.06.2020
1468 Clear 12 929 94 0 2.94 72 05:58 14.06.2020
1469 Mist 9 1015 100 5000 2.1 360 05:39 14.06.2020
1470 Clear 9 1016 100 6000 1 10 04:51 14.06.2020
1471 Clear 10 1016 100 6000 1 10 04:25 14.06.2020
1472 Clear 11 1016 87 10000 1 0 02:53 14.06.2020
1473 Clear 11 1016 87 10000 1 0 02:23 14.06.2020
1474 Clear 14 1017 38 10000 2.79 74 01:36 14.06.2020
1475 Clear 15 1017 38 10000 2.69 72 00:50 14.06.2020
1476 Clear 15 1017 38 10000 2.69 72 00:30 14.06.2020
1477 Clear 16 1017 38 10000 1 270 23:56 13.06.2020
1478 Clear 16 1017 38 10000 1 270 23:38 13.06.2020
1479 Clear 16 1017 38 10000 1 270 23:20 13.06.2020
1480 Clear 16 1017 33 10000 1 180 22:54 13.06.2020
1481 Clear 16 1017 33 10000 1 180 22:54 13.06.2020
1482 Clear 16 1017 33 10000 1 180 22:36 13.06.2020
1483 Clear 16 1018 31 10000 1 320 22:18 13.06.2020
1484 Clear 16 1018 31 10000 1 320 21:42 13.06.2020
1485 Clear 16 1018 31 10000 1 320 21:24 13.06.2020
1486 Clear 16 1018 25 10000 1 230 20:57 13.06.2020
1487 Clear 16 1018 25 10000 1 230 20:39 13.06.2020
1488 Clear 14 1020 38 10000 1.5 200 20:18 13.06.2020
1489 Clear 14 1020 38 10000 1.5 200 20:18 13.06.2020
1490 Clear 14 1020 38 10000 1.5 200 19:41 13.06.2020
1491 Clear 14 1020 38 10000 1.5 200 19:20 13.06.2020
1492 Clear 11 1021 46 10000 1.5 230 18:59 13.06.2020
1493 Clear 13 1021 46 10000 1.5 230 18:40 13.06.2020
1494 Clear 11 1021 46 10000 1.5 230 18:20 13.06.2020
1495 Clear 9 1022 50 10000 1 200 17:57 13.06.2020
1496 Clear 11 1022 50 10000 1 200 17:39 13.06.2020
1497 Clear 9 1022 50 10000 1 200 17:20 13.06.2020
1498 Clear 9 1022 65 10000 1 50 16:55 13.06.2020
1499 Clear 8 1022 65 10000 1 50 16:37 13.06.2020
1500 Clear 5 1022 86 10000 1 90 16:18 13.06.2020
1501 Clear 5 1022 86 10000 1 90 15:42 13.06.2020
1502 Clear 3 1022 86 10000 1 90 15:22 13.06.2020
1503 Clear 1 1022 93 10000 1 20 14:45 13.06.2020
1504 Clouds 3 1022 93 10000 1 20 14:26 13.06.2020
1505 Mist 4 1022 93 5000 2.55 75 13:58 13.06.2020
1506 Mist 4 1022 93 5000 2.55 75 13:40 13.06.2020
1507 Mist 4 1022 93 5000 2.64 71 13:21 13.06.2020
1508 Clouds 2 1022 100 7000 1.5 40 12:44 13.06.2020
1509 Clouds 2 1022 100 7000 1.5 40 12:26 13.06.2020
1510 Clouds 3 1023 93 8000 2.35 78 11:57 13.06.2020
1511 Clouds 3 1023 93 8000 2.35 78 11:38 13.06.2020
1512 Clouds 4 1023 93 9000 2.6 210 11:19 13.06.2020
1513 Clouds 4 1023 93 9000 2.6 210 11:19 13.06.2020
1514 Clouds 4 1023 93 9000 2.6 210 10:56 13.06.2020
1515 Clouds 4 1023 93 9000 2.6 210 10:37 13.06.2020
1516 Clouds 4 1024 93 10000 3.6 10 10:18 13.06.2020
1517 Clouds 4 1024 93 10000 3.6 10 09:42 13.06.2020
1518 Clouds 4 1024 93 10000 3.6 10 09:21 13.06.2020
1519 Clouds 4 1025 93 10000 1.5 360 08:48 13.06.2020
1520 Clouds 4 1025 93 10000 1.5 360 08:30 13.06.2020
1521 Clear 5 1026 93 10000 2.1 360 07:50 13.06.2020
1522 Clear 4 1026 93 10000 2.1 360 07:27 13.06.2020
1523 Clear 5 1026 86 10000 2.1 30 06:49 13.06.2020
1524 Clear 5 1026 86 10000 2.1 30 06:28 13.06.2020
1525 Clear 4 1026 93 10000 1.5 10 05:42 13.06.2020
1526 Clear 4 1026 93 10000 1.5 10 05:23 13.06.2020
1527 Clear 7 1026 93 10000 3.1 180 03:47 13.06.2020
1528 Clear 8 1025 81 10000 1.5 220 02:53 13.06.2020
1529 Clear 8 1025 81 10000 1.5 220 02:29 13.06.2020
1530 Clouds 11 1025 62 10000 2.16 75 01:37 13.06.2020
1531 Clouds 11 1025 62 10000 1.49 51 01:18 13.06.2020
1532 Clouds 11 1025 62 10000 1.49 51 00:39 13.06.2020
1533 Clouds 12 1025 58 10000 1.5 240 00:21 13.06.2020
1534 Clouds 12 1025 58 10000 1.5 240 23:41 12.06.2020
1535 Clouds 13 1025 47 10000 1.41 2 23:19 12.06.2020
1536 Clouds 13 1025 47 10000 1.41 2 23:19 12.06.2020
1537 Clouds 13 1025 47 10000 1.41 2 22:56 12.06.2020
1538 Clouds 13 1025 47 10000 1.41 2 22:38 12.06.2020
1539 Clouds 12 1024 54 10000 2.1 260 22:18 12.06.2020
1540 Clouds 12 1024 54 10000 2.1 260 21:44 12.06.2020
1541 Clouds 12 1024 54 10000 2.1 260 21:24 12.06.2020
1542 Clouds 12 1025 58 10000 2.1 330 20:58 12.06.2020
1543 Clouds 12 1025 58 10000 2.1 330 20:39 12.06.2020
1544 Clouds 9 1024 76 10000 2.6 40 20:21 12.06.2020
1545 Clouds 9 1024 76 10000 2.6 40 19:47 12.06.2020
1546 Clouds 9 1024 76 10000 2.6 40 19:22 12.06.2020
1547 Clouds 9 1024 76 10000 2.6 40 19:22 12.06.2020
1548 -273 0 0 0 0 0 18:59 12.06.2020
1549 Rain 8 1024 87 7000 3.6 10 18:37 12.06.2020
1550 Rain 8 1024 87 7000 3.6 10 18:37 12.06.2020
1551 Rain 8 1024 93 6000 2.1 90 18:18 12.06.2020
1552 Rain 8 1024 93 6000 2.1 90 17:45 12.06.2020
1553 Rain 8 1024 93 6000 2.1 90 17:26 12.06.2020
1554 Rain 8 1024 100 4000 2.1 90 16:58 12.06.2020
1555 Rain 8 1024 100 4000 2.1 90 16:40 12.06.2020
1556 Mist 7 1022 100 4000 1.2 309 16:19 12.06.2020
1557 Rain 7 1022 100 4000 1.2 309 15:43 12.06.2020
1558 Rain 8 1021 93 4000 3.6 150 15:19 12.06.2020
1559 Haze 8 1021 93 4000 3.6 150 14:43 12.06.2020
1560 Haze 8 1021 93 4000 3.6 150 14:23 12.06.2020
1561 Rain 8 1020 93 6000 4.1 160 13:58 12.06.2020
1562 Rain 8 1020 93 6000 4.1 160 13:40 12.06.2020
1563 Rain 8 1019 93 7000 3.6 170 13:19 12.06.2020
1564 Rain 8 1019 93 7000 3.6 170 12:40 12.06.2020
1565 Rain 8 1019 93 7000 3.6 170 12:40 12.06.2020
1566 Rain 8 1018 93 6000 4.6 170 12:19 12.06.2020
1567 Rain 8 1018 93 6000 4.6 170 11:56 12.06.2020
1568 Rain 8 1018 93 6000 3.6 180 11:36 12.06.2020
1569 Rain 8 1018 93 7000 3.6 180 11:18 12.06.2020
1570 Rain 8 1018 93 7000 3.6 150 10:42 12.06.2020
1571 Rain 8 1018 93 7000 3.6 150 10:23 12.06.2020
1572 Rain 9 1018 81 10000 4.1 160 09:44 12.06.2020
1573 Rain 9 1018 81 10000 4.1 160 09:21 12.06.2020
1574 Rain 9 1018 81 10000 4.6 150 08:43 12.06.2020
1575 Rain 9 1018 81 10000 4.6 150 08:24 12.06.2020
1576 Clouds 9 1018 70 9000 1.5 190 07:44 12.06.2020
1577 Clouds 9 1018 70 9000 1.5 190 07:25 12.06.2020
1578 Clouds 9 1018 70 9000 1.5 240 06:55 12.06.2020
1579 Clouds 9 1018 70 9000 1.5 240 06:25 12.06.2020
1580 Clouds 10 1018 70 8000 1.5 220 05:50 12.06.2020
1581 Clouds 10 1018 70 8000 1.5 220 05:28 12.06.2020
1582 Clouds 11 1018 66 8000 2.6 170 04:41 12.06.2020
1583 Clouds 11 1018 66 8000 3.1 130 02:46 12.06.2020
1584 Clouds 10 1018 66 8000 2.6 170 01:52 12.06.2020
1585 Clouds 10 1018 66 6000 0.5 360 01:23 12.06.2020
1586 Clouds 10 1018 66 6000 0.5 360 00:42 12.06.2020
1587 Clouds 10 1018 66 6000 0.5 360 00:24 12.06.2020
1588 Clouds 10 1018 61 7000 1.5 180 23:58 11.06.2020
1589 Clouds 10 1018 61 7000 1.5 180 23:40 11.06.2020
1590 Clouds 10 1018 61 7000 1.5 180 23:40 11.06.2020
1591 Clouds 11 1018 57 8000 2.1 330 23:20 11.06.2020
1592 Clouds 11 1018 57 8000 2.1 330 22:57 11.06.2020
1593 Clouds 11 1018 57 8000 2.1 330 22:38 11.06.2020
1594 Clouds 11 1018 57 8000 2.1 330 22:19 11.06.2020
1595 Clouds 11 1019 62 7000 1 150 21:54 11.06.2020
1596 Clouds 11 1019 62 7000 1 150 21:36 11.06.2020
1597 Clouds 11 1019 61 8000 1 80 21:18 11.06.2020
1598 Clouds 11 1019 61 8000 1 80 20:43 11.06.2020
1599 Clouds 10 1019 61 8000 1 80 20:21 11.06.2020
1600 Clouds 10 1020 61 8000 3.1 240 19:44 11.06.2020
1601 Clouds 11 1020 61 8000 3.1 240 19:23 11.06.2020
1602 Haze 11 1020 61 5000 1.5 240 18:58 11.06.2020
1603 Haze 10 1020 61 5000 1.5 240 18:40 11.06.2020
1604 Haze 10 1020 61 5000 1.5 240 18:20 11.06.2020
1605 Haze 9 1019 61 5000 1 300 17:56 11.06.2020
1606 Haze 10 1019 61 5000 1 300 17:37 11.06.2020
1607 Haze 9 1019 61 5000 1 300 17:19 11.06.2020
1608 Haze 7 1019 70 5000 1.5 180 16:45 11.06.2020
1609 Haze 6 1019 70 5000 1.5 180 16:27 11.06.2020
1610 Haze 1 1018 93 5000 1.5 60 15:59 11.06.2020
1611 Haze 1 1018 93 5000 1.5 60 15:59 11.06.2020
1612 Haze 4 1018 93 5000 1.5 60 15:40 11.06.2020
1613 Haze 1 1018 93 5000 1.5 60 15:22 11.06.2020
1614 Clear 2 1018 80 6000 1.5 90 14:46 11.06.2020
1615 Clear 1 1018 80 6000 1.5 90 14:22 11.06.2020
1616 Mist 1 1017 53 2500 1 0 13:58 11.06.2020
1617 Mist 1 1017 53 2500 1 0 13:39 11.06.2020
1618 Mist 2 1017 52 2500 1 0 13:21 11.06.2020
1619 Mist 2 1016 52 2500 0.5 0 12:59 11.06.2020
1620 Mist 2 1016 92 3700 1 40 12:39 11.06.2020
1621 Mist 2 1016 49 3700 1 190 12:20 11.06.2020
1622 Mist 2 1016 49 3700 1 190 11:58 11.06.2020
1623 Mist 2 1016 49 3700 1 190 11:40 11.06.2020
1624 Mist 2 1016 48 3700 1 190 11:21 11.06.2020
1625 Mist 2 1016 48 3700 1 190 11:21 11.06.2020
1626 Mist 3 1016 86 4100 0.5 0 10:57 11.06.2020
1627 Mist 3 1016 86 4100 0.5 0 10:38 11.06.2020
1628 Mist 3 1016 86 4100 0.5 0 10:18 11.06.2020
1629 Mist 2 1016 47 4000 1 0 09:42 11.06.2020
1630 Mist 2 1016 45 4000 1 0 09:23 11.06.2020
1631 Mist 4 1016 47 4400 0.09 331 08:44 11.06.2020
1632 Mist 4 1016 46 4400 0.23 42 08:20 11.06.2020
1633 Mist 4 1016 46 4900 1.5 40 07:58 11.06.2020
1634 Mist 4 1016 46 4900 1.5 40 07:40 11.06.2020
1635 Clear 5 1016 45 6000 1 0 07:20 11.06.2020
1636 Clear 5 1016 44 6000 1 0 06:29 11.06.2020
1637 Smoke 6 1016 75 5000 0.29 54 05:39 11.06.2020
1638 Clear 8 1016 70 7000 2.1 160 03:54 11.06.2020
1639 Clear 8 1016 70 7000 2.1 160 03:23 11.06.2020
1640 Clear 9 1016 66 7000 1 0 02:32 11.06.2020
1641 Clear 10 1016 57 8000 2.6 190 01:51 11.06.2020
1642 Clear 11 1016 53 6000 0.6 251 01:25 11.06.2020
1643 Clear 11 1016 53 6000 0.6 251 00:50 11.06.2020
1644 Clear 12 1016 53 6000 0.69 243 00:29 11.06.2020
1645 Clear 14 1016 44 6000 1.5 270 23:47 10.06.2020
1646 Clear 14 1016 44 6000 1.5 270 23:27 10.06.2020
1647 Haze 16 1016 36 5000 2.6 220 22:57 10.06.2020
1648 Haze 16 1016 36 5000 2.6 220 22:38 10.06.2020
1649 Haze 16 1016 36 5000 2.6 220 22:20 10.06.2020
1650 Haze 16 1016 33 5000 1.5 290 21:58 10.06.2020
1651 Haze 16 1016 33 5000 1.5 290 21:39 10.06.2020
1652 Haze 16 1016 33 5000 1.5 290 21:18 10.06.2020
1653 Clear 15 1016 41 7000 1 260 20:57 10.06.2020
1654 Clear 15 1016 41 7000 1 260 20:39 10.06.2020
1655 Clear 15 1016 41 7000 1 260 20:21 10.06.2020
1656 Clear 14 1017 41 7000 1.5 190 19:42 10.06.2020
1657 Clear 13 1017 50 10000 1.5 290 19:20 10.06.2020
1658 Clear 13 1017 50 10000 1.5 290 19:00 10.06.2020
1659 Clear 13 1017 50 10000 1.5 290 18:41 10.06.2020
1660 Clear 9 1018 57 10000 1 240 18:20 10.06.2020
1661 Clear 11 1018 57 10000 1 240 17:58 10.06.2020
1662 Clear 10 1018 57 10000 1 240 17:40 10.06.2020
1663 Clear 10 1018 57 10000 1 240 17:19 10.06.2020
1664 Clear 7 1018 60 10000 1 250 16:58 10.06.2020
1665 Clear 7 1018 60 10000 1 250 16:39 10.06.2020
1666 Clear 7 1018 60 10000 1 250 16:39 10.06.2020
1667 Clear 6 1018 60 10000 1 250 16:20 10.06.2020
1668 Clear 5 1018 74 10000 1.5 60 15:55 10.06.2020
1669 Clear 4 1018 74 10000 1.5 60 15:36 10.06.2020
1670 Clear 2 1018 74 10000 1.5 60 15:18 10.06.2020
1671 Clear 2 1018 74 10000 1.5 60 15:18 10.06.2020
1672 Clear 1 1018 80 10000 1 100 14:40 10.06.2020
1673 Clear 2 1018 80 10000 1 100 14:21 10.06.2020
1674 Haze 2 1017 86 4000 1 120 13:41 10.06.2020
1675 Haze 3 1017 86 4000 1 120 13:22 10.06.2020
1676 Mist 2 1018 46 5000 1 0 12:55 10.06.2020
1677 Mist 2 1018 46 5000 1 0 12:55 10.06.2020
1678 Mist 2 1018 46 5000 1 0 12:37 10.06.2020
1679 Mist 2 1017 45 5000 3.1 20 12:18 10.06.2020
1680 Mist 2 1018 45 4800 2.1 10 11:42 10.06.2020
1681 Mist 3 1018 44 4800 2.6 350 11:20 10.06.2020
1682 Mist 2 1018 44 4800 2.6 350 10:58 10.06.2020
1683 Mist 3 1018 86 5000 1 0 10:40 10.06.2020
1684 Mist 3 1018 86 5000 1 0 10:40 10.06.2020
1685 Clear 4 1018 43 6000 1 0 10:21 10.06.2020
1686 Clear 3 1018 43 6000 1 0 09:44 10.06.2020
1687 Clear 3 1018 43 6000 1 0 09:25 10.06.2020
1688 Clear 4 1018 86 6000 1.5 80 08:58 10.06.2020
1689 Clear 4 1018 86 6000 1.5 80 08:39 10.06.2020
1690 Clear 5 1018 80 7000 1 300 08:21 10.06.2020
1691 Clear 5 1018 80 7000 1 300 07:41 10.06.2020
1692 Clear 5 1018 80 7000 1 300 07:23 10.06.2020
1693 Clear 6 1018 75 9000 0.5 0 06:50 10.06.2020
1694 Clear 6 1018 75 9000 0.5 0 06:30 10.06.2020
1695 Clear 6 1017 75 7000 1 0 05:58 10.06.2020
1696 Clear 6 1017 75 7000 1 0 05:29 10.06.2020
1697 Clear 7 1017 75 7000 0.27 342 04:46 10.06.2020
1698 Clear 7 1017 75 7000 0.5 316 04:28 10.06.2020
1699 Clouds 9 1017 66 8000 2.1 140 02:24 10.06.2020
1700 Clouds 12 1017 47 10000 1.5 200 01:39 10.06.2020
1701 Clouds 13 1017 47 10000 1.5 200 00:41 10.06.2020
1702 Clouds 13 1017 47 10000 1.5 200 00:23 10.06.2020
1703 Clouds 15 1017 41 8000 3.1 220 23:58 09.06.2020
1704 Clouds 15 1017 41 8000 3.1 220 23:39 09.06.2020
1705 Clouds 15 1017 41 8000 3.1 220 23:39 09.06.2020
1706 Clouds 15 1017 41 8000 3.1 220 23:21 09.06.2020
1707 Haze 16 1017 41 5000 3.1 250 22:56 09.06.2020
1708 Haze 16 1017 41 5000 3.1 250 22:38 09.06.2020
1709 Haze 16 1017 41 5000 3.1 250 22:20 09.06.2020
1710 Clouds 17 1017 36 7000 2.1 200 21:57 09.06.2020
1711 Clouds 17 1017 36 7000 2.1 200 21:38 09.06.2020
1712 Clouds 17 1017 36 7000 2.1 200 21:38 09.06.2020
1713 Clouds 17 1017 36 7000 2.1 200 21:20 09.06.2020
1714 Clouds 17 1017 36 7000 2.1 200 21:20 09.06.2020
1715 Clouds 16 1017 44 7000 1.5 270 20:57 09.06.2020
1716 Clouds 16 1017 44 7000 1.5 270 20:38 09.06.2020
1717 Clouds 15 1017 44 7000 1.5 270 20:19 09.06.2020
1718 Clouds 13 1018 58 6000 1.5 320 19:57 09.06.2020
1719 Clouds 14 1018 58 6000 1.5 320 19:38 09.06.2020
1720 Clear 13 1018 58 6000 1.5 320 19:20 09.06.2020
1721 Clear 11 1019 57 6000 1.5 180 18:56 09.06.2020
1722 Clear 11 1019 57 6000 1.5 180 18:37 09.06.2020
1723 Clear 9 1019 66 7000 1 230 18:18 09.06.2020
1724 Clear 9 1019 66 7000 1 230 17:54 09.06.2020
1725 Clear 9 1019 66 7000 1 230 17:36 09.06.2020
1726 Clear 9 1019 66 7000 1 230 17:18 09.06.2020
1727 Clear 6 1019 70 7000 0.88 270 16:42 09.06.2020
1728 Clouds 6 1019 70 7000 0.71 263 16:22 09.06.2020
1729 Clouds 4 1019 39 7000 1 150 15:55 09.06.2020
1730 Clouds 5 1019 39 7000 1 150 15:36 09.06.2020
1731 Clouds 2 1019 42 7000 1 150 15:18 09.06.2020
1732 Clouds 2 1019 86 8000 1 50 14:40 09.06.2020
1733 Clouds 3 1019 86 8000 1 50 14:20 09.06.2020
1734 Fog 2 1019 49 300 1.5 30 13:57 09.06.2020
1735 Fog 1 1019 49 300 1.5 30 13:38 09.06.2020
1736 Fog 2 1019 48 300 0.51 29 13:20 09.06.2020
1737 Fog 2 1019 48 1000 1 280 12:42 09.06.2020
1738 Fog 2 1019 49 1000 1 280 12:21 09.06.2020
1739 Fog 2 1019 49 1000 1 280 12:21 09.06.2020
1740 Fog 3 1019 100 2000 1 330 11:58 09.06.2020
1741 Mist 4 1019 100 2500 1 300 11:40 09.06.2020
1742 Mist 4 1019 100 2500 1 300 11:20 09.06.2020
1743 Fog 4 1019 93 2700 0.16 2 10:58 09.06.2020
1744 Mist 4 1019 100 3600 0.16 2 10:39 09.06.2020
1745 Mist 4 1019 100 3600 0.31 31 10:19 09.06.2020
1746 Mist 5 1020 93 4300 0.31 31 09:41 09.06.2020
1747 Mist 5 1020 93 4300 0.27 328 09:22 09.06.2020
1748 Mist 6 1020 86 4900 1 10 08:56 09.06.2020
1749 Mist 6 1020 86 4900 1 10 08:37 09.06.2020
1750 Mist 6 1020 86 4900 1 10 08:19 09.06.2020
1751 Mist 6 1020 86 4900 1.5 50 07:37 09.06.2020
1752 Mist 6 1020 87 5000 2.1 30 07:19 09.06.2020
1753 Mist 6 1020 87 5000 2.1 30 06:52 09.06.2020
1754 Mist 7 1021 87 4800 1.5 0 06:33 09.06.2020
1755 Haze 7 1021 81 5000 1.5 60 04:57 09.06.2020
1756 Clouds 8 1022 75 6000 1 0 02:52 09.06.2020
1757 Clouds 9 1022 66 7000 0.5 360 01:41 09.06.2020
1758 Haze 9 1022 70 5000 0.78 239 01:19 09.06.2020
1759 Haze 10 1022 70 5000 0.78 239 00:45 09.06.2020
1760 Haze 10 1022 66 5000 0.81 236 00:20 09.06.2020
1761 Haze 10 1022 66 5000 0.81 236 23:54 08.06.2020
1762 Haze 11 1022 66 5000 0.81 236 23:36 08.06.2020
1763 Haze 11 1022 66 5000 0.82 210 23:18 08.06.2020
1764 Clouds 11 1022 66 6000 0.82 210 22:41 08.06.2020
1765 Clouds 11 1022 66 6000 1.36 243 22:21 08.06.2020
1766 Clouds 11 1022 61 8000 1.36 243 21:58 08.06.2020
1767 Clouds 11 1022 61 8000 1.36 243 21:39 08.06.2020
1768 Clouds 11 1022 61 8000 1.35 253 21:21 08.06.2020
1769 Clouds 10 1022 61 8000 1.37 251 20:56 08.06.2020
1770 Clouds 10 1022 61 8000 1.37 251 20:38 08.06.2020
1771 Clouds 10 1022 61 8000 1.37 241 20:19 08.06.2020
1772 Clouds 10 1023 61 10000 1.37 241 19:44 08.06.2020
1773 Clouds 10 1023 66 10000 1.8 246 19:22 08.06.2020
1774 Clouds 10 1023 66 10000 1.8 246 18:58 08.06.2020
1775 Clouds 10 1023 66 10000 1.8 246 18:58 08.06.2020
1776 Clouds 10 1023 66 10000 1.8 246 18:39 08.06.2020
1777 Clouds 9 1023 70 10000 1.73 253 18:18 08.06.2020
1778 Clouds 8 1023 70 10000 1.73 253 17:55 08.06.2020
1779 Clouds 8 1023 70 10000 1.73 253 17:36 08.06.2020
1780 Clouds 8 1023 70 10000 1.18 258 17:18 08.06.2020
1781 Clouds 7 1023 81 10000 1.18 258 16:42 08.06.2020
1782 Clouds 6 1023 81 10000 0.99 253 16:23 08.06.2020
1783 Clouds 4 1023 86 10000 0.99 253 15:45 08.06.2020
1784 Clouds 3 1023 86 10000 0.39 271 15:22 08.06.2020
1785 Clouds 4 1023 47 10000 0.39 271 14:59 08.06.2020
1786 Clouds 4 1023 47 10000 0.39 271 14:40 08.06.2020
1787 Clouds 3 1023 49 10000 0.24 6 14:20 08.06.2020
1788 Clouds 3 1023 49 10000 0.24 6 14:20 08.06.2020
1789 Mist 3 1022 49 4000 1.5 50 13:44 08.06.2020
1790 Mist 3 1022 49 4000 1.5 50 13:25 08.06.2020
1791 Fog 4 1021 100 3000 2.1 40 12:54 08.06.2020
1792 Fog 4 1021 100 3000 2.1 40 12:36 08.06.2020
1793 Fog 2 1021 100 3500 2.1 40 12:18 08.06.2020
1794 Mist 4 1021 93 4300 1 0 11:41 08.06.2020
1795 Mist 4 1021 93 4300 1 0 11:23 08.06.2020
1796 Mist 4 1021 93 4700 1.5 260 10:58 08.06.2020
1797 Mist 4 1021 93 4700 1.5 260 10:39 08.06.2020
1798 Mist 4 1021 93 4700 1.5 260 10:20 08.06.2020
1799 Mist 4 1021 93 5000 2.1 200 09:58 08.06.2020
1800 Mist 4 1021 93 4900 1 160 09:40 08.06.2020
1801 Mist 4 1021 93 4900 1 160 09:21 08.06.2020
1802 Mist 4 1021 93 4900 1.5 120 08:46 08.06.2020
1803 Mist 4 1021 93 5000 1.5 70 08:22 08.06.2020
1804 Mist 5 1021 93 4700 1 0 07:46 08.06.2020
1805 Mist 5 1021 93 4700 1 0 07:23 08.06.2020
1806 Mist 5 1021 93 4900 1 10 06:50 08.06.2020
1807 Mist 6 1021 93 4900 1 10 06:30 08.06.2020
1808 Clear 6 1021 93 6000 1.5 40 05:51 08.06.2020
1809 Clear 6 1021 87 6000 1 0 04:29 08.06.2020
1810 Clear 9 1021 81 10000 3.6 130 02:32 08.06.2020
1811 Clouds 10 1021 76 10000 3.6 140 01:49 08.06.2020
1812 Clouds 11 1021 58 10000 1.5 190 01:30 08.06.2020
1813 Clouds 11 1021 58 10000 1.5 190 00:30 08.06.2020
1814 Clouds 13 1021 47 8000 2.1 260 23:42 07.06.2020
1815 Clouds 14 1021 47 8000 2.1 260 23:20 07.06.2020
1816 Clouds 14 1020 33 8000 2.1 250 22:59 07.06.2020
1817 Clouds 14 1020 33 8000 2.1 250 22:39 07.06.2020
1818 Clouds 14 1020 33 8000 2.1 250 22:19 07.06.2020
1819 Clouds 15 1020 35 7000 3.1 230 21:59 07.06.2020
1820 Clouds 15 1020 35 7000 3.1 230 21:39 07.06.2020
1821 Clouds 15 1020 35 7000 3.1 230 21:20 07.06.2020
1822 Clouds 15 1020 35 7000 3.1 230 21:20 07.06.2020
1823 Clouds 15 1020 35 7000 3.1 230 21:20 07.06.2020
1824 Clouds 15 1020 35 7000 3.1 230 21:20 07.06.2020
1825 Clouds 15 1020 38 6000 2.6 240 20:56 07.06.2020
1826 Clouds 15 1020 38 6000 2.6 240 20:38 07.06.2020
1827 Clouds 15 1020 38 6000 2.6 240 20:18 07.06.2020
1828 Clouds 15 1020 50 6000 2.1 240 19:55 07.06.2020
1829 Clouds 14 1020 50 6000 2.1 240 19:37 07.06.2020
1830 Clouds 13 1020 54 6000 1 240 19:19 07.06.2020
1831 Clouds 12 1020 54 6000 1 240 18:54 07.06.2020
1832 Clouds 12 1020 54 6000 1 240 18:36 07.06.2020
1833 Clear 8 1020 71 6000 0.5 180 18:18 07.06.2020
1834 Clear 8 1020 71 6000 0.5 180 17:41 07.06.2020
1835 Clear 8 1020 71 6000 0.5 180 17:22 07.06.2020
1836 Clear 9 1020 75 6000 1.5 30 16:45 07.06.2020
1837 Clear 6 1020 75 6000 1.5 30 16:23 07.06.2020
1838 Clear 5 1019 93 7000 0.5 240 15:59 07.06.2020
1839 Clear 5 1019 93 7000 0.5 240 15:36 07.06.2020
1840 Clear 3 1019 93 7000 0.5 240 15:18 07.06.2020
1841 Clear 3 1019 41 10000 1 60 14:38 07.06.2020
1842 Clouds 4 1019 44 10000 1 60 14:19 07.06.2020
1843 Fog 3 1019 100 200 4.1 40 13:47 07.06.2020
1844 Fog 3 1019 100 200 4.1 40 13:21 07.06.2020
1845 Fog 4 1018 100 300 1.5 300 12:45 07.06.2020
1846 Fog 3 1019 100 500 1.5 260 12:27 07.06.2020
1847 Fog 3 1019 100 500 1.5 260 11:56 07.06.2020
1848 Fog 4 1019 100 500 1.5 260 11:38 07.06.2020
1849 Fog 3 1019 100 500 1.5 260 11:20 07.06.2020
1850 Fog 4 1019 100 1500 0.98 40 10:59 07.06.2020
1851 Fog 4 1019 100 1500 0.98 40 10:40 07.06.2020
1852 Fog 4 1019 100 1500 1.04 50 10:19 07.06.2020
1853 Fog 5 1019 100 1200 0.5 0 09:56 07.06.2020
1854 Fog 5 1019 100 1200 0.5 0 09:38 07.06.2020
1855 Fog 5 1019 100 1200 0.5 0 09:19 07.06.2020
1856 Fog 4 1019 100 2000 2.6 40 08:45 07.06.2020
1857 Fog 4 1019 100 2000 2.6 40 08:23 07.06.2020
1858 Mist 6 1019 93 4100 1.5 290 07:47 07.06.2020
1859 Mist 6 1019 93 4100 1.5 290 07:28 07.06.2020
1860 Mist 7 1019 87 4600 1 0 06:38 07.06.2020
1861 Mist 7 1019 93 5000 0.8 27 05:36 07.06.2020
1862 Mist 8 1019 93 5000 0.33 324 04:20 07.06.2020
1863 Mist 8 1019 93 5000 0.33 324 04:20 07.06.2020
1864 Clouds 10 1019 81 8000 3.1 140 02:32 07.06.2020
1865 Clouds 11 1019 76 8000 2.6 140 01:50 07.06.2020
1866 Clouds 12 1019 66 8000 1 280 01:25 07.06.2020
1867 Clouds 12 1019 66 8000 1 280 00:42 07.06.2020
1868 Clouds 14 1018 58 8000 2.6 250 00:18 07.06.2020
1869 Clouds 14 1018 58 8000 2.6 250 23:57 06.06.2020
1870 Clouds 14 1018 58 8000 2.6 250 23:36 06.06.2020
1871 Clouds 14 1018 58 8000 2.6 250 23:18 06.06.2020
1872 Clouds 16 1018 44 10000 2.6 250 22:56 06.06.2020
1873 Clouds 16 1018 44 10000 2.6 250 22:37 06.06.2020
1874 Clouds 16 1018 44 10000 2.6 250 22:18 06.06.2020
1875 Clouds 18 1017 36 10000 3.1 210 21:43 06.06.2020
1876 Clouds 18 1017 36 10000 3.1 210 21:22 06.06.2020
1877 Clouds 18 1018 36 10000 2.6 240 20:56 06.06.2020
1878 Clouds 18 1018 36 10000 2.6 240 20:37 06.06.2020
1879 Clouds 18 1018 36 10000 2.6 240 20:18 06.06.2020
1880 Clouds 18 1019 36 10000 2.6 250 19:56 06.06.2020
1881 Clouds 17 1019 36 10000 2.6 250 19:37 06.06.2020
1882 Clouds 16 1019 38 10000 2.1 240 19:18 06.06.2020
1883 Clouds 16 1019 38 10000 2.1 240 18:42 06.06.2020
1884 Clouds 16 1019 38 10000 2.1 240 18:24 06.06.2020
1885 Clouds 16 1019 38 10000 2.1 240 18:24 06.06.2020
1886 Clouds 14 1018 44 10000 1 240 17:57 06.06.2020
1887 Clouds 15 1018 44 10000 1 240 17:39 06.06.2020
1888 Clouds 13 1018 44 10000 1 240 17:18 06.06.2020
1889 Clouds 11 1018 46 10000 0.5 260 16:40 06.06.2020
1890 Clouds 12 1018 46 10000 0.5 260 16:21 06.06.2020
1891 Clouds 9 1018 29 10000 1.5 70 15:55 06.06.2020
1892 Clouds 9 1018 29 10000 1.5 70 15:37 06.06.2020
1893 Clouds 5 1018 30 10000 1.5 70 15:18 06.06.2020
1894 Clouds 3 1017 69 10000 1.5 30 14:40 06.06.2020
1895 Clouds 4 1017 69 10000 1.5 30 14:22 06.06.2020
1896 Mist 3 1017 31 3000 1 0 13:55 06.06.2020
1897 Mist 4 1016 31 4000 1 0 13:37 06.06.2020
1898 Mist 4 1015 31 5000 1 150 13:18 06.06.2020
1899 Mist 4 1015 31 5000 1 150 12:42 06.06.2020
1900 Mist 4 1015 32 5000 1 150 12:23 06.06.2020
1901 Clear 6 1015 80 6000 1.5 310 11:58 06.06.2020
1902 Clear 6 1015 80 6000 1.5 310 11:38 06.06.2020
1903 Clear 6 1015 80 6000 1.5 310 11:19 06.06.2020
1904 Clear 6 1015 80 6000 3.6 10 10:57 06.06.2020
1905 Clear 6 1015 80 6000 3.6 10 10:39 06.06.2020
1906 Clear 6 1015 80 6000 3.6 10 10:39 06.06.2020
1907 Clear 6 1015 80 6000 3.6 10 10:20 06.06.2020
1908 Mist 4 1016 32 5000 3.1 50 09:45 06.06.2020
1909 Mist 4 1016 33 5000 3.1 50 09:27 06.06.2020
1910 Mist 5 1018 80 5000 1.5 190 08:56 06.06.2020
1911 Mist 6 1018 80 5000 1.5 190 08:38 06.06.2020
1912 Mist 6 1018 80 5000 1.5 190 08:18 06.06.2020
1913 Clear 6 1018 80 6000 1.5 50 07:45 06.06.2020
1914 Clear 6 1018 80 6000 1.5 50 07:20 06.06.2020
1915 Clear 6 1019 86 6000 1 20 06:46 06.06.2020
1916 Clear 6 1019 86 6000 1 20 06:27 06.06.2020
1917 Clear 7 1019 81 6000 0.5 290 05:52 06.06.2020
1918 Clear 7 1019 81 6000 0.5 290 05:26 06.06.2020
1919 Clear 8 1019 75 6000 1.5 310 04:38 06.06.2020
1920 Clear 10 1019 57 10000 0.5 0 02:36 06.06.2020
1921 Clear 11 1019 50 10000 3.1 230 01:42 06.06.2020
1922 Clear 13 1019 50 10000 0.19 178 01:18 06.06.2020
1923 Clear 14 1019 50 10000 0.19 178 00:41 06.06.2020
1924 Clear 14 1019 50 10000 0.34 120 00:23 06.06.2020
1925 Clear 16 1019 44 10000 1 250 23:40 05.06.2020
1926 Clear 16 1019 44 10000 1 250 23:21 05.06.2020
1927 Clear 17 1019 36 10000 2.1 230 22:59 05.06.2020
1928 Clear 17 1019 36 10000 2.1 230 22:41 05.06.2020
1929 Clear 17 1019 36 10000 2.1 230 22:23 05.06.2020
1930 Clear 17 1019 42 8000 1.5 320 21:57 05.06.2020
1931 Clear 17 1019 42 8000 1.5 320 21:39 05.06.2020
1932 Clear 17 1019 42 8000 1.5 320 21:19 05.06.2020
1933 Clear 16 1020 41 10000 2.1 320 20:55 05.06.2020
1934 Clear 16 1020 41 10000 2.1 320 20:37 05.06.2020
1935 Clear 15 1021 41 8000 1 350 20:18 05.06.2020
1936 Clear 15 1021 41 8000 1 350 19:40 05.06.2020
1937 Clear 15 1021 41 8000 1 350 19:21 05.06.2020
1938 Clear 13 1022 50 8000 1.5 150 18:54 05.06.2020
1939 Clear 13 1022 50 8000 1.5 150 18:36 05.06.2020
1940 Clear 11 1022 53 10000 1 230 18:18 05.06.2020
1941 Clear 11 1022 53 10000 1 230 17:55 05.06.2020
1942 Clear 11 1022 53 10000 1 230 17:37 05.06.2020
1943 Clear 11 1022 53 10000 1 230 17:18 05.06.2020
1944 Clear 8 1023 65 10000 1 150 16:37 05.06.2020
1945 Clear 8 1023 65 10000 1 150 16:19 05.06.2020
1946 Clear 3 1023 93 10000 1 90 15:40 05.06.2020
1947 Clear 3 1023 93 10000 1 90 15:21 05.06.2020
1948 Clear 2 1022 43 8000 1 350 14:58 05.06.2020
1949 Clear 2 1022 43 8000 1 350 14:40 05.06.2020
1950 Clear 2 1022 48 8000 1 350 14:21 05.06.2020
1951 Mist 2 1022 48 4000 1.5 280 13:47 05.06.2020
1952 Mist 1 1022 49 4000 1.5 280 13:28 05.06.2020
1953 Mist 4 1022 93 5000 2.1 50 12:57 05.06.2020
1954 Mist 4 1022 93 5000 2.1 50 12:39 05.06.2020
1955 Mist 2 1022 93 5000 2.1 50 12:19 05.06.2020
1956 Mist 4 1022 93 4500 1.5 330 11:43 05.06.2020
1957 Mist 4 1022 93 4500 1.5 330 11:43 05.06.2020
1958 Mist 4 1022 93 4500 1.5 330 11:24 05.06.2020
1959 Mist 3 1023 100 3800 0.5 20 10:59 05.06.2020
1960 Mist 4 1023 100 3800 0.5 20 10:41 05.06.2020
1961 Mist 4 1023 100 3800 0.5 20 10:20 05.06.2020
1962 Mist 5 1024 93 4600 1 270 09:57 05.06.2020
1963 Mist 4 1024 93 4600 1 270 09:39 05.06.2020
1964 Mist 4 1024 93 4600 1 270 09:19 05.06.2020
1965 Mist 3 1024 93 4700 0.51 229 08:57 05.06.2020
1966 Mist 5 1024 86 5000 0.51 229 08:39 05.06.2020
1967 Mist 5 1024 86 5000 0.16 125 08:18 05.06.2020
1968 Mist 5 1024 93 4700 0.16 125 07:49 05.06.2020
1969 Clear 5 1024 93 7000 1 70 07:31 05.06.2020
1970 Clear 6 1024 86 7000 2.1 20 06:45 05.06.2020
1971 Clear 7 1024 87 8000 1.5 350 05:23 05.06.2020
1972 Clear 7 1023 75 8000 0.5 255 04:27 05.06.2020
1973 Clear 9 1023 71 10000 1.5 0 03:29 05.06.2020
1974 Clear 10 1022 66 10000 3.1 220 02:29 05.06.2020
1975 Clear 11 1022 66 10000 3.6 220 01:58 05.06.2020
1976 Clear 11 1022 53 10000 0.5 60 01:30 05.06.2020
1977 Clear 12 1022 53 10000 0.5 60 00:43 05.06.2020
1978 Clear 13 1021 44 10000 0.5 300 00:21 05.06.2020
1979 Clear 14 1021 44 10000 0.5 300 23:47 04.06.2020
1980 Clear 14 1021 44 10000 0.5 300 23:29 04.06.2020
1981 Clouds 14 1021 44 10000 2.1 240 22:57 04.06.2020
1982 Clouds 14 1021 44 10000 2.1 240 22:38 04.06.2020
1983 Clouds 14 1021 44 10000 2.1 240 22:20 04.06.2020
1984 Clouds 14 1021 44 10000 2.1 240 21:57 04.06.2020
1985 Clouds 14 1021 44 10000 2.1 240 21:38 04.06.2020
1986 Clouds 14 1021 44 10000 2.1 240 21:19 04.06.2020
1987 Clear 14 1021 47 10000 2.1 240 20:55 04.06.2020
1988 Clear 14 1021 47 10000 2.1 240 20:37 04.06.2020
1989 Clear 14 1021 47 10000 2.1 240 20:18 04.06.2020
1990 Clear 12 1022 54 10000 1.5 300 19:40 04.06.2020
1991 Clear 11 1023 57 10000 2.6 240 19:21 04.06.2020
1992 Clear 12 1023 57 10000 2.6 240 19:21 04.06.2020
1993 Clear 12 1023 57 10000 2.6 240 18:56 04.06.2020
1994 Clear 11 1023 57 10000 2.6 240 18:38 04.06.2020
1995 Clear 8 1022 81 6000 3.1 10 18:20 04.06.2020
1996 Clear 10 1022 81 6000 3.1 10 17:43 04.06.2020
1997 Clear 8 1023 65 10000 1.5 270 17:22 04.06.2020
1998 Clear 7 1023 65 10000 1.5 270 16:57 04.06.2020
1999 Clear 7 1023 65 10000 1.5 270 16:39 04.06.2020
2000 Clear 7 1023 65 10000 1.5 270 16:18 04.06.2020
2001 Clear 5 1023 93 10000 2.6 60 15:43 04.06.2020
2002 Clear 3 1023 93 10000 2.6 60 15:25 04.06.2020
2003 Clear 2 1023 74 10000 1.5 60 14:41 04.06.2020
2004 Clear 2 1023 74 10000 1.5 60 14:22 04.06.2020
2005 Clear 2 1023 74 10000 1.5 60 14:22 04.06.2020
2006 Mist 2 1022 100 3000 1 0 13:58 04.06.2020
2007 Mist 1 1022 100 3000 1 0 13:39 04.06.2020
2008 Mist 3 1022 100 3000 1 0 13:20 04.06.2020
2009 Mist 3 1021 100 3000 1 0 12:58 04.06.2020
2010 Mist 2 1021 100 4000 1 50 12:40 04.06.2020
2011 Mist 2 1021 100 4000 1 50 12:21 04.06.2020
2012 Mist 3 1021 93 4700 2.6 360 11:54 04.06.2020
2013 Mist 4 1021 93 4700 2.6 360 11:36 04.06.2020
2014 Mist 3 1021 93 4700 2.6 360 11:18 04.06.2020
2015 Clear 5 1020 93 6000 1 170 10:40 04.06.2020
2016 Clear 5 1020 93 6000 1 170 10:22 04.06.2020
2017 Clear 4 1021 100 6000 1.5 200 09:56 04.06.2020
2018 Mist 4 1020 100 6000 1.5 20 09:38 04.06.2020
2019 Mist 4 1020 100 6000 1.5 20 09:19 04.06.2020
2020 Clear 4 1020 100 6000 1.5 340 08:41 04.06.2020
2021 Clear 4 1020 100 6000 1.5 340 08:23 04.06.2020
2022 Mist 4 1020 100 5000 2.1 30 07:42 04.06.2020
2023 Mist 5 1020 100 4400 3.1 50 07:21 04.06.2020
2024 Mist 4 1020 93 4800 3.1 10 06:40 04.06.2020
2025 Clear 5 1020 100 8000 1 70 06:22 04.06.2020
2026 Clear 6 1020 93 8000 0.5 0 05:34 04.06.2020
2027 Clear 6 1020 93 8000 0.5 0 05:34 04.06.2020
2028 Clear 7 1020 87 10000 1 0 03:54 04.06.2020
2029 Clear 9 1020 76 10000 2.6 220 02:38 04.06.2020
2030 Clouds 9 1019 76 10000 0.51 256 01:42 04.06.2020
2031 Clouds 9 1020 57 10000 1 180 01:19 04.06.2020
2032 Clouds 10 1020 57 10000 1 180 00:28 04.06.2020
2033 Clouds 11 1020 50 10000 2.6 250 23:41 03.06.2020
2034 Clouds 11 1020 50 10000 2.6 250 23:20 03.06.2020
2035 Clouds 11 1019 51 10000 2.6 250 22:57 03.06.2020
2036 Clouds 11 1019 51 10000 2.6 250 22:38 03.06.2020
2037 Clouds 11 1019 53 10000 2.6 250 22:18 03.06.2020
2038 Clouds 11 1019 50 10000 1 180 21:56 03.06.2020
2039 Clouds 11 1019 50 10000 1 180 21:37 03.06.2020
2040 Clouds 11 1019 50 10000 1 180 21:19 03.06.2020
2041 Clouds 11 1019 50 10000 2.1 320 20:43 03.06.2020
2042 Clouds 11 1019 50 10000 2.1 320 20:21 03.06.2020
2043 Clouds 9 1020 76 10000 2.6 20 19:58 03.06.2020
2044 Clouds 9 1020 76 10000 2.6 20 19:39 03.06.2020
2045 Clouds 9 1020 76 10000 1.5 60 19:21 03.06.2020
2046 Clouds 9 1020 76 10000 1.5 60 18:59 03.06.2020
2047 Clouds 9 1020 76 10000 1.5 60 18:41 03.06.2020
2048 Rain 8 1021 81 10000 1 60 18:20 03.06.2020
2049 Rain 8 1021 81 10000 1 60 17:45 03.06.2020
2050 Rain 8 1021 81 10000 1 60 17:23 03.06.2020
2051 Clouds 9 1020 87 8000 1 20 16:59 03.06.2020
2052 Clouds 9 1020 87 8000 1 20 16:41 03.06.2020
2053 Clouds 9 1020 87 8000 1 20 16:20 03.06.2020
2054 Clouds 8 1018 87 10000 1.5 270 15:55 03.06.2020
2055 Clouds 8 1018 87 10000 1.5 270 15:37 03.06.2020
2056 Clouds 8 1018 87 10000 1.5 270 15:19 03.06.2020
2057 Rain 8 1018 87 10000 1.5 200 14:45 03.06.2020
2058 Rain 8 1018 87 10000 1.5 200 14:24 03.06.2020
2059 Rain 7 1017 87 10000 1.43 181 13:54 03.06.2020
2060 Rain 7 1017 87 10000 1.43 181 13:36 03.06.2020
2061 Clouds 7 1016 87 10000 2.6 130 13:18 03.06.2020
2062 Clouds 8 1016 87 10000 2.6 130 12:42 03.06.2020
2063 Clouds 8 1016 87 10000 2.6 130 12:19 03.06.2020
2064 Clouds 8 1015 76 10000 4.6 190 11:44 03.06.2020
2065 Clouds 9 1015 76 10000 4.6 190 11:26 03.06.2020
2066 Clouds 8 1015 81 10000 2.1 190 10:55 03.06.2020
2067 Clouds 9 1015 81 10000 2.1 190 10:36 03.06.2020
2068 Clouds 9 1015 81 10000 2.1 190 10:18 03.06.2020
2069 Clouds 8 1015 81 10000 2.6 170 09:41 03.06.2020
2070 Clouds 9 1015 81 10000 2.6 170 09:19 03.06.2020
2071 Clouds 8 1015 87 10000 4.1 150 08:47 03.06.2020
2072 Clouds 9 1015 87 10000 4.1 150 08:22 03.06.2020
2073 Clouds 10 1015 87 10000 4.1 150 07:58 03.06.2020
2074 Clouds 10 1015 81 7000 2.6 140 07:36 03.06.2020
2075 Clouds 10 1015 81 7000 2.6 140 07:18 03.06.2020
2076 Clouds 10 1015 81 7000 2.6 140 06:44 03.06.2020
2077 Clouds 10 1015 76 7000 2.1 110 06:22 03.06.2020
2078 Clouds 10 1015 76 7000 2.1 110 05:44 03.06.2020
2079 Clouds 10 1015 76 7000 2.1 220 04:20 03.06.2020
2080 Clouds 11 1015 76 8000 4.6 170 03:41 03.06.2020
2081 Clouds 12 1015 66 8000 3.6 90 02:39 03.06.2020
2082 Clouds 11 1015 71 8000 5.7 200 01:44 03.06.2020
2083 Mist 12 1016 76 2000 0.92 253 00:39 03.06.2020
2084 Mist 12 1016 76 2000 0.53 144 00:19 03.06.2020
2085 Mist 13 1017 76 2000 0.53 144 23:45 02.06.2020
2086 Mist 13 1017 76 2000 1.21 240 23:27 02.06.2020
2087 Mist 13 1017 71 4000 1.21 240 22:55 02.06.2020
2088 Mist 13 1017 71 4000 1.21 240 22:36 02.06.2020
2089 Mist 13 1017 71 4000 1.44 250 22:18 02.06.2020
2090 Mist 13 1017 71 4000 1.44 250 21:54 02.06.2020
2091 Mist 13 1017 71 4000 1.44 250 21:36 02.06.2020
2092 Mist 13 1017 71 4000 1.44 250 21:36 02.06.2020
2093 Mist 13 1017 71 4000 1.61 234 21:18 02.06.2020
2094 Mist 14 1017 71 4000 1.62 240 20:42 02.06.2020
2095 Mist 14 1017 71 4000 2.13 232 20:23 02.06.2020
2096 Mist 13 1019 71 4000 2.6 220 19:46 02.06.2020
2097 Mist 13 1019 71 4000 2.6 220 19:27 02.06.2020
2098 Clouds 13 1019 66 7000 1.93 252 18:59 02.06.2020
2099 Clouds 13 1019 66 7000 1.93 252 18:41 02.06.2020
2100 Clouds 13 1019 66 7000 1.34 279 18:22 02.06.2020
2101 Clouds 13 1020 71 7000 1.34 279 17:59 02.06.2020
2102 Clouds 13 1020 71 7000 1.34 279 17:41 02.06.2020
2103 Clouds 13 1020 71 7000 0.93 286 17:22 02.06.2020
2104 Clouds 12 1020 71 8000 2.1 180 16:56 02.06.2020
2105 Clouds 12 1020 71 8000 2.1 180 16:38 02.06.2020
2106 Clouds 12 1020 71 8000 2.1 180 16:20 02.06.2020
2107 Clouds 10 1020 87 7000 0.62 287 15:42 02.06.2020
2108 Clouds 10 1020 87 7000 0.58 70 15:23 02.06.2020
2109 Clouds 9 1021 87 7000 0.58 70 14:49 02.06.2020
2110 Clouds 9 1021 87 7000 0.58 70 14:30 02.06.2020
2111 Clouds 9 1020 87 7000 2.6 180 13:58 02.06.2020
2112 Clouds 9 1020 87 7000 2.6 180 13:39 02.06.2020
2113 Clouds 8 1020 87 7000 2.6 180 13:19 02.06.2020
2114 Clouds 8 1020 81 7000 2.1 340 12:58 02.06.2020
2115 Clouds 8 1020 81 7000 2.1 340 12:40 02.06.2020
2116 Clouds 8 1020 81 7000 2.1 340 12:20 02.06.2020
2117 Clouds 7 1020 87 7000 1.5 40 11:55 02.06.2020
2118 Clouds 7 1020 87 7000 1.5 40 11:37 02.06.2020
2119 Clouds 7 1020 87 7000 1.5 40 11:18 02.06.2020
2120 Clouds 8 1021 87 8000 1 0 10:47 02.06.2020
2121 Clouds 9 1021 87 8000 1 0 10:28 02.06.2020
2122 Clouds 8 1021 87 8000 0.81 49 09:56 02.06.2020
2123 Clouds 8 1021 87 8000 0.81 49 09:37 02.06.2020
2124 Clouds 8 1021 87 8000 0.62 82 09:19 02.06.2020
2125 Clouds 10 1022 81 9000 1 0 08:46 02.06.2020
2126 Clouds 10 1022 81 9000 1 0 08:20 02.06.2020
2127 Clouds 10 1022 81 9000 1.5 50 07:44 02.06.2020
2128 Clouds 10 1022 81 9000 1.5 50 07:25 02.06.2020
2129 Clouds 11 1022 76 10000 2.1 20 06:43 02.06.2020
2130 Clouds 11 1022 76 10000 2.1 20 06:43 02.06.2020
2131 Clouds 12 1023 71 8000 1.07 73 05:57 02.06.2020
2132 Clouds 12 1024 66 10000 2.6 200 04:58 02.06.2020
2133 Clouds 14 1023 67 10000 4.1 150 03:21 02.06.2020
2134 Clouds 15 1023 62 10000 3.6 130 02:24 02.06.2020
2135 Clouds 16 1023 63 7000 0.59 173 00:58 02.06.2020
2136 Clear 16 1023 63 7000 1.52 219 00:25 02.06.2020
2137 Clouds 17 1023 52 7000 2.6 240 23:54 01.06.2020
2138 Clouds 18 1023 52 7000 2.6 240 23:36 01.06.2020
2139 Clouds 18 1023 52 7000 2.6 240 23:36 01.06.2020
2140 Clouds 18 1023 52 7000 2.6 240 23:18 01.06.2020
2141 Clouds 19 1022 48 7000 2.1 230 22:41 01.06.2020
2142 Clouds 19 1022 48 7000 2.1 230 22:20 01.06.2020
2143 Clouds 20 1022 48 7000 2.6 230 21:57 01.06.2020
2144 Clouds 20 1022 48 7000 2.6 230 21:37 01.06.2020
2145 Clouds 20 1022 48 7000 2.6 230 21:18 01.06.2020
2146 Clouds 20 1023 48 7000 2.1 210 20:55 01.06.2020
2147 Clouds 19 1023 52 7000 2.2 237 20:37 01.06.2020
2148 Clouds 18 1023 52 7000 2.09 239 20:18 01.06.2020
2149 Clouds 19 1023 52 7000 2.09 239 19:43 01.06.2020
2150 Clouds 16 1024 59 7000 1.94 238 19:21 01.06.2020
2151 Clouds 16 1024 59 7000 1.94 238 18:59 01.06.2020
2152 Clouds 16 1024 59 7000 1.94 238 18:39 01.06.2020
2153 Clouds 15 1024 62 8000 1.95 240 18:19 01.06.2020
2154 Clouds 16 1024 62 8000 1.95 240 17:56 01.06.2020
2155 Clouds 16 1024 62 8000 1.95 240 17:38 01.06.2020
2156 Clouds 15 1024 62 8000 1.27 246 17:18 01.06.2020
2157 Clouds 13 1024 81 8000 1.27 246 16:40 01.06.2020
2158 Clouds 12 1024 81 8000 1.16 235 16:22 01.06.2020
2159 Clouds 9 1024 93 8000 1.16 235 15:56 01.06.2020
2160 Clouds 11 1024 93 8000 1.16 235 15:37 01.06.2020
2161 Clouds 9 1024 93 8000 0.46 235 15:19 01.06.2020
2162 Clouds 9 1023 76 8000 0.46 235 14:57 01.06.2020
2163 Clouds 9 1023 76 8000 0.46 235 14:38 01.06.2020
2164 Clouds 9 1023 76 8000 0.55 63 14:20 01.06.2020
2165 Mist 8 1022 87 5000 1.5 360 13:43 01.06.2020
2166 Mist 8 1022 87 5000 1.5 360 13:22 01.06.2020
2167 Clouds 7 1021 93 6000 1 0 12:59 01.06.2020
2168 Clouds 7 1021 93 6000 1 0 12:40 01.06.2020
2169 Clouds 7 1021 93 6000 1 0 12:40 01.06.2020
2170 Clouds 7 1021 93 6000 1 0 12:40 01.06.2020
2171 Clouds 7 1021 93 6000 1 0 12:22 01.06.2020
2172 Clouds 8 1021 87 7000 1 0 11:58 01.06.2020
2173 Clouds 8 1021 87 7000 1 0 11:37 01.06.2020
2174 Clouds 8 1021 87 7000 1 0 11:19 01.06.2020
2175 Clouds 8 1021 87 7000 1 0 11:19 01.06.2020
2176 Clouds 8 1021 81 8000 1 180 10:56 01.06.2020
2177 Clouds 8 1021 81 8000 1 180 10:36 01.06.2020
2178 Clouds 8 1021 81 8000 1 180 10:18 01.06.2020
2179 Clouds 9 1021 81 8000 1.5 0 09:44 01.06.2020
2180 Clouds 9 1021 81 8000 1.5 0 09:25 01.06.2020
2181 Clouds 10 1021 81 8000 1 270 08:57 01.06.2020
2182 Clouds 10 1021 81 8000 1 270 08:34 01.06.2020
2183 Clouds 10 1020 81 9000 2.1 20 07:59 01.06.2020
2184 Clouds 10 1020 81 9000 2.1 20 07:40 01.06.2020
2185 Clouds 10 1020 81 9000 2.1 20 07:22 01.06.2020
2186 Clouds 10 1020 81 10000 0.48 205 06:49 01.06.2020
2187 Clouds 11 1020 81 10000 1.5 250 05:57 01.06.2020
2188 Clouds 13 1020 71 10000 3.1 150 04:58 01.06.2020
2189 Clouds 13 1020 71 10000 3.6 150 03:57 01.06.2020
2190 Clouds 14 1020 71 10000 3.6 150 03:37 01.06.2020
2191 Clear 14 1019 67 10000 3.1 150 02:49 01.06.2020
2192 Clear 16 1019 63 10000 2.1 170 01:40 01.06.2020
2193 Haze 17 1020 59 5000 1 200 01:18 01.06.2020
2194 Haze 17 1020 59 5000 1 200 00:46 01.06.2020
2195 Haze 17 1020 59 5000 1 200 00:21 01.06.2020
2196 Clouds 18 1019 52 7000 1.5 210 23:59 31.05.2020
2197 Clouds 18 1019 52 7000 1.5 210 23:40 31.05.2020
2198 Clouds 18 1019 52 7000 1.5 210 23:22 31.05.2020
2199 Clouds 19 1019 48 6000 2.1 210 22:58 31.05.2020
2200 Clouds 19 1019 48 6000 2.1 210 22:40 31.05.2020
2201 Clouds 19 1019 48 6000 2.1 210 22:21 31.05.2020
2202 Haze 20 1019 45 4000 2.1 210 21:57 31.05.2020
2203 Haze 20 1019 45 4000 2.1 210 21:38 31.05.2020
2204 Haze 20 1019 45 4000 2.1 210 21:20 31.05.2020
2205 Haze 20 1020 52 4000 1.5 170 20:42 31.05.2020
2206 Haze 20 1020 52 4000 1.5 170 20:24 31.05.2020
2207 Haze 18 1020 55 4000 1 330 19:56 31.05.2020
2208 Haze 19 1020 55 4000 1 330 19:37 31.05.2020
2209 Haze 19 1020 55 4000 1 330 19:19 31.05.2020
2210 Haze 17 1021 59 3000 0.5 280 18:44 31.05.2020
2211 Haze 17 1021 59 3000 0.5 280 18:25 31.05.2020
2212 Haze 15 1021 63 3000 0.5 240 17:58 31.05.2020
2213 Haze 15 1021 63 3000 0.5 240 17:39 31.05.2020
2214 Haze 15 1021 63 3000 0.5 240 17:20 31.05.2020
2215 Haze 13 1021 82 4000 1 30 16:41 31.05.2020
2216 Haze 10 1020 100 3000 1.05 238 16:21 31.05.2020
2217 Haze 10 1020 100 3000 1.05 238 16:21 31.05.2020
2218 Haze 13 1021 82 4000 1 30 16:21 31.05.2020
2219 Haze 11 1020 100 3000 1.05 238 15:41 31.05.2020
2220 Haze 10 1020 100 3000 0.24 180 15:23 31.05.2020
2221 Mist 10 1020 87 4000 0.24 180 14:58 31.05.2020
2222 Mist 10 1020 87 4000 0.24 180 14:40 31.05.2020
2223 Mist 10 1020 87 4000 0.23 115 14:19 31.05.2020
2224 Mist 9 1019 87 3000 2.1 50 13:55 31.05.2020
2225 Mist 9 1019 87 3000 2.1 50 13:36 31.05.2020
2226 Mist 9 1019 87 3000 2.1 50 13:18 31.05.2020
2227 Mist 10 1018 87 3700 2.6 30 12:41 31.05.2020
2228 Mist 10 1018 87 3700 2.6 30 12:23 31.05.2020
2229 Mist 10 1019 87 4500 3.1 30 11:49 31.05.2020
2230 Mist 10 1019 87 4500 3.1 30 11:25 31.05.2020
2231 Mist 10 1019 87 4900 2.6 60 10:59 31.05.2020
2232 Mist 9 1019 87 4400 0.48 159 10:41 31.05.2020
2233 Mist 9 1019 87 4400 0.41 62 10:23 31.05.2020
2234 Mist 9 1019 87 4400 0.41 62 10:23 31.05.2020
2235 Mist 9 1020 87 4900 1 0 09:56 31.05.2020
2236 Mist 11 1020 87 4900 1 0 09:38 31.05.2020
2237 Mist 11 1020 87 4900 1 0 09:38 31.05.2020
2238 Mist 9 1020 87 4900 1 0 09:19 31.05.2020
2239 Mist 10 1019 87 5000 2.6 300 08:42 31.05.2020
2240 Mist 10 1019 87 5000 2.6 300 08:23 31.05.2020
2241 Rain 11 1019 76 6000 2.1 200 07:48 31.05.2020
2242 Clouds 12 1019 76 6000 2.1 200 07:21 31.05.2020
2243 Smoke 11 1019 81 5000 1 0 06:56 31.05.2020
2244 Smoke 11 1019 81 5000 1 0 06:34 31.05.2020
2245 Smoke 11 1018 81 5000 0.17 49 05:48 31.05.2020
2246 Smoke 11 1018 81 5000 0.17 49 05:30 31.05.2020
2247 Clear 10 1018 76 7000 1 360 03:57 31.05.2020
2248 Clouds 12 1018 71 7000 1 0 02:59 31.05.2020
2249 Clouds 12 1018 71 7000 1 0 02:33 31.05.2020
2250 Clouds 13 1017 67 8000 1.5 150 01:39 31.05.2020
2251 Clouds 16 1018 59 6000 1 250 00:37 31.05.2020
2252 Clouds 16 1018 59 6000 1 250 00:19 31.05.2020
2253 Clouds 17 1018 51 6000 1 260 23:41 30.05.2020
2254 Clouds 17 1018 51 6000 1 260 23:23 30.05.2020
2255 Haze 18 1018 48 5000 1.5 260 22:42 30.05.2020
2256 Haze 18 1018 48 5000 1.5 260 22:23 30.05.2020
2257 Haze 18 1018 42 4000 1 200 21:58 30.05.2020
2258 Haze 18 1018 42 4000 1 200 21:40 30.05.2020
2259 Haze 18 1018 42 4000 1 200 21:22 30.05.2020
2260 Haze 17 1018 55 4000 2.43 234 20:57 30.05.2020
2261 Haze 18 1018 55 4000 2.43 234 20:39 30.05.2020
2262 Haze 16 1018 55 4000 1.82 240 20:21 30.05.2020
2263 Haze 17 1018 55 4000 1.5 270 19:44 30.05.2020
2264 Haze 17 1018 55 4000 1.5 270 19:22 30.05.2020
2265 Haze 15 1019 62 4000 1.5 190 18:59 30.05.2020
2266 Haze 15 1019 62 4000 1.5 190 18:40 30.05.2020
2267 Haze 14 1019 62 4000 1.5 190 18:18 30.05.2020
2268 Haze 13 1019 66 3000 1 190 17:40 30.05.2020
2269 Haze 13 1019 66 3000 1 190 17:22 30.05.2020
2270 Haze 10 1019 87 3000 1.14 265 16:45 30.05.2020
2271 Haze 10 1019 87 3000 0.55 289 16:24 30.05.2020
2272 Haze 10 1019 87 3000 0.55 289 16:24 30.05.2020
2273 Mist 8 1019 93 2000 0.55 289 15:59 30.05.2020
2274 Mist 9 1019 93 2000 0.55 289 15:41 30.05.2020
2275 Mist 9 1019 93 2000 0.55 289 15:41 30.05.2020
2276 Mist 8 1019 93 2000 0.57 18 15:22 30.05.2020
2277 Clouds 7 1019 93 1500 1.5 30 14:43 30.05.2020
2278 Clouds 7 1019 93 1500 1.5 30 14:23 30.05.2020
2279 Clouds 9 1018 81 8000 2.1 140 13:43 30.05.2020
2280 Clouds 8 1018 81 8000 2.1 140 13:22 30.05.2020
2281 Clouds 9 1018 81 10000 0.29 152 12:42 30.05.2020
2282 Clouds 9 1018 81 10000 0.36 181 12:20 30.05.2020
2283 Clouds 10 1018 76 10000 1.5 190 11:57 30.05.2020
2284 Clouds 10 1018 76 10000 1.5 190 11:39 30.05.2020
2285 Clouds 10 1018 76 10000 1.5 190 11:20 30.05.2020
2286 Clouds 10 1018 76 10000 2.6 160 10:40 30.05.2020
2287 Clouds 10 1018 76 10000 2.6 160 10:21 30.05.2020
2288 Clouds 10 1019 81 10000 4.1 170 09:49 30.05.2020
2289 Clouds 9 1019 81 10000 4.1 170 09:30 30.05.2020
2290 Clouds 9 1019 87 6000 5.1 170 08:51 30.05.2020
2291 Clouds 9 1019 87 6000 5.1 170 08:51 30.05.2020
2292 Clouds 10 1019 87 6000 5.1 170 08:32 30.05.2020
2293 Mist 10 1019 93 5000 2.1 150 07:45 30.05.2020
2294 Mist 10 1019 93 5000 2.1 150 07:24 30.05.2020
2295 Clouds 11 1020 87 6000 0.5 0 06:51 30.05.2020
2296 Clouds 11 1020 87 6000 0.5 0 06:23 30.05.2020
2297 Clouds 12 1020 81 7000 0.77 255 05:49 30.05.2020
2298 Clouds 12 1020 76 6000 3.1 140 03:39 30.05.2020
2299 Clouds 12 1020 71 8000 3.1 140 02:30 30.05.2020
2300 Clouds 13 1020 71 8000 3.6 170 01:48 30.05.2020
2301 Clouds 13 1021 71 7000 1 0 00:38 30.05.2020
2302 Clouds 13 1021 71 7000 1 0 00:19 30.05.2020
2303 Clouds 13 1020 71 7000 1 180 23:57 29.05.2020
2304 Clouds 13 1020 71 7000 1 180 23:37 29.05.2020
2305 Haze 15 1021 67 5000 1 210 23:18 29.05.2020
2306 Haze 14 1021 67 5000 1 210 22:40 29.05.2020
2307 Haze 14 1021 67 5000 1 210 22:19 29.05.2020
2308 Haze 14 1020 67 5000 2.1 210 21:58 29.05.2020
2309 Haze 14 1020 67 5000 2.1 210 21:37 29.05.2020
2310 Haze 14 1020 67 5000 2.1 210 21:18 29.05.2020
2311 Haze 14 1020 67 5000 2.6 210 20:45 29.05.2020
2312 Haze 14 1020 67 5000 2.6 210 20:20 29.05.2020
2313 Haze 14 1020 67 5000 2.1 0 19:59 29.05.2020
2314 Haze 14 1020 67 5000 2.1 0 19:39 29.05.2020
2315 Haze 14 1020 67 5000 2.1 0 19:21 29.05.2020
2316 Haze 13 1021 71 5000 1 140 18:46 29.05.2020
2317 Haze 13 1021 71 5000 1 140 18:20 29.05.2020
2318 Haze 12 1020 76 5000 1.8 274 17:56 29.05.2020
2319 Haze 12 1020 76 5000 1.8 274 17:38 29.05.2020
2320 Haze 12 1020 76 5000 1.06 271 17:19 29.05.2020
2321 Clouds 11 1020 81 7000 1.5 290 16:43 29.05.2020
2322 Clouds 11 1020 81 7000 1.5 290 16:24 29.05.2020
2323 Clouds 10 1019 87 8000 1.5 280 15:56 29.05.2020
2324 Clouds 10 1019 87 8000 1.5 280 15:38 29.05.2020
2325 Clouds 11 1017 71 10000 1.5 110 15:19 29.05.2020
2326 Clouds 11 1017 71 10000 1.5 110 14:43 29.05.2020
2327 Clouds 11 1017 71 10000 1.5 110 14:22 29.05.2020
2328 Haze 10 1016 87 4000 1.5 180 13:44 29.05.2020
2329 Haze 10 1016 87 4000 1.5 180 13:25 29.05.2020
2330 Mist 9 1016 87 4700 1.5 150 12:59 29.05.2020
2331 Mist 9 1016 87 4700 1.5 150 12:41 29.05.2020
2332 Mist 9 1016 87 4700 1.5 150 12:22 29.05.2020
2333 Mist 9 1015 87 4500 2.1 270 11:45 29.05.2020
2334 Mist 9 1015 87 4500 2.1 270 11:26 29.05.2020
2335 Mist 9 1016 87 4300 1.5 250 10:57 29.05.2020
2336 Mist 9 1016 87 4300 1.5 250 10:37 29.05.2020
2337 Mist 9 1016 87 4300 1.5 250 10:18 29.05.2020
2338 Mist 11 1016 81 4600 1 0 09:43 29.05.2020
2339 Mist 11 1016 81 4600 1 0 09:20 29.05.2020
2340 Mist 11 1016 87 4500 1.5 360 08:49 29.05.2020
2341 Mist 11 1016 87 4500 1.5 360 08:26 29.05.2020
2342 Mist 11 1017 87 4700 1 0 07:59 29.05.2020
2343 Mist 11 1017 87 4700 1 0 07:59 29.05.2020
2344 Mist 11 1017 87 4700 1 0 07:39 29.05.2020
2345 Mist 11 1017 87 4700 1 0 07:21 29.05.2020
2346 Mist 10 1018 87 5000 1 0 06:47 29.05.2020
2347 Mist 10 1018 87 5000 1 0 06:27 29.05.2020
2348 Haze 11 1018 81 5000 2.1 30 05:46 29.05.2020
2349 Clouds 12 1019 76 6000 1.5 270 02:37 29.05.2020
2350 Haze 13 1019 87 4000 1 230 01:30 29.05.2020
2351 Haze 13 1019 87 4000 1 230 00:55 29.05.2020
2352 Haze 13 1019 87 4000 1 230 00:34 29.05.2020
2353 Mist 13 1019 82 3000 1 200 23:59 28.05.2020
2354 Mist 13 1019 82 3000 1 200 23:39 28.05.2020
2355 Mist 13 1019 82 3000 1 200 23:39 28.05.2020
2356 Mist 14 1019 82 3000 1 200 23:19 28.05.2020
2357 Mist 14 1019 82 3000 1 200 23:19 28.05.2020
2358 Haze 14 1018 82 3000 1 180 22:44 28.05.2020
2359 Haze 14 1018 82 3000 1 180 22:26 28.05.2020
2360 Mist 14 1018 82 2000 1.5 120 21:57 28.05.2020
2361 Mist 15 1018 82 2000 1.5 120 21:39 28.05.2020
2362 Mist 14 1018 82 2000 1.5 120 21:20 28.05.2020
2363 Haze 14 1019 76 2000 1 50 20:57 28.05.2020
2364 Haze 14 1019 76 2000 1 50 20:38 28.05.2020
2365 Haze 14 1019 76 2000 1 50 20:18 28.05.2020
2366 Mist 13 1020 76 3000 1.5 200 19:55 28.05.2020
2367 Mist 13 1020 76 3000 1.5 200 19:37 28.05.2020
2368 Mist 13 1020 76 3000 1.5 200 19:18 28.05.2020
2369 Mist 13 1020 87 3000 1.5 230 18:42 28.05.2020
2370 Mist 13 1020 87 3000 1.5 230 18:22 28.05.2020
2371 Mist 12 1019 87 3000 1 350 17:43 28.05.2020
2372 Mist 12 1019 87 3000 1 350 17:23 28.05.2020
2373 Mist 12 1019 87 3000 2.1 150 16:58 28.05.2020
2374 Mist 12 1019 87 3000 2.1 150 16:39 28.05.2020
2375 Mist 12 1019 87 3000 2.1 150 16:20 28.05.2020
2376 Mist 12 1019 93 1200 2.1 180 15:45 28.05.2020
2377 Mist 11 1019 93 1200 2.1 180 15:24 28.05.2020
2378 Mist 11 1017 93 1500 1 200 14:57 28.05.2020
2379 Mist 11 1017 93 1500 1 200 14:38 28.05.2020
2380 Mist 12 1017 93 1500 1 200 14:20 28.05.2020
2381 Mist 11 1016 87 5000 1.5 60 13:40 28.05.2020
2382 Mist 11 1016 87 5000 1.5 60 13:40 28.05.2020
2383 Mist 11 1016 87 5000 1.5 60 13:21 28.05.2020
2384 Mist 11 1016 93 5000 2.1 200 12:42 28.05.2020
2385 Mist 11 1016 93 5000 2.1 200 12:19 28.05.2020
2386 Clouds 12 1015 87 7000 2.6 170 11:44 28.05.2020
2387 Clouds 12 1015 87 7000 2.6 170 11:26 28.05.2020
2388 Clouds 12 1015 87 6000 2.1 140 10:57 28.05.2020
2389 Clouds 12 1015 87 6000 2.1 140 10:57 28.05.2020
2390 Clouds 12 1015 87 6000 2.6 150 10:39 28.05.2020
2391 Clouds 12 1015 87 6000 2.6 150 10:39 28.05.2020
2392 Clouds 12 1015 87 6000 2.6 150 10:20 28.05.2020
2393 Clouds 12 1014 87 6000 2.6 180 09:39 28.05.2020
2394 Clouds 12 1014 87 6000 2.6 180 09:39 28.05.2020
2395 Clouds 12 1014 87 6000 2.6 180 09:21 28.05.2020
2396 Clouds 11 1014 87 6000 3.1 180 08:50 28.05.2020
2397 Clouds 11 1014 87 6000 1.5 140 08:27 28.05.2020
2398 Clouds 11 1013 87 6000 2.6 140 07:54 28.05.2020
2399 Clouds 11 1014 87 6000 3.1 160 07:36 28.05.2020
2400 Clouds 11 1014 87 6000 3.1 160 07:18 28.05.2020
2401 Mist 11 1014 87 4300 1.5 200 06:39 28.05.2020
2402 Mist 11 1014 87 4300 1.5 200 06:20 28.05.2020
2403 Mist 11 1014 93 4000 1.5 40 05:36 28.05.2020
2404 Clouds 11 928 99 0 0.84 267 04:33 28.05.2020
2405 Clouds 11 928 99 0 0.95 112 03:48 28.05.2020
2406 Clouds 12 929 99 0 0.54 249 02:47 28.05.2020
2407 Clouds 11 929 99 0 0.61 220 01:54 28.05.2020
2408 Clouds 11 929 99 0 0.83 186 00:56 28.05.2020
2409 Mist 12 1014 81 1500 2.1 230 00:38 28.05.2020
2410 Mist 12 1014 81 1500 2.1 230 00:18 28.05.2020
2411 Mist 12 1014 81 1500 2.1 230 23:39 27.05.2020
2412 Mist 15 1014 81 1500 2.1 230 23:21 27.05.2020
2413 Mist 15 1014 81 2000 0.98 243 22:59 27.05.2020
2414 Mist 15 1014 81 2000 0.98 243 22:40 27.05.2020
2415 Mist 15 1014 81 2000 2.81 256 22:21 27.05.2020
2416 Mist 15 1015 81 2000 1.5 300 21:42 27.05.2020
2417 Mist 15 1015 81 2000 1.5 300 21:24 27.05.2020
2418 Mist 14 1016 87 2000 1.5 300 20:59 27.05.2020
2419 Mist 14 1016 87 2000 1.5 300 20:59 27.05.2020
2420 Mist 14 1016 87 2000 1.5 300 20:41 27.05.2020
2421 Mist 14 1016 87 2000 1.5 300 20:22 27.05.2020
2422 Mist 14 1016 93 1500 1.62 238 19:59 27.05.2020
2423 Mist 14 1016 93 1500 1.62 238 19:40 27.05.2020
2424 Mist 14 1016 93 1500 2.28 248 19:19 27.05.2020
2425 Fog 14 1017 100 800 1 120 18:41 27.05.2020
2426 Fog 10 1017 100 800 1 120 18:20 27.05.2020
2427 Fog 9 1017 100 300 1.92 243 17:56 27.05.2020
2428 Fog 9 1017 100 300 1.92 243 17:37 27.05.2020
2429 Fog 9 1017 100 300 1.55 242 17:19 27.05.2020
2430 Fog 9 1017 100 300 2.1 40 16:55 27.05.2020
2431 Fog 9 1017 100 300 2.1 40 16:36 27.05.2020
2432 Fog 9 1017 100 300 2.1 40 16:18 27.05.2020
2433 Fog 9 1017 100 100 1 50 15:40 27.05.2020
2434 Fog 9 1017 100 100 1 50 15:21 27.05.2020
2435 Fog 10 1016 81 100 0.31 222 14:45 27.05.2020
2436 Fog 9 1016 81 100 0.11 120 14:22 27.05.2020
2437 Mist 9 1015 100 2500 1 0 13:55 27.05.2020
2438 Mist 9 1015 100 2500 1 0 13:37 27.05.2020
2439 Mist 9 1015 100 2500 1 0 13:37 27.05.2020
2440 Mist 8 1015 100 2500 1 0 13:19 27.05.2020
2441 Rain 9 1014 100 1800 1 0 12:40 27.05.2020
2442 Rain 9 1014 100 1800 1 0 12:40 27.05.2020
2443 Rain 9 1014 100 1800 1 0 12:22 27.05.2020
2444 Mist 9 1014 100 1800 1.5 320 11:41 27.05.2020
2445 Mist 9 1014 100 1900 1.5 320 11:22 27.05.2020
2446 Mist 8 1014 100 1900 1.5 320 10:59 27.05.2020
2447 Mist 8 1014 100 1000 2.1 260 10:40 27.05.2020
2448 Mist 9 1014 100 1000 2.1 260 10:22 27.05.2020
2449 Mist 9 1014 100 3100 2.1 250 09:42 27.05.2020
2450 Mist 9 1014 100 3100 2.1 250 09:23 27.05.2020
2451 Mist 9 1015 100 2900 1.5 260 08:58 27.05.2020
2452 Mist 9 1015 100 2900 2.1 250 08:40 27.05.2020
2453 Mist 10 1015 100 2900 2.1 250 08:22 27.05.2020
2454 Mist 10 1015 100 2900 2.1 250 08:22 27.05.2020
2455 Mist 9 1015 93 2700 1.5 250 07:51 27.05.2020
2456 Mist 9 1015 100 2600 2.1 220 07:33 27.05.2020
2457 Fog 9 1015 100 4100 2.1 210 06:52 27.05.2020
2458 Fog 10 1015 100 4900 3.1 150 06:24 27.05.2020
2459 Mist 11 1015 93 5000 3.1 160 05:50 27.05.2020
2460 Mist 12 1015 93 5000 3.1 160 05:23 27.05.2020
2461 Clear 14 1014 82 6000 5.1 160 02:42 27.05.2020
2462 Clear 15 1014 82 6000 5.1 160 02:24 27.05.2020
2463 Clear 16 1014 55 10000 1.01 224 01:31 27.05.2020
2464 Clear 18 1014 55 10000 0.98 225 00:47 27.05.2020
2465 Clear 19 1014 55 10000 1.21 229 00:21 27.05.2020
2466 Clear 20 1014 49 10000 1.5 250 23:57 26.05.2020
2467 Clear 20 1014 49 10000 1.5 250 23:39 26.05.2020
2468 Clear 20 1014 49 10000 1.5 250 23:20 26.05.2020
2469 Clear 21 1013 46 10000 2.1 250 22:42 26.05.2020
2470 Clear 21 1013 46 10000 2.1 250 22:23 26.05.2020
2471 Clear 22 1013 40 10000 3.1 260 21:59 26.05.2020
2472 Clear 22 1013 40 10000 3.1 260 21:41 26.05.2020
2473 Clear 22 1013 40 10000 3.1 260 21:22 26.05.2020
2474 Clear 22 1013 40 10000 3.1 260 21:22 26.05.2020
2475 Clear 23 1013 31 10000 2.6 240 20:59 26.05.2020
2476 Clear 23 1013 31 10000 2.6 240 20:41 26.05.2020
2477 Clear 23 1013 31 10000 2.6 240 20:20 26.05.2020
2478 Clear 23 1013 28 10000 2.1 260 19:41 26.05.2020
2479 Clear 23 1013 28 10000 2.1 260 19:22 26.05.2020
2480 Clear 23 1013 28 10000 1 200 18:59 26.05.2020
2481 Clear 23 1013 28 10000 1 200 18:39 26.05.2020
2482 Clear 23 1013 28 10000 1 200 18:21 26.05.2020
2483 Clear 20 1013 32 10000 1.5 260 17:42 26.05.2020
2484 Clear 20 1013 32 10000 1.5 260 17:23 26.05.2020
2485 Clear 18 1013 39 10000 1.27 229 16:49 26.05.2020
2486 Clear 18 1013 39 10000 0.62 191 16:24 26.05.2020
2487 Clear 15 1013 54 10000 2.1 50 15:59 26.05.2020
2488 Clear 15 1013 54 10000 2.1 50 15:41 26.05.2020
2489 Clear 15 1013 54 10000 2.1 50 15:20 26.05.2020
2490 Clear 14 1013 50 10000 1.5 70 14:55 26.05.2020
2491 Clear 14 1013 50 10000 1.5 70 14:37 26.05.2020
2492 Clear 14 1013 50 10000 1.5 70 14:18 26.05.2020
2493 Clear 15 1012 65 9000 1.5 340 13:41 26.05.2020
2494 Clear 15 1012 65 9000 1.5 340 13:22 26.05.2020
2495 Clear 16 1011 70 8000 1.25 88 12:44 26.05.2020
2496 Clear 16 1011 70 8000 1.4 95 12:23 26.05.2020
2497 Clear 16 1011 66 10000 1 200 11:59 26.05.2020
2498 Clear 16 1011 66 10000 1 200 11:59 26.05.2020
2499 Clear 16 1011 66 10000 1 200 11:40 26.05.2020
2500 Clear 16 1011 66 10000 1 200 11:40 26.05.2020
2501 Clear 16 1011 66 10000 1 200 11:40 26.05.2020
2502 Clear 16 1011 66 10000 1 200 11:19 26.05.2020
2503 Clear 16 1011 61 10000 1 270 10:47 26.05.2020
2504 Clear 16 1011 61 10000 1 270 10:19 26.05.2020
2505 Clear 16 1012 66 10000 1 40 09:57 26.05.2020
2506 Clear 16 1012 66 10000 1 40 09:57 26.05.2020
2507 Clear 16 1012 66 10000 1 40 09:37 26.05.2020
2508 Clear 16 1012 66 10000 1 40 09:18 26.05.2020
2509 Clear 17 1013 57 8000 1 0 08:40 26.05.2020
2510 Clear 17 1013 57 8000 1 0 08:21 26.05.2020
2511 Clear 17 1013 57 8000 1 0 08:21 26.05.2020
2512 Clear 17 1013 57 8000 1.04 99 07:42 26.05.2020
2513 Clear 17 1013 57 8000 1.14 103 07:23 26.05.2020
2514 Clear 17 1013 58 9000 1.5 20 06:52 26.05.2020
2515 Clear 17 1013 58 9000 1.5 20 06:52 26.05.2020
2516 Clear 17 1013 58 9000 1.5 20 06:28 26.05.2020
2517 Clear 18 1013 54 8000 0.5 0 05:42 26.05.2020
2518 Clear 18 1013 54 8000 0.5 0 05:18 26.05.2020
2519 Clear 18 1013 47 10000 1 0 04:47 26.05.2020
2520 Clear 19 1013 47 10000 1 0 04:28 26.05.2020
2521 Clear 19 1013 42 10000 2.1 40 03:45 26.05.2020
2522 Clear 21 1013 37 10000 1.14 103 02:35 26.05.2020
2523 Clear 21 1012 33 10000 1 170 01:47 26.05.2020
2524 Clear 23 1014 20 10000 1 90 00:43 26.05.2020
2525 Clear 24 1014 20 10000 1 90 00:23 26.05.2020
2526 Clear 27 1013 18 10000 1 270 23:59 25.05.2020
2527 Clear 28 1013 18 10000 1 270 23:39 25.05.2020
2528 Clouds 29 1013 18 10000 1 270 23:20 25.05.2020
2529 Clouds 26 1013 17 10000 1 270 22:56 25.05.2020
2530 Clouds 26 1013 17 10000 1 270 22:56 25.05.2020
2531 Clouds 26 1013 17 10000 1 270 22:37 25.05.2020
2532 Clouds 26 1013 17 10000 1 270 22:37 25.05.2020
2533 Clouds 26 1013 17 10000 1 270 22:19 25.05.2020
2534 Clouds 26 1013 13 10000 2.1 230 21:58 25.05.2020
2535 Clouds 26 1013 13 10000 2.1 230 21:38 25.05.2020
2536 Clouds 29 1013 13 10000 2.1 230 21:19 25.05.2020
2537 Clouds 29 1014 13 10000 1.5 220 20:58 25.05.2020
2538 Clouds 29 1014 13 10000 1.5 220 20:58 25.05.2020
2539 Clouds 28 1014 13 10000 1.5 220 20:40 25.05.2020
2540 Clouds 28 1014 13 10000 1.5 220 20:20 25.05.2020
2541 Clouds 24 1015 19 10000 1.5 230 19:55 25.05.2020
2542 Clouds 24 1015 19 10000 1.5 230 19:37 25.05.2020
2543 Clouds 24 1015 22 10000 1 350 19:18 25.05.2020
2544 Clouds 23 1015 22 10000 1 350 18:42 25.05.2020
2545 Clouds 23 1015 22 10000 1 350 18:21 25.05.2020
2546 Clouds 21 1016 26 10000 1.5 230 17:54 25.05.2020
2547 Clouds 20 1016 26 10000 1.5 230 17:36 25.05.2020
2548 Clouds 20 1016 26 10000 1.5 230 17:18 25.05.2020
2549 Clouds 19 1016 34 10000 1 150 16:40 25.05.2020
2550 Clouds 17 1016 34 10000 1 150 16:22 25.05.2020
2551 Clouds 14 1016 53 10000 1 50 15:58 25.05.2020
2552 Clouds 14 1016 53 10000 1 50 15:58 25.05.2020
2553 Clouds 14 1016 53 10000 1 50 15:40 25.05.2020
2554 Clear 13 1016 53 10000 1 50 15:18 25.05.2020
2555 Clear 12 1016 70 10000 15.4 60 14:43 25.05.2020
2556 Clear 12 1016 70 10000 15.4 60 14:24 25.05.2020
2557 Clear 14 1015 70 9000 1.5 330 13:57 25.05.2020
2558 Clear 14 1015 70 9000 1.5 330 13:37 25.05.2020
2559 Clear 14 1015 70 9000 1.5 330 13:19 25.05.2020
2560 Clear 14 1015 70 10000 1.58 98 12:54 25.05.2020
2561 Clear 14 1015 70 10000 1.58 98 12:36 25.05.2020
2562 Clear 14 1015 70 10000 1.65 99 12:18 25.05.2020
2563 Clear 15 1015 65 9000 1.65 99 11:38 25.05.2020
2564 Clear 15 1015 65 9000 1.62 93 11:19 25.05.2020
2565 Clear 15 1016 70 10000 1.5 0 10:43 25.05.2020
2566 Clear 14 1016 70 10000 1.5 0 10:21 25.05.2020
2567 Clear 15 1016 65 10000 0.5 0 09:57 25.05.2020
2568 Clear 15 1016 65 10000 0.5 0 09:39 25.05.2020
2569 Clear 15 1016 65 10000 0.5 0 09:19 25.05.2020
2570 Clear 15 1017 65 10000 0.5 0 08:57 25.05.2020
2571 Clear 15 1017 65 10000 0.5 0 08:36 25.05.2020
2572 Clear 15 1017 65 10000 0.5 0 08:18 25.05.2020
2573 Clear 15 1017 61 10000 2.1 240 07:43 25.05.2020
2574 Clear 15 1017 61 10000 2.1 240 07:21 25.05.2020
2575 Clear 16 1017 50 10000 2.1 30 06:50 25.05.2020
2576 Clear 16 1017 50 10000 2.1 30 06:31 25.05.2020
2577 Clear 17 1017 50 10000 1.5 360 04:18 25.05.2020
2578 Clear 17 1017 50 10000 1.5 360 03:23 25.05.2020
2579 Clear 18 1017 48 10000 1.5 250 02:45 25.05.2020
2580 Clear 19 1017 37 10000 2.1 180 01:51 25.05.2020
2581 Clear 20 1018 30 10000 0.94 110 01:28 25.05.2020
2582 Clear 21 1018 30 10000 0.94 110 00:37 25.05.2020
2583 Clear 21 1018 30 10000 0.61 130 00:18 25.05.2020
2584 Clear 24 1018 17 10000 1.5 300 23:43 24.05.2020
2585 Clear 24 1018 17 10000 1.5 300 23:23 24.05.2020
2586 Clear 24 1019 14 10000 0.29 140 22:59 24.05.2020
2587 Clear 24 1019 14 10000 0.29 140 22:41 24.05.2020
2588 Clear 24 1019 14 10000 1.83 219 22:19 24.05.2020
2589 Clear 24 1019 15 10000 2.1 260 21:56 24.05.2020
2590 Clear 24 1019 15 10000 2.1 260 21:56 24.05.2020
2591 Clear 24 1019 15 10000 2.1 260 21:38 24.05.2020
2592 Clear 24 1019 15 10000 2.1 260 21:19 24.05.2020
2593 Clear 24 1019 15 10000 0.7 177 20:44 24.05.2020
2594 Clear 23 1020 16 10000 2.57 231 20:22 24.05.2020
2595 Clear 23 1020 16 10000 2.57 231 19:59 24.05.2020
2596 Clear 23 1020 16 10000 2.57 231 19:41 24.05.2020
2597 Clear 23 1020 16 10000 1.24 213 19:19 24.05.2020
2598 Clear 23 1020 16 10000 1.24 213 19:19 24.05.2020
2599 Clear 22 1021 17 10000 1.24 213 18:57 24.05.2020
2600 Clear 22 1021 17 10000 1.24 213 18:38 24.05.2020
2601 Clear 22 1021 17 10000 1.75 216 18:20 24.05.2020
2602 Clear 19 1021 25 10000 1.75 216 17:41 24.05.2020
2603 Clear 18 1021 25 10000 0.24 117 17:22 24.05.2020
2604 Clear 16 1021 31 10000 0.24 117 16:58 24.05.2020
2605 Clear 16 1021 31 10000 0.24 117 16:39 24.05.2020
2606 Clear 16 1021 31 10000 0.75 144 16:20 24.05.2020
2607 Clear 12 1020 19 10000 0.75 144 15:57 24.05.2020
2608 Clear 12 1020 19 10000 0.75 144 15:39 24.05.2020
2609 Clear 12 1020 22 10000 1.12 86 15:19 24.05.2020
2610 Clear 10 1020 80 10000 1.5 30 14:55 24.05.2020
2611 Clear 10 1020 80 10000 1.5 30 14:37 24.05.2020
2612 Clouds 10 1020 80 10000 1.5 30 14:18 24.05.2020
2613 Clouds 12 1019 74 8000 1.5 90 13:43 24.05.2020
2614 Clouds 12 1019 74 8000 1.5 90 13:23 24.05.2020
2615 Clouds 13 1019 26 8000 1.5 310 12:59 24.05.2020
2616 Clouds 13 1019 26 8000 1.5 310 12:59 24.05.2020
2617 Clouds 13 1019 26 8000 1.5 310 12:41 24.05.2020
2618 Clouds 13 1019 26 8000 1.5 310 12:22 24.05.2020
2619 Clouds 13 1019 26 7000 1 30 11:59 24.05.2020
2620 Clouds 13 1019 26 7000 1 30 11:41 24.05.2020
2621 Clouds 12 1019 27 7000 1 30 11:23 24.05.2020
2622 Clouds 13 1019 27 7000 1.5 360 10:59 24.05.2020
2623 Clouds 13 1019 27 7000 1.5 360 10:39 24.05.2020
2624 Clouds 12 1019 26 7000 1.5 360 10:21 24.05.2020
2625 Clouds 13 1019 70 8000 1.5 260 09:42 24.05.2020
2626 Clouds 13 1019 70 8000 1.5 260 09:19 24.05.2020
2627 Clouds 13 1019 26 8000 2.6 60 08:58 24.05.2020
2628 Clouds 13 1019 26 8000 2.6 60 08:40 24.05.2020
2629 Clouds 14 1019 26 8000 2.6 60 08:22 24.05.2020
2630 Clouds 14 1020 70 8000 1 0 07:51 24.05.2020
2631 Clouds 14 1020 70 8000 1 0 07:26 24.05.2020
2632 Clouds 15 1020 57 8000 2.1 330 06:58 24.05.2020
2633 Clouds 15 1020 57 8000 2.1 330 06:37 24.05.2020
2634 Clouds 15 1020 57 8000 2.1 330 06:37 24.05.2020
2635 Clouds 14 1019 66 8000 3.1 180 05:21 24.05.2020
2636 Clouds 16 1019 50 10000 2.6 290 03:42 24.05.2020
2637 Clouds 17 1019 47 10000 2.1 130 02:48 24.05.2020
2638 Clear 18 1018 38 10000 1 90 01:59 24.05.2020
2639 Clear 19 1019 34 10000 0.78 166 00:43 24.05.2020
2640 Clear 19 1019 34 10000 0.74 126 00:25 24.05.2020
2641 Clear 21 1016 19 10000 0.74 126 23:54 23.05.2020
2642 Clear 21 1016 19 10000 0.74 126 23:36 23.05.2020
2643 Clear 22 1019 15 10000 2.1 240 23:18 23.05.2020
2644 Clear 22 1019 15 10000 2.1 240 22:55 23.05.2020
2645 Clear 22 1019 15 10000 2.1 240 22:36 23.05.2020
2646 Clear 22 1019 15 10000 2.1 240 22:18 23.05.2020
2647 Clear 22 1019 16 10000 2.1 210 21:42 23.05.2020
2648 Clear 22 1019 16 10000 2.1 210 21:20 23.05.2020
2649 Clouds 22 1018 17 10000 0.56 248 20:59 23.05.2020
2650 Clouds 22 1018 17 10000 0.56 248 20:39 23.05.2020
2651 Clear 22 1018 17 10000 0.45 224 20:19 23.05.2020
2652 Clear 20 1019 25 10000 0.45 224 19:55 23.05.2020
2653 Clear 20 1019 25 10000 0.45 224 19:37 23.05.2020
2654 Clouds 20 1019 25 10000 1.17 245 19:18 23.05.2020
2655 Clouds 19 1021 25 10000 1.5 240 18:41 23.05.2020
2656 Clouds 19 1021 25 10000 1.5 240 18:22 23.05.2020
2657 Clouds 16 1021 31 10000 1.5 220 17:58 23.05.2020
2658 Clouds 16 1021 31 10000 1.5 220 17:40 23.05.2020
2659 Clouds 16 1021 31 10000 1.5 220 17:19 23.05.2020
2660 Clouds 13 1021 37 10000 0.79 214 16:58 23.05.2020
2661 Clouds 13 1021 37 10000 0.79 214 16:40 23.05.2020
2662 Clouds 13 1021 37 10000 0.62 94 16:20 23.05.2020
2663 Clouds 10 1020 56 10000 1.5 60 15:44 23.05.2020
2664 Clouds 6 1020 56 10000 1.5 60 15:24 23.05.2020
2665 Clouds 3 1020 69 10000 1 30 14:59 23.05.2020
2666 Clouds 3 1020 69 10000 1 30 14:41 23.05.2020
2667 Clouds 5 1020 69 10000 1 30 14:22 23.05.2020
2668 Clouds 4 1019 86 7000 3.6 10 13:42 23.05.2020
2669 Clear 5 1019 27 6000 1 0 13:19 23.05.2020
2670 Clear 5 1019 27 6000 1 0 12:58 23.05.2020
2671 Clear 5 1019 27 6000 1 0 12:39 23.05.2020
2672 Clear 4 1019 26 6000 1 0 12:19 23.05.2020
2673 Clear 6 1019 80 6000 1.5 120 11:43 23.05.2020
2674 Clear 6 1019 80 6000 1.5 120 11:22 23.05.2020
2675 Clear 7 1019 27 9000 1.72 88 10:58 23.05.2020
2676 Clear 7 1019 27 9000 1.72 88 10:40 23.05.2020
2677 Clear 6 1019 23 9000 1.78 85 10:20 23.05.2020
2678 Clear 6 1019 23 6000 2.1 50 09:59 23.05.2020
2679 Clear 6 1019 23 6000 2.1 50 09:41 23.05.2020
2680 Clear 6 1019 24 6000 2.1 50 09:22 23.05.2020
2681 Mist 6 1020 86 4800 1 0 08:44 23.05.2020
2682 Mist 7 1020 86 4800 1 0 08:20 23.05.2020
2683 Mist 7 1020 86 4800 1 0 08:20 23.05.2020
2684 Mist 6 1020 75 4600 0.5 0 07:59 23.05.2020
2685 Mist 6 1020 75 4600 0.5 0 07:39 23.05.2020
2686 Mist 6 1020 75 4600 0.5 0 07:21 23.05.2020
2687 Clear 7 1020 70 9000 1.1 91 06:40 23.05.2020
2688 Clear 7 1019 65 10000 0.5 0 05:51 23.05.2020
2689 Clear 11 1020 53 10000 1.03 99 03:51 23.05.2020
2690 Clear 11 1020 53 10000 1.16 96 03:21 23.05.2020
2691 Clouds 12 1020 54 10000 2.6 10 02:24 23.05.2020
2692 Clouds 16 1021 39 10000 0.8 170 01:27 23.05.2020
2693 Clouds 17 1021 39 10000 0.8 170 00:49 23.05.2020
2694 Clouds 16 1021 39 10000 0.8 170 00:29 23.05.2020
2695 Clouds 18 1021 32 10000 1 270 23:58 22.05.2020
2696 Clouds 18 1021 32 10000 1 270 23:39 22.05.2020
2697 Clouds 19 1021 32 10000 1 270 23:19 22.05.2020
2698 Clouds 19 1021 32 10000 1 240 22:56 22.05.2020
2699 Clouds 19 1021 32 10000 1 240 22:38 22.05.2020
2700 Clouds 19 1021 32 10000 1 240 22:18 22.05.2020
2701 Clouds 19 1021 34 10000 1.5 240 21:44 22.05.2020
2702 Clouds 18 1021 34 10000 1.5 240 21:21 22.05.2020
2703 Clouds 18 1022 36 10000 1 180 20:54 22.05.2020
2704 Clouds 17 1022 36 10000 1 180 20:36 22.05.2020
2705 Clouds 17 1022 36 10000 1 180 20:18 22.05.2020
2706 Clouds 16 1022 41 10000 1.5 240 19:41 22.05.2020
2707 Clouds 16 1022 41 10000 1.5 240 19:41 22.05.2020
2708 Clouds 16 1022 41 10000 1.5 240 19:23 22.05.2020
2709 Clouds 15 1024 44 10000 0.5 60 18:40 22.05.2020
2710 Clouds 14 1024 44 10000 0.5 60 18:21 22.05.2020
2711 Clouds 12 1025 47 10000 0.5 300 17:59 22.05.2020
2712 Clouds 12 1025 47 10000 0.5 300 17:39 22.05.2020
2713 Clouds 8 1025 66 10000 0.13 184 17:18 22.05.2020
2714 Clouds 8 1025 66 10000 0.13 184 16:45 22.05.2020
2715 Clouds 8 1025 66 10000 0.79 92 16:21 22.05.2020
2716 Clouds 5 1025 86 10000 0.79 92 15:59 22.05.2020
2717 Clouds 5 1025 86 10000 0.79 92 15:41 22.05.2020
2718 Clear 5 1025 86 10000 1.59 80 15:21 22.05.2020
2719 Clear 3 1024 80 10000 1 60 14:44 22.05.2020
2720 Clear 3 1024 80 10000 1 60 14:25 22.05.2020
2721 Mist 4 1024 100 4300 2.1 270 13:49 22.05.2020
2722 Mist 2 1024 100 4300 2.1 270 13:21 22.05.2020
2723 Clear 4 1024 93 5000 2.1 20 12:59 22.05.2020
2724 Mist 2 1024 100 2900 3.1 360 12:39 22.05.2020
2725 Mist 4 1024 100 2900 3.1 360 12:20 22.05.2020
2726 Mist 5 1024 93 4700 1.5 270 11:44 22.05.2020
2727 Mist 4 1024 93 4700 1.5 270 11:21 22.05.2020
2728 Clear 4 1025 100 6000 0.5 0 10:55 22.05.2020
2729 Clear 4 1025 100 6000 0.5 0 10:37 22.05.2020
2730 Clear 4 1025 100 6000 0.5 0 10:18 22.05.2020
2731 Clear 5 1025 93 7000 1.5 320 09:42 22.05.2020
2732 Clear 6 1025 93 7000 1.5 320 09:20 22.05.2020
2733 Mist 6 1024 93 4700 1.5 360 08:46 22.05.2020
2734 Mist 5 1024 93 4700 1.5 360 08:22 22.05.2020
2735 Mist 5 1024 93 4700 1.5 360 08:22 22.05.2020
2736 Clear 7 1024 93 6000 2.1 10 07:58 22.05.2020
2737 Clear 7 1024 93 6000 2.1 10 07:39 22.05.2020
2738 Clear 7 1024 93 6000 2.1 10 07:21 22.05.2020
2739 Clear 5 1024 93 8000 1.5 30 06:40 22.05.2020
2740 Clear 7 1024 87 10000 1 0 05:58 22.05.2020
2741 Clear 7 1024 87 10000 1 0 05:34 22.05.2020
2742 Clear 8 1023 87 10000 1.5 270 04:45 22.05.2020
2743 Clear 9 1023 81 10000 1.5 120 03:49 22.05.2020
2744 Clear 9 1023 81 10000 1.5 120 03:28 22.05.2020
2745 Clouds 12 1022 66 10000 3.1 200 01:57 22.05.2020
2746 Clouds 12 1022 62 9000 0.64 209 01:30 22.05.2020
2747 Clouds 12 1022 62 9000 1.37 211 00:50 22.05.2020
2748 Clouds 12 1022 62 9000 2.01 234 00:28 22.05.2020
2749 Clouds 14 1021 54 8000 1.5 190 23:54 21.05.2020
2750 Clouds 14 1021 54 8000 1.5 190 23:36 21.05.2020
2751 Clouds 14 1021 54 10000 2.1 230 23:18 21.05.2020
2752 Clouds 14 1021 54 10000 2.1 230 22:55 21.05.2020
2753 Clouds 14 1021 54 10000 2.1 230 22:36 21.05.2020
2754 Clouds 14 1021 54 10000 2.1 230 22:18 21.05.2020
2755 Clouds 14 1021 58 10000 2.1 250 21:43 21.05.2020
2756 Clouds 14 1021 58 10000 2.1 250 21:25 21.05.2020
2757 Clouds 13 1021 71 7000 0.87 227 20:46 21.05.2020
2758 Clouds 13 1021 71 7000 0.64 236 20:22 21.05.2020
2759 Haze 13 1021 71 4000 1 360 19:57 21.05.2020
2760 Haze 13 1021 71 4000 1 360 19:38 21.05.2020
2761 Haze 13 1021 71 4000 1 360 19:19 21.05.2020
2762 Haze 11 1021 81 3000 0.5 30 18:40 21.05.2020
2763 Haze 12 1021 81 3000 0.5 30 18:20 21.05.2020
2764 Haze 12 1021 81 3000 0.5 30 18:20 21.05.2020
2765 Mist 11 1021 87 2000 1.77 250 17:58 21.05.2020
2766 Mist 10 1021 87 2000 1.77 250 17:40 21.05.2020
2767 Mist 10 1021 87 2000 1.78 247 17:22 21.05.2020
2768 Mist 9 1021 93 3000 1 240 16:47 21.05.2020
2769 Mist 9 1021 93 3000 1 240 16:25 21.05.2020
2770 Mist 8 1020 93 3000 1.79 247 15:54 21.05.2020
2771 Mist 8 1020 93 3000 1.79 247 15:36 21.05.2020
2772 Mist 9 1020 93 3000 1.16 252 15:18 21.05.2020
2773 Mist 9 1020 93 3000 1.16 252 14:39 21.05.2020
2774 Mist 9 1020 93 3000 1.19 265 14:18 21.05.2020
2775 Mist 8 1019 100 3000 1 0 13:41 21.05.2020
2776 Mist 8 1019 100 3000 1 0 13:22 21.05.2020
2777 Mist 8 1019 100 2600 1.5 250 12:57 21.05.2020
2778 Mist 8 1019 100 3100 1.5 270 12:37 21.05.2020
2779 Mist 8 1019 100 3100 1.5 270 12:19 21.05.2020
2780 Rain 9 1019 93 5000 3.6 150 11:42 21.05.2020
2781 Rain 9 1019 93 5000 3.6 150 11:23 21.05.2020
2782 Rain 9 1019 93 5000 3.6 150 11:23 21.05.2020
2783 Mist 9 1019 93 5000 3.6 150 10:58 21.05.2020
2784 Mist 8 1019 100 1900 3.1 150 10:39 21.05.2020
2785 Mist 8 1019 100 1900 3.1 150 10:19 21.05.2020
2786 Mist 8 1019 100 2400 3.1 160 09:54 21.05.2020
2787 Mist 9 1019 100 3700 2.1 200 09:36 21.05.2020
2788 Mist 9 1019 100 3700 2.1 200 09:18 21.05.2020
2789 Fog 8 1019 100 2800 1.5 240 08:42 21.05.2020
2790 Fog 8 1019 100 2800 1.5 240 08:23 21.05.2020
2791 Mist 8 1020 100 2800 2.6 20 07:44 21.05.2020
2792 Mist 8 1020 100 2800 2.6 20 07:25 21.05.2020
2793 Mist 8 1020 100 4900 1.5 0 06:52 21.05.2020
2794 Rain 8 1020 100 3600 1.5 320 05:54 21.05.2020
2795 Clouds 10 1020 93 8000 0.65 174 04:56 21.05.2020
2796 Clouds 10 1020 93 8000 0.5 180 03:22 21.05.2020
2797 Clouds 10 1020 93 8000 1 0 02:38 21.05.2020
2798 Clouds 10 1020 93 8000 1 0 02:20 21.05.2020
2799 Clouds 10 1020 93 10000 1 0 01:42 21.05.2020
2800 Clouds 10 1021 93 10000 0.53 199 01:19 21.05.2020
2801 Clouds 10 1021 93 10000 0.53 199 00:45 21.05.2020
2802 Clouds 10 1021 93 10000 0.53 199 00:45 21.05.2020
2803 Clouds 10 1021 93 10000 1.38 226 00:22 21.05.2020
2804 Rain 10 1021 93 7000 1.38 226 23:41 20.05.2020
2805 Rain 10 1021 93 7000 2.11 248 23:20 20.05.2020
2806 Rain 10 1020 93 7000 4.1 150 22:57 20.05.2020
2807 Haze 11 1020 76 3000 2.11 248 22:38 20.05.2020
2808 Haze 12 1020 76 3000 1.43 239 22:20 20.05.2020
2809 Haze 13 1020 76 3000 1.43 239 21:40 20.05.2020
2810 Haze 13 1020 76 3000 2.38 248 21:21 20.05.2020
2811 Haze 13 1019 76 3000 2.38 248 20:44 20.05.2020
2812 Haze 13 1019 76 3000 2.57 257 20:24 20.05.2020
2813 Haze 13 1019 71 3000 1.5 210 19:57 20.05.2020
2814 Haze 13 1019 71 3000 1.5 210 19:38 20.05.2020
2815 Haze 13 1019 71 3000 1.5 210 19:19 20.05.2020
2816 Haze 12 1020 76 3000 2.05 254 18:43 20.05.2020
2817 Haze 12 1020 76 3000 2.34 255 18:23 20.05.2020
2818 Mist 11 1020 81 3000 1 0 17:43 20.05.2020
2819 Mist 11 1020 81 3000 1 0 17:24 20.05.2020
2820 Mist 11 1019 81 3000 1.77 263 16:58 20.05.2020
2821 Mist 11 1019 81 3000 1.77 263 16:39 20.05.2020
2822 Mist 11 1019 81 3000 1.24 273 16:21 20.05.2020
2823 Mist 11 1019 81 3000 1.24 273 15:44 20.05.2020
2824 Mist 11 1019 81 3000 1.18 271 15:25 20.05.2020
2825 Haze 11 1019 81 3000 1.18 271 14:59 20.05.2020
2826 Haze 11 1019 81 3000 1.18 271 14:37 20.05.2020
2827 Haze 11 1019 81 3000 0.85 301 14:19 20.05.2020
2828 Clouds 11 1018 87 8000 1.5 230 13:39 20.05.2020
2829 Clouds 11 1018 87 8000 1.5 230 13:18 20.05.2020
2830 Clouds 11 1018 87 8000 1.5 170 12:42 20.05.2020
2831 Clouds 11 1018 87 8000 1.5 170 12:21 20.05.2020
2832 Clouds 11 1018 87 8000 4.6 140 11:39 20.05.2020
2833 Clouds 11 1018 87 8000 4.6 140 11:20 20.05.2020
2834 Clouds 11 1018 87 8000 3.1 110 10:55 20.05.2020
2835 Clouds 11 1018 87 8000 3.1 110 10:55 20.05.2020
2836 Clouds 11 1018 87 8000 3.1 110 10:37 20.05.2020
2837 Clouds 11 1017 87 9000 2.6 200 10:18 20.05.2020
2838 Clouds 11 1017 87 9000 2.6 200 09:41 20.05.2020
2839 Clouds 11 1017 87 9000 2.6 200 09:20 20.05.2020
2840 Clouds 11 1017 87 9000 1.5 220 08:42 20.05.2020
2841 Clouds 11 1017 87 9000 1.5 220 08:19 20.05.2020
2842 Clouds 11 1017 87 9000 1 0 07:50 20.05.2020
2843 Clouds 11 1017 87 9000 1 0 07:25 20.05.2020
2844 Clouds 12 1017 81 10000 1.5 260 06:55 20.05.2020
2845 Clouds 12 1017 81 10000 1.5 260 06:20 20.05.2020
2846 Clouds 12 1018 81 10000 1.5 180 04:59 20.05.2020
2847 Clouds 12 1018 81 10000 1.5 180 04:19 20.05.2020
2848 Clouds 12 1018 81 10000 2.1 180 03:35 20.05.2020
2849 Clouds 12 1017 81 8000 4.1 160 01:45 20.05.2020
2850 Mist 11 1018 87 3000 2.1 220 01:23 20.05.2020
2851 Mist 11 1018 87 3000 2.1 220 00:41 20.05.2020
2852 Mist 11 1018 87 3000 2.1 220 00:21 20.05.2020
2853 Mist 11 1018 81 3000 2.1 200 23:37 19.05.2020
2854 Mist 11 1018 81 3000 2.1 200 23:19 19.05.2020
2855 Mist 13 1018 81 3000 1.5 230 22:55 19.05.2020
2856 Mist 13 1018 81 3000 1.5 230 22:36 19.05.2020
2857 Mist 13 1018 81 3000 1.5 230 22:18 19.05.2020
2858 Haze 12 1017 76 4000 2.6 230 21:55 19.05.2020
2859 Haze 12 1017 76 4000 2.6 230 21:36 19.05.2020
2860 Haze 13 1017 76 4000 2.6 230 21:18 19.05.2020
2861 Mist 13 1017 76 4000 2.1 270 20:55 19.05.2020
2862 Mist 13 1017 76 4000 2.1 270 20:37 19.05.2020
2863 Mist 13 1017 76 4000 2.1 270 20:19 19.05.2020
2864 Haze 13 1018 81 4000 2.6 240 19:38 19.05.2020
2865 Haze 12 1018 81 4000 2.6 240 19:20 19.05.2020
2866 Haze 12 1018 71 4000 2.6 220 18:45 19.05.2020
2867 Haze 12 1018 71 4000 2.6 220 18:23 19.05.2020
2868 Haze 11 1018 81 4000 0.88 264 17:58 19.05.2020
2869 Haze 12 1018 81 4000 0.88 264 17:39 19.05.2020
2870 Haze 11 1018 81 4000 1.33 225 17:20 19.05.2020
2871 Mist 9 1018 100 1000 1 350 16:42 19.05.2020
2872 Mist 9 1018 100 1000 1 350 16:23 19.05.2020
2873 Fog 9 1018 93 500 1 200 15:58 19.05.2020
2874 Fog 9 1018 93 500 1 200 15:39 19.05.2020
2875 Fog 9 1017 93 500 1.5 90 15:20 19.05.2020
2876 Fog 9 1017 93 500 1.5 90 14:54 19.05.2020
2877 Fog 9 1017 93 500 1.5 90 14:36 19.05.2020
2878 Fog 9 1017 93 500 1.5 90 14:18 19.05.2020
2879 Mist 7 1017 100 2000 2.6 360 13:55 19.05.2020
2880 Mist 8 1017 100 2000 2.6 360 13:36 19.05.2020
2881 Mist 9 1017 93 3000 2.1 140 13:18 19.05.2020
2882 Mist 9 1017 93 3000 2.1 140 12:40 19.05.2020
2883 Mist 9 1017 93 3000 2.1 140 12:22 19.05.2020
2884 Mist 9 1017 100 2000 4.1 150 11:59 19.05.2020
2885 Mist 10 1017 100 2000 4.1 150 11:40 19.05.2020
2886 Mist 9 1017 100 2000 4.1 150 11:21 19.05.2020
2887 Mist 10 1017 100 1500 4.6 150 10:49 19.05.2020
2888 Fog 9 1016 100 400 4.1 160 10:30 19.05.2020
2889 Fog 7 1016 100 300 2.6 190 09:59 19.05.2020
2890 Fog 9 1016 100 300 2.6 190 09:41 19.05.2020
2891 Fog 9 1016 100 300 2.6 190 09:23 19.05.2020
2892 Fog 8 1016 100 300 1 0 08:44 19.05.2020
2893 Fog 10 1016 100 300 1 0 08:24 19.05.2020
2894 Fog 9 1016 100 300 0.5 0 07:45 19.05.2020
2895 Fog 10 1016 100 300 0.5 0 07:27 19.05.2020
2896 Fog 10 1017 100 300 0.59 274 06:54 19.05.2020
2897 Fog 10 1017 100 300 0.59 277 06:25 19.05.2020
2898 Fog 10 1017 100 500 2.6 150 05:42 19.05.2020
2899 Fog 9 1017 100 500 2.6 150 05:19 19.05.2020
2900 Fog 8 1017 100 1500 3.6 170 04:35 19.05.2020
2901 Clear 13 1017 81 7000 3.1 150 02:21 19.05.2020
2902 Clear 16 1017 51 9000 1.5 260 00:48 19.05.2020
2903 Clear 16 1017 51 9000 1.5 260 00:26 19.05.2020
2904 Clear 19 1016 42 9000 2.1 270 23:58 18.05.2020
2905 Clear 19 1016 42 9000 2.1 270 23:40 18.05.2020
2906 Clear 19 1016 42 9000 2.1 270 23:20 18.05.2020
2907 Clear 20 1016 42 9000 2.1 240 22:41 18.05.2020
2908 Clear 22 1016 33 7000 2.6 260 22:22 18.05.2020
2909 Clear 22 1016 33 7000 2.6 260 21:58 18.05.2020
2910 Clear 22 1016 33 7000 2.6 260 21:40 18.05.2020
2911 Clear 22 1016 33 7000 2.6 260 21:20 18.05.2020
2912 Clear 22 1016 37 6000 2.6 250 20:57 18.05.2020
2913 Clear 22 1016 37 6000 2.6 250 20:37 18.05.2020
2914 Clear 22 1016 30 8000 2.1 210 20:18 18.05.2020
2915 Clear 22 1016 30 8000 2.1 210 19:41 18.05.2020
2916 Clear 20 1017 37 10000 2.1 248 19:19 18.05.2020
2917 Clear 20 1017 37 10000 2.1 248 18:55 18.05.2020
2918 Clear 19 1017 37 10000 2.1 248 18:36 18.05.2020
2919 Clear 17 1017 39 10000 1.5 220 18:18 18.05.2020
2920 Clear 17 1017 39 10000 1.5 220 17:37 18.05.2020
2921 Clear 17 1017 39 10000 1.5 220 17:18 18.05.2020
2922 Clear 13 1017 47 10000 1.31 248 16:55 18.05.2020
2923 Clear 13 1017 47 10000 1.31 248 16:36 18.05.2020
2924 Clear 10 1017 66 10000 1.18 248 16:18 18.05.2020
2925 Clear 8 1017 66 10000 1.12 250 15:42 18.05.2020
2926 Clear 8 1017 66 10000 0.14 253 15:23 18.05.2020
2927 Clear 9 1017 57 10000 0.14 253 14:58 18.05.2020
2928 Clear 9 1017 57 10000 0.03 287 14:39 18.05.2020
2929 Clear 9 1017 57 10000 0.28 80 14:20 18.05.2020
2930 Fog 9 1016 100 1700 1 0 13:42 18.05.2020
2931 Fog 5 1016 100 1700 1 0 13:21 18.05.2020
2932 Fog 9 1016 100 800 1 0 12:58 18.05.2020
2933 Fog 8 1016 100 800 1 0 12:40 18.05.2020
2934 Fog 5 1016 100 800 1 0 12:20 18.05.2020
2935 Fog 6 1016 100 500 2.1 180 11:59 18.05.2020
2936 Fog 6 1016 100 500 2.1 180 11:40 18.05.2020
2937 Fog 6 1016 100 500 2.1 180 11:22 18.05.2020
2938 Fog 8 1016 93 2900 3.1 160 10:46 18.05.2020
2939 Fog 10 1016 93 2900 3.1 160 10:23 18.05.2020
2940 Clear 9 1016 87 8000 2.1 180 09:46 18.05.2020
2941 Clear 9 1016 87 8000 2.1 180 09:27 18.05.2020
2942 Clear 11 1016 81 10000 2.1 180 08:57 18.05.2020
2943 Clear 11 1016 81 10000 2.1 180 08:39 18.05.2020
2944 Clear 11 1016 81 10000 2.1 180 08:20 18.05.2020
2945 Clear 11 1016 81 10000 2.6 180 07:42 18.05.2020
2946 Clear 11 1016 81 10000 2.6 180 07:21 18.05.2020
2947 Clear 12 1015 71 10000 3.1 160 06:47 18.05.2020
2948 Clear 12 1015 71 10000 3.1 160 06:21 18.05.2020
2949 Clear 13 1015 66 10000 2.1 190 05:42 18.05.2020
2950 Clear 17 1014 51 10000 2.1 150 03:38 18.05.2020
2951 Clear 19 1014 45 10000 3.6 140 02:35 18.05.2020
2952 Clear 20 1013 32 10000 2.6 160 01:45 18.05.2020
2953 Clear 23 1015 31 10000 0.73 204 00:41 18.05.2020
2954 Clear 23 1015 31 10000 1.07 217 00:18 18.05.2020
2955 Clear 23 1015 31 10000 1.07 217 00:18 18.05.2020
2956 Clear 24 1014 25 10000 2.1 240 23:42 17.05.2020
2957 Clear 24 1014 25 10000 2.1 240 23:42 17.05.2020
2958 Clear 25 1014 25 10000 2.1 240 23:21 17.05.2020
2959 Clear 25 1014 21 10000 2.6 260 22:59 17.05.2020
2960 Clear 25 1014 21 10000 2.6 260 22:39 17.05.2020
2961 Clear 25 1014 21 10000 2.6 260 22:21 17.05.2020
2962 Clear 26 1014 18 10000 2.1 270 21:59 17.05.2020
2963 Clear 26 1014 18 10000 2.1 270 21:41 17.05.2020
2964 Clear 26 1014 18 10000 2.1 270 21:19 17.05.2020
2965 Clear 25 1014 19 10000 1.5 230 20:55 17.05.2020
2966 Clear 26 1014 19 10000 1.5 230 20:37 17.05.2020
2967 Clear 26 1014 19 10000 1.5 230 20:18 17.05.2020
2968 Clear 25 1014 20 10000 2.32 237 19:42 17.05.2020
2969 Clear 25 1014 20 10000 2.32 237 19:42 17.05.2020
2970 Clear 25 1014 20 10000 1.85 243 19:23 17.05.2020
2971 Clear 24 1015 23 10000 1.5 250 18:56 17.05.2020
2972 Clear 24 1015 23 10000 1.5 250 18:37 17.05.2020
2973 Clear 22 1015 23 10000 1.5 250 18:19 17.05.2020
2974 Clear 21 1015 26 10000 1.42 248 17:40 17.05.2020
2975 Clear 21 1015 26 10000 1.13 241 17:21 17.05.2020
2976 Clear 19 1016 36 10000 1.5 210 16:57 17.05.2020
2977 Clear 18 1016 36 10000 1.5 210 16:38 17.05.2020
2978 Clear 18 1016 36 10000 1.5 210 16:19 17.05.2020
2979 Clear 18 1016 36 10000 1.5 210 16:19 17.05.2020
2980 Clear 15 1016 50 10000 0.36 194 15:46 17.05.2020
2981 Clear 12 1016 50 10000 0.85 76 15:24 17.05.2020
2982 Clear 9 1015 53 10000 1.5 30 14:58 17.05.2020
2983 Clear 9 1015 53 10000 1.5 30 14:39 17.05.2020
2984 Clear 9 1015 53 10000 1.5 30 14:19 17.05.2020
2985 Clear 6 1014 70 9000 1.5 30 13:41 17.05.2020
2986 Clear 6 1014 70 9000 1.5 30 13:20 17.05.2020
2987 Clear 14 1014 54 10000 0.5 0 05:22 17.05.2020
2988 Clear 15 1014 51 10000 0.5 0 03:31 17.05.2020
2989 Clear 20 1014 45 10000 2.1 150 02:26 17.05.2020
2990 Clear 20 1013 37 10000 3.1 170 01:54 17.05.2020
2991 Clear 23 1014 22 10000 1.5 230 00:52 17.05.2020
2992 Clear 23 1014 22 10000 1.5 230 00:30 17.05.2020
2993 Clear 25 1014 21 10000 2.1 240 23:56 16.05.2020
2994 Clear 25 1014 21 10000 2.1 240 23:38 16.05.2020
2995 Clear 25 1014 21 10000 2.1 240 23:18 16.05.2020
2996 Clear 25 1014 22 10000 1.5 240 22:41 16.05.2020
2997 Clear 25 1014 22 10000 1.5 240 22:22 16.05.2020
2998 Clear 25 1015 21 10000 2.1 240 21:56 16.05.2020
2999 Clear 25 1015 21 10000 2.1 240 21:38 16.05.2020
3000 Clear 25 1015 21 10000 2.1 240 21:19 16.05.2020
3001 Clear 25 1015 25 10000 2.1 240 20:56 16.05.2020
3002 Clear 25 1015 25 10000 2.1 240 20:56 16.05.2020
3003 Clear 25 1015 25 10000 2.1 240 20:38 16.05.2020
3004 Clear 25 1015 25 10000 2.1 240 20:19 16.05.2020
3005 Clear 25 1015 25 10000 2.1 240 20:19 16.05.2020
3006 Clear 24 1015 27 10000 1 210 19:43 16.05.2020
3007 Clear 24 1015 27 10000 1 210 19:23 16.05.2020
3008 Clear 24 1016 27 10000 1.5 240 18:58 16.05.2020
3009 Clear 24 1016 27 10000 1.5 240 18:40 16.05.2020
3010 Clear 23 1016 27 10000 1.5 240 18:21 16.05.2020
3011 Clear 22 1017 30 10000 1.16 230 17:42 16.05.2020
3012 Clear 21 1017 30 10000 0.88 229 17:21 16.05.2020
3013 Clear 19 1017 39 10000 0.88 229 16:56 16.05.2020
3014 Clear 19 1017 39 10000 0.88 229 16:37 16.05.2020
3015 Clear 15 1017 76 10000 1.5 30 16:18 16.05.2020
3016 Clear 15 1017 76 10000 1.5 30 15:42 16.05.2020
3017 Clear 11 1017 76 10000 1.5 30 15:21 16.05.2020
3018 Clear 7 1017 75 10000 0.63 131 14:58 16.05.2020
3019 Clear 7 1017 75 10000 0.63 131 14:38 16.05.2020
3020 Clouds 7 1017 75 10000 0.72 115 14:20 16.05.2020
3021 Clouds 10 1016 65 10000 2.1 30 13:43 16.05.2020
3022 Clouds 10 1016 65 10000 2.1 30 13:24 16.05.2020
3023 Clouds 10 1015 30 9000 2.1 350 12:59 16.05.2020
3024 Clouds 10 1015 30 9000 2.1 350 12:40 16.05.2020
3025 Clouds 10 1015 29 9000 2.1 350 12:19 16.05.2020
3026 Clouds 9 1015 61 9000 1 0 11:42 16.05.2020
3027 Clouds 9 1015 61 9000 1 0 11:23 16.05.2020
3028 Clouds 11 1015 61 10000 1 0 10:58 16.05.2020
3029 Clouds 11 1015 61 10000 1 0 10:40 16.05.2020
3030 Clouds 9 1015 61 10000 1 0 10:21 16.05.2020
3031 Clouds 11 1016 53 10000 1 140 09:56 16.05.2020
3032 Clouds 11 1016 53 10000 1 140 09:38 16.05.2020
3033 Clear 10 1016 57 10000 2.1 40 09:18 16.05.2020
3034 Clouds 10 1016 57 10000 2.1 40 08:42 16.05.2020
3035 Clear 10 1016 57 10000 2.1 40 08:19 16.05.2020
3036 Clear 12 1016 54 9000 1.5 10 07:43 16.05.2020
3037 Clear 12 1016 54 9000 1.5 10 07:23 16.05.2020
3038 Clear 13 1016 50 10000 1 0 06:48 16.05.2020
3039 Clear 13 1016 50 10000 1 0 06:24 16.05.2020
3040 Clear 13 1017 47 10000 2.1 10 05:49 16.05.2020
3041 Clear 13 1017 47 10000 2.1 10 05:27 16.05.2020
3042 Clear 17 1017 42 10000 1 0 03:33 16.05.2020
3043 Clear 19 1017 34 10000 1.5 130 02:49 16.05.2020
3044 Clear 20 1017 34 10000 1.5 130 02:20 16.05.2020
3045 Clear 21 1016 30 10000 2.1 230 01:43 16.05.2020
3046 Clear 22 1017 25 10000 1.5 250 00:59 16.05.2020
3047 Clear 22 1017 25 10000 1.5 250 00:41 16.05.2020
3048 Clear 22 1017 25 10000 1.5 250 00:20 16.05.2020
3049 Clear 24 1017 17 10000 0.67 161 23:40 15.05.2020
3050 Clear 24 1017 17 10000 1.05 214 23:20 15.05.2020
3051 Clear 24 1018 14 10000 1.5 290 22:42 15.05.2020
3052 Clear 25 1018 14 10000 1.5 290 22:23 15.05.2020
3053 Clear 24 1018 14 10000 1.5 0 21:59 15.05.2020
3054 Clear 24 1018 14 10000 1.5 0 21:39 15.05.2020
3055 Clear 24 1018 14 10000 1.5 0 21:39 15.05.2020
3056 Clear 24 1018 14 10000 1.5 0 21:21 15.05.2020
3057 Clear 24 1019 15 10000 2 233 20:58 15.05.2020
3058 Clear 24 1019 15 10000 1.88 233 20:40 15.05.2020
3059 Clouds 24 1019 15 10000 1.63 236 20:21 15.05.2020
3060 Clouds 23 1020 18 10000 1.63 236 19:55 15.05.2020
3061 Clouds 23 1020 18 10000 1.63 236 19:36 15.05.2020
3062 Clouds 22 1021 22 10000 1.5 250 19:18 15.05.2020
3063 Clouds 22 1021 22 10000 1.5 250 18:41 15.05.2020
3064 Clouds 20 1021 22 10000 1.5 250 18:23 15.05.2020
3065 Clouds 18 1021 24 10000 1.19 227 17:39 15.05.2020
3066 Clouds 20 1021 24 10000 1.03 216 17:19 15.05.2020
3067 Clouds 17 1021 29 10000 2.6 260 16:57 15.05.2020
3068 Clouds 17 1021 29 10000 2.6 260 16:38 15.05.2020
3069 Clouds 17 1021 29 10000 2.6 260 16:19 15.05.2020
3070 Clouds 15 1020 30 10000 3.1 360 15:42 15.05.2020
3071 Clouds 12 1020 30 10000 3.1 360 15:23 15.05.2020
3072 Clouds 10 1022 40 10000 1 0 14:59 15.05.2020
3073 Clouds 10 1022 40 10000 1 0 14:41 15.05.2020
3074 Clouds 10 1022 40 10000 1 0 14:23 15.05.2020
3075 Clouds 8 1020 64 9000 2.6 40 13:58 15.05.2020
3076 Clouds 4 1020 64 9000 2.6 40 13:38 15.05.2020
3077 Clouds 8 1020 65 9000 1.5 320 13:19 15.05.2020
3078 Clouds 8 1020 65 9000 1.5 320 12:39 15.05.2020
3079 Clouds 7 1020 56 9000 2.1 140 12:18 15.05.2020
3080 Clouds 7 1020 56 9000 2.1 140 11:56 15.05.2020
3081 Clouds 7 1020 56 9000 2.1 140 11:38 15.05.2020
3082 Clouds 7 1020 56 9000 2.1 140 11:19 15.05.2020
3083 Clouds 7 1020 56 9000 0.5 0 10:57 15.05.2020
3084 Clouds 7 1020 56 9000 0.5 0 10:38 15.05.2020
3085 Clouds 7 1020 56 9000 0.5 0 10:20 15.05.2020
3086 Clouds 7 1021 32 8000 0.5 0 09:56 15.05.2020
3087 Clouds 7 1021 32 8000 0.5 0 09:36 15.05.2020
3088 Clouds 9 1021 49 10000 0.61 62 09:18 15.05.2020
3089 Clouds 9 1021 49 10000 0.61 62 08:38 15.05.2020
3090 Clouds 9 1021 49 10000 0.42 164 08:20 15.05.2020
3091 Clouds 9 1021 49 10000 0.42 164 08:20 15.05.2020
3092 Clouds 9 1021 49 10000 1 0 07:47 15.05.2020
3093 Clear 9 1021 49 10000 1 0 07:28 15.05.2020
3094 Clear 9 1021 45 10000 2.1 350 06:59 15.05.2020
3095 Clear 9 1021 45 10000 2.1 350 06:28 15.05.2020
3096 Clear 11 1021 43 10000 0.57 196 05:33 15.05.2020
3097 Clear 15 1021 33 10000 1.5 150 03:51 15.05.2020
3098 Clear 16 1021 29 10000 2.6 140 02:55 15.05.2020
3099 Clear 19 1021 24 10000 0.17 193 01:37 15.05.2020
3100 Clear 20 1021 24 10000 0.64 192 01:18 15.05.2020
3101 Clear 20 1021 24 10000 0.64 192 00:41 15.05.2020
3102 Clear 20 1021 24 10000 1.04 202 00:22 15.05.2020
3103 Clear 22 1021 17 10000 2.1 240 23:41 14.05.2020
3104 Clear 22 1021 17 10000 2.1 240 23:19 14.05.2020
3105 Clear 22 1020 17 10000 2.16 224 22:55 14.05.2020
3106 Clear 22 1020 17 10000 2.16 224 22:37 14.05.2020
3107 Clear 22 1021 21 10000 1.5 240 22:18 14.05.2020
3108 Clear 22 1021 21 10000 1.5 240 21:42 14.05.2020
3109 Clear 22 1021 21 10000 1.5 240 21:42 14.05.2020
3110 Clear 21 1021 22 10000 2.6 230 21:20 14.05.2020
3111 Clear 21 1021 22 10000 2.6 230 20:59 14.05.2020
3112 Clear 21 1021 22 10000 2.6 230 20:40 14.05.2020
3113 Clouds 22 1021 22 10000 2.6 230 20:20 14.05.2020
3114 Clouds 22 1021 22 10000 2.6 230 20:20 14.05.2020
3115 Clouds 21 1021 22 10000 1.52 236 19:57 14.05.2020
3116 Clouds 21 1021 22 10000 1.52 236 19:39 14.05.2020
3117 Clouds 20 1021 22 10000 1.3 243 19:20 14.05.2020
3118 Clouds 20 1021 22 10000 1.3 243 19:20 14.05.2020
3119 Clouds 18 1022 20 10000 1.5 240 18:57 14.05.2020
3120 Clouds 19 1022 20 10000 1.5 240 18:38 14.05.2020
3121 Clouds 18 1022 22 10000 1.5 240 18:19 14.05.2020
3122 Clouds 16 1016 29 10000 2.6 240 17:57 14.05.2020
3123 Clouds 16 1016 29 10000 2.6 240 17:37 14.05.2020
3124 Clouds 12 1022 37 10000 1.67 226 17:18 14.05.2020
3125 Clouds 12 1022 37 10000 1.67 226 16:41 14.05.2020
3126 Clouds 15 1022 37 10000 0.24 162 16:23 14.05.2020
3127 Clouds 12 1022 25 10000 0.24 162 15:59 14.05.2020
3128 Clouds 12 1022 25 10000 0.24 162 15:40 14.05.2020
3129 Clouds 12 1022 25 10000 0.24 162 15:40 14.05.2020
3130 Clear 8 1022 28 10000 0.62 108 15:21 14.05.2020
3131 Clear 6 1023 28 10000 1.5 60 14:57 14.05.2020
3132 Clear 6 1023 28 10000 1.5 60 14:39 14.05.2020
3133 Clear 6 1023 33 10000 1.5 60 14:20 14.05.2020
3134 Haze 3 1022 33 5000 0.53 165 13:57 14.05.2020
3135 Haze 6 1022 33 5000 0.53 165 13:38 14.05.2020
3136 Haze 6 1022 34 5000 0.88 71 13:19 14.05.2020
3137 Clear 3 1021 34 7000 1.5 30 12:57 14.05.2020
3138 Clear 6 1021 34 7000 1.5 30 12:38 14.05.2020
3139 Clear 3 1021 34 7000 1.5 50 12:18 14.05.2020
3140 Clear 3 1021 34 7000 1.5 50 11:57 14.05.2020
3141 Clear 3 1021 34 7000 1.5 50 11:38 14.05.2020
3142 Clear 3 1021 35 7000 1.5 50 11:19 14.05.2020
3143 Clear 5 1021 80 8000 1.5 270 10:45 14.05.2020
3144 Clear 5 1021 80 8000 1.5 270 10:26 14.05.2020
3145 Clear 6 1021 75 9000 1 0 09:56 14.05.2020
3146 Clear 6 1021 75 9000 1 0 09:38 14.05.2020
3147 Clear 6 1021 75 9000 1 0 09:19 14.05.2020
3148 Clear 7 1021 70 9000 1 150 08:40 14.05.2020
3149 Clouds 7 1021 70 9000 1 150 08:20 14.05.2020
3150 Clouds 7 1021 65 8000 1 0 07:45 14.05.2020
3151 Clouds 7 1021 65 8000 1 0 07:24 14.05.2020
3152 Clouds 7 1022 65 8000 3.1 30 06:53 14.05.2020
3153 Clouds 7 1022 65 8000 3.1 30 06:28 14.05.2020
3154 Clouds 11 1022 57 8000 2.1 300 05:44 14.05.2020
3155 Clouds 11 1022 57 8000 2.1 300 05:23 14.05.2020
3156 Clear 12 1022 50 10000 2.1 110 04:24 14.05.2020
3157 Clear 14 1021 50 10000 2.1 200 03:21 14.05.2020
3158 Clear 15 1021 47 8000 3.1 150 02:40 14.05.2020
3159 Clouds 17 1020 42 10000 1.5 200 01:55 14.05.2020
3160 Clouds 19 1020 29 10000 1.5 180 00:58 14.05.2020
3161 Clouds 19 1020 29 10000 1.5 180 00:37 14.05.2020
3162 Clouds 19 1020 34 10000 1 230 00:19 14.05.2020
3163 Clouds 20 1020 34 10000 1 230 23:39 13.05.2020
3164 Clouds 20 1020 34 10000 1 230 23:18 13.05.2020
3165 Clouds 21 1020 26 10000 1.5 230 22:42 13.05.2020
3166 Clouds 21 1020 26 10000 1.5 230 22:23 13.05.2020
3167 Clouds 22 1020 26 8000 2.6 250 21:59 13.05.2020
3168 Clouds 22 1020 26 8000 2.6 250 21:59 13.05.2020
3169 Clouds 22 1020 26 8000 2.6 250 21:40 13.05.2020
3170 Clouds 22 1020 26 8000 2.6 250 21:40 13.05.2020
3171 Clouds 21 1020 26 8000 2.6 250 21:20 13.05.2020
3172 Clouds 21 1020 28 7000 1.5 270 20:58 13.05.2020
3173 Clouds 21 1020 28 7000 1.5 270 20:39 13.05.2020
3174 Clouds 20 1020 28 7000 1.5 270 20:21 13.05.2020
3175 Clouds 18 1021 39 7000 1 220 19:43 13.05.2020
3176 Clouds 19 1021 39 7000 1 220 19:24 13.05.2020
3177 Clouds 18 1022 48 10000 2.1 230 18:45 13.05.2020
3178 Clouds 17 1022 48 10000 2.1 230 18:22 13.05.2020
3179 Clouds 16 1022 41 10000 2.1 350 17:59 13.05.2020
3180 Clouds 16 1022 41 10000 2.1 350 17:38 13.05.2020
3181 Clouds 16 1022 41 10000 2.1 350 17:38 13.05.2020
3182 Clouds 13 1022 62 8000 1 180 17:19 13.05.2020
3183 Clouds 13 1022 62 8000 1 180 17:19 13.05.2020
3184 Clouds 12 1022 62 8000 1 180 16:41 13.05.2020
3185 Clouds 10 1022 81 10000 1 20 16:20 13.05.2020
3186 Clouds 10 1022 81 10000 1 20 15:59 13.05.2020
3187 Clouds 10 1022 81 10000 1 20 15:41 13.05.2020
3188 Clouds 8 1022 81 10000 1 20 15:18 13.05.2020
3189 Clouds 4 1021 80 10000 1.5 20 14:55 13.05.2020
3190 Clouds 4 1021 80 10000 1.5 20 14:37 13.05.2020
3191 Clouds 4 1021 80 10000 1.5 20 14:19 13.05.2020
3192 Mist 5 1021 86 5000 2.6 200 13:43 13.05.2020
3193 Mist 5 1021 86 5000 2.6 200 13:23 13.05.2020
3194 Clouds 6 1021 86 7000 3.6 30 12:59 13.05.2020
3195 Clouds 6 1021 86 7000 3.6 30 12:41 13.05.2020
3196 Clouds 6 1021 86 7000 3.6 30 12:21 13.05.2020
3197 Clouds 5 1021 93 7000 3.6 30 11:56 13.05.2020
3198 Clouds 5 1021 93 7000 3.6 30 11:38 13.05.2020
3199 Clouds 5 1021 93 7000 3.6 30 11:20 13.05.2020
3200 Clouds 5 1022 86 7000 2.6 300 10:58 13.05.2020
3201 Clouds 6 1022 86 7000 2.6 300 10:38 13.05.2020
3202 Clear 6 1022 86 7000 2.6 300 10:19 13.05.2020
3203 Clear 6 1022 86 7000 0.5 0 09:47 13.05.2020
3204 Clear 6 1022 86 7000 0.5 0 09:24 13.05.2020
3205 Clear 7 1022 87 8000 0.88 78 08:58 13.05.2020
3206 Clear 7 1022 87 8000 0.88 78 08:39 13.05.2020
3207 Clear 7 1022 87 8000 0.53 204 08:20 13.05.2020
3208 Clear 6 1022 86 8000 0.53 204 07:52 13.05.2020
3209 Clear 6 1022 86 8000 0.53 204 07:32 13.05.2020
3210 Clear 7 1022 81 8000 1 0 06:52 13.05.2020
3211 Clear 8 1022 81 8000 1 0 06:34 13.05.2020
3212 Clear 10 1022 66 10000 2.6 130 05:37 13.05.2020
3213 Clouds 11 1022 71 10000 2.6 160 03:58 13.05.2020
3214 Clouds 13 1021 62 10000 3.1 160 02:38 13.05.2020
3215 Clouds 14 1021 58 10000 2.1 140 01:46 13.05.2020
3216 Haze 14 1021 58 4000 1.73 241 00:58 13.05.2020
3217 Haze 14 1021 58 4000 1.51 230 00:23 13.05.2020
3218 Haze 15 1020 54 5000 1 360 23:58 12.05.2020
3219 Haze 15 1020 54 5000 1 360 23:39 12.05.2020
3220 Haze 15 1021 54 5000 1.86 229 23:18 12.05.2020
3221 Haze 15 1021 54 5000 1.86 229 22:42 12.05.2020
3222 Haze 15 1021 54 5000 2 224 22:22 12.05.2020
3223 Clouds 15 1021 51 6000 1.5 230 21:56 12.05.2020
3224 Clouds 15 1021 51 6000 1.5 230 21:38 12.05.2020
3225 Clouds 15 1021 51 6000 1.5 230 21:19 12.05.2020
3226 Clouds 15 1020 51 7000 1.5 190 20:58 12.05.2020
3227 Clouds 15 1020 51 7000 1.5 190 20:39 12.05.2020
3228 Clouds 15 1020 51 7000 1.5 190 20:20 12.05.2020
3229 Clouds 15 1020 54 7000 1.67 246 19:57 12.05.2020
3230 Clouds 15 1020 54 7000 1.67 246 19:39 12.05.2020
3231 Clouds 15 1020 54 7000 2.19 251 19:20 12.05.2020
3232 Clouds 14 1020 54 8000 1.5 260 18:55 12.05.2020
3233 Clouds 14 1020 54 8000 1.5 260 18:36 12.05.2020
3234 Clouds 13 1020 58 8000 1 200 18:18 12.05.2020
3235 Clouds 13 1020 58 8000 1 200 17:42 12.05.2020
3236 Clouds 13 1020 58 8000 1 200 17:23 12.05.2020
3237 Clouds 12 1020 66 8000 1 30 16:47 12.05.2020
3238 Clouds 12 1020 66 8000 1 30 16:26 12.05.2020
3239 Clouds 10 1020 81 8000 0.63 241 15:56 12.05.2020
3240 Clouds 10 1020 81 8000 0.63 241 15:38 12.05.2020
3241 Clouds 9 1020 81 8000 0.91 241 15:19 12.05.2020
3242 Clouds 8 1020 81 9000 1 60 14:57 12.05.2020
3243 Clouds 9 1020 81 9000 1 60 14:37 12.05.2020
3244 Clouds 9 1020 81 9000 1 60 14:19 12.05.2020
3245 Clouds 8 1019 81 10000 2.1 10 13:57 12.05.2020
3246 Clouds 8 1019 81 10000 2.1 10 13:39 12.05.2020
3247 Clouds 8 1019 81 10000 2.1 10 13:19 12.05.2020
3248 Clouds 8 1019 81 10000 2.1 10 13:19 12.05.2020
3249 Clouds 8 1018 81 10000 0.43 278 12:57 12.05.2020
3250 Clouds 9 1018 81 10000 0.43 278 12:39 12.05.2020
3251 Clouds 8 1018 81 10000 0.35 353 12:21 12.05.2020
3252 Clouds 8 1018 75 10000 1.5 290 11:57 12.05.2020
3253 Clouds 9 1018 75 10000 1.5 290 11:38 12.05.2020
3254 Clouds 9 1018 75 10000 1.5 290 11:20 12.05.2020
3255 Clouds 9 1018 70 10000 0.25 1 10:57 12.05.2020
3256 Clouds 9 1018 70 10000 0.25 1 10:39 12.05.2020
3257 Clouds 9 1018 70 10000 0.08 224 10:19 12.05.2020
3258 Clouds 9 1018 70 10000 1.5 170 09:57 12.05.2020
3259 Clouds 9 1018 70 10000 1.5 170 09:38 12.05.2020
3260 Clouds 9 1018 70 10000 1.5 170 09:38 12.05.2020
3261 Clouds 9 1018 70 10000 1.5 170 09:20 12.05.2020
3262 Clouds 10 1018 76 10000 1 0 08:42 12.05.2020
3263 Clouds 9 1018 76 10000 1 0 08:21 12.05.2020
3264 Clouds 10 1018 66 10000 1.5 190 07:57 12.05.2020
3265 Clouds 10 1018 66 10000 1.5 190 07:39 12.05.2020
3266 Clouds 10 1018 66 10000 1.5 190 07:19 12.05.2020
3267 Clouds 10 1018 71 10000 0.5 0 06:38 12.05.2020
3268 Clouds 10 1018 71 10000 0.5 0 06:38 12.05.2020
3269 Clouds 10 1018 71 10000 0.5 0 06:19 12.05.2020
3270 Clouds 13 1018 58 10000 3.1 150 05:45 12.05.2020
3271 Clear 14 1017 58 10000 4.1 150 03:57 12.05.2020
3272 Clear 14 1017 58 10000 4.1 150 03:21 12.05.2020
3273 Clouds 15 1016 58 10000 3.1 170 02:27 12.05.2020
3274 Clouds 16 1016 55 10000 3.1 200 01:46 12.05.2020
3275 Clouds 18 1017 48 10000 1 0 00:59 12.05.2020
3276 Clouds 18 1017 48 10000 1 0 00:24 12.05.2020
3277 Clouds 19 1016 45 10000 2.1 220 23:57 11.05.2020
3278 Clouds 19 1016 45 10000 2.1 220 23:38 11.05.2020
3279 Clouds 19 1016 45 10000 2.1 220 23:19 11.05.2020
3280 Clouds 20 1016 42 10000 2.1 190 22:57 11.05.2020
3281 Clouds 20 1016 42 10000 2.1 190 22:39 11.05.2020
3282 Clouds 20 1016 42 10000 2.1 190 22:39 11.05.2020
3283 Clouds 20 1016 42 10000 2.1 190 22:19 11.05.2020
3284 Clouds 20 1016 42 10000 1.5 210 21:55 11.05.2020
3285 Clouds 20 1016 42 10000 1.5 210 21:37 11.05.2020
3286 Clouds 20 1016 42 10000 1.5 210 21:18 11.05.2020
3287 Clouds 20 1017 45 10000 1.5 0 20:55 11.05.2020
3288 Clouds 19 1017 45 10000 1.5 0 20:36 11.05.2020
3289 Clouds 18 1017 51 10000 1.5 300 20:18 11.05.2020
3290 Clouds 18 1017 51 10000 1.5 300 19:41 11.05.2020
3291 Clear 18 1017 51 10000 1.5 300 19:22 11.05.2020
3292 Clear 16 1017 58 10000 2.1 240 18:58 11.05.2020
3293 Clear 16 1017 58 10000 2.1 240 18:39 11.05.2020
3294 Clear 16 1017 58 10000 2.1 240 18:20 11.05.2020
3295 Clear 15 1018 62 10000 2.1 200 17:57 11.05.2020
3296 Clear 15 1018 62 10000 2.1 200 17:39 11.05.2020
3297 Clear 14 1018 62 10000 2.1 200 17:21 11.05.2020
3298 Clear 13 1018 71 10000 1 200 16:56 11.05.2020
3299 Clear 13 1018 71 10000 1 200 16:37 11.05.2020
3300 Clear 13 1018 71 10000 1 200 16:19 11.05.2020
3301 Clear 10 1018 93 10000 0.98 243 15:42 11.05.2020
3302 Clear 8 1018 93 10000 0.39 335 15:20 11.05.2020
3303 Clear 7 1017 70 10000 1 100 14:59 11.05.2020
3304 Clear 7 1017 70 10000 1 100 14:41 11.05.2020
3305 Clear 8 1017 70 10000 1 100 14:21 11.05.2020
3306 Clear 7 1016 86 8000 1.5 50 13:54 11.05.2020
3307 Clear 6 1016 86 8000 1.5 50 13:36 11.05.2020
3308 Clear 7 1016 87 9000 2.6 10 13:18 11.05.2020
3309 Clear 7 1016 87 9000 2.6 10 12:54 11.05.2020
3310 Clear 7 1016 87 9000 2.6 10 12:54 11.05.2020
3311 Clear 7 1016 87 9000 2.6 10 12:36 11.05.2020
3312 Clear 7 1017 81 10000 1 0 12:18 11.05.2020
3313 Clear 7 1017 81 10000 1 0 11:41 11.05.2020
3314 Clear 7 1017 81 10000 1 0 11:22 11.05.2020
3315 Clear 8 1017 87 10000 1 0 10:58 11.05.2020
3316 Clear 8 1017 87 10000 1 0 10:40 11.05.2020
3317 Clear 8 1017 87 10000 1 0 10:21 11.05.2020
3318 Clear 8 1017 75 10000 0.5 0 09:58 11.05.2020
3319 Clear 9 1017 75 10000 0.5 0 09:39 11.05.2020
3320 Clear 9 1017 75 10000 0.5 0 09:19 11.05.2020
3321 Clear 10 1017 76 10000 0.5 0 08:55 11.05.2020
3322 Clear 10 1017 76 10000 0.5 0 08:37 11.05.2020
3323 Clear 9 1018 81 10000 1.5 50 08:18 11.05.2020
3324 Clear 9 1018 81 10000 1.5 50 07:42 11.05.2020
3325 Clear 9 1018 81 10000 1.5 50 07:23 11.05.2020
3326 Clear 10 1018 76 10000 1 0 06:41 11.05.2020
3327 Clear 11 1018 71 10000 1 0 05:56 11.05.2020
3328 Clear 11 1018 71 10000 1 0 05:24 11.05.2020
3329 Clear 13 1018 66 10000 1.5 140 04:24 11.05.2020
3330 Clear 15 1018 58 10000 1 170 02:47 11.05.2020
3331 Clear 15 1018 58 10000 1 170 02:29 11.05.2020
3332 Clear 16 1019 59 10000 1 280 01:34 11.05.2020
3333 Clear 16 1019 59 10000 1 280 00:52 11.05.2020
3334 Clear 16 1019 59 10000 1 280 00:19 11.05.2020
3335 Clear 18 1019 55 10000 2.1 270 23:43 10.05.2020
3336 Clear 18 1019 55 10000 2.1 270 23:24 10.05.2020
3337 Clear 18 1018 52 10000 2.6 230 22:55 10.05.2020
3338 Clear 19 1018 52 10000 2.6 230 22:37 10.05.2020
3339 Clear 19 1018 52 10000 2.6 230 22:19 10.05.2020
3340 Clear 19 1019 48 10000 2.1 270 21:44 10.05.2020
3341 Clear 18 1019 48 8000 2.6 230 21:20 10.05.2020
3342 Clear 18 1019 48 8000 2.6 230 20:55 10.05.2020
3343 Clear 18 1019 48 8000 2.6 230 20:36 10.05.2020
3344 Clear 18 1019 48 8000 2.6 230 20:36 10.05.2020
3345 Clear 18 1019 48 8000 2.6 230 20:18 10.05.2020
3346 Clear 18 1020 51 7000 2.6 230 19:40 10.05.2020
3347 Clear 18 1020 51 7000 2.6 230 19:22 10.05.2020
3348 Clear 17 1020 55 7000 1.5 220 18:57 10.05.2020
3349 Clear 17 1020 55 7000 1.5 220 18:57 10.05.2020
3350 Clear 17 1020 55 7000 1.5 220 18:37 10.05.2020
3351 Clear 17 1020 55 7000 1.5 220 18:19 10.05.2020
3352 Clear 15 1021 67 7000 1 220 17:59 10.05.2020
3353 Clear 14 1021 67 7000 1 220 17:40 10.05.2020
3354 Clear 14 1021 67 7000 1 220 17:21 10.05.2020
3355 Clear 14 1020 71 8000 1 350 16:57 10.05.2020
3356 Clear 14 1020 71 8000 1 350 16:38 10.05.2020
3357 Clear 13 1020 71 8000 1 350 16:19 10.05.2020
3358 Clear 13 1020 71 8000 1 350 16:19 10.05.2020
3359 Clear 11 1020 87 10000 1.5 250 15:44 10.05.2020
3360 Clear 9 1020 87 10000 1.5 250 15:24 10.05.2020
3361 Clear 8 1019 81 10000 1 150 14:58 10.05.2020
3362 Clear 8 1019 81 10000 1 150 14:38 10.05.2020
3363 Clear 8 1019 81 10000 1 150 14:38 10.05.2020
3364 Clear 8 1019 81 10000 1 150 14:19 10.05.2020
3365 Mist 8 1018 93 4700 2.1 10 13:59 10.05.2020
3366 Mist 8 1018 93 4700 2.1 10 13:59 10.05.2020
3367 Mist 7 1018 93 4700 2.1 10 13:38 10.05.2020
3368 Mist 7 1018 93 4700 2.1 10 13:20 10.05.2020
3369 Clear 8 1018 93 8000 2.6 310 12:57 10.05.2020
3370 Clear 8 1018 93 8000 2.6 310 12:38 10.05.2020
3371 Clear 8 1018 93 8000 2.6 310 12:20 10.05.2020
3372 Clear 9 1018 93 9000 2.1 140 11:56 10.05.2020
3373 Clear 9 1018 93 9000 2.1 140 11:38 10.05.2020
3374 Clear 9 1018 93 9000 2.1 140 11:19 10.05.2020
3375 Clear 8 1017 93 9000 1 0 10:46 10.05.2020
3376 Clear 8 1017 93 9000 1 0 10:27 10.05.2020
3377 Clear 10 1017 87 9000 0.54 267 09:58 10.05.2020
3378 Clear 10 1017 87 9000 0.54 267 09:39 10.05.2020
3379 Clear 10 1017 87 9000 0.59 252 09:20 10.05.2020
3380 Clear 10 1017 87 10000 1 160 08:48 10.05.2020
3381 Clear 10 1017 87 10000 1 160 08:24 10.05.2020
3382 Clear 11 1018 81 10000 2.6 240 07:45 10.05.2020
3383 Clear 11 1018 81 10000 2.6 240 07:21 10.05.2020
3384 Clear 12 1018 81 10000 2.6 160 06:56 10.05.2020
3385 Clear 12 1018 81 10000 2.6 160 06:30 10.05.2020
3386 Clear 13 1017 76 10000 2.6 150 05:50 10.05.2020
3387 Clear 13 1017 76 10000 2.1 160 04:54 10.05.2020
3388 Clear 13 1017 76 10000 2.1 160 04:34 10.05.2020
3389 Clear 14 1017 67 10000 3.1 170 03:54 10.05.2020
3390 Clear 15 1017 67 10000 3.1 170 03:36 10.05.2020
3391 Clear 16 1016 59 10000 3.6 170 02:41 10.05.2020
3392 Clear 16 1016 59 10000 3.6 170 02:19 10.05.2020
3393 Clear 18 1016 48 10000 4.1 160 01:42 10.05.2020
3394 Clear 20 1017 37 10000 1.63 250 01:19 10.05.2020
3395 Clear 20 1017 37 10000 1.63 250 00:54 10.05.2020
3396 Clear 20 1017 37 10000 1.32 231 00:24 10.05.2020
3397 Clear 22 1016 35 10000 3.1 240 23:59 09.05.2020
3398 Clear 22 1016 35 10000 3.1 240 23:39 09.05.2020
3399 Clear 22 1016 35 10000 3.1 240 23:20 09.05.2020
3400 Clear 24 1015 23 8000 3.1 230 22:42 09.05.2020
3401 Clear 24 1015 23 8000 3.1 230 22:24 09.05.2020
3402 Clear 25 1015 21 8000 2.1 240 21:58 09.05.2020
3403 Clear 26 1015 21 8000 2.1 240 21:40 09.05.2020
3404 Clear 26 1015 21 8000 2.1 240 21:21 09.05.2020
3405 Clear 25 1015 22 8000 2.1 240 20:58 09.05.2020
3406 Clear 25 1015 22 8000 2.1 240 20:38 09.05.2020
3407 Clear 25 1015 22 8000 2.1 240 20:38 09.05.2020
3408 Clear 24 1016 25 8000 2.45 245 20:20 09.05.2020
3409 Clear 24 1016 25 8000 2.45 245 19:56 09.05.2020
3410 Clear 24 1016 25 8000 2.45 245 19:38 09.05.2020
3411 Clear 21 1017 33 8000 2.1 250 19:18 09.05.2020
3412 Clear 23 1017 33 8000 2.1 250 18:43 09.05.2020
3413 Clear 21 1017 33 8000 2.1 250 18:24 09.05.2020
3414 Clear 18 1017 34 10000 2.1 240 17:46 09.05.2020
3415 Clear 18 1017 34 10000 2.1 240 17:23 09.05.2020
3416 Clear 15 1018 42 10000 1.34 276 16:57 09.05.2020
3417 Clear 15 1018 42 10000 1.34 276 16:38 09.05.2020
3418 Clear 15 1018 42 10000 0.46 264 16:19 09.05.2020
3419 Clear 15 1018 57 10000 0.46 264 15:44 09.05.2020
3420 Clear 10 1018 57 10000 0.28 140 15:26 09.05.2020
3421 Clear 7 1018 65 10000 0.28 140 14:57 09.05.2020
3422 Clear 7 1018 65 10000 0.28 140 14:39 09.05.2020
3423 Clear 7 1018 65 10000 0.2 182 14:18 09.05.2020
3424 Mist 6 1017 93 3000 1.5 290 13:56 09.05.2020
3425 Mist 6 1017 93 3000 1.5 290 13:38 09.05.2020
3426 Mist 7 1016 93 4600 1.5 180 13:18 09.05.2020
3427 Mist 7 1016 93 4600 1.5 180 12:41 09.05.2020
3428 Mist 7 1016 93 4600 1.5 180 12:22 09.05.2020
3429 Mist 7 1016 93 4800 0.5 0 11:45 09.05.2020
3430 Mist 7 1016 93 4800 0.5 0 11:20 09.05.2020
3431 Mist 7 1016 93 4700 1.5 350 10:56 09.05.2020
3432 Mist 9 1016 93 4700 1.5 350 10:38 09.05.2020
3433 Mist 9 1016 93 4700 1.5 350 10:20 09.05.2020
3434 Mist 9 1016 93 4900 2.6 10 09:54 09.05.2020
3435 Mist 9 1016 93 4900 2.6 10 09:36 09.05.2020
3436 Clear 10 1017 87 6000 1.5 160 09:18 09.05.2020
3437 Clear 10 1017 87 6000 1.5 160 08:43 09.05.2020
3438 Clouds 11 1017 87 6000 1.5 160 08:25 09.05.2020
3439 Clouds 11 1018 87 6000 3.1 170 07:48 09.05.2020
3440 Clouds 11 1018 87 6000 3.1 170 07:30 09.05.2020
3441 Clouds 11 1017 87 6000 1 0 06:45 09.05.2020
3442 Clouds 11 1017 87 6000 1 0 06:21 09.05.2020
3443 Clouds 12 1017 81 8000 1.5 120 05:44 09.05.2020
3444 Clouds 14 1017 71 8000 4.1 200 03:44 09.05.2020
3445 Clear 15 1017 71 8000 4.1 200 03:21 09.05.2020
3446 Clear 16 1017 63 8000 4.1 140 02:30 09.05.2020
3447 Clouds 16 1016 63 10000 5.1 150 01:51 09.05.2020
3448 Clouds 19 1016 37 8000 1.5 250 01:23 09.05.2020
3449 Clouds 20 1016 37 8000 1.5 250 00:46 09.05.2020
3450 Clouds 21 1016 37 8000 1.5 250 00:28 09.05.2020
3451 Clouds 23 1016 27 6000 2.6 240 23:48 08.05.2020
3452 Clouds 23 1016 27 6000 2.6 240 23:28 08.05.2020
3453 Haze 25 1015 21 5000 2.6 240 22:57 08.05.2020
3454 Haze 25 1015 21 5000 2.6 240 22:39 08.05.2020
3455 Haze 25 1015 21 5000 2.6 240 22:19 08.05.2020
3456 Haze 26 1014 18 5000 2.1 250 21:58 08.05.2020
3457 Haze 26 1014 18 5000 2.1 250 21:39 08.05.2020
3458 Haze 25 1015 23 5000 1.5 320 21:18 08.05.2020
3459 Haze 25 1015 23 5000 1.5 320 20:56 08.05.2020
3460 Haze 25 1015 23 5000 1.5 320 20:38 08.05.2020
3461 Clouds 24 1015 23 8000 2.1 240 20:20 08.05.2020
3462 Clouds 25 1015 23 8000 2.1 240 19:43 08.05.2020
3463 Clouds 24 1015 23 8000 2.1 240 19:23 08.05.2020
3464 Clouds 22 1016 17 10000 2.1 210 18:50 08.05.2020
3465 Clouds 23 1016 17 10000 2.1 210 18:31 08.05.2020
3466 Clouds 20 1016 18 10000 1 270 17:55 08.05.2020
3467 Clouds 21 1016 18 10000 1 270 17:37 08.05.2020
3468 Clouds 19 1016 19 10000 1.16 245 17:18 08.05.2020
3469 Clouds 19 1016 19 10000 1.16 245 16:42 08.05.2020
3470 Clouds 19 1016 20 10000 0.42 188 16:23 08.05.2020
3471 Clouds 16 1016 46 10000 0.42 188 15:55 08.05.2020
3472 Clouds 16 1016 46 10000 0.42 188 15:36 08.05.2020
3473 Clouds 11 1016 46 10000 0.23 252 15:18 08.05.2020
3474 Clouds 9 1016 22 10000 0.23 252 14:41 08.05.2020
3475 Clouds 11 1016 25 10000 0.6 64 14:20 08.05.2020
3476 Clouds 10 1015 70 9000 1.5 10 13:58 08.05.2020
3477 Clouds 10 1015 70 9000 1.5 10 13:58 08.05.2020
3478 Clouds 10 1015 70 9000 1.5 10 13:39 08.05.2020
3479 Clouds 9 1015 70 9000 1.5 10 13:19 08.05.2020
3480 Clouds 9 1015 75 9000 1 0 12:45 08.05.2020
3481 Clouds 9 1015 75 9000 1 0 12:24 08.05.2020
3482 Clouds 11 1015 76 10000 1 0 11:55 08.05.2020
3483 Clouds 11 1015 76 10000 1 0 11:37 08.05.2020
3484 Clouds 11 1015 76 10000 1 0 11:37 08.05.2020
3485 Clouds 12 1015 76 10000 2.6 160 11:18 08.05.2020
3486 Clouds 12 1015 76 10000 2.6 160 10:45 08.05.2020
3487 Clouds 12 1015 76 10000 2.6 160 10:22 08.05.2020
3488 Clouds 13 1015 66 10000 1.5 160 10:00 08.05.2020
3489 Clouds 13 1015 66 10000 1.5 160 09:40 08.05.2020
3490 Clouds 12 1015 66 10000 1.5 160 09:19 08.05.2020
3491 Clouds 12 1015 58 10000 1.5 130 08:51 08.05.2020
3492 Clouds 12 1015 58 10000 1.5 130 08:25 08.05.2020
3493 Clouds 12 1015 62 10000 0.5 0 07:54 08.05.2020
3494 Clouds 12 1015 62 10000 0.5 0 07:36 08.05.2020
3495 Clouds 12 1015 62 10000 2.6 360 07:18 08.05.2020
3496 Clouds 14 1015 62 10000 2.6 360 06:39 08.05.2020
3497 Clouds 13 1015 62 10000 2.1 140 06:18 08.05.2020
3498 Clouds 13 1015 62 10000 2.1 140 05:24 08.05.2020
3499 Clouds 20 1014 40 10000 4.1 140 02:59 08.05.2020
3500 Clouds 20 1014 40 10000 4.1 140 02:24 08.05.2020
3501 Clouds 22 1015 25 8000 0.57 206 01:38 08.05.2020
3502 Clouds 23 1015 25 8000 0.49 218 01:19 08.05.2020
3503 Clouds 23 1015 25 8000 0.49 218 00:46 08.05.2020
3504 Clear 23 1015 25 8000 0.45 187 00:24 08.05.2020
3505 Clear 26 1015 14 8000 2.1 240 23:46 07.05.2020
3506 Clear 26 1015 14 8000 2.1 240 23:24 07.05.2020
3507 Clear 27 1015 11 10000 2.6 240 22:59 07.05.2020
3508 Clear 27 1015 11 10000 2.6 240 22:41 07.05.2020
3509 Clear 27 1015 11 10000 2.6 240 22:20 07.05.2020
3510 Clear 27 1015 11 10000 2.6 240 22:20 07.05.2020
3511 Clear 27 1015 9 10000 1 260 21:56 07.05.2020
3512 Clear 27 1015 9 10000 1 260 21:38 07.05.2020
3513 Clear 27 1015 9 10000 1 260 21:19 07.05.2020
3514 Clear 27 1015 13 10000 0.5 180 20:55 07.05.2020
3515 Clear 27 1015 13 10000 0.5 180 20:36 07.05.2020
3516 Clear 26 1016 12 10000 1.5 210 20:18 07.05.2020
3517 Clear 27 1016 12 10000 1.5 210 19:43 07.05.2020
3518 Clear 27 1016 12 10000 1.5 210 19:21 07.05.2020
3519 Clear 25 1017 15 10000 1 190 18:46 07.05.2020
3520 Clear 26 1017 15 10000 1 190 18:28 07.05.2020
3521 Clear 23 1017 17 10000 0.5 270 17:57 07.05.2020
3522 Clear 23 1017 17 10000 0.5 270 17:37 07.05.2020
3523 Clear 23 1017 17 10000 0.5 270 17:19 07.05.2020
3524 Clear 20 1016 19 10000 0.98 237 16:42 07.05.2020
3525 Clear 19 1016 19 10000 0.56 232 16:19 07.05.2020
3526 Clear 16 1016 37 10000 1 50 15:57 07.05.2020
3527 Clear 16 1016 37 10000 1 50 15:37 07.05.2020
3528 Clear 12 1016 37 10000 1 50 15:18 07.05.2020
3529 Clear 8 1015 43 10000 1.5 60 15:18 07.05.2020
3530 Clear 8 1015 43 10000 1.5 60 14:45 07.05.2020
3531 Clouds 8 1015 43 10000 1.5 60 14:23 07.05.2020
3532 Clouds 6 1014 60 10000 1 30 13:58 07.05.2020
3533 Clouds 6 1014 60 10000 1 30 13:40 07.05.2020
3534 Clouds 6 1014 60 10000 1 30 13:20 07.05.2020
3535 Clouds 6 1014 60 10000 1 30 13:20 07.05.2020
3536 Clouds 11 1014 22 10000 1 0 12:40 07.05.2020
3537 Clouds 8 1014 21 10000 1 0 12:20 07.05.2020
3538 Clouds 6 1014 21 9000 2.1 50 11:39 07.05.2020
3539 Clouds 6 1014 22 9000 2.1 50 11:21 07.05.2020
3540 Clouds 8 1014 61 10000 1.28 67 10:57 07.05.2020
3541 Clouds 8 1014 61 10000 1.28 67 10:38 07.05.2020
3542 Clouds 8 1014 61 10000 0.81 73 10:18 07.05.2020
3543 Clouds 9 1014 22 8000 0.5 0 09:39 07.05.2020
3544 Clouds 9 1014 22 8000 0.5 0 09:19 07.05.2020
3545 Clouds 11 1014 50 10000 0.5 0 08:46 07.05.2020
3546 Clouds 11 1014 50 10000 0.5 0 08:24 07.05.2020
3547 Clouds 11 1014 50 10000 0.12 174 07:59 07.05.2020
3548 Clouds 11 1014 50 10000 0.12 174 07:41 07.05.2020
3549 Clouds 11 1014 50 10000 0.46 61 07:20 07.05.2020
3550 Clouds 13 1014 47 10000 1.5 350 06:38 07.05.2020
3551 Clouds 13 1014 47 10000 1.5 350 06:19 07.05.2020
3552 Clouds 13 1014 21 10000 2.1 20 04:41 07.05.2020
3553 Clouds 17 1013 39 10000 0.5 0 03:47 07.05.2020
3554 Clear 17 1013 39 10000 0.5 0 03:20 07.05.2020
3555 Clear 18 1013 34 10000 1.5 110 02:36 07.05.2020
3556 Clouds 24 1013 20 10000 0.33 189 01:38 07.05.2020
3557 Clear 24 1013 19 10000 0.21 148 01:20 07.05.2020
3558 Clear 25 1013 19 10000 0.21 148 00:43 07.05.2020
3559 Clear 25 1013 18 10000 0.47 97 00:23 07.05.2020
3560 Clear 26 1013 13 10000 1.5 290 23:45 06.05.2020
3561 Clear 26 1013 13 10000 1.5 290 23:23 06.05.2020
3562 Clear 27 1014 14 10000 1.5 260 22:56 06.05.2020
3563 Clear 27 1014 14 10000 1.5 260 22:38 06.05.2020
3564 Clear 27 1014 14 10000 1.5 260 22:19 06.05.2020
3565 Clear 27 1012 13 10000 1 0 21:55 06.05.2020
3566 Clear 26 1014 15 10000 1.5 270 21:37 06.05.2020
3567 Clear 26 1014 15 10000 1.5 270 21:18 06.05.2020
3568 Clouds 26 1014 15 10000 1.5 270 20:42 06.05.2020
3569 Clear 26 1014 15 10000 1.5 270 20:22 06.05.2020
3570 Clear 25 1015 20 10000 1.5 180 19:57 06.05.2020
3571 Clear 25 1015 20 10000 1.5 180 19:38 06.05.2020
3572 Clear 25 1015 20 10000 1.5 180 19:19 06.05.2020
3573 Clear 24 1016 26 10000 1.51 233 18:58 06.05.2020
3574 Clear 23 1016 26 10000 1.51 233 18:38 06.05.2020
3575 Clear 22 1016 26 10000 1.18 237 18:20 06.05.2020
3576 Clear 21 1016 32 10000 1.18 237 17:55 06.05.2020
3577 Clear 21 1016 32 10000 1.18 237 17:37 06.05.2020
3578 Clear 21 1016 32 10000 0.81 229 17:18 06.05.2020
3579 Clear 19 1017 36 10000 0.81 229 16:58 06.05.2020
3580 Clear 18 1017 36 10000 0.81 229 16:40 06.05.2020
3581 Clear 18 1017 36 10000 0.39 187 16:20 06.05.2020
3582 Clear 15 1017 50 10000 0.39 187 15:57 06.05.2020
3583 Clear 15 1017 50 10000 0.39 187 15:39 06.05.2020
3584 Clear 11 1017 50 10000 0.93 89 15:19 06.05.2020
3585 Clear 6 1016 87 10000 1.5 70 14:42 06.05.2020
3586 Clear 6 1016 87 10000 1.5 70 14:19 06.05.2020
3587 Clear 10 1015 70 10000 1 0 13:59 06.05.2020
3588 Clear 9 1015 70 10000 1 0 13:39 06.05.2020
3589 Clear 10 1015 70 10000 1 0 13:20 06.05.2020
3590 Clear 10 1015 75 10000 1 0 12:44 06.05.2020
3591 Clear 6 1015 75 10000 1 0 12:26 06.05.2020
3592 Clear 10 1015 65 10000 1.04 88 11:59 06.05.2020
3593 Clear 10 1015 65 10000 1.04 88 11:39 06.05.2020
3594 Clear 8 1015 65 10000 0.9 102 11:21 06.05.2020
3595 Clear 8 1015 70 10000 1 0 10:56 06.05.2020
3596 Clear 8 1015 70 10000 1 0 10:37 06.05.2020
3597 Clear 8 1015 70 10000 1 0 10:18 06.05.2020
3598 Clear 9 1016 61 10000 1 20 09:40 06.05.2020
3599 Clear 9 1016 61 10000 1 20 09:21 06.05.2020
3600 Clouds 11 1016 62 10000 1.5 350 08:45 06.05.2020
3601 Clear 11 1016 62 10000 1.5 350 08:22 06.05.2020
3602 Clear 11 1017 66 10000 1.5 40 07:58 06.05.2020
3603 Clear 11 1017 66 10000 1.5 40 07:39 06.05.2020
3604 Clear 11 1017 66 10000 1.5 40 07:20 06.05.2020
3605 Clear 12 1016 62 10000 0.5 0 06:49 06.05.2020
3606 Clear 12 1016 62 10000 0.5 0 06:21 06.05.2020
3607 Clear 15 1016 51 10000 0.5 0 05:51 06.05.2020
3608 Clear 15 1016 51 10000 0.5 0 05:32 06.05.2020
3609 Clear 16 1016 51 10000 1 0 04:22 06.05.2020
3610 Clear 18 1015 42 10000 2.1 170 03:36 06.05.2020
3611 Clear 20 1015 40 10000 4.6 150 02:58 06.05.2020
3612 Clear 20 1015 40 10000 4.6 150 02:29 06.05.2020
3613 Clear 20 1014 34 10000 2.1 180 01:53 06.05.2020
3614 Clear 21 1015 30 10000 0.7 171 01:28 06.05.2020
3615 Clear 22 1015 30 10000 0.7 171 00:46 06.05.2020
3616 Clear 23 1015 30 10000 0.88 195 00:23 06.05.2020
3617 Clear 25 1016 22 10000 0.88 195 23:43 05.05.2020
3618 Clear 25 1016 22 10000 1.69 218 23:21 05.05.2020
3619 Clear 25 1016 23 10000 1.69 218 22:59 05.05.2020
3620 Clear 25 1016 23 10000 1.69 218 22:40 05.05.2020
3621 Clear 24 1016 25 10000 2.36 224 22:19 05.05.2020
3622 Clear 24 1016 25 10000 2.36 224 21:56 05.05.2020
3623 Clear 25 1016 25 10000 2.36 224 21:38 05.05.2020
3624 Clear 25 1016 25 10000 2.22 231 21:19 05.05.2020
3625 Clear 25 1017 27 10000 2.1 0 20:56 05.05.2020
3626 Clear 25 1017 27 10000 2.1 0 20:37 05.05.2020
3627 Clear 23 1017 28 10000 2.1 270 20:18 05.05.2020
3628 Clear 24 1017 28 10000 2.1 270 19:41 05.05.2020
3629 Clear 23 1017 28 10000 2.1 270 19:23 05.05.2020
3630 Clear 21 1021 37 10000 2.08 245 18:57 05.05.2020
3631 Clear 21 1021 37 10000 2.08 245 18:39 05.05.2020
3632 Clear 21 1021 37 10000 1.6 258 18:20 05.05.2020
3633 Clear 20 1018 37 10000 2.1 210 17:57 05.05.2020
3634 Clear 20 1018 37 10000 2.1 210 17:57 05.05.2020
3635 Clear 20 1018 37 10000 2.1 210 17:57 05.05.2020
3636 Clear 20 1018 37 10000 2.1 210 17:38 05.05.2020
3637 Clear 19 1018 37 10000 2.1 210 17:20 05.05.2020
3638 Clear 18 1018 45 10000 1.22 244 16:40 05.05.2020
3639 Clear 18 1018 45 10000 0.2 248 16:21 05.05.2020
3640 Clear 16 1019 62 10000 1 330 15:59 05.05.2020
3641 Clear 16 1019 62 10000 1 330 15:39 05.05.2020
3642 Clear 16 1019 62 10000 1 330 15:39 05.05.2020
3643 Clear 12 1019 62 10000 1 330 15:21 05.05.2020
3644 Clear 9 1018 66 10000 0.24 172 14:55 05.05.2020
3645 Clear 9 1018 66 10000 0.24 172 14:37 05.05.2020
3646 Clouds 9 1018 66 10000 0.31 87 14:19 05.05.2020
3647 Clouds 9 1017 75 10000 1.5 60 13:56 05.05.2020
3648 Clouds 9 1017 75 10000 1.5 60 13:38 05.05.2020
3649 Clouds 7 1017 75 10000 1.5 60 13:18 05.05.2020
3650 Clouds 8 1017 70 10000 0.3 112 12:55 05.05.2020
3651 Clouds 8 1017 70 10000 0.3 112 12:37 05.05.2020
3652 Clouds 8 1017 70 10000 0.09 222 12:19 05.05.2020
3653 Clouds 8 1017 75 10000 1 0 11:41 05.05.2020
3654 Clouds 9 1017 66 10000 1.5 360 11:20 05.05.2020
3655 Clouds 9 1017 66 10000 1.5 360 10:56 05.05.2020
3656 Clouds 9 1017 66 10000 1.5 360 10:37 05.05.2020
3657 Clouds 9 1017 66 10000 1.5 360 10:18 05.05.2020
3658 Clouds 10 1017 66 10000 1.5 300 09:44 05.05.2020
3659 Clear 11 1017 66 10000 1.5 300 09:26 05.05.2020
3660 Clear 12 1018 57 10000 1.5 20 08:59 05.05.2020
3661 Clear 12 1018 57 10000 1.5 20 08:59 05.05.2020
3662 Clear 11 1018 57 10000 1.5 20 08:39 05.05.2020
3663 Clouds 11 1018 57 10000 1.5 20 08:18 05.05.2020
3664 Clouds 11 1018 57 10000 1.5 20 08:18 05.05.2020
3665 Clouds 12 1018 54 10000 2.6 10 07:44 05.05.2020
3666 Clouds 12 1018 54 10000 2.6 10 07:22 05.05.2020
3667 Clouds 13 1017 47 10000 1 130 06:58 05.05.2020
3668 Clouds 14 1017 47 10000 1 130 06:40 05.05.2020
3669 Clouds 14 1017 41 10000 3.6 180 05:56 05.05.2020
3670 Clouds 16 1017 41 10000 3.6 180 05:28 05.05.2020
3671 Clouds 19 1016 55 10000 2.6 180 02:46 05.05.2020
3672 Clouds 20 1018 34 10000 1.23 232 01:19 05.05.2020
3673 Clouds 20 1018 34 10000 1.23 232 00:47 05.05.2020
3674 Clouds 21 1018 35 10000 3.1 180 23:56 04.05.2020
3675 Clouds 22 1018 35 10000 3.1 180 23:37 04.05.2020
3676 Clouds 23 1018 31 8000 1 240 23:18 04.05.2020
3677 Clouds 23 1018 31 8000 1 240 22:54 04.05.2020
3678 Clouds 23 1018 31 8000 1 240 22:36 04.05.2020
3679 Clouds 23 1018 33 8000 1 270 22:18 04.05.2020
3680 Clouds 23 1018 33 8000 1 270 22:18 04.05.2020
3681 Clouds 23 1018 33 8000 1 270 21:41 04.05.2020
3682 Clouds 24 1018 33 8000 1 270 21:20 04.05.2020
3683 Clouds 24 1018 33 8000 1 270 21:20 04.05.2020
3684 Clouds 23 1018 40 8000 2.6 270 20:42 04.05.2020
3685 Clear 23 1018 40 8000 2.6 270 20:21 04.05.2020
3686 Clear 22 1019 43 8000 1.5 230 19:58 04.05.2020
3687 Clear 22 1019 43 8000 1.5 230 19:40 04.05.2020
3688 Clear 18 1019 43 8000 2.1 240 19:18 04.05.2020
3689 Clear 18 1019 43 8000 2.1 240 18:39 04.05.2020
3690 Clear 16 1019 43 8000 2.1 240 18:20 04.05.2020
3691 Clear 19 1019 52 10000 1 360 17:57 04.05.2020
3692 Clear 19 1019 52 10000 1 360 17:39 04.05.2020
3693 Clear 18 1019 52 10000 1 360 17:21 04.05.2020
3694 Clear 16 1019 59 10000 1.5 210 16:59 04.05.2020
3695 Clear 16 1019 59 10000 1.5 210 16:40 04.05.2020
3696 Clouds 17 1019 59 10000 1.5 210 16:19 04.05.2020
3697 Clouds 14 1019 71 8000 0.5 70 15:42 04.05.2020
3698 Clouds 13 1019 71 8000 0.5 70 15:22 04.05.2020
3699 Clouds 12 1018 76 10000 1 270 14:54 04.05.2020
3700 Clouds 12 1018 76 10000 1 270 14:54 04.05.2020
3701 Clouds 12 1018 76 10000 1 270 14:54 04.05.2020
3702 Clouds 12 1018 76 10000 1 270 14:54 04.05.2020
3703 Clouds 12 1018 76 10000 1 270 14:54 04.05.2020
3704 Clouds 12 1018 76 10000 1 270 14:26 04.05.2020
3705 Clouds 13 1015 76 10000 3.1 210 13:31 04.05.2020
3706 Clouds 13 1015 76 10000 3.1 210 13:31 04.05.2020
3707 Clouds 13 1015 76 10000 3.1 210 13:31 04.05.2020
3708 Clouds 13 1015 76 10000 3.1 210 13:31 04.05.2020
3709 Clouds 13 1015 76 10000 3.1 210 13:31 04.05.2020
3710 Clouds 14 1015 71 10000 4.1 50 12:44 04.05.2020
3711 Clouds 14 1015 71 10000 4.1 50 12:44 04.05.2020
3712 Clouds 14 1015 71 10000 4.1 50 12:44 04.05.2020
3713 Clouds 14 1015 71 10000 4.1 50 12:44 04.05.2020
3714 Clouds 14 1015 71 10000 4.1 50 12:44 04.05.2020
3715 Clouds 14 1015 71 10000 1.5 260 11:28 04.05.2020
3716 Clouds 14 1015 71 10000 1.5 260 11:28 04.05.2020
3717 Clouds 14 1015 71 10000 1.5 260 11:28 04.05.2020
3718 Clouds 14 1015 71 10000 1.5 260 11:28 04.05.2020
3719 Clouds 14 1015 71 10000 1.5 260 11:28 04.05.2020
3720 Clouds 14 1016 76 10000 1.5 120 09:31 04.05.2020
3721 Clouds 15 1017 67 10000 1.5 170 07:54 04.05.2020
3722 Clouds 15 1017 67 10000 1.5 170 07:35 04.05.2020
3723 Clouds 15 1016 72 10000 3.6 170 05:55 04.05.2020
3724 Clouds 16 1016 67 10000 5.1 170 04:53 04.05.2020
3725 Clouds 17 1016 59 10000 3.1 170 02:57 04.05.2020
3726 Clouds 17 1016 59 10000 3.1 170 02:19 04.05.2020
3727 Clouds 19 1017 45 7000 1.59 229 00:25 04.05.2020
3728 Clouds 19 1017 45 7000 1.59 229 00:25 04.05.2020
3729 Clouds 19 1017 45 7000 1.59 229 00:24 04.05.2020
3730 Clouds 19 1017 45 7000 1.59 229 00:24 04.05.2020
3731 Clouds 20 1017 42 10000 2.6 250 23:45 03.05.2020
3732 Clouds 20 1017 42 10000 2.6 250 23:24 03.05.2020
3733 Clouds 22 1016 30 10000 2.6 220 22:44 03.05.2020
3734 Clouds 22 1016 30 10000 2.6 220 22:25 03.05.2020
3735 Clouds 22 1016 30 10000 2.6 220 22:25 03.05.2020
3736 Clouds 23 1017 25 8000 2.1 250 21:57 03.05.2020
3737 Clouds 23 1017 25 8000 2.1 250 21:39 03.05.2020
3738 Clouds 23 1017 25 8000 2.1 250 21:20 03.05.2020
3739 Clouds 22 1017 40 7000 2.1 270 20:43 03.05.2020
3740 Clouds 22 1017 40 7000 2.1 270 20:43 03.05.2020
3741 Clouds 22 1017 40 7000 2.1 270 20:21 03.05.2020
3742 Clouds 21 1017 42 7000 1 230 19:50 03.05.2020
3743 Clouds 21 1017 42 7000 1 230 19:31 03.05.2020
3744 Clouds 19 1019 48 8000 1.5 270 18:58 03.05.2020
3745 Clouds 19 1019 48 8000 1.5 270 18:58 03.05.2020
3746 Clouds 19 1019 48 8000 1.5 270 18:58 03.05.2020
3747 Clouds 19 1019 48 8000 1.5 270 18:38 03.05.2020
3748 Clouds 19 1019 48 8000 1.5 270 18:38 03.05.2020
3749 Clouds 19 1019 48 8000 1.5 270 18:38 03.05.2020
3750 Clouds 18 1019 55 8000 1 270 18:19 03.05.2020
3751 Clouds 17 1019 55 8000 1 270 17:41 03.05.2020
3752 Clear 17 1019 55 8000 1 270 17:21 03.05.2020
3753 Clear 16 1020 59 8000 2.1 230 16:46 03.05.2020
3754 Clouds 16 1020 59 8000 2.1 230 16:21 03.05.2020
3755 Clouds 13 1020 58 10000 1 20 15:59 03.05.2020
3756 Clouds 13 1020 58 10000 1 20 15:40 03.05.2020
3757 Clouds 13 1020 58 10000 1 20 15:20 03.05.2020
3758 Clouds 11 1019 66 10000 1.5 180 14:58 03.05.2020
3759 Clouds 11 1019 66 10000 1.5 180 14:40 03.05.2020
3760 Clouds 11 1019 66 10000 1.5 180 14:40 03.05.2020
3761 Clouds 11 1019 66 10000 1.5 180 14:21 03.05.2020
3762 Clouds 11 1019 76 10000 2.1 250 13:55 03.05.2020
3763 Clouds 12 1019 76 10000 2.1 250 13:27 03.05.2020
3764 Clouds 12 1019 76 10000 2.1 250 13:24 03.05.2020
3765 Clouds 12 1019 76 10000 2.1 250 13:24 03.05.2020
3766 Clouds 12 1019 76 10000 2.1 250 13:23 03.05.2020
3767 Clouds 13 1018 71 10000 5.7 120 12:45 03.05.2020
3768 Clouds 13 1018 71 10000 5.7 120 12:19 03.05.2020
3769 Clouds 12 1017 71 10000 1.5 170 11:56 03.05.2020
3770 Clouds 12 1017 71 10000 1.5 170 11:37 03.05.2020
3771 Clouds 12 1017 71 10000 1 0 11:19 03.05.2020
3772 Clouds 12 1017 71 10000 1.5 170 11:19 03.05.2020
3773 Clouds 12 1017 71 10000 1 0 10:49 03.05.2020
3774 Clouds 12 1017 71 10000 1 0 10:48 03.05.2020
3775 Clouds 12 1017 71 10000 1 0 10:47 03.05.2020
3776 Clouds 12 1018 71 10000 2.1 50 09:58 03.05.2020
3777 Clouds 12 1018 71 10000 2.1 50 09:58 03.05.2020
3778 Clouds 12 1018 71 10000 2.1 50 09:38 03.05.2020
3779 Clouds 12 1018 66 10000 1 0 08:57 03.05.2020
3780 Clouds 12 1018 66 10000 1 0 08:27 03.05.2020
3781 Clouds 13 1018 71 10000 1.5 80 07:40 03.05.2020
3782 Clouds 13 1018 66 10000 0.88 267 06:30 03.05.2020
3783 Clouds 13 1018 66 10000 0.88 267 06:30 03.05.2020
3784 Clouds 14 1018 67 10000 1.5 240 05:49 03.05.2020
3785 Clouds 14 1018 67 10000 1.5 240 05:28 03.05.2020
3786 Clouds 14 1018 67 10000 1.5 240 05:28 03.05.2020
3787 Clouds 14 1018 67 10000 1.5 240 05:28 03.05.2020
3788 Clouds 14 1018 67 10000 1.5 240 05:28 03.05.2020
3789 Clouds 15 1018 62 10000 2.1 130 04:27 03.05.2020
3790 Clouds 15 1018 62 10000 2.1 130 04:27 03.05.2020
3791 Clouds 16 1018 59 10000 4.1 150 03:29 03.05.2020
3792 Clouds 17 1017 55 10000 3.1 140 02:30 03.05.2020
3793 Clouds 18 1016 48 10000 5.1 180 01:46 03.05.2020
3794 Clouds 18 1018 48 8000 2.6 240 01:27 03.05.2020
3795 Clouds 18 1018 48 8000 2.6 240 00:56 03.05.2020
3796 Clouds 18 1018 48 8000 2.6 240 00:38 03.05.2020
3797 Clouds 19 1018 48 8000 2.6 240 00:19 03.05.2020
3798 Clouds 21 1017 33 8000 2.6 230 23:44 02.05.2020
3799 Clouds 21 1017 33 8000 2.6 230 23:25 02.05.2020
3800 Clouds 23 1017 25 8000 2.1 250 22:44 02.05.2020
3801 Clouds 23 1017 25 8000 2.1 250 22:24 02.05.2020
3802 Clouds 23 1017 27 8000 1.5 240 21:58 02.05.2020
3803 Clouds 23 1017 27 8000 1.5 240 21:40 02.05.2020
3804 Clouds 23 1017 27 8000 1.5 240 21:19 02.05.2020
3805 Clouds 23 1018 30 7000 3.1 250 20:57 02.05.2020
3806 Clouds 23 1018 30 7000 3.1 250 20:37 02.05.2020
3807 Clouds 23 1018 30 7000 3.1 250 20:19 02.05.2020
3808 Clouds 21 1018 32 7000 1.5 260 19:57 02.05.2020
3809 Clouds 22 1018 32 7000 1.5 260 19:38 02.05.2020
3810 Clouds 22 1018 32 7000 1.5 260 19:38 02.05.2020
3811 Clouds 22 1018 32 7000 1.5 260 19:38 02.05.2020
3812 Clouds 21 1018 32 7000 1.5 260 19:19 02.05.2020
3813 Clouds 19 1019 39 8000 1 200 18:55 02.05.2020
3814 Clouds 20 1019 39 8000 1 200 18:37 02.05.2020
3815 Clear 19 1019 34 10000 1 300 18:18 02.05.2020
3816 Clear 18 1019 34 10000 1 300 17:40 02.05.2020
3817 Clear 17 1019 34 10000 1 300 17:20 02.05.2020
3818 Clear 13 1020 47 10000 1 300 16:59 02.05.2020
3819 Clear 13 1020 47 10000 1 300 16:40 02.05.2020
3820 Clear 13 1020 47 10000 1 300 16:22 02.05.2020
3821 Clear 11 1020 57 10000 0.85 256 15:43 02.05.2020
3822 Clear 6 1019 75 10000 0.5 330 15:20 02.05.2020
3823 Clear 6 1019 75 10000 0.5 330 14:58 02.05.2020
3824 Clear 6 1019 75 10000 0.5 330 14:40 02.05.2020
3825 Clear 6 1019 75 10000 0.5 330 14:21 02.05.2020
3826 Fog 8 1018 100 300 2.1 270 13:40 02.05.2020
3827 Fog 8 1018 100 300 2.1 270 13:22 02.05.2020
3828 Fog 8 1017 100 400 1.5 160 12:55 02.05.2020
3829 Fog 9 1017 100 400 1.5 160 12:37 02.05.2020
3830 Fog 9 1017 100 400 1.5 160 12:18 02.05.2020
3831 Fog 9 1017 100 400 2.1 170 11:41 02.05.2020
3832 Fog 9 1017 100 400 2.1 170 11:22 02.05.2020
3833 Fog 9 1017 100 400 2.6 160 10:59 02.05.2020
3834 Fog 9 1017 100 400 2.6 160 10:39 02.05.2020
3835 Fog 9 1017 100 400 2.6 160 10:21 02.05.2020
3836 Rain 7 1017 100 450 2.6 160 09:57 02.05.2020
3837 Clear 9 1017 87 10000 2.1 160 09:38 02.05.2020
3838 Clear 10 1017 87 10000 2.1 160 09:20 02.05.2020
3839 Clear 11 1017 81 10000 2.6 140 08:50 02.05.2020
3840 Clear 11 1017 81 10000 2.6 140 08:30 02.05.2020
3841 Clear 11 1017 76 10000 2.1 170 07:49 02.05.2020
3842 Clear 11 1017 76 10000 2.1 170 07:29 02.05.2020
3843 Clear 12 1016 71 10000 2.1 160 06:53 02.05.2020
3844 Clear 12 1016 62 10000 3.1 160 06:18 02.05.2020
3845 Clear 12 1016 62 10000 3.1 160 05:27 02.05.2020
3846 Clear 12 1016 54 10000 0.5 0 04:25 02.05.2020
3847 Clear 16 1016 48 10000 1.5 210 03:34 02.05.2020
3848 Clear 18 1016 39 10000 2.6 140 02:37 02.05.2020
3849 Clear 20 1015 28 10000 1.5 190 01:51 02.05.2020
3850 Clear 22 1016 26 10000 0.94 210 00:58 02.05.2020
3851 Clear 22 1016 26 10000 0.94 210 00:36 02.05.2020
3852 Clear 24 1016 22 8000 2.6 260 00:18 02.05.2020
3853 Clear 24 1016 22 8000 2.6 260 23:39 01.05.2020
3854 Clear 24 1016 22 8000 2.6 260 23:20 01.05.2020
3855 Clear 24 1016 15 8000 1 260 22:56 01.05.2020
3856 Clear 24 1016 15 8000 1 260 22:37 01.05.2020
3857 Clear 24 1016 15 8000 1 260 22:18 01.05.2020
3858 Clear 24 1016 15 8000 1 260 22:18 01.05.2020
3859 Clear 24 1016 15 8000 1.5 290 21:56 01.05.2020
3860 Clear 24 1016 15 8000 1.5 290 21:38 01.05.2020
3861 Clear 25 1016 15 8000 1.5 290 21:18 01.05.2020
3862 Clear 25 1017 14 8000 1.5 260 20:56 01.05.2020
3863 Clear 25 1017 14 8000 1.5 260 20:37 01.05.2020
3864 Clear 24 1018 24 6000 1.5 0 20:18 01.05.2020
3865 Clear 23 1018 24 6000 1.5 0 19:42 01.05.2020
3866 Clear 23 1018 24 6000 1.5 0 19:42 01.05.2020
3867 Clear 22 1018 24 6000 1.5 0 19:22 01.05.2020
3868 Clear 23 1018 26 10000 2.1 260 18:58 01.05.2020
3869 Clear 22 1018 26 10000 2.1 260 18:39 01.05.2020
3870 Clear 22 1018 26 10000 2.1 260 18:20 01.05.2020
3871 Clear 20 1018 15 10000 1 0 17:57 01.05.2020
3872 Clear 20 1018 15 10000 1 0 17:38 01.05.2020
3873 Clear 19 1018 15 10000 1 0 17:20 01.05.2020
3874 Clear 18 1018 15 10000 1.71 243 16:55 01.05.2020
3875 Clear 18 1018 15 10000 1.71 243 16:37 01.05.2020
3876 Clear 18 1018 16 10000 1.06 240 16:18 01.05.2020
3877 Clear 15 1017 43 10000 1.06 240 15:42 01.05.2020
3878 Clear 12 1017 43 10000 0.4 202 15:24 01.05.2020
3879 Clear 9 1017 17 10000 1.5 60 14:58 01.05.2020
3880 Clear 9 1017 17 10000 1.5 60 14:39 01.05.2020
3881 Clear 9 1017 19 10000 1.5 60 14:21 01.05.2020
3882 Clear 8 1016 19 9000 1.5 20 13:41 01.05.2020
3883 Clear 8 1016 22 9000 1.5 20 13:22 01.05.2020
3884 Clear 8 1016 22 9000 1.5 20 13:22 01.05.2020
3885 Clear 9 1016 70 10000 1.5 330 12:58 01.05.2020
3886 Clear 9 1016 70 10000 1.5 330 12:40 01.05.2020
3887 Clear 6 1016 70 10000 1.5 330 12:20 01.05.2020
3888 Clear 6 1016 75 9000 1 0 11:58 01.05.2020
3889 Clear 6 1016 75 9000 1 0 11:39 01.05.2020
3890 Clear 6 1016 75 9000 1 0 11:19 01.05.2020
3891 Clear 6 1016 70 9000 0.5 0 10:41 01.05.2020
3892 Clear 6 1016 70 9000 0.5 0 10:20 01.05.2020
3893 Clear 8 1017 65 9000 1 0 09:55 01.05.2020
3894 Clear 8 1017 65 9000 1 0 09:37 01.05.2020
3895 Clear 8 1017 65 9000 1 0 09:18 01.05.2020
3896 Clear 7 1017 65 9000 1.5 10 08:42 01.05.2020
3897 Clear 7 1017 65 9000 1.5 10 08:24 01.05.2020
3898 Clear 9 1018 57 9000 1.5 20 07:55 01.05.2020
3899 Clear 9 1018 57 9000 1.5 20 07:36 01.05.2020
3900 Clear 10 1018 53 8000 1 360 06:57 01.05.2020
3901 Clear 11 1018 53 8000 1 0 05:41 01.05.2020
3902 Clear 11 1018 53 8000 1 0 05:19 01.05.2020
3903 Clear 14 1018 47 10000 0.5 220 03:42 01.05.2020
3904 Clear 17 1018 36 10000 1 190 02:50 01.05.2020
3905 Clear 17 1018 36 10000 1 190 02:32 01.05.2020
3906 Clear 19 1018 34 10000 1.5 200 01:42 01.05.2020
3907 Clear 20 1019 30 10000 0.63 199 01:24 01.05.2020
3908 Clear 21 1019 30 10000 0.63 199 00:39 01.05.2020
3909 Clear 21 1019 30 10000 1.41 221 00:20 01.05.2020
3910 Clear 22 1019 24 10000 2.1 250 23:57 30.04.2020
3911 Clear 22 1019 24 10000 2.1 250 23:38 30.04.2020
3912 Clear 22 1019 24 10000 2.1 250 23:19 30.04.2020
3913 Clear 23 1018 25 10000 3.1 240 22:42 30.04.2020
3914 Clear 23 1018 25 10000 3.1 240 22:21 30.04.2020
3915 Clear 24 1018 22 10000 2.6 200 21:58 30.04.2020
3916 Clear 24 1018 22 10000 2.6 200 21:40 30.04.2020
3917 Clear 24 1018 22 10000 2.6 200 21:21 30.04.2020
3918 Clear 24 1017 25 10000 2.1 170 20:56 30.04.2020
3919 Clear 23 1019 28 10000 1 230 20:38 30.04.2020
3920 Clear 22 1019 28 10000 1 230 20:18 30.04.2020
3921 Clear 22 1019 28 10000 1 230 19:45 30.04.2020
3922 Clear 22 1019 28 10000 1 230 19:26 30.04.2020
3923 Clear 20 1020 39 10000 1 320 18:57 30.04.2020
3924 Clear 20 1020 39 10000 1 320 18:39 30.04.2020
3925 Clear 18 1020 39 10000 1 320 18:21 30.04.2020
3926 Clear 18 1020 48 10000 1 200 17:57 30.04.2020
3927 Clear 18 1020 48 10000 1 200 17:39 30.04.2020
3928 Clear 17 1020 48 10000 1 200 17:20 30.04.2020
3929 Clear 14 1021 50 10000 1 350 16:56 30.04.2020
3930 Clear 16 1021 50 10000 1 350 16:38 30.04.2020
3931 Clear 11 1020 62 10000 1 50 16:18 30.04.2020
3932 Clear 13 1020 62 10000 1 50 15:44 30.04.2020
3933 Clear 11 1020 62 10000 1 50 15:24 30.04.2020
3934 Clear 7 1020 65 10000 1 220 14:54 30.04.2020
3935 Clear 7 1020 65 10000 1 220 14:36 30.04.2020
3936 Clear 5 1019 75 10000 2.6 350 14:18 30.04.2020
3937 Clear 8 1019 75 10000 2.6 350 13:54 30.04.2020
3938 Clear 7 1019 75 10000 2.6 350 13:36 30.04.2020
3939 Clear 8 1019 81 10000 1.5 310 13:18 30.04.2020
3940 Clear 7 1019 81 10000 1.5 310 12:41 30.04.2020
3941 Clear 8 1019 81 10000 1.5 310 12:19 30.04.2020
3942 Clear 10 1018 76 10000 2.6 160 11:54 30.04.2020
3943 Clear 10 1018 76 10000 2.6 160 11:36 30.04.2020
3944 Clear 7 1018 75 10000 1 0 11:18 30.04.2020
3945 Clear 7 1018 75 10000 1 0 10:40 30.04.2020
3946 Clear 7 1018 75 10000 1 0 10:21 30.04.2020
3947 Clear 15 1018 27 0 0.3 226 09:57 30.04.2020
3948 Clear 8 1017 70 10000 1.5 50 09:38 30.04.2020
3949 Clear 9 1017 70 10000 1.5 50 09:20 30.04.2020
3950 Clear 10 1017 70 10000 1.5 50 08:46 30.04.2020
3951 Clouds 8 1017 70 10000 1.5 50 08:26 30.04.2020
3952 Clouds 11 1018 66 10000 1.5 20 07:44 30.04.2020
3953 Clouds 11 1018 66 10000 1.5 20 07:26 30.04.2020
3954 Clouds 12 1018 58 10000 2.1 280 06:54 30.04.2020
3955 Clouds 12 1018 58 10000 2.1 280 06:26 30.04.2020
3956 Clouds 13 1018 54 10000 2.1 140 05:46 30.04.2020
3957 Clouds 15 1018 51 10000 3.6 140 04:43 30.04.2020
3958 Clouds 15 1018 51 10000 3.6 140 04:19 30.04.2020
3959 Clear 16 1017 44 10000 3.6 160 02:48 30.04.2020
3960 Clear 16 1017 44 10000 3.6 160 02:26 30.04.2020
3961 Clear 21 1017 26 10000 1.2 245 01:37 30.04.2020
3962 Clear 22 1017 26 10000 0.85 245 00:42 30.04.2020
3963 Clear 22 1017 26 10000 1.38 240 00:20 30.04.2020
3964 Clear 24 1016 20 10000 2.1 260 23:58 29.04.2020
3965 Clear 24 1016 20 10000 2.1 260 23:39 29.04.2020
3966 Clear 24 1016 20 10000 2.1 260 23:21 29.04.2020
3967 Clear 25 1016 15 10000 2.68 238 22:54 29.04.2020
3968 Clear 25 1016 15 10000 2.68 238 22:36 29.04.2020
3969 Clear 25 1016 15 10000 2.29 231 22:18 29.04.2020
3970 Clear 25 1016 15 10000 2.31 231 21:37 29.04.2020
3971 Clear 25 1016 15 10000 2.61 240 21:19 29.04.2020
3972 Clear 25 1016 16 10000 2.61 240 20:57 29.04.2020
3973 Clear 25 1016 16 10000 2.61 240 20:38 29.04.2020
3974 Clear 24 1017 19 10000 2.1 270 20:18 29.04.2020
3975 Clear 24 1017 19 10000 2.1 270 19:43 29.04.2020
3976 Clear 24 1017 19 10000 2.1 270 19:22 29.04.2020
3977 Clear 22 1017 12 10000 2.05 249 18:57 29.04.2020
3978 Clear 22 1017 12 10000 2.05 249 18:38 29.04.2020
3979 Clear 21 1017 13 10000 1.47 249 18:18 29.04.2020
3980 Clear 20 1018 32 10000 1.47 249 17:42 29.04.2020
3981 Clear 20 1018 32 10000 1.09 249 17:21 29.04.2020
3982 Clear 18 1017 33 10000 1.5 210 16:56 29.04.2020
3983 Clear 18 1017 33 10000 1.5 210 16:36 29.04.2020
3984 Clear 14 1017 50 10000 0.78 258 16:18 29.04.2020
3985 Clear 14 1017 50 10000 0.78 258 15:55 29.04.2020
3986 Clear 14 1017 50 10000 0.78 258 15:36 29.04.2020
3987 Clear 7 1016 61 10000 0.07 103 15:18 29.04.2020
3988 Clear 7 1016 61 10000 0.07 103 14:42 29.04.2020
3989 Clouds 7 1016 61 10000 0.51 70 14:23 29.04.2020
3990 Clouds 7 1016 80 10000 1.5 300 13:57 29.04.2020
3991 Clouds 7 1016 80 10000 1.5 300 13:38 29.04.2020
3992 Clouds 7 1016 80 10000 1.5 300 13:18 29.04.2020
3993 Clouds 8 1016 22 10000 0.82 81 12:41 29.04.2020
3994 Clouds 8 1016 21 10000 0.69 63 12:20 29.04.2020
3995 Clouds 8 1016 75 10000 1 340 11:59 29.04.2020
3996 Clouds 9 1016 75 10000 1 340 11:38 29.04.2020
3997 Clouds 9 1016 75 10000 1 340 11:20 29.04.2020
3998 Clouds 6 1015 75 10000 0.5 360 10:54 29.04.2020
3999 Clouds 6 1015 75 10000 0.5 360 10:54 29.04.2020
4000 Clouds 6 1015 75 10000 0.5 360 10:36 29.04.2020
4001 Clouds 9 1016 70 10000 1 0 10:18 29.04.2020
4002 Clouds 9 1016 70 10000 1 0 09:41 29.04.2020
4003 Clouds 9 1016 70 10000 1 0 09:21 29.04.2020
4004 Clouds 8 1017 65 10000 1.5 360 08:44 29.04.2020
4005 Clear 8 1017 65 10000 1.5 360 08:25 29.04.2020
4006 Clear 8 1017 65 10000 2.1 0 07:54 29.04.2020
4007 Clear 8 1017 65 10000 2.1 0 07:29 29.04.2020
4008 Clear 9 1018 61 10000 0.63 85 06:53 29.04.2020
4009 Clear 9 1018 61 10000 0.63 85 06:53 29.04.2020
4010 Clear 9 1018 61 10000 0.63 85 06:32 29.04.2020
4011 Clear 12 1018 54 10000 0.74 95 05:50 29.04.2020
4012 Clear 12 1018 54 10000 0.59 130 05:19 29.04.2020
4013 Clear 14 1018 50 10000 0.63 115 04:20 29.04.2020
4014 Clouds 16 1019 48 10000 1.5 180 03:28 29.04.2020
4015 Clear 19 1019 34 10000 2.6 210 01:56 29.04.2020
4016 Clear 21 1020 26 10000 2.1 240 01:28 29.04.2020
4017 Clear 22 1020 26 10000 2.1 240 00:56 29.04.2020
4018 Clear 22 1020 26 10000 2.1 240 00:37 29.04.2020
4019 Clear 22 1020 19 10000 1.5 210 00:18 29.04.2020
4020 Clear 22 1020 19 10000 1.5 210 23:43 28.04.2020
4021 Clear 22 1020 17 10000 1.5 210 23:21 28.04.2020
4022 Clear 23 1020 25 10000 1.5 210 22:39 28.04.2020
4023 Clear 23 1020 25 10000 1.5 210 22:20 28.04.2020
4024 Clear 22 1020 35 10000 1.5 270 21:59 28.04.2020
4025 Clear 22 1020 35 10000 1.5 270 21:40 28.04.2020
4026 Clear 22 1020 35 10000 1.5 270 21:22 28.04.2020
4027 Clear 21 1021 40 10000 2.1 210 20:59 28.04.2020
4028 Clear 21 1021 40 10000 2.1 210 20:40 28.04.2020
4029 Clear 21 1021 40 10000 2.1 210 20:20 28.04.2020
4030 Clear 21 1021 40 10000 2.1 210 20:20 28.04.2020
4031 Clear 20 1022 45 10000 1.5 210 19:56 28.04.2020
4032 Clear 20 1022 45 10000 1.5 210 19:38 28.04.2020
4033 Clear 20 1022 45 10000 1.5 210 19:19 28.04.2020
4034 Clear 20 1022 45 10000 1.5 210 19:19 28.04.2020
4035 Clear 18 1023 52 10000 1.5 210 18:55 28.04.2020
4036 Clear 19 1023 52 10000 1.5 210 18:37 28.04.2020
4037 Clear 19 1023 52 10000 1.5 210 18:37 28.04.2020
4038 Clear 17 1023 55 10000 1.81 231 18:18 28.04.2020
4039 Clear 17 1023 55 10000 1.81 231 17:37 28.04.2020
4040 Clear 17 1023 55 10000 1.54 239 17:19 28.04.2020
4041 Clear 17 1023 55 10000 1.54 239 17:19 28.04.2020
4042 Clear 15 1023 62 10000 1.54 239 16:57 28.04.2020
4043 Clear 15 1023 62 10000 1.54 239 16:39 28.04.2020
4044 Clear 15 1023 62 10000 1.38 242 16:21 28.04.2020
4045 Clear 14 1023 62 10000 1.38 242 15:55 28.04.2020
4046 Clear 13 1023 62 10000 1.38 242 15:37 28.04.2020
4047 Clear 8 1023 100 10000 0.38 262 15:19 28.04.2020
4048 Clear 8 1023 100 10000 0.38 262 14:43 28.04.2020
4049 Clear 8 1023 100 10000 0.38 262 14:43 28.04.2020
4050 Clear 8 1023 100 10000 0.35 61 14:22 28.04.2020
4051 Clear 9 1023 87 10000 1.5 360 13:59 28.04.2020
4052 Clear 9 1023 87 10000 1.5 360 13:59 28.04.2020
4053 Clear 9 1023 87 10000 1.5 360 13:40 28.04.2020
4054 Clear 9 1023 87 10000 1.5 360 13:22 28.04.2020
4055 Clear 10 1022 87 10000 1 0 12:58 28.04.2020
4056 Clear 10 1022 87 10000 1 0 12:39 28.04.2020
4057 Clear 12 1022 76 10000 1 220 12:21 28.04.2020
4058 Clear 12 1022 76 10000 1 220 11:42 28.04.2020
4059 Clouds 12 1022 76 10000 1 220 11:21 28.04.2020
4060 Clouds 12 1022 81 10000 1 260 10:57 28.04.2020
4061 Clouds 12 1022 81 10000 1 260 10:38 28.04.2020
4062 Clouds 13 1022 76 10000 1.5 190 10:18 28.04.2020
4063 Clouds 13 1022 76 10000 1.5 190 09:43 28.04.2020
4064 Clouds 13 1022 76 10000 1.5 190 09:25 28.04.2020
4065 Clouds 13 1022 71 10000 3.1 180 08:55 28.04.2020
4066 Clouds 13 1022 71 10000 3.1 180 08:36 28.04.2020
4067 Clouds 13 1022 71 10000 3.1 180 08:18 28.04.2020
4068 Clouds 14 1023 67 10000 2.1 170 07:41 28.04.2020
4069 Clouds 14 1023 71 10000 3.1 150 07:18 28.04.2020
4070 Clouds 14 1023 71 10000 3.1 150 06:40 28.04.2020
4071 Clouds 14 1022 71 10000 3.6 160 05:51 28.04.2020
4072 Clouds 14 1022 71 10000 3.6 160 05:33 28.04.2020
4073 Clouds 14 1022 76 10000 3.1 160 04:33 28.04.2020
4074 Clouds 14 1022 76 10000 3.1 160 04:33 28.04.2020
4075 Clouds 15 1021 77 10000 7.2 170 02:39 28.04.2020
4076 Clouds 16 1020 72 10000 6.7 210 01:51 28.04.2020
4077 Clouds 17 1020 55 10000 4.1 230 01:22 28.04.2020
4078 Clouds 18 1020 55 10000 4.1 230 00:32 28.04.2020
4079 Clouds 19 1019 37 10000 3.6 230 23:56 27.04.2020
4080 Clouds 19 1019 37 10000 3.6 230 23:38 27.04.2020
4081 Clouds 19 1019 37 10000 3.6 230 23:20 27.04.2020
4082 Clouds 20 1019 32 10000 2.6 230 22:43 27.04.2020
4083 Clouds 20 1019 32 10000 2.6 230 22:23 27.04.2020
4084 Clouds 20 1019 40 10000 3.1 230 21:57 27.04.2020
4085 Clouds 21 1019 40 10000 3.1 230 21:39 27.04.2020
4086 Clouds 20 1019 40 10000 3.1 230 21:19 27.04.2020
4087 Clouds 20 1019 42 10000 2.6 250 20:56 27.04.2020
4088 Clouds 20 1019 42 10000 2.6 250 20:38 27.04.2020
4089 Clouds 20 1019 42 10000 2.6 250 20:19 27.04.2020
4090 Clouds 19 1020 45 10000 2.1 230 19:55 27.04.2020
4091 Clouds 19 1020 45 10000 2.1 230 19:36 27.04.2020
4092 Clouds 17 1020 48 10000 1 350 19:18 27.04.2020
4093 Clouds 18 1020 48 10000 1 350 18:40 27.04.2020
4094 Clouds 17 1020 48 10000 1 350 18:20 27.04.2020
4095 Clouds 17 1020 51 10000 1.5 270 17:59 27.04.2020
4096 Clouds 17 1020 51 10000 1.5 270 17:40 27.04.2020
4097 Clouds 16 1020 51 10000 1.5 270 17:19 27.04.2020
4098 Clouds 14 1020 66 10000 0.5 150 16:41 27.04.2020
4099 Clouds 13 1020 66 10000 0.5 150 16:22 27.04.2020
4100 Clouds 11 1020 76 10000 1.28 258 15:58 27.04.2020
4101 Clouds 12 1020 76 10000 1.28 258 15:40 27.04.2020
4102 Clouds 11 1020 76 10000 0.47 284 15:21 27.04.2020
4103 Clouds 9 1020 87 10000 0.47 284 14:58 27.04.2020
4104 Clouds 9 1020 87 10000 0.47 284 14:40 27.04.2020
4105 Clouds 9 1020 87 10000 0.39 319 14:19 27.04.2020
4106 Clouds 10 1019 76 10000 1 340 13:57 27.04.2020
4107 Clouds 10 1019 76 10000 1 340 13:37 27.04.2020
4108 Clouds 10 1018 76 10000 1.5 50 13:18 27.04.2020
4109 Clouds 10 1018 76 10000 1.5 50 12:43 27.04.2020
4110 Clouds 10 1018 76 10000 1.5 50 12:21 27.04.2020
4111 Clouds 11 1018 71 10000 1 0 11:43 27.04.2020
4112 Clouds 11 1018 71 10000 1 0 11:22 27.04.2020
4113 Clouds 11 1019 76 10000 1.5 270 10:59 27.04.2020
4114 Clouds 11 1019 76 10000 1.5 270 10:41 27.04.2020
4115 Clouds 11 1019 76 10000 1.5 270 10:23 27.04.2020
4116 Clouds 11 1019 71 10000 1.5 290 09:56 27.04.2020
4117 Clouds 11 1019 71 10000 1.5 290 09:36 27.04.2020
4118 Clouds 13 1019 62 10000 1.5 130 09:18 27.04.2020
4119 Clouds 13 1019 62 10000 1.5 130 08:46 27.04.2020
4120 Clouds 13 1019 62 10000 1.5 130 08:27 27.04.2020
4121 Clouds 13 1019 66 10000 2.6 130 07:45 27.04.2020
4122 Clouds 13 1019 66 10000 2.6 130 07:23 27.04.2020
4123 Clouds 13 1019 66 10000 2.1 130 06:58 27.04.2020
4124 Clouds 13 1019 66 10000 2.1 130 06:30 27.04.2020
4125 Clouds 14 1019 62 10000 4.1 180 05:55 27.04.2020
4126 Clouds 15 1019 58 10000 3.1 140 04:59 27.04.2020
4127 Clouds 15 1019 58 10000 3.1 140 04:37 27.04.2020
4128 Clouds 16 1018 55 10000 3.6 140 03:45 27.04.2020
4129 Clouds 18 1017 52 10000 4.6 210 01:53 27.04.2020
4130 Clouds 19 1018 48 10000 2.1 240 01:20 27.04.2020
4131 Clouds 19 1018 48 10000 2.1 240 00:21 27.04.2020
4132 Clouds 19 1018 48 10000 2.1 240 00:21 27.04.2020
4133 Clouds 20 1018 42 10000 1.5 230 23:59 26.04.2020
4134 Clouds 20 1018 42 10000 1.5 230 23:41 26.04.2020
4135 Clouds 20 1018 42 10000 1.5 230 23:22 26.04.2020
4136 Clouds 20 1019 45 10000 2.1 210 22:59 26.04.2020
4137 Clouds 20 1019 45 10000 2.1 210 22:40 26.04.2020
4138 Clouds 21 1019 43 10000 2.6 210 22:21 26.04.2020
4139 Clouds 21 1019 43 10000 2.6 210 21:58 26.04.2020
4140 Clouds 21 1019 43 10000 2.6 210 21:39 26.04.2020
4141 Clouds 21 1019 43 10000 2.6 210 21:19 26.04.2020
4142 Clouds 21 1019 43 10000 2.6 210 21:19 26.04.2020
4143 Clouds 21 1019 43 10000 2.6 150 20:55 26.04.2020
4144 Clouds 21 1019 43 10000 2.6 150 20:37 26.04.2020
4145 Clouds 21 1019 43 10000 2.6 150 20:37 26.04.2020
4146 Clouds 21 1019 43 10000 2.6 150 20:19 26.04.2020
4147 Clouds 19 1019 48 10000 2.6 240 19:57 26.04.2020
4148 Clouds 19 1019 48 10000 2.6 240 19:36 26.04.2020
4149 Clouds 19 1020 52 10000 2.1 180 19:18 26.04.2020
4150 Clouds 19 1020 52 10000 2.1 180 18:43 26.04.2020
4151 Clouds 19 1020 52 10000 2.1 180 18:24 26.04.2020
4152 Clouds 17 1020 59 10000 2.6 180 17:44 26.04.2020
4153 Clouds 17 1020 59 10000 2.6 180 17:24 26.04.2020
4154 Clouds 14 1020 67 10000 0.5 180 16:59 26.04.2020
4155 Clouds 14 1020 67 10000 0.5 180 16:40 26.04.2020
4156 Clouds 14 1020 67 10000 0.5 180 16:20 26.04.2020
4157 Clouds 11 1019 76 10000 2.36 266 15:58 26.04.2020
4158 Clouds 11 1019 76 10000 2.36 266 15:37 26.04.2020
4159 Clouds 11 1019 76 10000 0.61 309 15:19 26.04.2020
4160 Clouds 10 1019 76 10000 0.61 309 14:41 26.04.2020
4161 Clouds 10 1019 76 10000 0.64 313 14:20 26.04.2020
4162 Clouds 8 1017 93 9000 1 40 13:59 26.04.2020
4163 Clouds 8 1017 93 9000 1 40 13:40 26.04.2020
4164 Clouds 8 1017 93 9000 1 40 13:22 26.04.2020
4165 Clouds 9 1017 93 9000 0.5 0 12:57 26.04.2020
4166 Clouds 9 1017 93 9000 0.5 0 12:39 26.04.2020
4167 Clouds 9 1017 93 9000 0.5 0 12:39 26.04.2020
4168 Clouds 9 1017 93 9000 0.5 0 12:20 26.04.2020
4169 Clouds 8 1016 87 10000 0.19 322 11:55 26.04.2020
4170 Clouds 8 1016 87 10000 0.19 322 11:37 26.04.2020
4171 Clouds 8 1016 87 10000 0.19 322 11:18 26.04.2020
4172 Clouds 10 1016 81 10000 1 0 10:43 26.04.2020
4173 Clouds 10 1016 81 10000 1 0 10:24 26.04.2020
4174 Clouds 10 1016 87 10000 0.19 322 09:58 26.04.2020
4175 Clouds 10 1016 87 10000 0.19 322 09:39 26.04.2020
4176 Clouds 10 1016 87 10000 0.8 278 09:20 26.04.2020
4177 Clouds 11 1016 81 10000 0.8 278 08:41 26.04.2020
4178 Clouds 11 1016 81 10000 0.8 278 08:23 26.04.2020
4179 Clouds 11 1016 81 10000 1 0 07:50 26.04.2020
4180 Clouds 11 1016 81 10000 1 0 07:25 26.04.2020
4181 Clouds 13 1017 82 10000 2.1 140 06:55 26.04.2020
4182 Clouds 13 1017 82 10000 2.1 140 06:32 26.04.2020
4183 Clouds 13 1017 76 10000 0.61 279 05:54 26.04.2020
4184 Clouds 13 1017 76 10000 0.61 279 05:34 26.04.2020
4185 Clouds 15 1017 67 10000 1 140 04:42 26.04.2020
4186 Clouds 16 1017 67 10000 2.6 140 03:49 26.04.2020
4187 Clouds 18 1017 59 10000 3.1 200 02:40 26.04.2020
4188 Clear 18 1017 59 10000 3.1 200 02:20 26.04.2020
4189 Clear 18 1016 59 10000 5.1 220 01:38 26.04.2020
4190 Clear 18 1016 59 10000 5.1 220 01:19 26.04.2020
4191 Clear 18 930 99 0 0.89 180 00:38 26.04.2020
4192 Clear 19 930 99 0 0.45 135 00:18 26.04.2020
4193 Clear 20 930 99 0 0.89 180 23:38 25.04.2020
4194 Clear 21 930 99 0 0.89 180 23:20 25.04.2020
4195 Clear 22 930 99 0 0.89 180 22:43 25.04.2020
4196 Clear 22 930 99 0 0.89 180 22:21 25.04.2020
4197 Clear 22 930 99 0 1.34 180 21:59 25.04.2020
4198 Clear 22 930 99 0 0.45 135 21:39 25.04.2020
4199 Clear 22 930 99 0 2.3 250 21:20 25.04.2020
4200 Clear 23 931 99 0 0.45 180 20:55 25.04.2020
4201 Clear 22 931 99 0 0.89 180 20:37 25.04.2020
4202 Clear 20 1017 33 0 2.3 250 20:19 25.04.2020
4203 Clear 23 931 99 0 2.3 250 19:41 25.04.2020
4204 Clear 20 1017 33 0 2.3 250 19:22 25.04.2020
4205 Clear 20 1017 33 0 2.3 250 18:57 25.04.2020
4206 Clear 20 1017 33 0 2.3 250 18:39 25.04.2020
4207 Clear 18 1018 41 0 1.84 271 18:20 25.04.2020
4208 Clear 18 1018 41 0 1.84 271 17:56 25.04.2020
4209 Clear 18 932 99 0 1.84 271 17:37 25.04.2020
4210 Clear 18 1018 41 0 1.84 271 17:19 25.04.2020
4211 Clear 18 1018 41 0 1.84 271 16:54 25.04.2020
4212 Clear 18 1018 41 0 1.84 271 16:36 25.04.2020
4213 Clear 18 1018 41 0 1.84 271 16:18 25.04.2020
4214 Clear 18 1018 41 0 1.84 271 15:40 25.04.2020
4215 Clear 14 1018 53 0 0.57 270 15:19 25.04.2020
4216 Clear 14 1018 53 0 0.57 270 14:58 25.04.2020
4217 Clear 14 1018 53 0 0.57 270 14:38 25.04.2020
4218 Clear 14 1018 51 0 0.47 285 14:20 25.04.2020
4219 Clear 9 932 99 0 0.47 285 13:43 25.04.2020
4220 Clear 9 932 99 0 0.47 285 13:19 25.04.2020
4221 Clear 9 932 99 0 0.47 285 12:58 25.04.2020
4222 Clear 9 932 99 0 0.47 285 12:40 25.04.2020
4223 Clear 9 932 99 0 0.35 252 12:20 25.04.2020
4224 Clear 9 932 99 0 0.35 252 11:56 25.04.2020
4225 Clear 9 931 99 0 0.35 252 11:38 25.04.2020
4226 Clear 9 932 99 0 0.35 252 11:20 25.04.2020
4227 Clear 9 931 99 0 0.35 252 10:43 25.04.2020
4228 Clear 9 931 99 0 0.35 252 10:23 25.04.2020
4229 Clear 10 932 99 0 0.35 252 09:48 25.04.2020
4230 Clouds 10 932 99 0 0.53 240 09:29 25.04.2020
4231 Clouds 10 932 99 0 0.4 8 08:58 25.04.2020
4232 Clouds 10 932 99 0 0.4 8 08:39 25.04.2020
4233 Clouds 11 931 99 0 0.4 8 08:21 25.04.2020
4234 Clouds 11 931 99 0 0.53 240 07:50 25.04.2020
4235 Clouds 11 932 99 0 0.4 8 07:28 25.04.2020
4236 Clouds 15 1017 48 0 0.53 240 06:47 25.04.2020
4237 Clouds 13 932 99 0 1.4 276 06:18 25.04.2020
4238 Rain 13 932 99 0 0.33 228 05:39 25.04.2020
4239 Rain 14 932 99 0 0.33 228 04:57 25.04.2020
4240 Clouds 15 1017 72 10000 3.1 150 02:59 25.04.2020
4241 Clouds 15 1017 72 10000 3.1 150 02:20 25.04.2020
4242 Clouds 16 1016 67 10000 3.1 190 01:53 25.04.2020
4243 Clouds 17 1017 63 10000 0.76 290 01:34 25.04.2020
4244 Clouds 16 1017 63 10000 0.76 290 00:55 25.04.2020
4245 Clouds 16 1017 63 10000 0.76 290 00:32 25.04.2020
4246 Clouds 17 1017 63 8000 2.1 250 23:45 24.04.2020
4247 Clouds 17 1017 63 8000 2.1 250 23:24 24.04.2020
4248 Clouds 17 1017 63 8000 2.6 210 22:59 24.04.2020
4249 Clouds 17 1017 63 8000 2.6 210 22:39 24.04.2020
4250 Clouds 17 1017 63 8000 2.6 210 22:19 24.04.2020
4251 Clouds 17 1017 63 8000 2.6 210 22:19 24.04.2020
4252 Clouds 18 1016 59 8000 2.1 240 21:55 24.04.2020
4253 Clouds 18 1016 59 8000 2.1 240 21:37 24.04.2020
4254 Clouds 18 1016 59 8000 2.1 240 21:19 24.04.2020
4255 Clouds 18 1016 59 6000 2.1 240 20:55 24.04.2020
4256 Clouds 18 1016 59 6000 2.1 240 20:37 24.04.2020
4257 Haze 18 1016 63 5000 2.1 180 20:18 24.04.2020
4258 Haze 17 1016 63 5000 2.1 180 19:40 24.04.2020
4259 Haze 18 1016 63 5000 2.1 180 19:21 24.04.2020
4260 Haze 17 1016 63 5000 2.1 280 18:45 24.04.2020
4261 Haze 17 1016 63 5000 2.1 280 18:26 24.04.2020
4262 Haze 16 1016 67 5000 1.84 267 17:57 24.04.2020
4263 Haze 16 1016 67 5000 1.84 267 17:37 24.04.2020
4264 Haze 16 1016 67 5000 1.84 267 17:19 24.04.2020
4265 Clouds 14 1016 87 6000 1.5 210 16:57 24.04.2020
4266 Clouds 14 1016 87 6000 1.5 210 16:39 24.04.2020
4267 Clouds 14 1016 87 6000 1.5 210 16:20 24.04.2020
4268 Clouds 13 1015 87 6000 1.84 267 15:42 24.04.2020
4269 Clouds 12 1015 87 6000 0.29 340 15:21 24.04.2020
4270 Clouds 12 1015 87 6000 0.29 340 15:21 24.04.2020
4271 Haze 13 1015 67 5000 0.29 340 14:56 24.04.2020
4272 Haze 13 1015 67 5000 0.29 340 14:37 24.04.2020
4273 Mist 10 1014 93 4800 0.5 0 14:18 24.04.2020
4274 Mist 11 1014 93 4800 0.5 0 13:41 24.04.2020
4275 Mist 10 1014 93 4800 0.5 0 13:21 24.04.2020
4276 Mist 10 1014 93 4800 0.5 0 13:21 24.04.2020
4277 Mist 11 1014 87 5000 1 0 12:58 24.04.2020
4278 Clouds 11 1014 87 6000 1.5 290 12:40 24.04.2020
4279 Rain 11 1014 87 6000 1.5 290 12:19 24.04.2020
4280 Rain 11 1014 93 6000 2.1 40 11:43 24.04.2020
4281 Rain 12 1014 93 6000 2.1 40 11:23 24.04.2020
4282 Rain 12 1015 87 7000 2.6 10 10:59 24.04.2020
4283 Rain 11 1015 87 7000 2.6 10 10:38 24.04.2020
4284 Rain 11 1015 87 7000 2.6 10 10:20 24.04.2020
4285 Rain 13 1015 82 10000 3.1 310 09:55 24.04.2020
4286 Rain 13 1015 82 10000 3.1 310 09:36 24.04.2020
4287 Rain 13 1015 82 10000 3.1 310 09:18 24.04.2020
4288 Rain 15 1016 77 10000 3.1 100 08:42 24.04.2020
4289 Rain 14 1016 82 10000 3.1 140 08:20 24.04.2020
4290 Rain 14 1016 82 10000 3.1 140 07:56 24.04.2020
4291 Rain 14 1016 82 10000 3.1 140 07:56 24.04.2020
4292 Rain 14 1016 82 10000 3.1 140 07:38 24.04.2020
4293 Rain 14 1016 82 10000 3.1 140 07:19 24.04.2020
4294 Clouds 14 1015 82 10000 3.6 140 06:42 24.04.2020
4295 Clouds 14 1015 82 10000 3.6 150 05:51 24.04.2020
4296 Clouds 14 1015 82 10000 3.1 160 05:18 24.04.2020
4297 Clouds 14 1014 77 10000 3.1 160 03:28 24.04.2020
4298 Clouds 15 1014 77 10000 3.6 160 02:49 24.04.2020
4299 Clouds 15 1014 77 10000 3.6 160 02:30 24.04.2020
4300 Clouds 16 1014 77 8000 5.1 170 01:46 24.04.2020
4301 Haze 16 1014 72 5000 1 0 00:50 24.04.2020
4302 Haze 16 1014 77 5000 2.1 240 00:19 24.04.2020
4303 Haze 17 1014 77 5000 2.1 240 23:46 23.04.2020
4304 Haze 17 1014 77 5000 2.1 240 23:27 23.04.2020
4305 Haze 18 1014 68 5000 2.6 230 22:57 23.04.2020
4306 Haze 18 1014 68 5000 2.6 230 22:39 23.04.2020
4307 Haze 18 1014 68 5000 2.6 230 22:19 23.04.2020
4308 Clouds 19 1014 63 7000 0.5 170 21:57 23.04.2020
4309 Clouds 19 1014 63 7000 0.5 170 21:39 23.04.2020
4310 Clouds 19 1014 63 7000 0.5 170 21:20 23.04.2020
4311 Haze 18 1015 67 5000 0.5 30 20:56 23.04.2020
4312 Haze 18 1015 67 5000 0.5 30 20:37 23.04.2020
4313 Haze 18 1015 72 5000 0.5 190 20:18 23.04.2020
4314 Haze 18 1015 72 5000 0.5 190 19:55 23.04.2020
4315 Haze 18 1015 72 5000 0.5 190 19:37 23.04.2020
4316 Haze 18 1015 72 5000 0.5 190 19:19 23.04.2020
4317 Haze 16 1015 77 5000 2.12 259 18:40 23.04.2020
4318 Haze 16 1015 77 5000 2.12 260 18:22 23.04.2020
4319 Haze 15 1015 82 5000 2.12 260 17:57 23.04.2020
4320 Haze 15 1015 82 5000 2.12 260 17:39 23.04.2020
4321 Haze 15 1015 82 5000 2.12 260 17:21 23.04.2020
4322 Haze 14 1015 82 5000 1.5 240 16:44 23.04.2020
4323 Clouds 13 1015 87 7000 1 0 16:21 23.04.2020
4324 Clouds 13 1015 87 7000 1 0 15:59 23.04.2020
4325 Clouds 13 1015 87 7000 1 0 15:40 23.04.2020
4326 Clouds 13 1015 87 7000 1 0 15:22 23.04.2020
4327 Clouds 13 1015 87 7000 1 230 14:54 23.04.2020
4328 Clouds 13 1015 87 7000 1 230 14:36 23.04.2020
4329 Mist 13 1014 93 3000 5.1 160 14:18 23.04.2020
4330 Mist 13 1014 93 5000 4.1 150 13:40 23.04.2020
4331 Mist 13 1014 93 5000 4.1 150 13:22 23.04.2020
4332 Mist 12 1014 100 5000 4.6 140 12:58 23.04.2020
4333 Clouds 12 1014 100 6000 3.6 150 12:38 23.04.2020
4334 Clouds 12 1014 100 6000 3.6 150 12:20 23.04.2020
4335 Clouds 13 1014 87 7000 3.6 160 11:47 23.04.2020
4336 Clouds 13 1014 87 7000 3.6 160 11:27 23.04.2020
4337 Clouds 13 1014 87 9000 3.1 170 10:58 23.04.2020
4338 Clouds 13 1014 87 9000 3.1 170 10:39 23.04.2020
4339 Clouds 13 1014 87 9000 3.1 170 10:20 23.04.2020
4340 Clouds 14 1014 82 8000 3.6 160 09:40 23.04.2020
4341 Clouds 14 1014 82 10000 3.1 170 09:18 23.04.2020
4342 Clouds 14 1014 82 10000 3.1 170 08:50 23.04.2020
4343 Clouds 14 1014 82 10000 3.1 170 08:30 23.04.2020
4344 Clouds 15 1014 77 10000 4.1 170 07:57 23.04.2020
4345 Clouds 15 1014 77 10000 4.1 170 07:39 23.04.2020
4346 Clouds 15 1014 77 10000 4.1 170 07:39 23.04.2020
4347 Clouds 16 1014 72 10000 3.6 160 07:19 23.04.2020
4348 Clouds 16 1014 72 10000 3.6 160 06:44 23.04.2020
4349 Clouds 16 1014 77 10000 3.1 150 05:39 23.04.2020
4350 Clouds 17 1014 72 10000 4.1 160 05:21 23.04.2020
4351 Clouds 18 1014 68 10000 5.7 160 03:32 23.04.2020
4352 Clouds 20 1014 56 10000 4.1 160 02:23 23.04.2020
4353 Clouds 22 1014 43 10000 2.1 250 01:38 23.04.2020
4354 Clouds 23 1014 43 10000 2.1 250 00:54 23.04.2020
4355 Clouds 23 1014 43 10000 2.1 250 00:26 23.04.2020
4356 Clouds 25 1014 27 8000 2.1 250 23:57 22.04.2020
4357 Clouds 25 1014 27 8000 2.1 250 23:38 22.04.2020
4358 Clouds 25 1014 27 8000 2.1 250 23:19 22.04.2020
4359 Haze 27 1014 26 5000 2.6 240 22:39 22.04.2020
4360 Haze 27 1014 26 5000 2.6 240 22:20 22.04.2020
4361 Haze 28 1014 26 5000 2.1 230 21:58 22.04.2020
4362 Haze 28 1014 26 5000 2.1 230 21:40 22.04.2020
4363 Haze 28 1014 26 5000 2.1 230 21:21 22.04.2020
4364 Haze 28 1014 26 5000 2.1 230 21:21 22.04.2020
4365 Clouds 26 1013 31 10000 3.1 200 20:56 22.04.2020
4366 Clouds 25 1015 31 7000 1.5 270 20:37 22.04.2020
4367 Clouds 25 1015 31 7000 1.5 270 20:18 22.04.2020
4368 Clouds 25 1015 31 7000 1.5 270 19:56 22.04.2020
4369 Clouds 25 1015 31 7000 1.5 270 19:37 22.04.2020
4370 Clouds 23 1015 40 9000 1.5 240 19:18 22.04.2020
4371 Clouds 23 1015 40 9000 1.5 240 18:55 22.04.2020
4372 Clouds 23 1015 40 9000 1.5 240 18:37 22.04.2020
4373 Clouds 20 1015 49 8000 0.5 0 18:19 22.04.2020
4374 Clouds 20 1015 49 8000 0.5 0 17:42 22.04.2020
4375 Clouds 18 1016 48 10000 1.5 230 17:24 22.04.2020
4376 Clouds 18 1016 48 10000 1.5 230 16:56 22.04.2020
4377 Clouds 18 1016 48 10000 1.5 230 16:36 22.04.2020
4378 Clouds 16 1016 55 10000 1.85 265 16:18 22.04.2020
4379 Clouds 16 1016 55 10000 1.85 265 15:38 22.04.2020
4380 Clouds 16 1016 55 10000 0.41 29 15:20 22.04.2020
4381 Clouds 12 1016 81 10000 1 60 14:56 22.04.2020
4382 Clouds 12 1016 81 10000 1 60 14:37 22.04.2020
4383 Clouds 12 1016 81 10000 1 60 14:37 22.04.2020
4384 Clouds 12 1016 81 10000 1 60 14:18 22.04.2020
4385 Clouds 12 1016 81 10000 1 60 14:18 22.04.2020
4386 Clouds 12 1014 76 10000 0.19 358 13:44 22.04.2020
4387 Clouds 12 1014 71 10000 0.19 358 13:20 22.04.2020
4388 Clouds 12 1014 71 10000 0.19 358 12:44 22.04.2020
4389 Clouds 12 1014 71 10000 0.19 358 12:44 22.04.2020
4390 Clouds 12 1014 71 10000 0.12 31 12:26 22.04.2020
4391 Clouds 14 1014 71 10000 0.12 31 11:59 22.04.2020
4392 Clouds 14 1014 71 10000 0.12 31 11:39 22.04.2020
4393 Clouds 14 1014 71 10000 0.12 31 11:20 22.04.2020
4394 Clouds 15 1015 67 10000 1.5 170 10:46 22.04.2020
4395 Clouds 15 1015 67 10000 1.5 170 10:25 22.04.2020
4396 Clouds 16 1015 63 10000 1.5 170 09:56 22.04.2020
4397 Clouds 16 1015 63 10000 1.5 170 09:38 22.04.2020
4398 Clouds 16 1015 63 10000 1.5 170 09:19 22.04.2020
4399 Clouds 17 1015 59 10000 3.1 150 08:54 22.04.2020
4400 Clouds 17 1015 59 10000 3.1 150 08:36 22.04.2020
4401 Clouds 17 1015 63 10000 2.6 170 08:18 22.04.2020
4402 Clouds 17 1015 63 10000 2.6 170 07:44 22.04.2020
4403 Clouds 17 1015 63 10000 2.6 170 07:21 22.04.2020
4404 Clouds 18 1016 59 10000 2.6 190 06:45 22.04.2020
4405 Clouds 19 1016 55 10000 2.1 150 05:45 22.04.2020
4406 Clouds 19 1016 55 10000 2.1 150 05:23 22.04.2020
4407 Clouds 21 1016 46 10000 3.6 140 03:55 22.04.2020
4408 Clouds 22 1015 40 10000 2.6 160 02:37 22.04.2020
4409 Clouds 24 1014 33 10000 3.6 160 01:42 22.04.2020
4410 Clouds 24 1016 41 10000 2.1 240 01:23 22.04.2020
4411 Clouds 26 1016 41 10000 2.1 240 00:46 22.04.2020
4412 Clouds 26 1016 41 10000 2.1 240 00:21 22.04.2020
4413 Clouds 27 1015 24 10000 3.1 250 23:56 21.04.2020
4414 Clouds 28 1015 24 10000 3.1 250 23:36 21.04.2020
4415 Clouds 28 1015 34 10000 2.6 230 23:18 21.04.2020
4416 Clouds 28 1015 34 10000 2.6 230 22:39 21.04.2020
4417 Clouds 29 1015 34 10000 2.6 230 22:21 21.04.2020
4418 Clouds 29 1015 17 10000 2.1 220 21:57 21.04.2020
4419 Clouds 29 1015 17 10000 2.1 220 21:39 21.04.2020
4420 Clouds 29 1015 17 10000 2.1 220 21:21 21.04.2020
4421 Clouds 29 1016 23 10000 1.5 280 20:41 21.04.2020
4422 Clouds 29 1016 23 10000 1.5 280 20:23 21.04.2020
4423 Clouds 28 1016 22 10000 2.1 270 19:59 21.04.2020
4424 Clouds 28 1016 22 10000 2.1 270 19:39 21.04.2020
4425 Clouds 28 1016 22 10000 2.1 270 19:39 21.04.2020
4426 Clouds 28 1016 22 10000 2.1 270 19:19 21.04.2020
4427 Clouds 26 1017 26 10000 1.5 320 18:56 21.04.2020
4428 Clouds 26 1017 26 10000 1.5 320 18:37 21.04.2020
4429 Clouds 24 1017 31 10000 1 250 18:18 21.04.2020
4430 Clouds 24 1017 31 10000 1 250 18:18 21.04.2020
4431 Clouds 24 1017 31 10000 1 250 17:40 21.04.2020
4432 Clouds 23 1017 31 10000 1 250 17:20 21.04.2020
4433 Clouds 20 1017 37 10000 1 320 16:58 21.04.2020
4434 Clouds 20 1017 37 10000 1 320 16:38 21.04.2020
4435 Clouds 20 1017 37 10000 1 320 16:19 21.04.2020
4436 Clouds 16 1017 45 10000 1.66 276 15:55 21.04.2020
4437 Clouds 16 1017 45 10000 1.66 276 15:55 21.04.2020
4438 Clouds 18 1017 45 10000 1.66 276 15:37 21.04.2020
4439 Clouds 16 1017 45 10000 1.66 276 15:37 21.04.2020
4440 Clouds 16 1017 45 10000 0.42 12 15:19 21.04.2020
4441 Clouds 13 1016 58 10000 1.5 50 14:45 21.04.2020
4442 Clouds 13 1016 58 10000 1.5 50 14:25 21.04.2020
4443 Clouds 11 1015 66 10000 0.42 12 13:57 21.04.2020
4444 Clouds 11 1015 66 10000 0.42 12 13:38 21.04.2020
4445 Clouds 10 1015 71 10000 0.42 12 13:18 21.04.2020
4446 Clouds 10 1015 71 10000 0.42 12 13:18 21.04.2020
4447 Clouds 10 1015 71 10000 0.42 12 12:39 21.04.2020
4448 Clouds 10 1015 71 10000 0.67 42 12:19 21.04.2020
4449 Clouds 11 1015 62 10000 1.5 350 11:58 21.04.2020
4450 Clouds 11 1015 62 10000 1.5 350 11:39 21.04.2020
4451 Clouds 12 1015 62 10000 1 0 11:19 21.04.2020
4452 Clouds 12 1015 62 10000 1 0 10:59 21.04.2020
4453 Clouds 12 1015 62 10000 1 0 10:40 21.04.2020
4454 Clouds 12 1015 62 10000 1 0 10:22 21.04.2020
4455 Clouds 14 1015 50 10000 0.5 300 09:58 21.04.2020
4456 Clouds 14 1015 50 10000 0.5 300 09:36 21.04.2020
4457 Clouds 14 1015 54 10000 0.54 49 09:18 21.04.2020
4458 Clouds 14 1015 54 10000 0.54 49 08:43 21.04.2020
4459 Clouds 14 1015 54 10000 0.54 49 08:25 21.04.2020
4460 Clouds 15 1016 47 10000 0.54 49 07:53 21.04.2020
4461 Clouds 15 1016 47 10000 0.54 49 07:27 21.04.2020
4462 Clouds 16 1016 48 10000 1 0 06:51 21.04.2020
4463 Clouds 16 1016 48 10000 1 0 06:33 21.04.2020
4464 Clouds 18 1016 39 10000 0.5 0 05:50 21.04.2020
4465 Clouds 21 1016 32 10000 1 0 04:57 21.04.2020
4466 Clouds 22 1016 33 10000 2.1 150 03:46 21.04.2020
4467 Clouds 22 1015 37 10000 2.1 120 02:42 21.04.2020
4468 Clouds 25 1016 22 10000 0.7 234 01:31 21.04.2020
4469 Clouds 26 1016 22 10000 0.7 234 00:38 21.04.2020
4470 Clouds 28 1016 24 10000 2.1 220 00:18 21.04.2020
4471 Clouds 28 1016 24 10000 2.1 220 23:43 20.04.2020
4472 Clouds 28 1016 24 10000 2.1 220 23:21 20.04.2020
4473 Clouds 29 1016 25 10000 3.1 210 22:55 20.04.2020
4474 Clouds 29 1016 25 10000 3.1 210 22:36 20.04.2020
4475 Clouds 30 1016 25 10000 2.64 248 22:18 20.04.2020
4476 Clouds 30 1016 25 10000 2.64 248 22:18 20.04.2020
4477 Clouds 30 1016 25 10000 2.64 248 21:54 20.04.2020
4478 Clouds 30 1016 25 10000 2.76 248 21:36 20.04.2020
4479 Clouds 29 1016 34 10000 2.68 253 21:18 20.04.2020
4480 Clouds 29 1016 34 10000 2.68 253 20:42 20.04.2020
4481 Clouds 29 1016 34 10000 2.68 253 20:20 20.04.2020
4482 Clouds 28 1017 36 10000 2.68 253 19:59 20.04.2020
4483 Clouds 28 1017 36 10000 2.68 253 19:41 20.04.2020
4484 Clouds 28 1017 36 10000 2.68 253 19:22 20.04.2020
4485 Clouds 26 1018 41 10000 2.6 210 18:56 20.04.2020
4486 Clouds 26 1018 41 10000 2.6 210 18:38 20.04.2020
4487 Clouds 25 1018 41 10000 2.6 210 18:19 20.04.2020
4488 Clouds 23 1018 49 10000 1.3 269 17:44 20.04.2020
4489 Clouds 23 1018 49 10000 1.3 269 17:23 20.04.2020
4490 Clouds 21 1018 56 10000 1.3 269 16:59 20.04.2020
4491 Clouds 21 1018 56 10000 1.3 269 16:59 20.04.2020
4492 Clouds 21 1018 56 10000 1.3 269 16:41 20.04.2020
4493 Clouds 21 1018 56 10000 1.3 269 16:20 20.04.2020
4494 Clouds 17 1018 63 10000 1.3 269 15:55 20.04.2020
4495 Clouds 17 1018 63 10000 1.3 269 15:37 20.04.2020
4496 Clear 17 1018 63 10000 0.09 62 15:19 20.04.2020
4497 Clear 16 1018 59 10000 0.06 166 14:41 20.04.2020
4498 Clear 20 1018 30 0 0.06 166 14:19 20.04.2020
4499 Clear 20 1018 30 0 0.06 166 13:58 20.04.2020
4500 Clear 16 931 99 0 0.45 45 13:38 20.04.2020
4501 Clear 15 931 99 0 0.06 166 13:20 20.04.2020
4502 Clear 15 931 99 0 0.06 166 12:44 20.04.2020
4503 Clear 19 1018 35 0 0.45 57 12:22 20.04.2020
4504 Clear 19 1018 35 0 0.45 57 11:57 20.04.2020
4505 Clear 19 1018 35 0 0.45 57 11:38 20.04.2020
4506 Clear 19 1018 35 0 0.45 57 11:18 20.04.2020
4507 Clear 19 1018 35 0 0.45 57 10:54 20.04.2020
4508 Clear 19 1018 35 0 0.45 57 10:36 20.04.2020
4509 Clear 19 1018 35 0 0.45 57 10:18 20.04.2020
4510 Clear 19 1018 36 0 0.39 64 09:43 20.04.2020
4511 Clear 20 1018 37 0 0.21 315 09:25 20.04.2020
4512 Clear 20 1018 37 0 0.21 315 08:57 20.04.2020
4513 Clear 20 1018 37 0 0.21 315 08:39 20.04.2020
4514 Clear 20 1018 37 0 0.21 315 08:18 20.04.2020
4515 Clear 20 1018 37 0 0.21 315 07:42 20.04.2020
4516 Clear 18 1017 68 10000 0.21 315 07:24 20.04.2020
4517 Clear 18 1017 68 10000 0.21 315 06:38 20.04.2020
4518 Clear 19 1017 68 10000 1 0 05:59 20.04.2020
4519 Clear 21 1017 64 10000 1 0 04:51 20.04.2020
4520 Clear 23 1016 56 10000 3.1 160 02:52 20.04.2020
4521 Clear 23 1016 56 10000 3.1 160 02:33 20.04.2020
4522 Clear 26 1017 39 10000 1.5 220 01:30 20.04.2020
4523 Clear 27 1017 39 10000 1.5 220 00:47 20.04.2020
4524 Clear 27 1017 39 10000 1.5 220 00:22 20.04.2020
4525 Clear 28 1017 34 10000 2.6 210 23:40 19.04.2020
4526 Clear 28 1017 34 10000 2.6 210 23:21 19.04.2020
4527 Clear 29 1017 30 10000 2.6 210 22:59 19.04.2020
4528 Clear 29 1017 30 10000 2.6 210 22:38 19.04.2020
4529 Clear 29 1017 30 10000 2.6 210 22:19 19.04.2020
4530 Clear 29 1017 28 10000 2.1 250 21:43 19.04.2020
4531 Clear 29 1017 28 10000 2.1 250 21:25 19.04.2020
4532 Clear 28 1017 30 10000 2.6 270 20:59 19.04.2020
4533 Clear 28 1017 30 10000 2.6 270 20:41 19.04.2020
4534 Clear 28 1017 30 10000 2.6 270 20:20 19.04.2020
4535 Clear 28 1017 30 10000 2.6 270 20:20 19.04.2020
4536 Clear 27 1018 34 10000 1.5 190 19:57 19.04.2020
4537 Clear 27 1018 34 10000 1.5 190 19:38 19.04.2020
4538 Clear 27 1018 34 10000 1.5 190 19:20 19.04.2020
4539 Clear 26 1019 36 10000 1.5 210 18:57 19.04.2020
4540 Clear 26 1019 36 10000 1.5 210 18:38 19.04.2020
4541 Clear 25 1018 53 10000 2.6 200 18:19 19.04.2020
4542 Clear 25 1018 53 10000 2.6 200 18:19 19.04.2020
4543 Clear 25 1018 53 10000 2.6 200 18:19 19.04.2020
4544 Clear 24 1018 53 10000 2.6 200 17:56 19.04.2020
4545 Clear 22 1019 56 10000 1.5 180 17:38 19.04.2020
4546 Clear 21 1019 56 10000 1.5 180 17:19 19.04.2020
4547 Clear 21 1019 56 10000 1.5 180 16:41 19.04.2020
4548 Clear 20 1019 56 10000 1.5 180 16:21 19.04.2020
4549 Clear 16 1019 59 10000 2.23 254 15:59 19.04.2020
4550 Clear 16 1019 59 10000 2.23 254 15:40 19.04.2020
4551 Clear 16 1019 59 10000 0.59 53 15:19 19.04.2020
4552 Clear 12 1018 71 10000 1.5 30 14:39 19.04.2020
4553 Clear 12 1018 71 10000 1.5 30 14:21 19.04.2020
4554 Clear 12 1018 81 10000 1.5 20 13:58 19.04.2020
4555 Clear 14 1018 81 10000 1.5 20 13:38 19.04.2020
4556 Clear 13 1018 81 10000 1.5 20 13:19 19.04.2020
4557 Clear 14 1018 87 10000 1 0 12:46 19.04.2020
4558 Clear 12 1018 87 10000 1 0 12:24 19.04.2020
4559 Clear 12 1018 81 10000 0.43 218 11:55 19.04.2020
4560 Clear 12 1018 81 10000 0.43 218 11:37 19.04.2020
4561 Clear 14 1017 82 10000 1.5 300 11:18 19.04.2020
4562 Clear 14 1017 82 10000 1.5 300 10:41 19.04.2020
4563 Clear 15 1018 77 10000 0.43 218 10:21 19.04.2020
4564 Clear 15 1018 77 10000 0.43 218 09:59 19.04.2020
4565 Clear 15 1018 77 10000 0.43 218 09:41 19.04.2020
4566 Clear 14 1018 87 10000 2.1 50 09:20 19.04.2020
4567 Clouds 14 1018 87 10000 2.1 50 08:40 19.04.2020
4568 Clear 14 1018 87 10000 2.1 50 08:21 19.04.2020
4569 Clouds 15 1018 77 10000 1.5 320 07:58 19.04.2020
4570 Clouds 15 1018 77 10000 1.5 320 07:39 19.04.2020
4571 Clear 15 1018 77 10000 1.5 320 07:20 19.04.2020
4572 Clouds 17 1018 77 10000 0.79 220 06:27 19.04.2020
4573 Clouds 18 1018 72 10000 1 0 05:43 19.04.2020
4574 Clouds 21 1017 60 10000 3.1 130 04:22 19.04.2020
4575 Clouds 23 1017 56 10000 5.7 190 02:52 19.04.2020
4576 Clouds 23 1017 56 10000 5.7 190 02:19 19.04.2020
4577 Clouds 25 1018 26 10000 2.1 240 01:31 19.04.2020
4578 Clouds 25 1018 26 10000 2.1 240 00:41 19.04.2020
4579 Clouds 26 1018 26 10000 2.1 240 00:20 19.04.2020
4580 Clouds 27 1018 23 10000 2.6 240 23:44 18.04.2020
4581 Clouds 28 1018 23 10000 2.6 240 23:21 18.04.2020
4582 Clouds 28 1017 21 10000 2.6 210 22:56 18.04.2020
4583 Clouds 28 1017 21 10000 2.6 210 22:38 18.04.2020
4584 Clouds 28 1017 20 10000 3.1 220 22:19 18.04.2020
4585 Clouds 28 1017 20 10000 3.1 220 21:55 18.04.2020
4586 Clouds 29 1017 20 10000 3.1 220 21:36 18.04.2020
4587 Clear 28 1018 21 10000 1.5 260 21:18 18.04.2020
4588 Clear 28 1018 21 10000 1.5 260 20:40 18.04.2020
4589 Clear 28 1018 21 10000 1.5 260 20:21 18.04.2020
4590 Clear 27 1019 26 10000 2.1 260 19:44 18.04.2020
4591 Clear 26 1019 26 10000 2.1 260 19:44 18.04.2020
4592 Clear 27 1019 26 10000 2.1 260 19:25 18.04.2020
4593 Clear 25 1019 25 10000 1.5 260 18:59 18.04.2020
4594 Clear 25 1019 25 10000 1.5 260 18:37 18.04.2020
4595 Clear 25 1019 25 10000 1.5 260 18:19 18.04.2020
4596 Clear 24 1019 28 10000 1.5 210 17:41 18.04.2020
4597 Clear 23 1019 28 10000 1.5 210 17:21 18.04.2020
4598 Clear 21 1019 32 10000 2.45 259 16:57 18.04.2020
4599 Clear 21 1019 32 10000 2.45 259 16:37 18.04.2020
4600 Clear 19 1019 32 10000 2.45 259 16:19 18.04.2020
4601 Clear 15 1019 48 10000 2.45 259 15:39 18.04.2020
4602 Clear 15 1019 48 10000 0.11 325 15:21 18.04.2020
4603 Clear 11 1018 62 10000 0.11 325 14:46 18.04.2020
4604 Clear 11 1018 62 10000 0.29 40 14:27 18.04.2020
4605 Clear 9 1017 70 10000 1 360 13:56 18.04.2020
4606 Clear 12 1017 70 10000 1 360 13:38 18.04.2020
4607 Clear 13 1017 71 9000 1 40 13:19 18.04.2020
4608 Clear 13 1017 71 9000 1 40 12:41 18.04.2020
4609 Clear 10 1017 71 9000 1 40 12:22 18.04.2020
4610 Clear 10 1017 71 8000 1.5 360 11:43 18.04.2020
4611 Clear 10 1017 71 8000 1.5 360 11:25 18.04.2020
4612 Clear 10 1017 71 9000 1.5 330 10:58 18.04.2020
4613 Clear 10 1017 71 9000 1.5 330 10:39 18.04.2020
4614 Clear 12 1017 62 8000 1 0 10:19 18.04.2020
4615 Clear 12 1017 62 8000 1 0 09:55 18.04.2020
4616 Clear 12 1017 62 8000 1 0 09:37 18.04.2020
4617 Clouds 12 1017 62 8000 1 0 09:18 18.04.2020
4618 Clouds 13 1017 62 10000 0.41 31 08:39 18.04.2020
4619 Clouds 13 1017 62 10000 0.41 31 08:20 18.04.2020
4620 Clouds 14 1017 58 10000 0.41 31 07:37 18.04.2020
4621 Clouds 14 1017 58 8000 1 60 07:19 18.04.2020
4622 Clouds 14 1017 58 8000 1 60 06:29 18.04.2020
4623 Clouds 15 1017 54 10000 2.6 20 05:42 18.04.2020
4624 Clouds 17 1017 48 10000 1.5 310 04:47 18.04.2020
4625 Clouds 18 1017 48 10000 1.5 310 04:27 18.04.2020
4626 Clouds 20 1017 40 10000 2.6 160 02:51 18.04.2020
4627 Clouds 21 1017 40 10000 2.6 160 02:23 18.04.2020
4628 Clouds 23 1017 33 10000 2.1 170 01:57 18.04.2020
4629 Clouds 24 1018 25 10000 1.5 220 01:35 18.04.2020
4630 Clouds 24 1018 25 10000 1.5 220 01:35 18.04.2020
4631 Clouds 25 1018 25 10000 1.5 220 00:44 18.04.2020
4632 Clouds 25 1018 25 10000 1.5 220 00:22 18.04.2020
4633 Clouds 25 1018 25 10000 1.5 220 00:22 18.04.2020
4634 Clouds 27 1018 22 10000 3.1 230 23:55 17.04.2020
4635 Clouds 27 1018 22 10000 3.1 230 23:37 17.04.2020
4636 Clouds 28 1018 18 10000 2.1 230 23:18 17.04.2020
4637 Clouds 28 1018 18 10000 2.1 230 22:56 17.04.2020
4638 Clouds 28 1018 18 10000 2.1 230 22:37 17.04.2020
4639 Clouds 29 1018 24 10000 1.5 200 22:18 17.04.2020
4640 Clouds 29 1018 24 10000 1.5 200 21:42 17.04.2020
4641 Clear 29 1018 24 10000 1.5 200 21:21 17.04.2020
4642 Clear 28 1017 26 10000 3.1 160 20:56 17.04.2020
4643 Clear 27 1019 33 7000 2.1 220 20:38 17.04.2020
4644 Clear 27 1019 33 7000 2.1 220 20:18 17.04.2020
4645 Clear 26 1019 33 7000 2.1 220 19:57 17.04.2020
4646 Clear 26 1019 33 7000 2.1 220 19:38 17.04.2020
4647 Clear 26 1019 33 7000 2.1 220 19:20 17.04.2020
4648 Clear 24 1020 33 8000 2.1 270 18:44 17.04.2020
4649 Clear 24 1020 33 8000 2.1 270 18:23 17.04.2020
4650 Clear 23 1020 46 8000 1 230 17:55 17.04.2020
4651 Clear 22 1020 46 8000 1 230 17:36 17.04.2020
4652 Clear 18 1021 48 8000 1.5 270 17:18 17.04.2020
4653 Clear 18 1021 48 8000 1.5 270 17:18 17.04.2020
4654 Clear 20 1021 48 8000 1.5 270 16:41 17.04.2020
4655 Clear 18 1021 48 8000 1.5 270 16:22 17.04.2020
4656 Clear 16 1021 58 10000 1.58 261 15:41 17.04.2020
4657 Clouds 13 1021 58 10000 0.7 60 15:23 17.04.2020
4658 Clouds 9 1021 87 10000 1 50 14:55 17.04.2020
4659 Clouds 9 1021 87 10000 1 50 14:37 17.04.2020
4660 Clouds 9 1021 87 10000 1 50 14:19 17.04.2020
4661 Clouds 11 1020 87 6000 2.1 50 13:41 17.04.2020
4662 Clouds 10 1020 87 6000 2.1 50 13:21 17.04.2020
4663 Clouds 10 1020 87 7000 1 20 12:58 17.04.2020
4664 Clouds 10 1020 87 7000 1 20 12:40 17.04.2020
4665 Clear 10 1020 87 7000 1 20 12:21 17.04.2020
4666 Clear 11 1020 87 8000 1 360 11:40 17.04.2020
4667 Clear 11 1020 87 9000 1 10 11:19 17.04.2020
4668 Clear 10 1020 87 9000 1 10 10:44 17.04.2020
4669 Clear 12 1020 87 9000 1 10 10:24 17.04.2020
4670 Clear 12 1020 76 10000 1 0 09:59 17.04.2020
4671 Clouds 11 1020 76 10000 1 0 09:40 17.04.2020
4672 Clear 11 1020 76 10000 1 0 09:20 17.04.2020
4673 Clear 12 1020 76 9000 1 0 08:49 17.04.2020
4674 Clear 12 1020 76 9000 1 0 08:28 17.04.2020
4675 Clear 12 1020 76 10000 0.4 76 07:59 17.04.2020
4676 Clear 12 1020 76 10000 0.4 76 07:41 17.04.2020
4677 Clear 13 1021 76 10000 1 0 07:19 17.04.2020
4678 Clear 13 1021 76 10000 1 0 06:45 17.04.2020
4679 Clear 15 1021 71 10000 0.5 0 06:20 17.04.2020
4680 Clear 18 1021 55 10000 3.6 150 03:36 17.04.2020
4681 Clouds 18 1021 55 10000 3.6 150 03:18 17.04.2020
4682 Clouds 20 1020 45 10000 3.6 160 01:52 17.04.2020
4683 Clouds 22 1021 36 10000 2.1 250 01:22 17.04.2020
4684 Clouds 23 1021 36 10000 2.1 250 00:26 17.04.2020
4685 Clouds 25 1020 29 7000 2.1 230 23:55 16.04.2020
4686 Clouds 25 1020 29 7000 2.1 230 23:37 16.04.2020
4687 Clouds 25 1020 29 7000 2.1 230 23:19 16.04.2020
4688 Clouds 26 1020 27 7000 2.1 240 22:41 16.04.2020
4689 Clouds 26 1020 27 7000 2.1 240 22:23 16.04.2020
4690 Haze 26 1020 27 5000 1 0 21:59 16.04.2020
4691 Haze 26 1020 27 5000 1 0 21:41 16.04.2020
4692 Haze 26 1020 27 5000 1 0 21:41 16.04.2020
4693 Haze 26 1020 27 5000 1 0 21:41 16.04.2020
4694 Haze 26 1020 27 5000 1 0 21:19 16.04.2020
4695 Haze 24 1021 31 5000 1 220 20:43 16.04.2020
4696 Haze 24 1021 31 5000 1 220 20:23 16.04.2020
4697 Haze 23 1022 35 5000 1.5 0 20:00 16.04.2020
4698 Haze 23 1022 35 5000 1.5 0 19:40 16.04.2020
4699 Clear 21 1022 42 7000 2.1 220 19:20 16.04.2020
4700 Clear 21 1022 42 7000 2.1 220 18:57 16.04.2020
4701 Clear 21 1022 42 7000 2.1 220 18:38 16.04.2020
4702 Clear 20 1022 48 10000 1 0 18:20 16.04.2020
4703 Clear 19 1022 48 10000 1 0 17:45 16.04.2020
4704 Clear 19 1022 48 10000 1 0 17:26 16.04.2020
4705 -273 0 0 0 0 0 17:00 16.04.2020
4706 Clear 17 1022 55 10000 2.38 256 16:59 16.04.2020
4707 Clear 17 1022 55 10000 2.38 256 16:59 16.04.2020
4708 Clear 17 1022 55 10000 2.38 256 16:41 16.04.2020
4709 Clear 14 1022 71 10000 2.38 256 16:19 16.04.2020
4710 Clear 14 1022 71 10000 2.38 256 15:42 16.04.2020
4711 Clouds 13 1022 71 10000 0.37 95 15:19 16.04.2020
4712 Clouds 13 1022 71 10000 0.37 95 15:19 16.04.2020
4713 Clouds 11 1022 87 10000 0.37 95 14:58 16.04.2020
4714 Clouds 10 1022 87 10000 0.37 95 14:38 16.04.2020
4715 Clouds 10 1022 87 10000 0.36 88 14:19 16.04.2020
4716 Clouds 11 1021 87 8000 1.5 140 13:56 16.04.2020
4717 Clouds 10 1021 87 8000 1.5 140 13:36 16.04.2020
4718 Clouds 9 1020 87 7000 0.5 220 13:18 16.04.2020
4719 Clouds 9 1020 87 7000 0.5 220 12:56 16.04.2020
4720 Clouds 9 1020 87 7000 0.5 220 12:37 16.04.2020
4721 Clouds 9 1020 87 7000 0.5 220 12:18 16.04.2020
4722 Clouds 9 1020 87 9000 1 0 11:41 16.04.2020
4723 Clouds 9 1020 87 9000 1 0 11:22 16.04.2020
4724 Clouds 10 1020 87 10000 1.5 150 10:57 16.04.2020
4725 Clouds 11 1020 87 10000 1.5 150 10:38 16.04.2020
4726 Clouds 11 1020 87 10000 1.5 150 10:19 16.04.2020
4727 Clouds 11 1020 81 10000 2.1 170 09:55 16.04.2020
4728 Clouds 11 1020 81 10000 2.1 170 09:37 16.04.2020
4729 Clouds 11 1020 81 10000 2.1 170 09:18 16.04.2020
4730 Clouds 11 1020 81 10000 2.1 170 09:18 16.04.2020
4731 Clouds 11 1019 81 10000 2.6 170 08:41 16.04.2020
4732 Clouds 11 1019 81 10000 2.6 170 08:22 16.04.2020
4733 Clouds 12 1019 76 10000 2.1 180 07:46 16.04.2020
4734 Clouds 12 1019 76 10000 2.1 180 07:26 16.04.2020
4735 Clouds 12 1019 76 10000 1.5 150 06:44 16.04.2020
4736 Clouds 12 1019 76 10000 1.5 150 06:25 16.04.2020
4737 Clouds 13 1019 76 10000 2.6 160 05:34 16.04.2020
4738 Clouds 15 1019 67 10000 4.6 160 03:53 16.04.2020
4739 Clouds 15 1019 67 10000 4.6 160 03:23 16.04.2020
4740 Clouds 16 1018 63 10000 3.6 150 02:47 16.04.2020
4741 Clouds 17 1018 63 10000 3.6 150 02:28 16.04.2020
4742 Clouds 20 1019 40 10000 2.1 190 01:18 16.04.2020
4743 Clouds 20 1019 40 10000 2.1 190 00:32 16.04.2020
4744 Clouds 21 1019 40 7000 2.6 230 23:58 15.04.2020
4745 Clouds 21 1019 40 7000 2.6 230 23:58 15.04.2020
4746 Clouds 21 1019 40 7000 2.6 230 23:40 15.04.2020
4747 Clouds 21 1019 40 7000 2.6 230 23:21 15.04.2020
4748 Clouds 22 1018 35 7000 3.1 240 22:40 15.04.2020
4749 Clouds 22 1018 35 7000 3.1 240 22:22 15.04.2020
4750 Clouds 23 1018 31 7000 3.1 250 21:59 15.04.2020
4751 Clouds 23 1018 31 7000 3.1 250 21:41 15.04.2020
4752 Clouds 23 1018 31 7000 3.1 250 21:22 15.04.2020
4753 Clouds 23 1018 31 7000 2.1 290 20:58 15.04.2020
4754 Clouds 24 1018 31 7000 2.1 290 20:40 15.04.2020
4755 Clouds 24 1018 31 7000 2.1 290 20:21 15.04.2020
4756 Clouds 22 1018 33 7000 1.5 0 19:45 15.04.2020
4757 Clouds 21 1019 35 10000 2.77 252 19:21 15.04.2020
4758 Clouds 21 1019 35 10000 2.77 252 18:56 15.04.2020
4759 Clouds 21 1019 35 10000 2.77 252 18:38 15.04.2020
4760 Clouds 19 1019 36 10000 1.91 251 18:20 15.04.2020
4761 Clouds 19 1019 36 10000 1.91 251 17:40 15.04.2020
4762 Clouds 19 1019 36 10000 1.91 251 17:40 15.04.2020
4763 Clouds 19 1019 36 10000 1.91 251 17:21 15.04.2020
4764 Clouds 17 1020 41 10000 1.91 251 16:58 15.04.2020
4765 Clouds 17 1020 41 10000 1.91 251 16:40 15.04.2020
4766 Clouds 17 1020 41 10000 1.91 251 16:20 15.04.2020
4767 Clouds 16 1019 50 10000 1.91 251 15:59 15.04.2020
4768 Clouds 16 1019 50 10000 1.91 251 15:59 15.04.2020
4769 Clouds 15 1019 50 10000 1.91 251 15:40 15.04.2020
4770 Clouds 14 1019 50 10000 0.3 297 15:20 15.04.2020
4771 Clouds 12 1009 62 10000 0.3 297 14:59 15.04.2020
4772 Clouds 13 1009 62 10000 0.26 259 14:41 15.04.2020
4773 Clouds 12 1009 62 10000 0.26 259 14:23 15.04.2020
4774 Clouds 12 1017 66 8000 1 0 13:59 15.04.2020
4775 Clouds 11 1017 66 8000 1 0 13:40 15.04.2020
4776 Clouds 11 1017 66 8000 1 0 13:21 15.04.2020
4777 Clouds 10 1017 70 10000 0.26 259 12:57 15.04.2020
4778 Clouds 11 1017 70 10000 0.26 259 12:39 15.04.2020
4779 Clouds 9 1017 70 10000 0.26 263 12:21 15.04.2020
4780 Clouds 11 1016 62 10000 1 0 11:45 15.04.2020
4781 Clouds 11 1016 62 10000 1 0 11:25 15.04.2020
4782 Clouds 13 1016 50 10000 1 170 10:59 15.04.2020
4783 Clouds 13 1016 50 10000 1 170 10:37 15.04.2020
4784 Clouds 13 1016 50 10000 1 170 10:19 15.04.2020
4785 Clouds 13 1016 54 10000 2.1 150 09:56 15.04.2020
4786 Clouds 13 1016 54 10000 2.1 150 09:37 15.04.2020
4787 Clouds 13 1016 54 10000 2.1 150 09:19 15.04.2020
4788 Clouds 13 1017 54 10000 2.6 160 08:42 15.04.2020
4789 Clouds 13 1017 54 10000 2.6 160 08:23 15.04.2020
4790 Clouds 15 1016 47 10000 1.5 150 07:58 15.04.2020
4791 Clouds 15 1016 47 10000 1.5 150 07:39 15.04.2020
4792 Clouds 15 1016 51 10000 3.1 170 06:59 15.04.2020
4793 Clouds 15 1016 51 10000 3.1 170 06:24 15.04.2020
4794 Clouds 16 1016 48 10000 3.1 140 05:23 15.04.2020
4795 Clouds 17 1016 45 10000 3.6 150 04:46 15.04.2020
4796 Clouds 17 1016 45 10000 3.6 150 04:18 15.04.2020
4797 Clouds 18 1016 42 10000 3.6 140 03:22 15.04.2020
4798 Clouds 20 1015 42 10000 2.6 160 02:45 15.04.2020
4799 Clouds 22 1015 35 10000 5.7 210 01:51 15.04.2020
4800 Clouds 23 1016 25 10000 2.1 240 01:25 15.04.2020
4801 Clouds 24 1016 25 10000 2.1 240 00:47 15.04.2020
4802 Clouds 24 1016 25 10000 2.1 240 00:24 15.04.2020
4803 Clouds 25 1015 22 10000 2.6 240 23:55 14.04.2020
4804 Clouds 25 1015 22 10000 2.6 240 23:37 14.04.2020
4805 Clouds 25 1015 22 10000 2.6 240 23:19 14.04.2020
4806 Clouds 26 1015 21 10000 3.1 270 22:56 14.04.2020
4807 Clouds 26 1015 21 10000 3.1 270 22:38 14.04.2020
4808 Clouds 26 1015 21 10000 3.1 270 22:20 14.04.2020
4809 Clouds 26 1015 22 8000 2.6 210 21:56 14.04.2020
4810 Clouds 26 1015 22 8000 2.6 210 21:37 14.04.2020
4811 Clouds 26 1015 22 8000 2.6 210 21:19 14.04.2020
4812 Clouds 26 1015 22 10000 2.6 190 20:41 14.04.2020
4813 Clouds 26 1015 22 10000 2.6 190 20:41 14.04.2020
4814 Clouds 26 1015 22 10000 2.6 190 20:23 14.04.2020
4815 Clouds 25 1016 27 10000 1.5 210 20:00 14.04.2020
4816 Clouds 25 1016 27 10000 1.5 210 19:40 14.04.2020
4817 Clouds 25 1016 27 10000 1.5 210 19:21 14.04.2020
4818 Clouds 23 1017 37 10000 0.5 180 18:57 14.04.2020
4819 Clouds 23 1017 37 10000 0.5 180 18:39 14.04.2020
4820 Clouds 23 1017 37 10000 0.5 180 18:20 14.04.2020
4821 Clouds 20 1017 42 10000 1 170 17:57 14.04.2020
4822 Clouds 20 1017 42 10000 1 170 17:38 14.04.2020
4823 Clouds 19 1017 42 10000 1 170 17:19 14.04.2020
4824 Clouds 19 1017 42 10000 1 170 17:19 14.04.2020
4825 Clouds 19 1017 42 10000 1 170 17:19 14.04.2020
4826 Clouds 19 1017 42 10000 1 170 17:19 14.04.2020
4827 Clouds 18 1017 48 10000 1 270 16:55 14.04.2020
4828 Clouds 19 1017 48 10000 1 270 16:36 14.04.2020
4829 Clouds 18 1017 48 10000 1 270 16:18 14.04.2020
4830 Clouds 17 1018 62 10000 1.39 253 15:42 14.04.2020
4831 Clouds 12 1018 62 10000 1.04 103 15:23 14.04.2020
4832 Clouds 10 1017 66 10000 0.5 360 14:59 14.04.2020
4833 Clouds 10 1017 66 10000 0.5 360 14:59 14.04.2020
4834 Clouds 10 1017 66 10000 0.5 360 14:41 14.04.2020
4835 Clouds 10 1017 66 10000 0.5 360 14:22 14.04.2020
4836 Haze 7 1017 93 5000 1.5 300 13:57 14.04.2020
4837 Haze 9 1017 93 5000 1.5 300 13:39 14.04.2020
4838 Clouds 10 1017 81 9000 1 0 13:21 14.04.2020
4839 Clouds 10 1017 81 9000 1 0 12:42 14.04.2020
4840 Clouds 10 1017 81 9000 1 0 12:21 14.04.2020
4841 Clouds 8 1016 87 8000 1.59 87 11:56 14.04.2020
4842 Clouds 8 1016 87 8000 1.59 87 11:37 14.04.2020
4843 Clouds 8 1016 87 8000 1.59 87 11:19 14.04.2020
4844 Clouds 10 1016 81 9000 0.5 0 10:45 14.04.2020
4845 Clouds 10 1016 81 9000 0.5 0 10:26 14.04.2020
4846 Clouds 9 1017 87 9000 1.5 50 09:55 14.04.2020
4847 Clouds 9 1017 87 9000 1.5 50 09:37 14.04.2020
4848 Clouds 17 1019 20 0 1.14 99 09:19 14.04.2020
4849 Clouds 17 1019 20 0 1.14 99 08:41 14.04.2020
4850 Clouds 11 1017 76 10000 2.1 310 08:22 14.04.2020
4851 Clouds 17 1019 20 0 1.14 99 08:22 14.04.2020
4852 Clouds 11 1017 76 10000 1.5 50 07:55 14.04.2020
4853 Clouds 11 1017 76 10000 1.5 50 07:31 14.04.2020
4854 Clouds 12 1018 71 10000 1.14 99 06:51 14.04.2020
4855 Clouds 12 1018 71 10000 1.27 87 06:27 14.04.2020
4856 Clouds 18 1020 20 0 1.27 87 04:43 14.04.2020
4857 Clouds 18 1017 48 10000 2.1 160 02:56 14.04.2020
4858 Clouds 18 1017 48 10000 2.1 160 02:18 14.04.2020
4859 Clouds 21 1018 33 10000 2.1 240 01:25 14.04.2020
4860 Clouds 21 1018 33 10000 2.1 240 00:39 14.04.2020
4861 Clouds 22 1018 31 10000 3.1 240 00:19 14.04.2020
4862 Clouds 23 1018 31 10000 3.1 240 23:45 13.04.2020
4863 Clouds 23 1018 31 10000 3.1 240 23:26 13.04.2020
4864 Clouds 23 1017 29 10000 3.6 170 22:59 13.04.2020
4865 Clouds 24 1017 29 10000 3.6 170 22:41 13.04.2020
4866 Clouds 23 1019 33 10000 1.5 240 22:22 13.04.2020
4867 Clouds 23 1019 33 10000 1.5 240 21:56 13.04.2020
4868 Clouds 23 1019 33 10000 1.5 240 21:37 13.04.2020
4869 Clouds 23 1019 33 10000 1.5 240 21:37 13.04.2020
4870 Clouds 23 1019 33 10000 1.5 240 21:37 13.04.2020
4871 Clouds 23 1019 33 10000 1.5 240 21:37 13.04.2020
4872 Clouds 23 1019 33 10000 1.5 240 21:37 13.04.2020
4873 Clear 23 1019 33 10000 1.5 240 21:19 13.04.2020
4874 Clear 21 1020 43 10000 2.1 240 20:55 13.04.2020
4875 Clear 21 1020 43 10000 2.1 240 20:37 13.04.2020
4876 Clear 21 1020 43 10000 2.1 240 20:18 13.04.2020
4877 Clear 20 1020 43 10000 1.5 310 19:39 13.04.2020
4878 Clear 20 1020 43 10000 1.5 310 19:39 13.04.2020
4879 Clear 18 1021 52 10000 2.1 170 19:20 13.04.2020
4880 Clear 18 1021 52 10000 2.1 170 18:59 13.04.2020
4881 Clear 18 1021 52 10000 2.1 170 18:39 13.04.2020
4882 Clear 17 1021 55 10000 1.1 229 18:20 13.04.2020
4883 Clear 17 1021 55 10000 1.1 229 17:58 13.04.2020
4884 Clear 17 1021 55 10000 1.1 229 17:38 13.04.2020
4885 Clear 17 1021 55 10000 1.1 229 17:20 13.04.2020
4886 Clear 15 1022 62 10000 1.1 229 16:58 13.04.2020
4887 Clear 15 1022 62 10000 1.1 229 16:40 13.04.2020
4888 Clear 15 1022 62 10000 1.1 229 16:21 13.04.2020
4889 Clear 12 1022 81 10000 1.1 229 15:58 13.04.2020
4890 Clear 12 1022 81 10000 1.1 229 15:40 13.04.2020
4891 Clear 12 1022 81 10000 1.21 104 15:21 13.04.2020
4892 Clear 12 1022 62 10000 1.21 104 14:56 13.04.2020
4893 Clear 12 1022 62 10000 1.21 104 14:38 13.04.2020
4894 Clear 12 1022 62 10000 1.21 104 14:38 13.04.2020
4895 Clear 12 1022 62 10000 1.41 94 14:20 13.04.2020
4896 Clear 11 1022 76 10000 3.6 140 13:55 13.04.2020
4897 Clear 11 1022 76 10000 3.6 140 13:37 13.04.2020
4898 Clear 11 1022 76 10000 3.6 140 13:18 13.04.2020
4899 Clear 12 1022 76 10000 3.1 160 12:56 13.04.2020
4900 Clear 12 1022 76 10000 3.1 160 12:38 13.04.2020
4901 Clear 12 1022 76 10000 3.1 160 12:19 13.04.2020
4902 Clear 12 1022 76 10000 3.1 160 11:42 13.04.2020
4903 Clear 12 1022 76 10000 3.1 160 11:19 13.04.2020
4904 Clear 12 1022 81 10000 1 0 10:56 13.04.2020
4905 Clear 12 1022 81 10000 1 0 10:38 13.04.2020
4906 Clear 12 1022 81 10000 1 0 10:19 13.04.2020
4907 Clear 12 1022 87 10000 1 0 09:46 13.04.2020
4908 Clear 12 1021 87 10000 1 0 09:26 13.04.2020
4909 Clear 13 1021 82 10000 1.5 170 08:52 13.04.2020
4910 Clear 13 1021 82 10000 1.5 170 08:52 13.04.2020
4911 Clear 13 1021 82 10000 1.5 170 08:32 13.04.2020
4912 Clear 13 1021 76 10000 1.5 190 07:59 13.04.2020
4913 Clear 11 1021 87 10000 1.5 170 07:41 13.04.2020
4914 Clear 12 1021 81 10000 1.5 250 07:20 13.04.2020
4915 Clear 12 1021 81 10000 1.5 250 06:47 13.04.2020
4916 Clear 12 1021 81 10000 1.5 250 06:25 13.04.2020
4917 Clouds 13 1021 82 10000 3.6 160 05:32 13.04.2020
4918 Clouds 14 1021 76 10000 3.6 140 04:53 13.04.2020
4919 Clouds 14 1021 76 10000 3.6 140 04:24 13.04.2020
4920 Clear 14 1020 76 10000 3.1 120 03:47 13.04.2020
4921 Rain 15 1020 72 10000 4.6 190 02:59 13.04.2020
4922 Rain 15 1020 72 10000 4.6 190 02:37 13.04.2020
4923 Rain 16 1019 72 10000 6.2 210 01:43 13.04.2020
4924 Clouds 18 1019 59 10000 2.1 260 01:25 13.04.2020
4925 Clouds 19 1019 59 10000 2.1 260 00:42 13.04.2020
4926 Clouds 19 1019 59 10000 2.1 260 00:21 13.04.2020
4927 Clouds 18 1019 59 10000 1 0 23:48 12.04.2020
4928 Clouds 18 1019 59 10000 1 0 23:23 12.04.2020
4929 Clouds 18 1019 59 10000 2.6 240 22:59 12.04.2020
4930 Clouds 18 1019 59 10000 2.6 240 22:37 12.04.2020
4931 Clouds 18 1019 59 10000 2.6 240 22:19 12.04.2020
4932 Clouds 18 1019 59 10000 2.6 240 22:19 12.04.2020
4933 Clouds 18 1019 68 10000 2.1 0 21:41 12.04.2020
4934 Clouds 18 1019 68 10000 2.1 0 21:22 12.04.2020
4935 Clouds 16 1019 77 10000 2.6 340 20:59 12.04.2020
4936 Clouds 16 1019 77 10000 2.6 340 20:40 12.04.2020
4937 Clouds 16 1019 77 10000 2.6 340 20:22 12.04.2020
4938 Clouds 14 1020 87 8000 3.1 50 19:56 12.04.2020
4939 Clouds 15 1020 87 8000 3.1 50 19:37 12.04.2020
4940 Clouds 14 1020 87 6000 1 0 19:18 12.04.2020
4941 Clouds 14 1020 87 6000 1 0 18:41 12.04.2020
4942 Clouds 14 1020 82 6000 2.6 0 18:22 12.04.2020
4943 Clouds 14 1020 82 6000 2.6 0 17:57 12.04.2020
4944 Clouds 14 1020 82 6000 2.6 0 17:38 12.04.2020
4945 Clouds 14 1020 82 6000 2.6 0 17:38 12.04.2020
4946 Clouds 14 1020 82 6000 2.6 0 17:20 12.04.2020
4947 Rain 14 1019 82 7000 2.1 0 16:57 12.04.2020
4948 Rain 14 1019 82 7000 2.1 0 16:38 12.04.2020
4949 Rain 14 1019 82 7000 2.1 0 16:19 12.04.2020
4950 Clouds 14 1018 76 10000 2.6 300 15:45 12.04.2020
4951 Clouds 14 1018 76 10000 2.6 300 15:27 12.04.2020
4952 Clouds 14 1018 76 7000 2.6 0 14:41 12.04.2020
4953 Clouds 14 1018 76 7000 2.6 0 14:22 12.04.2020
4954 Clouds 13 1017 82 10000 1.5 0 13:59 12.04.2020
4955 Rain 13 1017 82 10000 1.5 160 13:40 12.04.2020
4956 Rain 13 1017 82 10000 1.5 160 13:22 12.04.2020
4957 Rain 13 1017 82 10000 5.1 0 12:48 12.04.2020
4958 Rain 13 1017 82 10000 5.1 0 12:23 12.04.2020
4959 Clouds 13 1017 82 10000 3.1 180 11:59 12.04.2020
4960 Clouds 13 1017 82 10000 3.1 180 11:40 12.04.2020
4961 Clouds 13 1017 82 10000 3.1 180 11:21 12.04.2020
4962 Clouds 13 1016 82 10000 2.1 130 10:58 12.04.2020
4963 Clouds 13 1017 82 10000 3.1 150 10:39 12.04.2020
4964 Clouds 13 1017 82 10000 3.1 150 10:21 12.04.2020
4965 Clouds 13 1017 82 10000 3.1 150 10:21 12.04.2020
4966 Clouds 13 1016 82 10000 2.6 150 09:59 12.04.2020
4967 Clouds 14 1016 76 10000 2.1 150 09:39 12.04.2020
4968 Clouds 14 1016 76 10000 2.1 150 09:20 12.04.2020
4969 Clouds 14 1017 76 10000 1.5 200 08:51 12.04.2020
4970 Clouds 14 1016 76 10000 1.5 230 08:33 12.04.2020
4971 Clouds 15 1017 72 10000 3.1 180 07:57 12.04.2020
4972 Clouds 15 1017 72 10000 3.1 180 07:39 12.04.2020
4973 Clouds 15 1017 72 10000 2.6 140 07:18 12.04.2020
4974 Clouds 15 1017 72 10000 2.6 140 06:32 12.04.2020
4975 Clouds 15 1017 72 10000 2.6 140 05:49 12.04.2020
4976 Clouds 15 1017 72 10000 2.6 140 05:27 12.04.2020
4977 Clouds 16 1017 67 10000 2.6 170 03:32 12.04.2020
4978 Clouds 17 1017 67 10000 4.6 170 02:51 12.04.2020
4979 Clouds 17 1017 67 10000 4.6 170 02:30 12.04.2020
4980 Clouds 19 1018 59 6000 1.5 240 01:33 12.04.2020
4981 Clouds 19 1018 59 6000 1.5 240 00:56 12.04.2020
4982 Clouds 19 1018 59 6000 1.5 240 00:38 12.04.2020
4983 Clouds 19 1018 59 6000 1.5 240 00:19 12.04.2020
4984 Clouds 19 1018 59 6000 1.5 240 23:45 11.04.2020
4985 Clouds 19 1018 59 6000 1.5 240 23:23 11.04.2020
4986 Clouds 20 1017 56 7000 2.6 240 22:41 11.04.2020
4987 Clouds 20 1017 56 7000 2.6 240 22:22 11.04.2020
4988 Clouds 20 1017 56 6000 0.5 240 21:57 11.04.2020
4989 Clouds 20 1017 56 6000 0.5 240 21:37 11.04.2020
4990 Clouds 20 1017 56 6000 0.5 240 21:18 11.04.2020
4991 Clouds 20 1017 56 6000 0.5 240 21:18 11.04.2020
4992 Clouds 20 1017 56 6000 1.5 240 20:57 11.04.2020
4993 Clouds 20 1017 56 6000 1.5 240 20:38 11.04.2020
4994 Clouds 21 1017 56 6000 1.5 240 20:20 11.04.2020
4995 Clouds 20 1018 59 7000 2.1 240 19:58 11.04.2020
4996 Clouds 19 1018 59 7000 2.1 240 19:38 11.04.2020
4997 Clouds 19 1018 59 7000 1 330 19:19 11.04.2020
4998 Clouds 19 1018 59 7000 2.1 240 19:19 11.04.2020
4999 Clouds 19 1018 59 7000 1 330 18:56 11.04.2020
5000 Clouds 19 1018 59 7000 1 330 18:37 11.04.2020
5001 Clouds 18 1018 63 6000 1 210 18:19 11.04.2020
5002 Clouds 18 1018 63 6000 1 210 17:58 11.04.2020
5003 Clouds 18 1018 63 6000 1 210 17:40 11.04.2020
5004 Clouds 18 1018 63 6000 1 210 17:19 11.04.2020
5005 Clouds 16 1018 72 6000 1 210 16:43 11.04.2020
5006 Clouds 16 1018 72 6000 1 210 16:22 11.04.2020
5007 Clouds 14 1017 76 6000 2.22 260 15:56 11.04.2020
5008 Clouds 14 1017 76 6000 2.22 260 15:36 11.04.2020
5009 Clouds 14 1017 76 6000 0.77 250 15:18 11.04.2020
5010 Clouds 12 1017 87 6000 0.5 240 14:42 11.04.2020
5011 Clouds 12 1017 87 6000 0.5 240 14:42 11.04.2020
5012 Clouds 12 1017 87 6000 0.5 240 14:23 11.04.2020
5013 Mist 9 1016 93 4700 1 30 13:58 11.04.2020
5014 Mist 11 1016 93 4700 1 30 13:38 11.04.2020
5015 Mist 11 1016 93 4700 1 30 13:18 11.04.2020
5016 Clouds 11 1016 93 9000 1 0 12:41 11.04.2020
5017 Clouds 10 1016 93 9000 1 0 12:18 11.04.2020
5018 Clouds 11 1016 93 9000 0.5 0 11:56 11.04.2020
5019 Clouds 11 1016 93 9000 0.5 0 11:38 11.04.2020
5020 Clouds 11 1016 93 9000 0.5 0 11:18 11.04.2020
5021 Clouds 12 1016 87 9000 2.6 160 10:43 11.04.2020
5022 Clouds 12 1016 87 9000 2.6 160 10:43 11.04.2020
5023 Clouds 12 1016 87 9000 2.6 160 10:22 11.04.2020
5024 Clouds 12 1016 87 10000 2.6 170 09:59 11.04.2020
5025 Clouds 12 1016 87 10000 2.6 170 09:39 11.04.2020
5026 Clouds 12 1016 87 10000 2.6 170 09:39 11.04.2020
5027 Clouds 12 1016 87 10000 2.6 170 09:21 11.04.2020
5028 Clouds 13 1016 82 10000 2.1 160 08:47 11.04.2020
5029 Clouds 13 1016 82 10000 2.1 160 08:28 11.04.2020
5030 Clouds 13 1015 82 10000 2.6 140 07:52 11.04.2020
5031 Clouds 13 1015 82 10000 2.6 140 07:34 11.04.2020
5032 Clouds 13 1016 82 10000 3.1 150 06:50 11.04.2020
5033 Clouds 13 1015 82 10000 3.6 160 06:20 11.04.2020
5034 Clouds 14 1015 82 10000 3.1 160 05:55 11.04.2020
5035 Clouds 16 1015 72 10000 3.1 150 03:41 11.04.2020
5036 Clear 17 1015 67 10000 3.1 170 02:24 11.04.2020
5037 Clear 19 1015 52 7000 2.6 240 01:24 11.04.2020
5038 Clear 20 1015 52 7000 2.6 240 00:44 11.04.2020
5039 Clear 20 1015 52 7000 2.6 240 00:20 11.04.2020
5040 Clear 21 1015 49 7000 2.6 230 23:58 10.04.2020
5041 Clear 21 1015 49 7000 2.6 230 23:39 10.04.2020
5042 Clear 22 1015 49 7000 2.6 230 23:19 10.04.2020
5043 Haze 22 1015 49 5000 2.6 230 22:44 10.04.2020
5044 Haze 22 1015 49 5000 2.6 230 22:22 10.04.2020
5045 Haze 22 1015 49 5000 2.6 230 22:22 10.04.2020
5046 Haze 22 1015 49 5000 2.6 240 21:58 10.04.2020
5047 Haze 22 1015 49 5000 2.6 240 21:40 10.04.2020
5048 Haze 23 1015 49 5000 2.6 240 21:20 10.04.2020
5049 Haze 21 1015 59 5000 2.1 250 20:55 10.04.2020
5050 Haze 21 1015 59 5000 2.1 250 20:37 10.04.2020
5051 Haze 20 1016 59 5000 2.6 220 20:18 10.04.2020
5052 Haze 20 1016 59 5000 2.6 220 19:41 10.04.2020
5053 Haze 18 1016 63 5000 2.1 210 19:21 10.04.2020
5054 Haze 18 1016 63 5000 2.1 210 18:58 10.04.2020
5055 Haze 18 1016 63 5000 2.1 210 18:40 10.04.2020
5056 Haze 18 1016 63 5000 2.1 210 18:40 10.04.2020
5057 Haze 18 1016 63 5000 2.1 210 18:22 10.04.2020
5058 Haze 17 1017 72 5000 2.1 200 17:59 10.04.2020
5059 Haze 17 1017 72 5000 2.1 200 17:40 10.04.2020
5060 Haze 17 1017 72 5000 2.1 200 17:40 10.04.2020
5061 Haze 16 1017 72 5000 2.1 200 17:21 10.04.2020
5062 Mist 15 1017 82 4000 2.46 262 16:57 10.04.2020
5063 Mist 15 1017 82 4000 2.46 262 16:57 10.04.2020
5064 Mist 15 1017 82 4000 2.46 262 16:38 10.04.2020
5065 Mist 14 1017 82 4000 2.46 262 16:20 10.04.2020
5066 Mist 13 1017 93 4000 2.46 262 15:57 10.04.2020
5067 Mist 13 1017 93 4000 2.46 262 15:38 10.04.2020
5068 Mist 12 1017 93 4000 0.42 280 15:19 10.04.2020
5069 Mist 12 1016 93 4000 0.42 280 14:58 10.04.2020
5070 Mist 12 1016 93 4000 0.53 270 14:39 10.04.2020
5071 Mist 12 1016 93 4000 0.53 270 14:19 10.04.2020
5072 Mist 12 1015 87 5000 2.1 160 13:43 10.04.2020
5073 Mist 11 1015 87 5000 2.1 160 13:22 10.04.2020
5074 Mist 11 1015 93 5000 2.6 150 12:44 10.04.2020
5075 Mist 11 1015 93 5000 2.6 150 12:24 10.04.2020
5076 Mist 11 1015 93 5000 3.1 160 11:58 10.04.2020
5077 Mist 11 1015 93 5000 3.1 160 11:40 10.04.2020
5078 Mist 11 1015 93 5000 3.1 160 11:22 10.04.2020
5079 Mist 11 1015 93 5000 3.1 160 10:47 10.04.2020
5080 Mist 11 1015 93 5000 3.1 160 10:47 10.04.2020
5081 Mist 11 1015 93 5000 3.1 160 10:24 10.04.2020
5082 Mist 11 1015 87 5000 4.6 150 09:59 10.04.2020
5083 Mist 11 1015 87 5000 4.6 150 09:40 10.04.2020
5084 Mist 11 1015 87 5000 4.6 150 09:20 10.04.2020
5085 Clear 11 1015 93 9000 4.1 160 08:44 10.04.2020
5086 Clear 11 1015 93 9000 4.1 160 08:24 10.04.2020
5087 Clear 12 1015 87 10000 3.6 160 07:49 10.04.2020
5088 Clear 12 1015 87 10000 3.6 160 07:28 10.04.2020
5089 Clear 13 1015 82 10000 3.6 180 06:59 10.04.2020
5090 Clear 13 1015 82 10000 3.6 180 06:30 10.04.2020
5091 Clear 13 1015 82 10000 3.6 180 06:30 10.04.2020
5092 Clear 13 1015 82 10000 3.1 160 05:56 10.04.2020
5093 Clear 13 1015 82 10000 3.1 160 05:19 10.04.2020
5094 Clear 15 1015 72 10000 4.6 170 03:55 10.04.2020
5095 Clear 15 1015 72 10000 4.6 170 03:32 10.04.2020
5096 Clear 15 1015 72 10000 4.6 170 03:32 10.04.2020
5097 Clear 17 1015 67 10000 4.1 150 02:50 10.04.2020
5098 Clear 17 1015 67 10000 4.1 150 02:31 10.04.2020
5099 Clouds 20 1016 46 7000 2.1 240 01:30 10.04.2020
5100 Clouds 21 1016 46 7000 2.1 240 00:55 10.04.2020
5101 Clouds 21 1016 46 7000 2.1 240 00:37 10.04.2020
5102 Haze 22 1016 43 4000 2.6 240 00:18 10.04.2020
5103 Haze 22 1016 43 4000 2.6 240 23:41 09.04.2020
5104 Haze 22 1016 43 4000 2.6 240 23:20 09.04.2020
5105 Haze 23 1016 44 4000 3.1 240 22:54 09.04.2020
5106 Haze 23 1016 44 4000 3.1 240 22:36 09.04.2020
5107 Haze 23 1016 46 4000 3.1 240 22:18 09.04.2020
5108 Haze 23 1016 46 4000 3.1 240 21:38 09.04.2020
5109 Haze 23 1016 46 4000 3.1 240 21:19 09.04.2020
5110 Haze 23 1016 46 4000 2.6 260 20:45 09.04.2020
5111 Haze 23 1016 46 4000 2.6 260 20:22 09.04.2020
5112 Haze 21 1016 49 4000 1.5 210 19:58 09.04.2020
5113 Haze 22 1016 49 4000 1.5 210 19:38 09.04.2020
5114 Haze 20 1017 55 4000 2.1 240 19:19 09.04.2020
5115 Haze 20 1017 55 4000 2.1 240 18:42 09.04.2020
5116 Haze 20 1017 55 4000 2.1 240 18:20 09.04.2020
5117 Haze 18 1017 67 4000 1.5 260 17:43 09.04.2020
5118 Haze 17 1017 67 4000 1.5 260 17:24 09.04.2020
5119 Haze 15 1017 76 3000 1.5 300 16:58 09.04.2020
5120 Haze 15 1017 76 3000 1.5 300 16:39 09.04.2020
5121 Haze 15 1017 76 3000 1.5 300 16:19 09.04.2020
5122 Haze 14 1017 87 3000 2.64 260 15:55 09.04.2020
5123 Haze 13 1017 87 3000 2.64 260 15:37 09.04.2020
5124 Haze 13 1017 87 3000 2.64 260 15:37 09.04.2020
5125 Haze 13 1017 87 3000 0.25 99 15:18 09.04.2020
5126 Haze 13 1017 82 3000 0.25 99 14:42 09.04.2020
5127 Haze 13 1017 82 3000 0.26 107 14:21 09.04.2020
5128 Clouds 12 1016 93 6000 1.5 180 13:56 09.04.2020
5129 Clouds 11 1016 93 6000 1.5 180 13:38 09.04.2020
5130 Clouds 11 1016 93 7000 2.6 150 13:19 09.04.2020
5131 Clouds 12 1016 93 7000 2.6 150 12:42 09.04.2020
5132 Clouds 12 1016 93 7000 2.6 150 12:23 09.04.2020
5133 Clouds 12 1016 93 7000 4.1 180 11:59 09.04.2020
5134 Clouds 11 1016 93 7000 4.1 180 11:40 09.04.2020
5135 Clouds 12 1016 93 7000 4.1 180 11:20 09.04.2020
5136 Clouds 12 1016 93 7000 3.6 160 10:57 09.04.2020
5137 Clouds 12 1016 93 7000 3.6 160 10:38 09.04.2020
5138 Clouds 12 1016 93 7000 3.6 160 10:19 09.04.2020
5139 Clouds 11 1016 100 7000 4.1 160 09:55 09.04.2020
5140 Clouds 12 1016 93 9000 3.1 160 09:37 09.04.2020
5141 Clouds 12 1016 93 9000 3.1 160 09:37 09.04.2020
5142 Clear 12 1016 93 9000 3.1 160 09:19 09.04.2020
5143 Clear 12 1016 87 10000 3.6 160 08:43 09.04.2020
5144 Clear 12 1016 87 10000 3.6 160 08:23 09.04.2020
5145 Clear 12 1016 87 10000 3.6 160 08:23 09.04.2020
5146 Clear 12 1016 87 10000 3.1 160 07:55 09.04.2020
5147 Clear 12 1016 87 10000 3.1 160 07:24 09.04.2020
5148 Clear 13 1016 82 10000 3.6 160 06:52 09.04.2020
5149 Clear 13 1016 87 10000 4.6 160 05:59 09.04.2020
5150 Clear 13 1016 87 10000 4.6 160 05:38 09.04.2020
5151 Clear 15 1015 77 10000 4.6 160 03:36 09.04.2020
5152 Rain 17 1015 67 10000 5.7 160 02:21 09.04.2020
5153 Rain 20 1015 49 10000 2.6 240 01:40 09.04.2020
5154 Rain 21 1015 49 10000 2.6 240 01:20 09.04.2020
5155 Rain 21 1015 49 10000 2.6 240 00:40 09.04.2020
5156 Rain 22 1015 35 10000 3.1 230 00:19 09.04.2020
5157 Rain 22 1015 35 10000 3.1 230 23:56 08.04.2020
5158 Rain 23 1015 35 10000 3.1 230 23:37 08.04.2020
5159 Rain 23 1015 35 10000 3.1 230 23:19 08.04.2020
5160 Clouds 24 1015 36 10000 3.6 240 22:42 08.04.2020
5161 Rain 25 1015 31 10000 3.6 230 22:23 08.04.2020
5162 Rain 26 1015 31 10000 3.6 230 21:56 08.04.2020
5163 Clear 25 1015 31 10000 3.6 230 21:37 08.04.2020
5164 Clear 25 1015 31 10000 3.6 230 21:37 08.04.2020
5165 Clear 26 1015 31 10000 3.6 230 21:19 08.04.2020
5166 Clear 26 1015 27 10000 3.1 240 20:56 08.04.2020
5167 Clear 26 1015 27 10000 3.1 240 20:38 08.04.2020
5168 Clear 26 1015 27 10000 3.1 240 20:19 08.04.2020
5169 Clouds 26 1015 25 10000 2.6 270 19:41 08.04.2020
5170 Clouds 26 1015 25 10000 2.6 230 19:22 08.04.2020
5171 Clouds 25 1015 25 10000 2.6 230 18:56 08.04.2020
5172 Clouds 25 1015 25 10000 2.6 230 18:37 08.04.2020
5173 Clouds 23 1015 30 10000 1.5 260 18:19 08.04.2020
5174 Clouds 23 1015 30 10000 1.5 260 17:42 08.04.2020
5175 Clouds 23 1015 30 10000 1.5 260 17:22 08.04.2020
5176 Clear 21 1015 32 10000 0.5 210 16:57 08.04.2020
5177 Clear 21 1015 32 10000 0.5 210 16:39 08.04.2020
5178 Clear 16 1015 39 10000 2.66 259 16:20 08.04.2020
5179 Clear 16 1014 58 10000 1 50 15:39 08.04.2020
5180 Clear 16 1014 58 10000 1 50 15:39 08.04.2020
5181 Clear 13 1014 58 10000 1 50 15:21 08.04.2020
5182 Clear 13 1014 58 10000 1 50 14:59 08.04.2020
5183 Clear 14 1014 58 10000 1 50 14:40 08.04.2020
5184 Clear 12 1014 58 10000 1 50 14:22 08.04.2020
5185 Clear 13 1013 57 10000 1.5 350 13:44 08.04.2020
5186 Clear 12 1013 57 10000 1.5 350 13:21 08.04.2020
5187 Clear 13 1013 53 10000 0.27 13 12:58 08.04.2020
5188 Clear 13 1013 53 10000 0.27 13 12:58 08.04.2020
5189 Clear 13 1013 53 10000 0.27 13 12:39 08.04.2020
5190 Clear 11 1013 57 10000 0.28 21 12:18 08.04.2020
5191 Clear 11 1013 57 10000 0.28 21 11:42 08.04.2020
5192 Clear 11 1013 57 10000 0.28 21 11:23 08.04.2020
5193 Clear 11 1013 57 10000 0.28 21 10:58 08.04.2020
5194 Clear 12 1012 58 10000 1.5 290 10:39 08.04.2020
5195 Clear 12 1012 58 10000 1.5 290 10:21 08.04.2020
5196 Clear 13 1012 54 10000 1.5 340 09:57 08.04.2020
5197 Clear 14 1013 54 10000 1.5 140 09:39 08.04.2020
5198 Clear 14 1013 54 10000 1.5 140 09:18 08.04.2020
5199 Clear 14 1013 54 10000 1.5 140 09:18 08.04.2020
5200 Clear 14 1013 54 10000 1.5 140 09:18 08.04.2020
5201 Clear 15 1013 51 10000 2.1 170 08:56 08.04.2020
5202 Clear 15 1013 51 10000 2.1 170 08:38 08.04.2020
5203 Clear 15 1013 51 10000 2.1 170 08:20 08.04.2020
5204 Clear 16 1013 44 10000 2.6 150 07:42 08.04.2020
5205 Clear 16 1013 44 10000 2.6 150 07:20 08.04.2020
5206 Clear 17 1013 36 10000 2.6 160 06:23 08.04.2020
5207 Clear 19 1013 32 10000 3.1 160 04:54 08.04.2020
5208 Clouds 23 1012 25 10000 5.1 150 02:50 08.04.2020
5209 Clouds 23 1012 25 10000 5.1 150 02:21 08.04.2020
5210 Clouds 25 1012 23 10000 3.1 180 01:56 08.04.2020
5211 Clouds 27 1013 16 10000 2.1 250 01:27 08.04.2020
5212 Clouds 27 1013 16 10000 2.1 250 01:27 08.04.2020
5213 Clouds 28 1013 16 10000 2.1 250 00:44 08.04.2020
5214 Clouds 28 1013 16 10000 2.1 250 00:23 08.04.2020
5215 Clouds 30 1013 15 10000 3.1 240 23:40 07.04.2020
5216 Clouds 30 1013 15 10000 3.1 240 23:22 07.04.2020
5217 Clouds 30 1013 19 10000 3.1 210 22:59 07.04.2020
5218 Clouds 30 1013 19 10000 3.1 210 22:40 07.04.2020
5219 Clouds 30 1013 19 10000 3.1 210 22:21 07.04.2020
5220 Rain 30 1013 20 10000 2.6 240 21:59 07.04.2020
5221 Rain 30 1013 20 10000 2.6 240 21:41 07.04.2020
5222 Rain 30 1013 20 10000 2.6 240 21:21 07.04.2020
5223 Rain 30 1013 20 10000 2.6 240 21:21 07.04.2020
5224 Clouds 30 1013 22 10000 1.5 0 20:58 07.04.2020
5225 Clouds 31 1013 22 10000 1.5 0 20:39 07.04.2020
5226 Clouds 31 1013 22 10000 1.5 0 20:21 07.04.2020
5227 Clouds 30 1013 20 10000 2.6 270 19:57 07.04.2020
5228 Clouds 30 1013 20 10000 2.6 270 19:37 07.04.2020
5229 Clouds 30 1013 20 10000 2.6 270 19:19 07.04.2020
5230 Clouds 28 1014 24 10000 1.5 0 18:57 07.04.2020
5231 Clouds 28 1014 24 10000 1.5 0 18:39 07.04.2020
5232 Clouds 28 1014 24 10000 1.5 0 18:19 07.04.2020
5233 Clouds 26 1014 25 10000 1 0 17:45 07.04.2020
5234 Clouds 24 1014 25 10000 1 0 17:24 07.04.2020
5235 Clear 24 1014 33 10000 2.27 268 16:48 07.04.2020
5236 Clear 23 1014 33 10000 2.27 268 16:29 07.04.2020
5237 Clear 20 1014 39 10000 2.27 268 15:59 07.04.2020
5238 Clear 22 1014 39 10000 2.27 268 15:41 07.04.2020
5239 Clear 13 1014 58 10000 1 70 15:23 07.04.2020
5240 Clear 13 1014 58 10000 1 70 15:23 07.04.2020
5241 Clear 13 1014 58 10000 1 70 14:42 07.04.2020
5242 Clear 13 1014 58 10000 1 70 14:23 07.04.2020
5243 Clear 14 1012 57 10000 1 30 13:57 07.04.2020
5244 Clear 14 1012 57 10000 1 30 13:39 07.04.2020
5245 Clear 14 1012 57 10000 1 30 13:18 07.04.2020
5246 Clear 13 1012 62 10000 1 30 12:56 07.04.2020
5247 Clear 13 1012 57 9000 1.5 30 12:37 07.04.2020
5248 Clear 11 1012 57 9000 1.5 30 12:18 07.04.2020
5249 Clear 12 1012 62 10000 1 0 11:44 07.04.2020
5250 Clear 12 1012 62 10000 1 0 11:26 07.04.2020
5251 Clear 13 1012 54 10000 0.36 65 10:59 07.04.2020
5252 Clear 13 1012 54 10000 0.36 65 10:38 07.04.2020
5253 Clear 13 1012 54 10000 0.36 65 10:19 07.04.2020
5254 Clear 13 1012 50 10000 0.36 65 09:46 07.04.2020
5255 Clear 13 1012 50 10000 0.35 80 09:20 07.04.2020
5256 Clear 14 1013 47 10000 0.35 80 08:59 07.04.2020
5257 Clear 14 1013 47 10000 0.35 80 08:39 07.04.2020
5258 Clear 14 1013 47 10000 0.35 80 08:19 07.04.2020
5259 Clear 15 1013 44 10000 1.5 360 07:44 07.04.2020
5260 Clear 15 1013 44 10000 1.5 360 07:26 07.04.2020
5261 Clear 15 1013 44 10000 2.1 360 06:52 07.04.2020
5262 Clear 16 1014 44 10000 0.16 52 06:25 07.04.2020
5263 Clear 18 1014 39 10000 0.16 52 05:48 07.04.2020
5264 Clear 18 1014 39 10000 0.16 52 05:23 07.04.2020
5265 Clear 22 1014 30 10000 3.6 150 03:34 07.04.2020
5266 Clear 23 1014 27 10000 3.1 140 02:59 07.04.2020
5267 Clear 23 1014 27 10000 3.1 140 02:35 07.04.2020
5268 Clear 27 1015 24 10000 3.1 240 01:34 07.04.2020
5269 Clear 27 1015 24 10000 3.1 240 00:52 07.04.2020
5270 Clear 27 1015 24 10000 3.1 240 00:25 07.04.2020
5271 Clear 28 1015 21 10000 3.1 230 23:40 06.04.2020
5272 Clear 29 1015 21 10000 3.1 230 23:21 06.04.2020
5273 Clear 29 1015 21 10000 2.6 190 22:42 06.04.2020
5274 Clear 29 1015 21 10000 2.6 190 22:23 06.04.2020
5275 Clear 29 1015 21 10000 2.6 240 21:59 06.04.2020
5276 Clear 29 1015 21 10000 2.6 240 21:41 06.04.2020
5277 Clear 29 1015 21 10000 2.6 240 21:19 06.04.2020
5278 Clear 28 1016 23 10000 1.5 210 20:56 06.04.2020
5279 Clear 28 1016 23 10000 1.5 210 20:38 06.04.2020
5280 Clear 29 1016 23 10000 1.5 210 20:20 06.04.2020
5281 Clear 27 1016 27 10000 1.5 220 19:56 06.04.2020
5282 Clear 27 1016 27 10000 1.5 220 19:38 06.04.2020
5283 Clear 26 1017 31 10000 1 190 19:19 06.04.2020
5284 Clear 26 1017 31 10000 1 190 19:19 06.04.2020
5285 Clear 26 1017 31 10000 1 190 18:42 06.04.2020
5286 Clear 26 1017 31 10000 1 190 18:23 06.04.2020
5287 Clear 24 1017 35 10000 1.5 250 17:57 06.04.2020
5288 Clear 24 1017 35 10000 1.5 250 17:39 06.04.2020
5289 Clear 22 1017 35 10000 1.5 250 17:18 06.04.2020
5290 Clear 19 1017 42 10000 1 250 16:48 06.04.2020
5291 Clear 19 1017 42 10000 1 250 16:30 06.04.2020
5292 Clear 10 1017 81 10000 1.12 78 14:47 06.04.2020
5293 Clear 10 1017 81 10000 1.12 78 14:47 06.04.2020
5294 Clear 10 1017 81 10000 1.12 78 14:47 06.04.2020
5295 Clear 10 1017 81 10000 1.12 78 14:47 06.04.2020
5296 Clear 10 1017 81 10000 1.12 78 14:47 06.04.2020
5297 Clear 12 1017 71 10000 0.83 78 13:44 06.04.2020
5298 Clear 12 1017 71 10000 0.83 78 13:22 06.04.2020
5299 Clear 12 1017 71 10000 0.83 78 13:22 06.04.2020
5300 Clear 12 1016 66 10000 0.5 0 12:46 06.04.2020
5301 Clear 12 1016 66 10000 0.5 0 12:46 06.04.2020
5302 Clear 12 1016 66 10000 0.5 0 12:46 06.04.2020
5303 Clear 12 1016 66 10000 0.5 0 12:46 06.04.2020
5304 Clear 12 1016 66 10000 0.5 0 12:46 06.04.2020
5305 Clear 11 1016 66 10000 0.5 0 12:19 06.04.2020
5306 Clear 12 1016 58 10000 0.5 0 11:40 06.04.2020
5307 Clear 11 1017 62 10000 0.81 71 10:56 06.04.2020
5308 Clear 11 1017 62 10000 0.81 71 10:56 06.04.2020
5309 Clear 11 1017 62 10000 0.81 71 10:56 06.04.2020
5310 Clear 11 1017 62 10000 0.81 71 10:37 06.04.2020
5311 Clear 11 1017 62 10000 0.81 71 10:19 06.04.2020
5312 Clear 11 1017 62 10000 0.81 71 10:19 06.04.2020
5313 Clear 11 1017 62 10000 0.81 71 10:19 06.04.2020
5314 Clear 11 1017 62 10000 0.81 71 10:19 06.04.2020
5315 Clear 11 1017 62 10000 0.81 71 10:19 06.04.2020
5316 Clear 12 1017 58 10000 1.5 50 09:39 06.04.2020
5317 Clear 12 1017 58 10000 1.5 50 09:39 06.04.2020
5318 Clear 12 1017 58 10000 1.5 50 09:39 06.04.2020
5319 Clear 12 1017 58 10000 1.5 50 09:39 06.04.2020
5320 Clear 12 1017 58 10000 1.5 50 09:39 06.04.2020
5321 Clear 12 1017 58 10000 1.5 50 09:19 06.04.2020
5322 Clear 13 1018 54 10000 0.5 0 08:43 06.04.2020
5323 Clear 13 1018 54 10000 0.5 0 08:43 06.04.2020
5324 Clear 13 1018 54 10000 0.5 0 08:43 06.04.2020
5325 Clear 13 1018 54 10000 0.5 0 08:43 06.04.2020
5326 Clear 13 1018 54 10000 0.5 0 08:43 06.04.2020
5327 Clear 15 1018 44 10000 3.1 180 07:59 06.04.2020
5328 Clear 15 1018 44 10000 3.1 180 07:59 06.04.2020
5329 Clear 15 1018 44 10000 3.1 180 07:20 06.04.2020
5330 Clear 16 1018 48 10000 1.5 190 06:26 06.04.2020
5331 Clear 16 1018 55 10000 0.25 259 05:44 06.04.2020
5332 Clear 16 1018 55 10000 0.25 259 05:43 06.04.2020
5333 Clear 16 1018 55 10000 0.25 259 05:43 06.04.2020
5334 Clear 19 1017 45 10000 3.1 140 03:35 06.04.2020
5335 Clouds 20 1017 40 10000 4.1 170 02:51 06.04.2020
5336 Clear 21 1016 37 10000 6.2 200 01:54 06.04.2020
5337 Clear 22 1017 46 10000 3.1 230 00:54 06.04.2020
5338 Clear 23 1017 46 10000 3.1 230 00:27 06.04.2020
5339 Clear 25 1017 38 10000 2.6 250 23:51 05.04.2020
5340 Clear 25 1017 38 10000 2.6 250 23:33 05.04.2020
5341 Clear 26 1017 36 10000 3.1 230 22:57 05.04.2020
5342 Clear 26 1017 36 10000 3.1 230 22:39 05.04.2020
5343 Clear 26 1017 36 10000 3.1 230 22:21 05.04.2020
5344 Clear 25 1017 29 10000 2.1 200 21:59 05.04.2020
5345 Clear 25 1017 29 10000 2.1 200 21:40 05.04.2020
5346 Clear 25 1017 29 10000 2.1 200 21:40 05.04.2020
5347 Clear 26 1017 29 10000 2.1 200 21:22 05.04.2020
5348 Clear 25 1017 31 10000 3.1 250 20:22 05.04.2020
5349 Clear 25 1017 31 10000 3.1 250 20:22 05.04.2020
5350 Clear 24 1017 33 10000 3.1 250 19:42 05.04.2020
5351 Clear 24 1017 33 10000 3.1 250 19:22 05.04.2020
5352 Clear 22 1017 37 10000 2.1 270 18:47 05.04.2020
5353 Clear 22 1017 37 10000 2.1 270 18:18 05.04.2020
5354 Clear 19 1017 45 10000 3.13 261 17:41 05.04.2020
5355 Clear 19 1017 45 10000 3.13 261 17:41 05.04.2020
5356 Clear 19 1017 45 10000 3.13 261 17:41 05.04.2020
5357 Clear 19 1017 45 10000 3.13 261 17:20 05.04.2020
5358 Clear 19 1017 45 10000 1.5 270 16:47 05.04.2020
5359 Clear 19 1017 45 10000 1.5 270 16:47 05.04.2020
5360 Clear 17 1017 45 10000 1.5 270 16:18 05.04.2020
5361 Clear 15 1016 55 10000 1 20 15:45 05.04.2020
5362 Clear 15 1016 55 10000 1 20 15:25 05.04.2020
5363 Clouds 13 1016 67 10000 1.5 50 14:48 05.04.2020
5364 Clouds 13 1016 67 10000 1.5 50 14:48 05.04.2020
5365 Clouds 13 1016 67 10000 1.5 50 14:48 05.04.2020
5366 Clouds 13 1016 67 10000 1.5 50 14:48 05.04.2020
5367 Clouds 10 1015 93 8000 1.5 240 13:58 05.04.2020
5368 Clouds 13 1015 93 8000 1.5 240 13:37 05.04.2020
5369 Clouds 13 1015 93 8000 1.5 240 13:35 05.04.2020
5370 Clouds 13 1015 93 8000 1.5 240 13:34 05.04.2020
5371 Clouds 13 1015 93 8000 1.5 240 13:31 05.04.2020
5372 Clouds 12 1015 93 8000 1.5 240 13:25 05.04.2020
5373 Clouds 12 1013 81 10000 0.5 0 11:58 05.04.2020
5374 Clouds 12 1013 81 10000 0.5 0 11:39 05.04.2020
5375 Clouds 12 1013 81 10000 0.5 0 11:19 05.04.2020
5376 Clouds 12 1013 81 10000 0.5 210 10:46 05.04.2020
5377 Clouds 12 1013 81 10000 0.5 210 10:46 05.04.2020
5378 Clouds 12 1013 81 10000 0.5 210 10:22 05.04.2020
5379 Clouds 13 1013 82 10000 2.1 140 09:52 05.04.2020
5380 Clouds 13 1013 82 10000 2.1 140 09:52 05.04.2020
5381 Clouds 13 1013 82 10000 2.1 140 09:25 05.04.2020
5382 Clouds 13 1013 82 10000 2.1 140 09:25 05.04.2020
5383 Clouds 13 1013 82 10000 2.1 140 09:25 05.04.2020
5384 Clouds 13 1013 82 10000 2.1 140 09:25 05.04.2020
5385 Clouds 13 1013 82 10000 2.1 140 09:25 05.04.2020
5386 Clouds 14 1013 76 10000 2.6 170 07:58 05.04.2020
5387 Clouds 16 1012 67 10000 3.1 160 05:37 05.04.2020
5388 Clouds 16 1012 67 10000 3.1 160 05:37 05.04.2020
5389 Clouds 16 1012 67 10000 3.1 160 05:37 05.04.2020
5390 Clouds 16 1012 67 10000 3.1 160 05:37 05.04.2020
5391 Clouds 16 1012 67 10000 3.1 160 05:37 05.04.2020
5392 Clouds 18 1011 55 10000 4.6 150 03:58 05.04.2020
5393 Clouds 18 1011 55 10000 4.6 150 03:24 05.04.2020
5394 Clouds 22 1010 43 10000 3.6 210 01:57 05.04.2020
5395 Clouds 22 1010 43 10000 3.6 210 01:39 05.04.2020
5396 Clouds 23 1009 40 10000 5.1 210 00:52 05.04.2020
5397 Clouds 23 1009 40 10000 5.1 210 00:52 05.04.2020
5398 Clouds 24 1011 31 10000 2.1 240 00:23 05.04.2020
5399 Clouds 25 1011 31 10000 2.1 240 23:58 04.04.2020
5400 Clouds 25 1011 31 10000 2.1 240 23:39 04.04.2020
5401 Clouds 25 1011 31 10000 2.1 240 23:21 04.04.2020
5402 Clouds 25 1010 31 10000 2.6 210 22:56 04.04.2020
5403 Clouds 25 1010 31 10000 2.6 210 22:38 04.04.2020
5404 Clouds 25 1010 31 10000 2.6 210 22:19 04.04.2020
5405 Clouds 26 1011 27 10000 2.1 260 21:56 04.04.2020
5406 Clouds 26 1011 27 10000 2.1 260 21:38 04.04.2020
5407 Clouds 26 1011 27 10000 2.1 260 21:18 04.04.2020
5408 Clouds 25 1011 33 10000 3.29 256 20:43 04.04.2020
5409 Clouds 25 1011 33 10000 3.27 256 20:23 04.04.2020
5410 Clouds 25 1012 36 10000 3.27 256 19:59 04.04.2020
5411 Clouds 25 1012 36 10000 3.27 256 19:59 04.04.2020
5412 Clouds 25 1012 36 10000 3.29 256 19:39 04.04.2020
5413 Clouds 25 1012 36 10000 3.29 256 19:20 04.04.2020
5414 Clouds 24 1012 40 10000 1.5 210 18:59 04.04.2020
5415 Clouds 24 1012 40 10000 1.5 210 18:39 04.04.2020
5416 Clouds 24 1012 40 10000 1.5 210 18:20 04.04.2020
5417 Clouds 22 1012 43 10000 1.5 240 17:58 04.04.2020
5418 Clouds 22 1012 43 10000 1.5 240 17:38 04.04.2020
5419 Clouds 22 1012 43 10000 1.5 240 17:19 04.04.2020
5420 Clouds 21 1012 42 10000 1.5 210 16:43 04.04.2020
5421 Clouds 21 1012 42 10000 1.5 210 16:24 04.04.2020
5422 Clouds 17 1011 55 10000 2.43 277 15:58 04.04.2020
5423 Clouds 18 1011 55 10000 2.43 277 15:38 04.04.2020
5424 Clouds 17 1011 55 10000 0.31 2 15:19 04.04.2020
5425 Clouds 13 1011 71 10000 1.5 50 14:46 04.04.2020
5426 Clouds 13 1011 71 10000 1.5 50 14:25 04.04.2020
5427 Clouds 12 1011 66 10000 0.31 356 14:00 04.04.2020
5428 Clouds 13 1011 66 10000 0.31 356 13:41 04.04.2020
5429 Clouds 13 1011 66 10000 0.31 356 13:41 04.04.2020
5430 Clouds 12 1011 66 10000 0.31 356 13:20 04.04.2020
5431 Smoke 12 1010 81 5000 1.5 300 12:58 04.04.2020
5432 Clouds 13 1009 81 8000 0.5 0 12:39 04.04.2020
5433 Clear 11 1009 81 8000 0.5 0 12:20 04.04.2020
5434 Clear 13 1009 76 8000 1.5 180 11:41 04.04.2020
5435 Clear 13 1009 76 8000 1.5 180 11:23 04.04.2020
5436 Clear 12 1009 76 6000 1.5 270 10:59 04.04.2020
5437 Clear 12 1009 76 6000 1.5 270 10:40 04.04.2020
5438 Clear 12 1009 76 6000 1.5 270 10:40 04.04.2020
5439 Clear 12 1009 76 6000 1.5 270 10:22 04.04.2020
5440 Clear 13 1010 76 9000 0.57 37 09:55 04.04.2020
5441 Clear 13 1010 76 9000 0.57 37 09:37 04.04.2020
5442 Clear 13 1010 76 9000 0.08 184 09:19 04.04.2020
5443 Clear 13 1011 76 9000 1 110 08:42 04.04.2020
5444 Clear 13 1011 76 9000 1 110 08:23 04.04.2020
5445 Clear 13 1011 76 9000 1 310 07:57 04.04.2020
5446 Clear 13 1011 76 9000 1 310 07:38 04.04.2020
5447 Clear 13 1011 76 9000 1 310 07:20 04.04.2020
5448 Clear 15 1012 67 10000 0.5 0 06:29 04.04.2020
5449 Clouds 16 1012 67 10000 1 0 05:52 04.04.2020
5450 Clouds 16 1012 67 10000 1 0 05:32 04.04.2020
5451 Clouds 17 1012 63 10000 2.1 170 04:34 04.04.2020
5452 Clouds 18 1012 59 10000 3.6 150 03:56 04.04.2020
5453 Clouds 18 1012 59 10000 3.6 150 03:29 04.04.2020
5454 Clouds 20 1011 52 10000 4.6 160 02:45 04.04.2020
5455 Clear 20 1011 52 10000 4.6 160 02:25 04.04.2020
5456 Clouds 22 1011 46 10000 4.6 220 01:27 04.04.2020
5457 Clouds 24 1010 31 10000 5.1 170 00:58 04.04.2020
5458 Clouds 25 1010 31 10000 5.1 170 00:31 04.04.2020
5459 Clouds 27 1012 26 8000 2.6 220 23:57 03.04.2020
5460 Clouds 27 1012 26 8000 2.6 220 23:38 03.04.2020
5461 Clouds 27 1012 26 8000 2.6 220 23:19 03.04.2020
5462 Clouds 27 1012 26 8000 2.6 220 23:19 03.04.2020
5463 Clouds 27 1012 26 6000 3.1 240 22:40 03.04.2020
5464 Clouds 27 1012 26 6000 3.1 240 22:19 03.04.2020
5465 Clouds 27 1012 26 6000 3.1 240 22:19 03.04.2020
5466 Clouds 27 1012 26 6000 3.1 240 22:19 03.04.2020
5467 Clouds 28 1013 26 6000 3.6 240 21:57 03.04.2020
5468 Clouds 28 1013 26 6000 3.6 240 21:38 03.04.2020
5469 Clouds 28 1013 26 6000 3.6 240 21:20 03.04.2020
5470 Clouds 28 1013 22 8000 2.6 270 20:55 03.04.2020
5471 Clouds 27 1013 22 8000 2.6 270 20:36 03.04.2020
5472 Clouds 28 1013 22 8000 2.6 270 20:18 03.04.2020
5473 Clouds 27 1014 22 8000 2.1 200 19:55 03.04.2020
5474 Clouds 27 1014 22 8000 2.1 200 19:36 03.04.2020
5475 Clouds 27 1014 22 8000 2.1 200 19:36 03.04.2020
5476 Clouds 27 1014 22 8000 2.1 200 19:18 03.04.2020
5477 Clouds 26 1014 25 10000 1.5 0 18:56 03.04.2020
5478 Clouds 25 1014 25 10000 1.5 0 18:38 03.04.2020
5479 Clouds 25 1014 25 10000 1.5 0 18:20 03.04.2020
5480 Clouds 24 1014 30 10000 1 0 17:40 03.04.2020
5481 Clouds 24 1014 30 10000 1 0 17:19 03.04.2020
5482 Clouds 24 1014 30 10000 1 0 17:19 03.04.2020
5483 Clouds 21 1014 34 10000 1.5 190 16:55 03.04.2020
5484 Clouds 21 1014 34 10000 1.5 190 16:36 03.04.2020
5485 Clouds 19 1014 34 10000 1.5 190 16:18 03.04.2020
5486 Clouds 21 1014 36 10000 0.5 200 15:41 03.04.2020
5487 Clouds 20 1014 36 10000 0.5 200 15:22 03.04.2020
5488 Clouds 16 1014 36 10000 0.5 200 14:58 03.04.2020
5489 Clouds 21 1014 16 0 0.27 37 14:40 03.04.2020
5490 Clouds 11 1013 50 10000 0.2 333 14:21 03.04.2020
5491 Clouds 11 1013 50 10000 0.2 333 13:46 03.04.2020
5492 Clouds 13 1013 50 10000 0.2 333 13:27 03.04.2020
5493 Clouds 13 1011 61 10000 1 30 12:57 03.04.2020
5494 Clouds 13 1011 61 10000 1 30 12:39 03.04.2020
5495 Clouds 10 1011 61 10000 1 30 12:18 03.04.2020
5496 Clouds 11 1011 62 10000 1 300 11:55 03.04.2020
5497 Clouds 11 1011 62 10000 1 300 11:55 03.04.2020
5498 Clouds 11 1011 62 10000 1 300 11:55 03.04.2020
5499 Clouds 11 1011 62 10000 1 300 11:37 03.04.2020
5500 Clouds 11 1011 62 10000 1 300 11:18 03.04.2020
5501 Clouds 12 1012 58 10000 0.49 62 10:56 03.04.2020
5502 Clouds 12 1012 58 10000 0.49 62 10:37 03.04.2020
5503 Clouds 12 1012 58 10000 0.49 62 10:18 03.04.2020
5504 Clouds 13 1012 54 10000 1 0 09:55 03.04.2020
5505 Clouds 13 1012 54 10000 1 0 09:37 03.04.2020
5506 Clear 13 1012 54 10000 1 0 09:18 03.04.2020
5507 Clear 15 1013 51 10000 1.5 190 08:43 03.04.2020
5508 Clear 15 1013 51 10000 1.5 190 08:23 03.04.2020
5509 Clear 16 1013 48 10000 1.5 150 07:51 03.04.2020
5510 Clear 16 1013 48 10000 1.5 150 07:33 03.04.2020
5511 Clear 17 1013 42 10000 1.5 150 06:57 03.04.2020
5512 Clear 17 1013 42 10000 1.5 150 06:27 03.04.2020
5513 Clear 18 1013 39 10000 2.6 160 05:42 03.04.2020
5514 Clear 21 1013 32 10000 5.1 150 03:52 03.04.2020
5515 Clear 21 1013 32 10000 5.1 150 03:31 03.04.2020
5516 Clear 23 1012 28 10000 4.6 150 02:31 03.04.2020
5517 Clear 26 1011 26 10000 4.6 190 01:24 03.04.2020
5518 Clear 29 1011 20 10000 6.2 210 00:46 03.04.2020
5519 Clear 31 1013 11 10000 2.6 240 00:27 03.04.2020
5520 Clear 31 1013 11 10000 2.6 240 23:43 02.04.2020
5521 Clear 31 1013 11 10000 2.6 240 23:24 02.04.2020
5522 Clear 32 1013 9 10000 2.6 230 23:00 02.04.2020
5523 Clear 31 1013 9 10000 2.6 230 22:41 02.04.2020
5524 Clear 31 1013 9 10000 2.6 230 22:22 02.04.2020
5525 Clear 31 1013 11 10000 1 360 21:57 02.04.2020
5526 Clear 31 1013 11 10000 1 360 21:37 02.04.2020
5527 Clear 31 1013 11 10000 1 360 21:18 02.04.2020
5528 Clouds 31 1013 8 10000 2.1 280 20:44 02.04.2020
5529 Clouds 31 1013 8 10000 2.1 280 20:24 02.04.2020
5530 Clouds 30 1014 8 10000 1.5 250 19:56 02.04.2020
5531 Clouds 30 1014 8 10000 1.5 250 19:37 02.04.2020
5532 Clouds 30 1014 8 10000 1.5 250 19:19 02.04.2020
5533 Clouds 28 1014 8 10000 1.5 240 18:42 02.04.2020
5534 Clouds 28 1014 8 10000 1.5 240 18:21 02.04.2020
5535 Clouds 26 1015 9 10000 1 190 17:59 02.04.2020
5536 Clouds 26 1015 9 10000 1 190 17:59 02.04.2020
5537 Clouds 26 1015 9 10000 1 190 17:40 02.04.2020
5538 Clouds 26 1015 9 10000 1 190 17:22 02.04.2020
5539 Clouds 23 1015 24 10000 1.97 261 16:57 02.04.2020
5540 Clouds 23 1015 24 10000 1.97 261 16:39 02.04.2020
5541 Clouds 24 1015 24 10000 1.97 261 16:21 02.04.2020
5542 Clouds 20 1015 31 10000 1.97 261 15:56 02.04.2020
5543 Clouds 22 1015 31 10000 1.97 261 15:38 02.04.2020
5544 Clear 17 1015 31 10000 2.11 83 15:18 02.04.2020
5545 Clear 11 1015 53 10000 1.5 20 14:41 02.04.2020
5546 Clear 11 1015 53 10000 1.5 20 14:21 02.04.2020
5547 Clear 9 1015 70 10000 2.22 84 13:59 02.04.2020
5548 Clear 9 1015 70 10000 2.22 84 13:40 02.04.2020
5549 Clear 11 1015 70 10000 2.22 84 13:21 02.04.2020
5550 Clear 13 1013 61 10000 2.22 84 12:57 02.04.2020
5551 Clear 13 1013 61 10000 2.22 84 12:39 02.04.2020
5552 Clear 10 1013 61 10000 2.33 81 12:19 02.04.2020
5553 Clear 10 1013 61 10000 2.33 81 12:19 02.04.2020
5554 Clear 10 1013 61 10000 2.33 81 12:19 02.04.2020
5555 Clear 11 1014 53 10000 2.33 81 11:57 02.04.2020
5556 Clear 11 1014 53 10000 2.33 81 11:38 02.04.2020
5557 Clear 11 1014 53 10000 2.33 81 11:19 02.04.2020
5558 Clear 11 1014 53 10000 2.33 81 11:19 02.04.2020
5559 Clear 12 1014 54 10000 2.33 81 10:55 02.04.2020
5560 Clear 12 1014 54 10000 2.33 81 10:37 02.04.2020
5561 Clear 12 1014 54 10000 2.33 81 10:19 02.04.2020
5562 Clear 13 1015 50 10000 1.5 0 09:55 02.04.2020
5563 Clear 13 1015 50 10000 1.5 0 09:37 02.04.2020
5564 Clouds 13 1015 50 10000 1.5 0 09:18 02.04.2020
5565 Clouds 13 1015 47 10000 2.1 20 08:45 02.04.2020
5566 Clouds 13 1015 47 10000 2.1 20 08:26 02.04.2020
5567 Clouds 17 1016 45 10000 0.5 0 07:45 02.04.2020
5568 Clouds 17 1016 45 10000 0.5 0 07:20 02.04.2020
5569 Clouds 18 1016 39 10000 1.5 160 06:58 02.04.2020
5570 Clouds 18 1016 39 10000 1.5 160 06:21 02.04.2020
5571 Clouds 20 1019 19 0 0.29 51 05:45 02.04.2020
5572 Clouds 20 1016 34 10000 5.7 170 04:35 02.04.2020
5573 Clouds 25 1016 25 8000 3.6 210 01:51 02.04.2020
5574 Clouds 25 1015 28 10000 4.1 340 00:50 02.04.2020
5575 Clouds 25 1015 28 10000 4.1 340 00:50 02.04.2020
5576 Clouds 27 1017 25 10000 3.6 230 00:28 02.04.2020
5577 Clouds 28 1017 25 10000 3.6 230 23:57 01.04.2020
5578 Clouds 28 1017 25 10000 3.6 230 23:37 01.04.2020
5579 Clouds 28 1017 25 10000 3.6 230 23:18 01.04.2020
5580 Clouds 29 1017 17 10000 3.1 240 22:41 01.04.2020
5581 Clouds 29 1017 17 10000 3.1 240 22:22 01.04.2020
5582 Clouds 28 1017 20 10000 1.5 270 21:57 01.04.2020
5583 Clouds 28 1017 20 10000 1.5 270 21:38 01.04.2020
5584 Clouds 28 1017 20 10000 1.5 270 21:18 01.04.2020
5585 Clouds 27 1017 28 10000 2.6 230 20:55 01.04.2020
5586 Clouds 27 1017 28 10000 2.6 230 20:37 01.04.2020
5587 Clouds 27 1017 28 10000 2.6 230 20:18 01.04.2020
5588 Clouds 27 1018 29 10000 2.1 250 19:43 01.04.2020
5589 Clouds 27 1018 29 10000 2.1 250 19:22 01.04.2020
5590 Clouds 25 1018 31 10000 1.5 250 18:59 01.04.2020
5591 Clouds 25 1018 31 10000 1.5 250 18:40 01.04.2020
5592 Clouds 25 1018 31 10000 1.5 250 18:21 01.04.2020
5593 Clouds 23 1018 37 8000 1 270 17:55 01.04.2020
5594 Clouds 22 1018 37 8000 1 270 17:36 01.04.2020
5595 Clouds 20 1018 37 8000 1 270 17:18 01.04.2020
5596 Clouds 20 1018 37 8000 1 270 17:18 01.04.2020
5597 Clouds 19 1019 45 8000 1 200 16:42 01.04.2020
5598 Clouds 21 1019 45 8000 1 200 16:24 01.04.2020
5599 Clouds 19 1018 45 10000 1 180 15:59 01.04.2020
5600 Clouds 19 1018 45 10000 1 180 15:41 01.04.2020
5601 Clouds 17 1018 45 10000 1 180 15:21 01.04.2020
5602 Clouds 15 1018 51 10000 1 50 14:58 01.04.2020
5603 Clouds 15 1018 51 10000 1 50 14:38 01.04.2020
5604 Clouds 14 1018 51 10000 1 50 14:19 01.04.2020
5605 Clouds 13 1018 47 10000 1 20 13:58 01.04.2020
5606 Clouds 14 1018 47 10000 1 20 13:38 01.04.2020
5607 Clouds 14 1018 47 10000 1 20 13:19 01.04.2020
5608 Clouds 13 1016 62 9000 1.5 30 12:56 01.04.2020
5609 Clouds 13 1016 62 9000 1.5 30 12:36 01.04.2020
5610 Clouds 12 1016 62 9000 1.5 30 12:18 01.04.2020
5611 Clouds 13 1016 62 10000 1.5 310 11:44 01.04.2020
5612 Clouds 13 1016 62 10000 1.5 310 11:24 01.04.2020
5613 Clouds 13 1015 66 10000 0.5 0 10:59 01.04.2020
5614 Clouds 13 1015 66 10000 0.5 0 10:38 01.04.2020
5615 Clouds 13 1015 66 10000 0.5 0 10:19 01.04.2020
5616 Clouds 16 1015 55 10000 2.6 150 09:57 01.04.2020
5617 Clouds 16 1015 55 10000 2.6 150 09:39 01.04.2020
5618 Clouds 16 1015 55 10000 2.6 150 09:18 01.04.2020
5619 Clouds 16 1015 55 10000 1 0 08:42 01.04.2020
5620 Clouds 16 1015 55 10000 1 0 08:18 01.04.2020
5621 Clouds 17 1015 51 10000 1 160 07:46 01.04.2020
5622 Clouds 17 1015 51 10000 1 160 07:21 01.04.2020
5623 Clouds 18 1015 48 10000 2.6 160 06:52 01.04.2020
5624 Clouds 18 1015 48 10000 2.6 160 06:27 01.04.2020
5625 Clouds 19 1015 45 10000 2.6 170 05:58 01.04.2020
5626 Clouds 20 1015 40 10000 2.1 130 04:33 01.04.2020
5627 Clouds 21 1015 37 10000 3.6 150 03:32 01.04.2020
5628 Clouds 21 1014 37 10000 3.6 140 02:56 01.04.2020
5629 Clouds 24 1013 33 10000 5.7 190 01:59 01.04.2020
5630 Clouds 24 1013 33 10000 5.7 190 01:39 01.04.2020
5631 Clouds 24 1013 33 10000 5.7 190 01:18 01.04.2020
5632 Clouds 25 1013 28 10000 6.7 200 00:46 01.04.2020
5633 Clouds 27 1015 26 10000 3.6 240 00:21 01.04.2020
5634 Clear 27 1015 26 10000 3.6 240 23:48 31.03.2020
5635 Clear 28 1015 26 10000 3.6 240 23:27 31.03.2020
5636 Clear 28 1015 26 10000 3.6 240 22:58 31.03.2020
5637 Clear 29 1014 25 10000 2.6 210 22:37 31.03.2020
5638 Clear 29 1014 25 10000 2.6 210 22:19 31.03.2020
5639 Clear 29 1014 25 10000 2.6 210 21:56 31.03.2020
5640 Clear 29 1015 25 10000 3.1 240 21:38 31.03.2020
5641 Clear 29 1015 25 10000 3.1 240 21:19 31.03.2020
5642 Clear 29 1015 24 10000 3.1 0 20:55 31.03.2020
5643 Clear 29 1015 24 10000 3.1 0 20:36 31.03.2020
5644 Clear 29 1015 24 10000 3.1 0 20:36 31.03.2020
5645 Clear 29 1015 24 10000 3.1 0 20:18 31.03.2020
5646 Clear 28 1015 30 10000 1.5 0 19:42 31.03.2020
5647 Clear 28 1015 30 10000 1.5 0 19:42 31.03.2020
5648 Clear 28 1015 30 10000 1.5 0 19:42 31.03.2020
5649 Clear 28 1015 30 10000 1.5 0 19:23 31.03.2020
5650 Clear 27 1015 33 10000 1 280 18:59 31.03.2020
5651 Clear 26 1015 33 10000 1 280 18:40 31.03.2020
5652 Clear 25 1016 38 10000 1.5 0 18:19 31.03.2020
5653 Clear 25 1016 38 10000 1.5 0 17:55 31.03.2020
5654 Clear 25 1016 38 10000 1.5 0 17:37 31.03.2020
5655 Clear 24 1016 38 10000 1.5 0 17:19 31.03.2020
5656 Clear 24 1016 37 10000 1 270 16:41 31.03.2020
5657 Clear 22 1016 37 10000 1 270 16:20 31.03.2020
5658 Clear 19 1016 48 10000 2.5 263 15:57 31.03.2020
5659 Clear 20 1016 48 10000 2.5 263 15:39 31.03.2020
5660 Clear 20 1016 48 10000 2.5 263 15:39 31.03.2020
5661 Clear 19 1016 48 10000 2.5 263 15:21 31.03.2020
5662 Clouds 16 1016 71 10000 1 70 14:57 31.03.2020
5663 Clouds 17 1016 71 10000 1 70 14:39 31.03.2020
5664 Clouds 13 1016 71 10000 1 70 14:20 31.03.2020
5665 Clouds 14 1015 66 10000 1 50 13:43 31.03.2020
5666 Clouds 14 1015 66 10000 1 50 13:20 31.03.2020
5667 Clouds 14 1014 71 10000 0.03 288 12:57 31.03.2020
5668 Clouds 14 1014 71 10000 0.03 288 12:39 31.03.2020
5669 Clouds 12 1014 71 10000 0.35 33 12:19 31.03.2020
5670 Clouds 13 1014 66 10000 1 340 11:40 31.03.2020
5671 Clouds 13 1014 66 10000 1 340 11:20 31.03.2020
5672 Clouds 14 1014 62 10000 0.35 33 10:58 31.03.2020
5673 Clouds 14 1014 62 10000 0.35 33 10:58 31.03.2020
5674 Clouds 14 1014 62 10000 0.35 33 10:40 31.03.2020
5675 Clouds 14 1014 62 10000 0.35 33 10:21 31.03.2020
5676 Clouds 15 1014 62 10000 1 240 09:57 31.03.2020
5677 Clouds 15 1014 62 10000 1 240 09:39 31.03.2020
5678 Clouds 15 1014 62 10000 1 240 09:21 31.03.2020
5679 Clouds 17 1014 51 10000 1 170 08:57 31.03.2020
5680 Clouds 17 1014 51 10000 1 170 08:38 31.03.2020
5681 Clouds 17 1014 51 10000 1 170 08:19 31.03.2020
5682 Clouds 17 1014 51 10000 3.1 170 07:56 31.03.2020
5683 Clouds 17 1014 51 10000 3.1 170 07:37 31.03.2020
5684 Clouds 17 1014 51 10000 3.1 170 07:18 31.03.2020
5685 Clouds 19 1014 48 10000 0.5 0 06:43 31.03.2020
5686 Clouds 20 1014 45 10000 3.6 160 05:59 31.03.2020
5687 Clouds 20 1014 45 10000 3.6 160 05:39 31.03.2020
5688 Clouds 22 1014 43 10000 3.1 160 03:28 31.03.2020
5689 Clear 26 1013 34 10000 4.6 170 01:52 31.03.2020
5690 Clear 26 1013 34 10000 4.6 170 01:33 31.03.2020
5691 Clear 27 1012 30 10000 5.1 210 00:46 31.03.2020
5692 Clear 28 1014 23 10000 3.1 210 00:24 31.03.2020
5693 Clouds 29 1014 23 10000 3.1 210 23:41 30.03.2020
5694 Clouds 29 1014 23 10000 3.1 210 23:20 30.03.2020
5695 Clouds 29 1014 23 10000 3.6 210 22:58 30.03.2020
5696 Clouds 29 1014 23 10000 3.6 210 22:39 30.03.2020
5697 Clouds 29 1014 23 10000 3.6 210 22:20 30.03.2020
5698 Clouds 29 1014 25 8000 3.1 230 21:58 30.03.2020
5699 Clouds 29 1014 25 8000 3.1 230 21:39 30.03.2020
5700 Clouds 29 1014 25 8000 3.1 230 21:20 30.03.2020
5701 Clouds 29 1014 25 8000 3.1 230 21:20 30.03.2020
5702 Clouds 29 1015 26 7000 2.1 260 20:59 30.03.2020
5703 Clouds 29 1015 26 7000 2.1 260 20:39 30.03.2020
5704 Clouds 29 1015 26 7000 2.1 260 20:39 30.03.2020
5705 Clouds 30 1015 26 7000 2.1 260 20:20 30.03.2020
5706 Clouds 30 1015 26 7000 2.1 260 20:20 30.03.2020
5707 Clouds 29 1015 30 7000 2.1 240 19:56 30.03.2020
5708 Clouds 30 1015 30 7000 2.1 240 19:38 30.03.2020
5709 Clouds 28 1015 30 7000 2.1 240 19:20 30.03.2020
5710 Clouds 26 1016 36 10000 1.5 210 18:43 30.03.2020
5711 Clouds 27 1016 36 10000 1.5 210 18:25 30.03.2020
5712 Clouds 25 1016 43 10000 1 250 17:58 30.03.2020
5713 Clouds 25 1016 43 10000 1 250 17:39 30.03.2020
5714 Clouds 23 1016 43 10000 1 250 17:20 30.03.2020
5715 Clouds 21 1016 46 10000 2.22 268 16:58 30.03.2020
5716 Clouds 22 1016 46 10000 2.22 268 16:39 30.03.2020
5717 -273 0 0 0 0 0 16:20 30.03.2020
5718 -273 0 0 0 0 0 16:20 30.03.2020
5719 Clouds 19 1016 59 10000 2.22 268 15:55 30.03.2020
5720 Clouds 21 1016 59 10000 2.22 268 15:37 30.03.2020
5721 Clouds 17 1016 59 10000 0.28 0 15:19 30.03.2020
5722 Clouds 17 1015 71 10000 0.28 0 14:56 30.03.2020
5723 Clouds 17 1015 71 10000 0.28 0 14:37 30.03.2020
5724 Clouds 14 1015 71 10000 0.28 351 14:18 30.03.2020
5725 Clouds 15 1015 67 10000 0.28 351 13:55 30.03.2020
5726 Clouds 16 1015 67 10000 0.28 351 13:37 30.03.2020
5727 Clouds 14 1015 67 10000 0.28 351 13:19 30.03.2020
5728 Clouds 15 1014 67 8000 1.5 310 12:44 30.03.2020
5729 Clouds 14 1014 67 8000 1.5 310 12:21 30.03.2020
5730 Clouds 16 1013 59 10000 1 160 11:57 30.03.2020
5731 Clouds 16 1013 59 10000 1 160 11:57 30.03.2020
5732 Clouds 16 1013 59 10000 1 160 11:39 30.03.2020
5733 Clouds 16 1013 59 10000 1 160 11:21 30.03.2020
5734 Clouds 16 1014 59 10000 0.16 61 10:41 30.03.2020
5735 Clouds 16 1014 59 10000 0.16 61 10:23 30.03.2020
5736 Clouds 16 1014 63 10000 0.5 290 09:59 30.03.2020
5737 Clouds 16 1014 63 10000 0.5 290 09:40 30.03.2020
5738 Clouds 16 1014 63 10000 0.5 290 09:19 30.03.2020
5739 Clouds 16 1014 63 10000 0.32 238 08:47 30.03.2020
5740 Clouds 16 1014 63 10000 0.32 238 08:28 30.03.2020
5741 Clouds 16 1014 63 10000 0.32 238 08:28 30.03.2020
5742 Clouds 17 1014 59 10000 0.5 280 07:58 30.03.2020
5743 Clouds 17 1014 59 10000 0.5 280 07:39 30.03.2020
5744 Clouds 17 1014 59 10000 0.5 280 07:18 30.03.2020
5745 Clouds 19 1015 52 10000 1.5 150 06:37 30.03.2020
5746 Clouds 19 1015 52 10000 1.5 150 06:18 30.03.2020
5747 Clouds 19 1015 52 10000 2.1 150 05:38 30.03.2020
5748 Clouds 20 1015 49 10000 2.6 150 04:27 30.03.2020
5749 Clouds 21 1015 46 10000 3.1 150 03:52 30.03.2020
5750 Clouds 23 1015 38 10000 3.6 180 02:44 30.03.2020
5751 Clouds 24 1014 36 10000 4.6 210 01:54 30.03.2020
5752 Clouds 24 1014 34 10000 6.2 210 00:56 30.03.2020
5753 Clouds 26 1016 34 10000 2.6 230 00:25 30.03.2020
5754 Clouds 26 1016 34 10000 2.6 230 00:25 30.03.2020
5755 Clouds 26 1016 34 10000 2.6 230 23:55 29.03.2020
5756 Clouds 26 1016 34 10000 2.6 230 23:36 29.03.2020
5757 Clouds 27 1016 34 10000 2.6 230 23:18 29.03.2020
5758 Clouds 27 1016 36 8000 3.6 240 22:39 29.03.2020
5759 Clouds 27 1016 36 8000 3.6 240 22:39 29.03.2020
5760 Clouds 27 1016 36 8000 3.6 240 22:20 29.03.2020
5761 Clouds 28 1016 32 8000 2.6 240 21:59 29.03.2020
5762 Clouds 28 1016 32 8000 2.6 240 21:37 29.03.2020
5763 Clouds 28 1016 32 8000 2.6 240 21:19 29.03.2020
5764 Clouds 28 1016 36 7000 1.5 180 20:55 29.03.2020
5765 Clouds 27 1016 36 7000 1.5 180 20:37 29.03.2020
5766 Clouds 27 1016 36 7000 1.5 180 20:18 29.03.2020
5767 Clouds 27 1017 41 7000 2.1 210 19:55 29.03.2020
5768 Clouds 26 1017 41 7000 2.1 210 19:37 29.03.2020
5769 Clouds 24 1017 49 7000 1 210 19:18 29.03.2020
5770 Clouds 24 1017 49 7000 1 210 18:55 29.03.2020
5771 Clouds 25 1017 49 7000 1 210 18:37 29.03.2020
5772 Clouds 22 1017 56 7000 1.5 180 18:18 29.03.2020
5773 Clouds 21 1017 56 7000 1.5 180 17:42 29.03.2020
5774 Clouds 21 1017 56 7000 1.5 180 17:24 29.03.2020
5775 Clouds 18 1017 63 7000 0.5 270 16:59 29.03.2020
5776 Clouds 18 1017 63 7000 0.5 270 16:40 29.03.2020
5777 Clouds 18 1017 63 7000 0.5 270 16:21 29.03.2020
5778 Clouds 16 1017 77 7000 0.5 270 15:59 29.03.2020
5779 Clouds 16 1017 77 7000 0.5 270 15:59 29.03.2020
5780 Clouds 16 1017 77 7000 0.5 270 15:40 29.03.2020
5781 Clouds 16 1017 77 7000 0.5 270 15:21 29.03.2020
5782 Clouds 13 1017 93 7000 0.25 257 14:57 29.03.2020
5783 Clouds 13 1017 93 7000 0.25 257 14:37 29.03.2020
5784 Clouds 13 1017 93 7000 0.35 275 14:19 29.03.2020
5785 Clouds 14 1017 82 7000 0.35 275 13:55 29.03.2020
5786 Clouds 13 1017 82 7000 0.35 275 13:37 29.03.2020
5787 Clouds 13 1017 82 7000 0.35 275 13:19 29.03.2020
5788 Clouds 12 1017 82 7000 0.35 275 12:54 29.03.2020
5789 Mist 12 1016 93 2900 2.6 10 12:36 29.03.2020
5790 Mist 12 1015 87 4700 1.5 30 12:18 29.03.2020
5791 Clear 11 1015 87 10000 0.2 293 11:38 29.03.2020
5792 Clear 11 1015 87 10000 0.2 293 11:20 29.03.2020
5793 Clear 12 1015 87 10000 1 0 10:40 29.03.2020
5794 Clear 12 1015 87 10000 1 0 10:21 29.03.2020
5795 Clear 13 1015 87 8000 1.5 230 09:59 29.03.2020
5796 Clear 13 1015 87 8000 1.5 230 09:38 29.03.2020
5797 Clear 13 1015 87 8000 1.5 230 09:19 29.03.2020
5798 Clear 14 1015 82 10000 1.5 170 08:48 29.03.2020
5799 Clear 14 1015 82 10000 1.5 170 08:27 29.03.2020
5800 Clear 15 1015 77 10000 2.1 150 07:56 29.03.2020
5801 Clear 15 1015 77 10000 2.1 150 07:37 29.03.2020
5802 Clear 15 1015 77 10000 2.1 150 07:19 29.03.2020
5803 Clear 17 1015 72 10000 2.1 160 04:58 29.03.2020
5804 Clear 17 1015 72 10000 4.1 150 03:42 29.03.2020
5805 Clear 17 1015 72 10000 4.1 150 03:23 29.03.2020
5806 Clear 19 1015 63 10000 3.1 170 01:50 29.03.2020
5807 Clear 19 1015 63 10000 3.1 170 01:23 29.03.2020
5808 Clear 20 1014 60 10000 4.6 200 00:48 29.03.2020
5809 Clear 20 1014 60 10000 4.6 200 00:29 29.03.2020
5810 Clear 21 1014 53 10000 4.6 180 23:41 28.03.2020
5811 Clear 21 1014 53 10000 4.6 180 23:41 28.03.2020
5812 Haze 22 1016 46 4000 2.6 250 23:23 28.03.2020
5813 Haze 22 1016 46 4000 2.6 250 22:56 28.03.2020
5814 Haze 22 1016 46 4000 2.6 250 22:37 28.03.2020
5815 Haze 23 1016 46 4000 2.6 250 22:18 28.03.2020
5816 Haze 23 1016 53 5000 2.6 240 21:41 28.03.2020
5817 Haze 22 1016 53 5000 2.6 240 21:23 28.03.2020
5818 Haze 22 1016 53 4000 3.1 240 20:58 28.03.2020
5819 Haze 22 1016 53 4000 3.1 240 20:39 28.03.2020
5820 Haze 22 1016 53 4000 3.1 240 20:20 28.03.2020
5821 Haze 22 1016 56 4000 3.1 230 19:56 28.03.2020
5822 Haze 22 1016 56 4000 3.1 230 19:36 28.03.2020
5823 Haze 22 1016 56 4000 3.1 230 19:18 28.03.2020
5824 Haze 22 1016 56 3000 2.6 270 18:47 28.03.2020
5825 Haze 22 1016 56 3000 2.6 270 18:22 28.03.2020
5826 Haze 20 1016 63 3000 2.1 210 17:58 28.03.2020
5827 Haze 20 1016 63 3000 2.1 210 17:38 28.03.2020
5828 Haze 20 1016 63 3000 2.1 210 17:18 28.03.2020
5829 Haze 18 1016 72 3000 2.1 230 16:42 28.03.2020
5830 Haze 18 1016 72 3000 2.1 230 16:20 28.03.2020
5831 Haze 18 1016 72 3000 2.1 230 16:20 28.03.2020
5832 Haze 16 1016 82 2000 2.79 265 15:56 28.03.2020
5833 Haze 16 1016 82 2000 2.79 265 15:37 28.03.2020
5834 Haze 16 1016 82 2000 2.79 265 15:18 28.03.2020
5835 Mist 16 1016 87 1500 2.79 265 14:42 28.03.2020
5836 Mist 15 1016 87 1500 2.79 265 14:22 28.03.2020
5837 Mist 14 1015 93 1500 0.45 280 13:55 28.03.2020
5838 Mist 14 1015 93 1500 0.45 280 13:36 28.03.2020
5839 Mist 14 1015 93 1500 0.31 285 13:18 28.03.2020
5840 Fog 13 1015 93 800 0.31 285 12:37 28.03.2020
5841 Fog 13 1015 93 800 0.31 285 12:19 28.03.2020
5842 Clear 15 1014 87 10000 2.1 170 11:42 28.03.2020
5843 Clear 14 1013 87 10000 0.63 281 11:21 28.03.2020
5844 Clear 14 1013 87 10000 0.63 281 10:43 28.03.2020
5845 Clear 14 1013 87 10000 0.63 281 10:24 28.03.2020
5846 Clear 14 1013 87 10000 0.5 0 09:59 28.03.2020
5847 Clear 14 1013 87 10000 0.5 0 09:39 28.03.2020
5848 Clear 14 1013 87 10000 0.5 0 09:21 28.03.2020
5849 Clear 13 1013 87 10000 2.1 170 08:42 28.03.2020
5850 Clear 13 1013 87 10000 2.1 170 08:42 28.03.2020
5851 Clear 13 1013 87 10000 2.1 170 08:24 28.03.2020
5852 Clear 13 1013 87 9000 2.1 150 07:52 28.03.2020
5853 Clear 13 1013 87 9000 2.1 150 07:34 28.03.2020
5854 Clear 13 1013 87 10000 2.6 160 06:45 28.03.2020
5855 Clear 13 1013 87 10000 2.6 160 06:20 28.03.2020
5856 Clear 14 1013 87 10000 2.6 160 05:26 28.03.2020
5857 Clear 15 1013 82 10000 3.1 160 04:48 28.03.2020
5858 Clear 15 1013 82 10000 3.1 160 04:28 28.03.2020
5859 Clear 16 1013 82 10000 4.1 150 02:46 28.03.2020
5860 Clear 17 1013 77 10000 4.1 150 01:47 28.03.2020
5861 Clear 17 1013 77 10000 4.1 150 01:23 28.03.2020
5862 Clear 18 1012 72 10000 6.2 170 00:47 28.03.2020
5863 Clear 18 1012 72 10000 6.2 170 00:21 28.03.2020
5864 Clear 20 1012 64 10000 5.7 180 23:43 27.03.2020
5865 Clear 20 1013 56 8000 2.6 250 23:24 27.03.2020
5866 Clear 21 1013 56 8000 2.6 250 22:56 27.03.2020
5867 Clear 21 1013 56 8000 2.6 250 22:38 27.03.2020
5868 Clear 21 1013 56 8000 2.6 250 22:20 27.03.2020
5869 Clear 22 1012 56 10000 6.7 170 21:56 27.03.2020
5870 Clear 22 1012 56 10000 6.7 170 21:38 27.03.2020
5871 Haze 23 1014 53 5000 2.6 240 21:20 27.03.2020
5872 Haze 22 1014 53 5000 2.6 240 20:43 27.03.2020
5873 Haze 22 1014 53 5000 2.6 240 20:22 27.03.2020
5874 Haze 22 1014 60 5000 2.1 210 19:59 27.03.2020
5875 Haze 22 1014 60 5000 2.1 210 19:41 27.03.2020
5876 Haze 21 1014 60 5000 2.1 210 19:22 27.03.2020
5877 Haze 21 1015 60 5000 2.6 260 18:56 27.03.2020
5878 Haze 20 1015 60 5000 2.6 260 18:38 27.03.2020
5879 Haze 20 1015 60 5000 2.6 260 18:19 27.03.2020
5880 Haze 19 1015 68 4000 2.1 200 17:40 27.03.2020
5881 Haze 19 1015 68 4000 2.1 200 17:20 27.03.2020
5882 Haze 18 1015 77 4000 2.1 220 16:54 27.03.2020
5883 Haze 17 1015 77 4000 2.1 220 16:36 27.03.2020
5884 Haze 16 1015 77 4000 2.1 220 16:18 27.03.2020
5885 Haze 15 1016 82 4000 2.1 240 15:41 27.03.2020
5886 Haze 15 1016 82 4000 2.1 240 15:23 27.03.2020
5887 Haze 14 1015 82 4000 2.81 263 14:46 27.03.2020
5888 Haze 14 1015 82 4000 2.81 263 14:25 27.03.2020
5889 Mist 13 1015 93 2000 0.69 273 13:57 27.03.2020
5890 Mist 13 1015 93 2000 0.69 273 13:57 27.03.2020
5891 Mist 13 1015 93 2000 0.69 273 13:38 27.03.2020
5892 Mist 13 1015 93 2000 0.63 279 13:19 27.03.2020
5893 Drizzle 13 1015 93 2000 0.63 279 12:55 27.03.2020
5894 Drizzle 13 1015 93 2000 0.63 279 12:37 27.03.2020
5895 Drizzle 13 1015 93 2000 0.63 279 12:18 27.03.2020
5896 Clouds 18 1014 47 0 0.63 279 11:41 27.03.2020
5897 Clouds 18 1014 47 0 0.63 279 11:23 27.03.2020
5898 Clouds 15 1013 56 0 0.8 264 10:55 27.03.2020
5899 Clouds 15 1013 56 0 0.8 264 10:37 27.03.2020
5900 Clouds 15 1013 56 0 0.8 264 10:37 27.03.2020
5901 Clouds 15 1013 56 0 0.8 264 10:18 27.03.2020
5902 Clouds 15 1013 56 0 0.8 264 09:56 27.03.2020
5903 Clouds 15 1013 56 0 0.8 264 09:37 27.03.2020
5904 Clouds 15 1013 56 0 0.8 264 09:18 27.03.2020
5905 Clouds 15 1013 56 0 0.8 264 08:55 27.03.2020
5906 Clouds 15 1013 56 0 0.8 264 08:37 27.03.2020
5907 Clear 17 1014 52 0 0.68 255 08:18 27.03.2020
5908 Clear 17 1014 50 0 0.49 261 07:49 27.03.2020
5909 Clear 17 1014 50 0 0.49 261 07:23 27.03.2020
5910 Clear 17 1014 50 0 0.49 261 06:46 27.03.2020
5911 Clear 17 1014 50 0 0.49 261 06:27 27.03.2020
5912 Clear 18 1014 50 0 0.2 226 04:21 27.03.2020
5913 Clear 18 1014 50 0 0.2 226 02:25 27.03.2020
5914 Clear 19 1014 48 0 1.13 237 01:23 27.03.2020
5915 Clear 19 1014 48 0 1.11 235 00:48 27.03.2020
5916 Clear 19 1014 48 0 1.11 235 00:23 27.03.2020
5917 Clear 19 1014 48 0 1.11 235 23:43 26.03.2020
5918 Clouds 26 1012 36 10000 3.1 250 23:21 26.03.2020
5919 Clouds 26 1012 36 10000 3.1 250 22:58 26.03.2020
5920 Clouds 26 1012 36 10000 3.1 250 22:37 26.03.2020
5921 Clouds 26 1012 36 10000 3.1 250 22:19 26.03.2020
5922 Clear 26 1012 36 10000 3.6 240 21:55 26.03.2020
5923 Clear 26 1012 36 10000 3.6 240 21:37 26.03.2020
5924 Clear 26 1012 36 10000 3.6 240 21:18 26.03.2020
5925 Clear 27 1012 32 10000 3.6 240 20:41 26.03.2020
5926 Clear 27 1012 32 10000 3.6 240 20:23 26.03.2020
5927 Clear 27 1013 30 10000 2.6 0 19:58 26.03.2020
5928 Clear 27 1013 30 10000 2.6 0 19:40 26.03.2020
5929 Clear 27 1013 30 10000 2.6 0 19:40 26.03.2020
5930 Clear 27 1013 30 10000 2.6 0 19:22 26.03.2020
5931 Clear 26 1013 34 10000 2.1 210 18:59 26.03.2020
5932 Clear 26 1013 34 10000 2.1 210 18:41 26.03.2020
5933 Clear 26 1013 34 10000 2.1 210 18:23 26.03.2020
5934 Clear 25 1014 41 10000 2.1 210 17:45 26.03.2020
5935 Clear 24 1014 41 10000 2.1 210 17:20 26.03.2020
5936 Clear 23 1014 40 10000 2.1 240 16:59 26.03.2020
5937 Clear 23 1014 40 10000 2.1 240 16:39 26.03.2020
5938 Clear 23 1014 40 10000 2.1 240 16:39 26.03.2020
5939 Clear 23 1014 40 10000 2.1 240 16:21 26.03.2020
5940 Clear 21 1014 46 10000 1 0 15:56 26.03.2020
5941 Clear 21 1014 46 10000 1 0 15:38 26.03.2020
5942 Clear 21 1014 46 10000 1 0 15:20 26.03.2020
5943 Clear 18 1014 52 10000 2.98 260 14:43 26.03.2020
5944 Clear 18 1014 52 10000 2.98 260 14:25 26.03.2020
5945 Clear 13 1014 76 10000 0.5 20 13:59 26.03.2020
5946 Clear 13 1014 76 10000 0.5 20 13:40 26.03.2020
5947 Clear 13 1014 76 10000 0.5 20 13:21 26.03.2020
5948 Clear 13 1014 76 10000 0.5 20 13:21 26.03.2020
5949 Clear 13 1013 71 10000 0.66 55 12:39 26.03.2020
5950 Clear 13 1013 71 10000 0.66 55 12:21 26.03.2020
5951 Clear 13 1013 71 10000 0.66 55 12:21 26.03.2020
5952 Clear 21 1016 30 0 0.66 55 11:56 26.03.2020
5953 Clear 21 1016 30 0 0.66 55 11:56 26.03.2020
5954 Clear 21 1016 30 0 0.66 55 11:37 26.03.2020
5955 Clear 17 1015 44 0 0.51 305 11:19 26.03.2020
5956 Clear 17 1015 44 0 0.51 305 10:42 26.03.2020
5957 Clear 17 1015 44 0 0.51 305 10:20 26.03.2020
5958 Clear 17 1015 44 0 0.51 305 09:46 26.03.2020
5959 Clear 17 1015 44 0 0.51 305 09:24 26.03.2020
5960 Clear 17 1015 44 0 0.51 305 08:58 26.03.2020
5961 Clear 17 1015 44 0 0.51 305 08:40 26.03.2020
5962 Clear 17 1015 44 0 0.51 305 08:22 26.03.2020
5963 Clouds 18 1016 39 0 0.51 276 07:56 26.03.2020
5964 Clouds 18 1016 39 0 0.51 276 07:38 26.03.2020
5965 Clouds 18 1016 39 0 0.51 276 07:19 26.03.2020
5966 Clouds 18 1016 39 0 0.51 276 06:33 26.03.2020
5967 Clouds 18 1016 39 0 0.51 276 05:47 26.03.2020
5968 Clear 20 1017 34 0 0.24 123 03:46 26.03.2020
5969 Clear 20 1017 34 0 0.24 123 02:58 26.03.2020
5970 Clear 21 1017 35 0 0.68 227 01:51 26.03.2020
5971 Clear 21 1017 35 0 0.68 227 01:18 26.03.2020
5972 Clear 21 1017 34 0 0.66 210 00:30 26.03.2020
5973 Clear 21 1017 34 0 0.66 210 23:42 25.03.2020
5974 Clear 28 1014 24 10000 2.1 240 23:24 25.03.2020
5975 Clear 28 1014 24 10000 2.1 240 22:42 25.03.2020
5976 Clear 28 1014 24 10000 2.1 240 22:22 25.03.2020
5977 Clear 28 1014 23 10000 2.1 210 21:59 25.03.2020
5978 Clear 28 1014 23 10000 2.1 210 21:40 25.03.2020
5979 Clear 28 1014 23 10000 2.1 210 21:22 25.03.2020
5980 Clear 27 1014 26 10000 2.1 170 20:57 25.03.2020
5981 Clear 27 1014 26 10000 2.1 170 20:37 25.03.2020
5982 Clear 27 1014 26 10000 2.1 170 20:18 25.03.2020
5983 Clear 26 1015 29 10000 2.1 280 19:43 25.03.2020
5984 Clear 26 1015 29 10000 2.1 280 19:24 25.03.2020
5985 Clear 25 1015 29 10000 1.5 280 18:59 25.03.2020
5986 Clear 25 1015 29 10000 1.5 280 18:41 25.03.2020
5987 Clear 25 1015 29 10000 1.5 280 18:22 25.03.2020
5988 Clear 23 1016 35 10000 2.1 170 17:58 25.03.2020
5989 Clear 23 1016 35 10000 2.1 170 17:39 25.03.2020
5990 Clear 23 1016 35 10000 2.1 170 17:21 25.03.2020
5991 Clear 22 1016 40 10000 1.5 270 16:55 25.03.2020
5992 Clear 22 1016 40 10000 1.5 270 16:37 25.03.2020
5993 Clear 22 1016 40 10000 1.5 270 16:18 25.03.2020
5994 Clear 24 1017 27 0 2.6 259 15:41 25.03.2020
5995 Clear 16 1017 55 10000 1 190 15:20 25.03.2020
5996 Clear 16 1017 55 10000 1 190 14:56 25.03.2020
5997 Clear 16 1017 55 10000 1 190 14:37 25.03.2020
5998 Clouds 16 1017 55 10000 1 190 14:19 25.03.2020
5999 Clouds 12 1017 76 10000 0.4 240 13:42 25.03.2020
6000 Clouds 12 1017 76 10000 0.4 240 13:22 25.03.2020
6001 Clear 11 1016 87 10000 0.28 250 12:38 25.03.2020
6002 Clouds 11 1016 87 10000 0.4 240 12:20 25.03.2020
6003 Clouds 19 1017 34 0 0.4 240 11:57 25.03.2020
6004 Clear 19 1018 33 0 0.28 250 11:39 25.03.2020
6005 Clear 16 1017 44 0 0.34 277 11:20 25.03.2020
6006 Clear 16 1017 44 0 0.34 277 10:57 25.03.2020
6007 Clear 16 1017 44 0 0.34 277 10:39 25.03.2020
6008 Clear 16 1017 44 0 0.34 277 10:18 25.03.2020
6009 Clear 16 1017 44 0 0.34 277 09:43 25.03.2020
6010 Clear 16 1017 44 0 0.34 277 09:25 25.03.2020
6011 Clear 16 1017 44 0 0.34 277 08:58 25.03.2020
6012 Clear 16 1017 44 0 0.34 277 08:58 25.03.2020
6013 Clear 16 1017 44 0 0.34 277 08:39 25.03.2020
6014 Clouds 16 1017 44 0 0.65 234 08:19 25.03.2020
6015 Clouds 16 1017 44 0 0.65 234 07:41 25.03.2020
6016 Clouds 16 1017 44 0 0.65 234 07:23 25.03.2020
6017 Clouds 16 1017 44 0 0.65 234 06:50 25.03.2020
6018 Clouds 16 1017 44 0 0.65 234 06:29 25.03.2020
6019 Clouds 16 1017 44 0 0.65 234 05:58 25.03.2020
6020 Clouds 16 1017 44 0 0.65 234 05:37 25.03.2020
6021 Clouds 17 1018 42 0 0.81 243 04:41 25.03.2020
6022 Clouds 17 1018 42 0 0.81 243 03:52 25.03.2020
6023 Clouds 17 1018 42 0 0.81 243 03:29 25.03.2020
6024 Clouds 19 1017 34 0 1.12 240 01:31 25.03.2020
6025 Clear 19 1017 36 0 1.13 232 00:49 25.03.2020
6026 Clear 19 1017 36 0 1.13 232 00:26 25.03.2020
6027 Clear 19 1017 36 0 1.13 232 23:50 24.03.2020
6028 Clear 27 1016 21 10000 4.1 230 23:28 24.03.2020
6029 Clear 27 1016 21 10000 4.1 230 22:57 24.03.2020
6030 Clear 27 1016 21 10000 4.1 230 22:38 24.03.2020
6031 Clear 27 1016 21 10000 4.1 230 22:19 24.03.2020
6032 Clear 27 1016 21 10000 4.1 230 22:19 24.03.2020
6033 Clear 28 1016 20 10000 3.6 220 21:57 24.03.2020
6034 Clear 28 1016 20 10000 3.6 220 21:38 24.03.2020
6035 Clear 28 1016 20 10000 3.6 220 21:18 24.03.2020
6036 Clear 28 1016 20 10000 3.6 220 21:18 24.03.2020
6037 Clear 28 1016 17 10000 4.1 240 20:57 24.03.2020
6038 Clear 28 1016 17 10000 4.1 240 20:39 24.03.2020
6039 Clear 28 1016 17 10000 4.1 240 20:21 24.03.2020
6040 Clear 28 1015 17 10000 2.6 240 19:45 24.03.2020
6041 Clear 28 1015 17 10000 2.6 240 19:20 24.03.2020
6042 Clear 27 1017 19 10000 2.6 260 18:56 24.03.2020
6043 Clear 27 1017 19 10000 2.6 260 18:37 24.03.2020
6044 Clear 25 1017 25 10000 2.1 220 18:19 24.03.2020
6045 Clear 25 1017 25 10000 2.1 220 17:56 24.03.2020
6046 Clear 25 1017 25 10000 2.1 220 17:37 24.03.2020
6047 Clear 25 1017 25 10000 2.1 220 17:19 24.03.2020
6048 Clear 25 1016 24 10000 1.5 0 16:54 24.03.2020
6049 Clear 23 1017 27 10000 2.78 267 16:36 24.03.2020
6050 Clear 23 1017 27 10000 2.78 267 16:36 24.03.2020
6051 Clear 23 1017 27 10000 2.78 267 16:18 24.03.2020
6052 Clear 21 1016 35 10000 0.5 0 15:42 24.03.2020
6053 Clear 21 1016 35 10000 0.5 0 15:23 24.03.2020
6054 Clear 18 1017 39 10000 1 0 14:43 24.03.2020
6055 Clear 16 1018 41 10000 2.74 266 14:22 24.03.2020
6056 Clear 16 1018 41 10000 2.74 266 14:22 24.03.2020
6057 Clear 11 1018 71 10000 0.27 273 13:58 24.03.2020
6058 Clear 11 1018 71 10000 0.27 273 13:40 24.03.2020
6059 Clear 11 1018 71 10000 0.38 266 13:21 24.03.2020
6060 Clear 9 1017 87 10000 0.38 266 12:42 24.03.2020
6061 Clear 9 1017 87 10000 0.38 266 12:23 24.03.2020
6062 Clear 21 1018 21 0 0.38 266 11:41 24.03.2020
6063 Clear 11 1016 66 10000 0.6 262 11:21 24.03.2020
6064 Clear 10 1016 66 10000 1 10 10:59 24.03.2020
6065 Clear 10 1016 66 10000 1 10 10:40 24.03.2020
6066 Clear 10 1016 66 10000 1 10 10:18 24.03.2020
6067 Clear 10 1016 66 10000 1 10 10:18 24.03.2020
6068 Clear 12 1016 62 10000 1 0 09:46 24.03.2020
6069 Clear 12 1016 62 10000 1 0 09:26 24.03.2020
6070 Clear 13 1017 62 10000 1.5 220 08:57 24.03.2020
6071 Clear 13 1017 62 10000 1.5 220 08:37 24.03.2020
6072 Clear 13 1017 62 10000 1.5 220 08:18 24.03.2020
6073 Clear 16 1017 51 10000 2.1 150 07:44 24.03.2020
6074 Clear 16 1017 51 10000 2.1 150 07:22 24.03.2020
6075 Clear 16 1017 51 10000 2.1 150 07:22 24.03.2020
6076 Clear 15 1017 44 10000 1.5 120 06:40 24.03.2020
6077 Clear 15 1017 44 10000 1.5 120 06:18 24.03.2020
6078 Clear 18 1018 39 10000 1.5 170 04:51 24.03.2020
6079 Clear 20 1018 34 10000 3.1 140 03:32 24.03.2020
6080 Clear 20 1018 34 10000 4.1 160 02:43 24.03.2020
6081 Clear 24 1017 29 10000 4.6 170 00:57 24.03.2020
6082 Clear 24 1017 29 10000 4.6 170 00:28 24.03.2020
6083 Clear 24 1017 29 10000 4.6 170 23:58 23.03.2020
6084 Clear 26 1016 28 10000 7.2 200 23:38 23.03.2020
6085 Clear 27 1016 28 10000 7.2 200 23:19 23.03.2020
6086 Clear 29 1017 23 10000 4.1 240 22:44 23.03.2020
6087 Clear 29 1017 23 10000 4.1 240 22:23 23.03.2020
6088 Clear 31 1017 14 10000 3.6 240 21:55 23.03.2020
6089 Clear 31 1017 14 10000 3.6 240 21:37 23.03.2020
6090 Clear 30 1017 14 10000 3.6 240 21:19 23.03.2020
6091 Clear 31 1017 12 10000 2.1 10 20:55 23.03.2020
6092 Clear 31 1017 12 10000 2.1 10 20:36 23.03.2020
6093 Clear 31 1017 12 10000 2.1 10 20:18 23.03.2020
6094 Clear 31 1017 12 10000 2.1 10 20:18 23.03.2020
6095 Clear 30 1018 13 10000 2.1 260 19:41 23.03.2020
6096 Clear 30 1018 13 10000 2.1 260 19:22 23.03.2020
6097 Clear 29 1017 21 10000 3.6 190 18:56 23.03.2020
6098 Clear 29 1019 12 10000 1.5 360 18:38 23.03.2020
6099 Clear 29 1019 12 10000 1.5 360 18:18 23.03.2020
6100 Clear 27 1019 21 10000 2.1 240 17:41 23.03.2020
6101 Clear 22 1020 38 10000 1.5 190 17:20 23.03.2020
6102 Clear 22 1020 38 10000 1.5 190 16:55 23.03.2020
6103 Clear 22 1020 38 10000 1.5 190 16:36 23.03.2020
6104 Clear 22 1020 38 10000 1.5 190 16:18 23.03.2020
6105 Clear 18 1020 55 10000 2.1 180 15:40 23.03.2020
6106 Clear 18 1020 55 10000 2.1 180 15:19 23.03.2020
6107 Clear 15 1020 67 10000 0.5 30 14:38 23.03.2020
6108 Clear 15 1020 67 10000 0.5 30 14:19 23.03.2020
6109 Clear 11 1020 87 10000 0.5 20 13:57 23.03.2020
6110 Clear 14 1020 87 10000 0.5 20 13:38 23.03.2020
6111 Clear 11 1020 87 10000 0.5 20 13:20 23.03.2020
6112 Clear 11 1020 87 10000 0.5 20 13:20 23.03.2020
6113 Clear 12 1020 81 10000 1 70 12:44 23.03.2020
6114 Clear 11 1020 81 10000 1 70 12:25 23.03.2020
6115 Clear 11 1019 81 10000 1.5 210 11:57 23.03.2020
6116 Clear 11 1018 76 10000 0.5 0 11:38 23.03.2020
6117 Clear 11 1018 76 10000 0.5 0 11:38 23.03.2020
6118 Clear 12 1018 71 10000 1 0 11:19 23.03.2020
6119 Clear 13 1018 71 10000 1 0 10:56 23.03.2020
6120 Clear 13 1018 71 10000 1 0 10:37 23.03.2020
6121 Clear 13 1018 71 10000 1 0 10:19 23.03.2020
6122 Clear 13 1017 71 10000 3.1 150 09:43 23.03.2020
6123 Clear 13 1017 71 10000 3.1 150 09:21 23.03.2020
6124 Clear 13 1017 71 10000 4.1 160 08:40 23.03.2020
6125 Clear 13 1017 71 10000 4.1 160 08:20 23.03.2020
6126 Clear 14 1017 71 10000 3.1 160 07:59 23.03.2020
6127 Clear 14 1017 71 10000 3.1 160 07:59 23.03.2020
6128 Clear 14 1017 71 10000 3.1 160 07:40 23.03.2020
6129 Clear 14 1017 71 10000 3.1 160 07:19 23.03.2020
6130 Clear 15 1017 67 10000 4.6 160 06:48 23.03.2020
6131 Clear 15 1017 67 10000 4.1 160 05:50 23.03.2020
6132 Clear 16 1017 63 10000 4.1 160 04:57 23.03.2020
6133 Clear 17 1016 63 10000 4.6 160 03:24 23.03.2020
6134 Clear 19 1016 55 10000 4.1 160 01:50 23.03.2020
6135 Clear 22 1015 46 10000 5.1 220 00:52 23.03.2020
6136 Clear 22 1015 46 10000 5.1 220 00:33 23.03.2020
6137 Clear 23 1015 44 10000 6.7 220 23:46 22.03.2020
6138 Clear 24 1015 44 10000 6.7 220 23:25 22.03.2020
6139 Clear 26 1017 36 10000 2.1 210 22:45 22.03.2020
6140 Clear 26 1017 36 10000 2.1 210 22:23 22.03.2020
6141 Clear 26 1017 36 10000 2.1 230 21:55 22.03.2020
6142 Clear 26 1017 36 10000 2.1 230 21:37 22.03.2020
6143 Clear 26 1017 36 10000 2.1 230 21:18 22.03.2020
6144 Clear 25 1017 41 10000 2.1 240 20:46 22.03.2020
6145 Clear 25 1017 41 10000 2.1 240 20:25 22.03.2020
6146 Clear 25 1017 41 10000 2.1 240 20:25 22.03.2020
6147 Clear 24 1018 40 10000 2.1 0 19:58 22.03.2020
6148 Clear 24 1018 40 10000 2.1 0 19:40 22.03.2020
6149 Clear 24 1018 40 10000 2.1 0 19:20 22.03.2020
6150 Clear 23 1019 46 10000 1.5 250 18:59 22.03.2020
6151 Clear 22 1019 46 10000 1.5 250 18:41 22.03.2020
6152 Clear 22 1019 46 10000 1.5 250 18:22 22.03.2020
6153 Clear 20 1019 52 10000 2.1 270 17:58 22.03.2020
6154 Clear 20 1019 52 10000 2.1 270 17:38 22.03.2020
6155 Clear 21 1019 52 10000 2.1 270 17:20 22.03.2020
6156 Clear 19 1019 59 10000 1.5 0 16:57 22.03.2020
6157 Clear 19 1019 59 10000 1.5 0 16:39 22.03.2020
6158 Clear 17 1019 59 10000 1.5 0 16:21 22.03.2020
6159 Clear 17 1019 59 10000 1.5 0 16:21 22.03.2020
6160 Clear 17 1020 63 10000 2.1 160 15:40 22.03.2020
6161 Clear 17 1020 63 10000 2.1 160 15:21 22.03.2020
6162 Clear 15 1020 71 10000 2.88 258 14:46 22.03.2020
6163 Clear 13 1020 71 10000 0.9 271 14:19 22.03.2020
6164 Clear 12 1019 71 7000 2.1 30 13:44 22.03.2020
6165 Clear 13 1019 71 7000 2.1 30 13:21 22.03.2020
6166 Clear 13 1019 62 10000 0.54 272 12:59 22.03.2020
6167 Clear 13 1019 62 10000 0.54 272 12:41 22.03.2020
6168 Clear 13 1019 62 10000 0.54 272 12:19 22.03.2020
6169 Clear 11 1018 76 10000 2.1 270 11:43 22.03.2020
6170 Clear 11 1018 76 10000 2.1 270 11:25 22.03.2020
6171 Clear 13 1018 71 10000 1.5 130 10:58 22.03.2020
6172 Clear 13 1018 71 10000 1.5 130 10:40 22.03.2020
6173 Clear 13 1018 71 10000 1.5 130 10:22 22.03.2020
6174 Clear 13 1017 71 10000 3.6 140 09:47 22.03.2020
6175 Clear 13 1017 71 10000 3.6 140 09:28 22.03.2020
6176 Clear 13 1017 71 10000 3.6 130 08:51 22.03.2020
6177 Clear 13 1017 71 10000 3.6 130 08:32 22.03.2020
6178 Clear 13 1017 71 10000 3.6 130 08:32 22.03.2020
6179 Clear 14 1017 67 10000 3.1 160 07:56 22.03.2020
6180 Clear 14 1017 67 10000 3.1 160 07:38 22.03.2020
6181 Clear 14 1017 67 10000 2.6 180 06:48 22.03.2020
6182 Clear 14 1017 67 10000 3.1 150 05:52 22.03.2020
6183 Clear 14 1017 67 10000 3.1 160 04:39 22.03.2020
6184 Clouds 18 1016 55 10000 5.1 210 01:49 22.03.2020
6185 Clouds 18 1017 55 10000 2.1 250 00:51 22.03.2020
6186 Clouds 18 1017 55 10000 2.1 250 00:32 22.03.2020
6187 Clouds 20 1017 49 10000 2.6 230 23:47 21.03.2020
6188 Clouds 20 1017 49 10000 2.6 230 23:23 21.03.2020
6189 Clouds 20 1017 46 10000 2.1 0 22:59 21.03.2020
6190 Clouds 21 1017 46 10000 2.1 0 22:38 21.03.2020
6191 Clouds 21 1017 46 10000 2.1 0 22:20 21.03.2020
6192 Clouds 21 1017 49 8000 3.1 230 21:59 21.03.2020
6193 Clouds 21 1017 49 8000 3.1 230 21:39 21.03.2020
6194 Clouds 21 1017 49 8000 3.1 230 21:20 21.03.2020
6195 Clouds 21 1017 49 8000 3.1 230 21:20 21.03.2020
6196 Clouds 20 1017 52 8000 2.6 220 20:44 21.03.2020
6197 Clouds 20 1017 52 8000 2.6 220 20:22 21.03.2020
6198 Clouds 20 1018 55 8000 3.1 240 19:56 21.03.2020
6199 Clouds 20 1018 55 8000 3.1 240 19:38 21.03.2020
6200 Clouds 20 1018 55 8000 3.1 240 19:19 21.03.2020
6201 Clouds 19 1018 63 8000 3.1 0 18:54 21.03.2020
6202 Clouds 18 1018 63 8000 3.1 0 18:36 21.03.2020
6203 Clouds 18 1018 63 8000 3.1 0 18:18 21.03.2020
6204 Clouds 17 1018 67 8000 3.1 240 17:42 21.03.2020
6205 Clouds 17 1018 67 8000 3.1 240 17:22 21.03.2020
6206 Clouds 16 1018 67 8000 2.1 200 16:43 21.03.2020
6207 Clouds 16 1018 67 8000 2.1 200 16:24 21.03.2020
6208 Clouds 16 1018 67 8000 2.1 200 16:24 21.03.2020
6209 Clouds 15 1017 76 10000 2.6 250 15:59 21.03.2020
6210 Clouds 15 1017 76 10000 2.6 250 15:40 21.03.2020
6211 Clouds 14 1017 76 10000 2.6 250 15:22 21.03.2020
6212 Clouds 14 1017 76 10000 0.5 280 14:57 21.03.2020
6213 Clouds 14 1017 76 10000 0.5 280 14:39 21.03.2020
6214 Clouds 13 1017 76 10000 0.5 280 14:20 21.03.2020
6215 Clear 11 1016 87 10000 1.29 263 13:58 21.03.2020
6216 Clear 11 1016 87 10000 1.29 263 13:39 21.03.2020
6217 Clear 12 1016 87 10000 1.29 263 13:21 21.03.2020
6218 Clear 13 1015 67 10000 0.75 267 12:57 21.03.2020
6219 Clear 12 1015 67 10000 0.75 267 12:37 21.03.2020
6220 Clear 12 1015 67 10000 0.75 267 12:19 21.03.2020
6221 Fog 9 1015 100 1000 3.6 170 11:55 21.03.2020
6222 Mist 10 1014 93 5000 3.1 170 11:37 21.03.2020
6223 Mist 10 1014 93 5000 3.1 170 11:18 21.03.2020
6224 Clear 11 1014 87 10000 2.1 170 10:56 21.03.2020
6225 Clear 11 1014 87 10000 2.1 170 10:38 21.03.2020
6226 Clear 11 1014 87 10000 2.1 170 10:18 21.03.2020
6227 Clear 12 1014 81 10000 4.1 160 09:40 21.03.2020
6228 Clear 12 1014 81 10000 4.1 160 09:21 21.03.2020
6229 Clear 12 1014 81 10000 3.6 170 08:58 21.03.2020
6230 Clear 12 1014 81 10000 3.6 170 08:39 21.03.2020
6231 Clear 12 1014 81 10000 3.6 170 08:21 21.03.2020
6232 Clear 13 1014 76 10000 4.1 160 07:42 21.03.2020
6233 Clear 13 1014 76 10000 4.1 160 07:23 21.03.2020
6234 Clear 13 1014 76 10000 4.1 160 06:45 21.03.2020
6235 Clear 13 1014 76 10000 4.1 160 06:26 21.03.2020
6236 Clear 14 1014 76 10000 4.1 160 05:41 21.03.2020
6237 Clear 15 1013 72 10000 4.1 160 04:37 21.03.2020
6238 Clear 17 1013 63 10000 4.1 150 02:39 21.03.2020
6239 Clear 19 1012 55 10000 3.6 160 01:57 21.03.2020
6240 Clear 21 1012 55 10000 3.6 160 01:29 21.03.2020
6241 Clear 22 1013 40 10000 2.6 220 00:47 21.03.2020
6242 Clear 22 1013 40 10000 2.6 220 00:24 21.03.2020
6243 Clear 24 1013 33 10000 3.6 230 23:46 20.03.2020
6244 Clear 25 1013 33 10000 3.6 230 23:24 20.03.2020
6245 Clear 26 1013 32 10000 3.6 230 22:44 20.03.2020
6246 Clear 27 1013 32 10000 3.6 230 22:25 20.03.2020
6247 Clear 28 1013 30 10000 3.1 250 21:59 20.03.2020
6248 Clear 27 1013 30 10000 3.1 250 21:41 20.03.2020
6249 Clear 27 1013 30 10000 3.1 250 21:20 20.03.2020
6250 Clear 27 1014 28 10000 3.1 240 20:59 20.03.2020
6251 Clear 27 1014 28 10000 3.1 240 20:41 20.03.2020
6252 Clear 27 1014 28 10000 3.1 240 20:21 20.03.2020
6253 Clear 27 1013 32 10000 6.2 170 19:58 20.03.2020
6254 Clear 27 1013 32 10000 6.2 170 19:39 20.03.2020
6255 Clear 27 1013 32 10000 6.2 170 19:18 20.03.2020
6256 Clear 26 1013 34 10000 4.6 180 18:39 20.03.2020
6257 Clear 26 1013 34 10000 4.6 180 18:39 20.03.2020
6258 Clear 26 1013 34 10000 4.6 180 18:20 20.03.2020
6259 Clear 26 1013 34 10000 4.6 180 17:57 20.03.2020
6260 Clear 25 1015 41 7000 1.5 150 17:39 20.03.2020
6261 Clear 24 1015 49 8000 1.5 90 17:20 20.03.2020
6262 Clear 23 1015 49 8000 1.5 90 16:43 20.03.2020
6263 Clear 23 1015 49 8000 1.5 90 16:22 20.03.2020
6264 Clear 21 1016 52 10000 1.5 50 15:59 20.03.2020
6265 Clear 21 1016 52 10000 1.5 50 15:41 20.03.2020
6266 Clear 19 1016 52 10000 1.5 50 15:21 20.03.2020
6267 Clear 17 1015 55 10000 2.81 269 14:43 20.03.2020
6268 Clear 18 1015 55 10000 2.81 269 14:23 20.03.2020
6269 Clear 12 1015 76 10000 0.26 330 13:55 20.03.2020
6270 Clear 12 1015 76 10000 0.26 330 13:37 20.03.2020
6271 Clear 12 1015 76 10000 0.29 10 13:19 20.03.2020
6272 Clear 13 1015 93 10000 0.29 10 12:39 20.03.2020
6273 Clear 12 1015 93 10000 0.29 10 12:20 20.03.2020
6274 Clear 13 1014 81 8000 1.5 340 11:54 20.03.2020
6275 Clear 13 1014 76 10000 0.5 0 11:36 20.03.2020
6276 Clear 13 1014 82 10000 2.1 160 11:18 20.03.2020
6277 Clear 13 1014 82 10000 2.1 160 10:41 20.03.2020
6278 Clear 13 1014 82 10000 2.1 160 10:20 20.03.2020
6279 Clear 13 1014 82 10000 2.1 160 10:20 20.03.2020
6280 Clear 14 1014 76 10000 2.6 160 09:55 20.03.2020
6281 Clear 14 1014 76 10000 2.6 160 09:37 20.03.2020
6282 Clear 14 1014 76 10000 2.6 160 09:18 20.03.2020
6283 Clear 14 1014 76 10000 2.6 160 08:41 20.03.2020
6284 Clear 14 1014 76 10000 2.6 160 08:22 20.03.2020
6285 Clear 15 1015 72 10000 2.1 140 07:48 20.03.2020
6286 Clear 15 1015 72 10000 2.1 140 07:26 20.03.2020
6287 Clear 16 1015 67 10000 2.6 160 06:51 20.03.2020
6288 Clear 16 1015 67 10000 2.6 160 06:32 20.03.2020
6289 Clear 18 1016 59 10000 2.6 150 04:51 20.03.2020
6290 Clear 19 1016 55 10000 3.1 140 03:20 20.03.2020
6291 Clear 22 1016 43 10000 4.6 200 01:57 20.03.2020
6292 Clear 24 1017 38 10000 2.6 240 00:51 20.03.2020
6293 Clear 24 1017 38 10000 2.6 240 00:29 20.03.2020
6294 Clear 26 1017 30 10000 3.1 240 23:47 19.03.2020
6295 Clear 26 1017 30 10000 3.1 240 23:26 19.03.2020
6296 Clear 27 1016 26 10000 3.6 240 22:56 19.03.2020
6297 Clear 27 1016 26 10000 3.6 240 22:38 19.03.2020
6298 Clear 28 1016 26 10000 3.6 240 22:19 19.03.2020
6299 Clear 28 1016 23 10000 3.6 220 21:42 19.03.2020
6300 Clear 28 1016 23 10000 3.6 220 21:20 19.03.2020
6301 Clear 28 1017 23 10000 2.1 200 20:59 19.03.2020
6302 Clear 29 1017 23 10000 2.1 200 20:41 19.03.2020
6303 Clear 29 1017 23 10000 2.1 200 20:22 19.03.2020
6304 Clear 28 1018 28 10000 2.6 260 19:55 19.03.2020
6305 Clear 28 1018 28 10000 2.6 260 19:37 19.03.2020
6306 Clear 28 1018 28 10000 2.6 260 19:19 19.03.2020
6307 Clear 27 1018 29 10000 1.5 250 18:42 19.03.2020
6308 Clear 26 1018 29 10000 1.5 250 18:22 19.03.2020
6309 Clear 26 1018 29 10000 1.5 250 17:58 19.03.2020
6310 Clear 25 1019 36 10000 1.5 210 17:40 19.03.2020
6311 Clear 24 1018 36 10000 1.5 0 17:19 19.03.2020
6312 Clear 23 1019 40 10000 2.1 240 16:43 19.03.2020
6313 Clear 23 1019 40 10000 2.1 240 16:23 19.03.2020
6314 Clear 21 1019 45 10000 2.87 264 15:45 19.03.2020
6315 Clear 21 1019 45 10000 2.87 264 15:27 19.03.2020
6316 Clear 16 1019 59 10000 2.87 264 14:55 19.03.2020
6317 Clear 18 1019 59 10000 2.87 264 14:37 19.03.2020
6318 Clear 16 1019 59 10000 0.52 236 14:19 19.03.2020
6319 Clear 16 1019 59 10000 0.52 236 14:19 19.03.2020
6320 Clear 12 1019 76 10000 0.52 236 13:40 19.03.2020
6321 Clear 12 1019 76 10000 0.73 276 13:19 19.03.2020
6322 Clear 15 1019 62 10000 0.73 276 12:55 19.03.2020
6323 Clear 14 1019 62 10000 0.73 276 12:37 19.03.2020
6324 Clear 14 1019 62 10000 0.73 276 12:18 19.03.2020
6325 Clear 13 1017 76 10000 1.5 180 11:41 19.03.2020
6326 Clear 14 1017 76 10000 2.1 140 11:23 19.03.2020
6327 Clear 14 1017 76 10000 2.1 140 10:56 19.03.2020
6328 Clear 14 1017 76 10000 2.1 140 10:36 19.03.2020
6329 Clear 14 1017 76 10000 2.1 140 10:18 19.03.2020
6330 Clear 13 1017 82 10000 2.6 160 09:44 19.03.2020
6331 Clear 13 1017 82 10000 2.6 160 09:25 19.03.2020
6332 Clear 13 1017 82 10000 3.1 150 08:48 19.03.2020
6333 Clear 13 1017 82 10000 3.1 150 08:23 19.03.2020
6334 Clear 13 1017 82 10000 3.1 150 08:23 19.03.2020
6335 Clear 15 1017 72 10000 2.6 160 07:59 19.03.2020
6336 Clear 15 1017 72 10000 2.6 160 07:38 19.03.2020
6337 Clear 15 1017 72 10000 2.6 160 07:19 19.03.2020
6338 Clear 16 1017 67 10000 2.6 160 06:27 19.03.2020
6339 Clear 16 1017 63 10000 3.1 170 05:25 19.03.2020
6340 Clear 18 1017 55 10000 4.1 150 04:47 19.03.2020
6341 Clear 19 1017 52 10000 4.1 150 03:55 19.03.2020
6342 Clear 22 1017 37 10000 6.7 200 01:58 19.03.2020
6343 Clear 23 1018 35 10000 2.1 240 00:53 19.03.2020
6344 Clear 25 1017 31 10000 3.1 260 00:19 19.03.2020
6345 Clear 25 1017 31 10000 3.1 260 23:43 18.03.2020
6346 Clear 25 1017 31 10000 3.1 260 23:23 18.03.2020
6347 Clear 26 1017 26 10000 4.1 230 22:43 18.03.2020
6348 Clear 27 1017 26 10000 4.1 230 22:23 18.03.2020
6349 Clear 27 1017 26 10000 4.1 230 21:57 18.03.2020
6350 Clear 27 1017 26 10000 4.1 230 21:39 18.03.2020
6351 Clear 28 1017 26 10000 4.1 230 21:20 18.03.2020
6352 Clear 28 1017 24 10000 4.1 240 20:55 18.03.2020
6353 Clear 28 1017 24 10000 4.1 240 20:37 18.03.2020
6354 Clear 28 1017 24 10000 4.1 240 20:19 18.03.2020
6355 Clear 28 1017 26 10000 2.6 260 19:41 18.03.2020
6356 Clear 28 1017 26 10000 2.6 260 19:21 18.03.2020
6357 Clear 28 1017 26 10000 2.6 260 19:21 18.03.2020
6358 Clear 27 1018 31 10000 2.1 210 18:58 18.03.2020
6359 Clear 27 1018 31 10000 2.1 210 18:58 18.03.2020
6360 Clear 27 1018 31 10000 2.1 210 18:39 18.03.2020
6361 Clear 27 1018 31 10000 2.1 210 18:19 18.03.2020
6362 Clear 26 1018 31 10000 2.1 210 17:55 18.03.2020
6363 Clear 26 1018 38 10000 1.5 0 17:37 18.03.2020
6364 Clear 22 1018 43 10000 2.1 210 17:19 18.03.2020
6365 Clear 24 1018 43 10000 2.1 210 16:42 18.03.2020
6366 Clear 22 1018 43 10000 2.1 210 16:21 18.03.2020
6367 Clear 20 1018 45 10000 1.5 220 15:57 18.03.2020
6368 Clear 22 1018 45 10000 1.5 220 15:38 18.03.2020
6369 Clear 20 1018 45 10000 1.5 220 15:20 18.03.2020
6370 Clear 17 1018 55 10000 2.79 263 14:42 18.03.2020
6371 Clear 17 1018 55 10000 2.79 263 14:21 18.03.2020
6372 Clear 13 1018 76 10000 0.5 268 13:42 18.03.2020
6373 Clear 13 1018 76 10000 0.53 264 13:19 18.03.2020
6374 Clear 15 1017 71 8000 2.1 20 12:55 18.03.2020
6375 Clear 15 1017 63 10000 0.53 264 12:37 18.03.2020
6376 Clear 12 1016 76 8000 1.5 330 12:18 18.03.2020
6377 Clear 14 1016 76 10000 0.5 0 11:38 18.03.2020
6378 Clear 13 1016 71 10000 1 0 11:19 18.03.2020
6379 Clear 13 1016 71 10000 1 0 10:57 18.03.2020
6380 Clear 13 1016 71 10000 1 0 10:37 18.03.2020
6381 Clear 13 1016 71 10000 1 0 10:19 18.03.2020
6382 Clear 14 1015 71 10000 0.24 268 09:42 18.03.2020
6383 Clear 14 1015 71 10000 0.24 268 09:23 18.03.2020
6384 Clear 15 1015 72 10000 1.5 160 08:55 18.03.2020
6385 Clear 15 1015 72 10000 1.5 160 08:37 18.03.2020
6386 Clear 15 1015 72 10000 1.5 160 08:19 18.03.2020
6387 Clear 16 1016 63 10000 2.1 180 07:41 18.03.2020
6388 Clear 16 1016 63 10000 2.1 180 07:23 18.03.2020
6389 Clear 17 1016 59 10000 2.1 150 06:43 18.03.2020
6390 Clear 17 1016 59 10000 2.1 150 05:56 18.03.2020
6391 Clear 17 1016 59 10000 2.6 160 05:33 18.03.2020
6392 Clear 19 1016 52 10000 2.6 130 03:56 18.03.2020
6393 Clear 21 1016 43 10000 5.7 190 02:40 18.03.2020
6394 Clear 22 1015 40 10000 6.2 210 01:46 18.03.2020
6395 Clear 23 1017 40 10000 3.1 240 01:21 18.03.2020
6396 Clear 23 1017 40 10000 3.1 240 00:23 18.03.2020
6397 Clear 25 1017 31 10000 3.6 240 23:47 17.03.2020
6398 Clear 25 1017 31 10000 3.6 240 23:26 17.03.2020
6399 Clear 26 1016 30 10000 3.1 200 22:47 17.03.2020
6400 Clear 26 1016 30 10000 3.1 200 22:29 17.03.2020
6401 Clear 27 1016 30 10000 3.6 240 21:59 17.03.2020
6402 Clear 27 1016 30 10000 3.6 240 21:37 17.03.2020
6403 Clear 27 1016 30 10000 3.6 240 21:19 17.03.2020
6404 Clear 27 1017 29 10000 3.1 220 20:38 17.03.2020
6405 Clear 27 1017 29 10000 3.1 220 20:20 17.03.2020
6406 Clear 26 1017 36 10000 3.1 210 19:54 17.03.2020
6407 Clear 26 1017 36 10000 3.1 210 19:36 17.03.2020
6408 Clear 25 1016 34 10000 5.1 170 19:18 17.03.2020
6409 Clear 26 1016 34 10000 5.1 170 18:54 17.03.2020
6410 Clear 25 1018 36 8000 2.1 280 18:36 17.03.2020
6411 Clear 24 1016 41 10000 4.1 170 18:18 17.03.2020
6412 Clear 24 1016 41 10000 4.1 170 18:18 17.03.2020
6413 Clear 23 1018 46 8000 2.1 190 17:40 17.03.2020
6414 Clear 23 1018 46 8000 2.1 190 17:20 17.03.2020
6415 Clear 22 1018 56 10000 2.6 200 16:44 17.03.2020
6416 Clear 20 1019 55 10000 1 330 16:20 17.03.2020
6417 Clear 19 1019 55 10000 1 330 15:56 17.03.2020
6418 Clear 19 1019 55 10000 1 330 15:56 17.03.2020
6419 Clear 19 1019 55 10000 1 330 15:38 17.03.2020
6420 Clear 17 1018 67 10000 2.1 210 15:18 17.03.2020
6421 Clear 16 1018 67 10000 2.92 258 14:41 17.03.2020
6422 Clear 16 1018 67 10000 0.65 289 14:18 17.03.2020
6423 Clear 13 1018 82 10000 0.65 289 13:43 17.03.2020
6424 Clear 13 1018 82 10000 0.87 275 13:24 17.03.2020
6425 Clear 14 1017 87 6000 2.1 350 12:54 17.03.2020
6426 Clear 13 1017 87 6000 2.1 350 12:36 17.03.2020
6427 Clear 12 1017 87 7000 1.5 310 12:18 17.03.2020
6428 Clear 11 1017 87 7000 1.5 310 11:42 17.03.2020
6429 Clear 12 1017 87 7000 1.5 310 11:24 17.03.2020
6430 Clear 12 1016 87 10000 1.5 150 10:56 17.03.2020
6431 Clear 12 1016 87 10000 1.5 150 10:37 17.03.2020
6432 Clear 12 1016 87 10000 1.5 150 10:18 17.03.2020
6433 Clear 12 1016 87 10000 2.6 210 09:46 17.03.2020
6434 Clear 12 1016 87 10000 2.6 210 09:20 17.03.2020
6435 Clear 13 1016 82 10000 3.1 170 08:58 17.03.2020
6436 Clear 13 1016 82 10000 3.1 170 08:40 17.03.2020
6437 Clear 13 1016 82 10000 3.1 170 08:18 17.03.2020
6438 Clear 13 1016 82 10000 3.6 160 07:49 17.03.2020
6439 Clear 13 1016 82 10000 3.6 160 07:21 17.03.2020
6440 Clear 13 1016 82 10000 3.6 160 06:49 17.03.2020
6441 Clear 13 1016 87 10000 4.1 160 06:25 17.03.2020
6442 Clear 15 1016 77 10000 4.1 150 05:26 17.03.2020
6443 Clear 16 1016 67 10000 5.7 150 03:34 17.03.2020
6444 Clear 17 1015 63 10000 5.1 150 02:31 17.03.2020
6445 Clear 18 1014 59 10000 4.6 160 01:38 17.03.2020
6446 Clear 21 1015 49 10000 2.6 240 00:53 17.03.2020
6447 Clear 21 1013 52 10000 6.2 210 00:18 17.03.2020
6448 Clear 23 1014 36 10000 3.6 250 23:34 16.03.2020
6449 Clear 24 1014 31 10000 4.6 260 22:58 16.03.2020
6450 Clear 25 1014 31 10000 4.6 260 22:38 16.03.2020
6451 Clear 25 1014 31 10000 4.6 260 22:19 16.03.2020
6452 Clear 26 1014 29 10000 3.1 230 21:44 16.03.2020
6453 Clear 26 1014 29 10000 3.1 230 21:25 16.03.2020
6454 Clear 26 1014 29 10000 3.6 210 20:58 16.03.2020
6455 Clear 27 1014 29 10000 3.6 210 20:39 16.03.2020
6456 Clear 26 1014 29 10000 3.6 210 20:20 16.03.2020
6457 Clear 27 1014 31 10000 4.1 230 19:46 16.03.2020
6458 Clear 26 1014 31 10000 4.1 230 19:23 16.03.2020
6459 Clear 27 1013 31 10000 6.2 200 18:57 16.03.2020
6460 Clear 27 1014 34 10000 2.6 220 18:39 16.03.2020
6461 Clear 27 1014 34 10000 2.6 220 18:19 16.03.2020
6462 Clear 25 1015 31 10000 2.6 280 17:46 16.03.2020
6463 Clear 25 1015 31 10000 2.6 280 17:25 16.03.2020
6464 Clear 24 1015 35 10000 1.5 230 16:54 16.03.2020
6465 Clear 24 1015 35 10000 1.5 230 16:36 16.03.2020
6466 Clear 22 1015 35 10000 1.5 230 16:18 16.03.2020
6467 Clear 22 1015 40 10000 1 250 15:42 16.03.2020
6468 Clear 22 1015 40 10000 1 250 15:22 16.03.2020
6469 Clear 17 1013 51 10000 2.6 190 14:45 16.03.2020
6470 Clear 16 1013 51 10000 2.6 190 14:20 16.03.2020
6471 Clear 14 1014 67 10000 0.85 278 13:45 16.03.2020
6472 Clear 14 1014 67 10000 0.94 276 13:26 16.03.2020
6473 Clear 16 1013 55 10000 0.94 276 12:57 16.03.2020
6474 Clear 16 1013 55 10000 0.94 276 12:38 16.03.2020
6475 Clear 16 1013 55 10000 0.94 276 12:19 16.03.2020
6476 Clear 15 1012 62 10000 2.1 160 11:42 16.03.2020
6477 Clear 14 1012 62 10000 2.1 160 11:23 16.03.2020
6478 Clear 16 1012 55 10000 2.1 140 10:43 16.03.2020
6479 Clear 16 1012 55 10000 2.1 140 10:24 16.03.2020
6480 Clear 16 1012 51 10000 3.1 160 09:49 16.03.2020
6481 Clear 16 1012 51 10000 3.1 160 09:30 16.03.2020
6482 Clear 16 1013 51 10000 2.6 150 08:59 16.03.2020
6483 Clear 16 1013 51 10000 2.6 150 08:36 16.03.2020
6484 Clear 16 1013 51 10000 2.6 150 08:18 16.03.2020
6485 Clear 16 1013 51 10000 3.1 170 07:40 16.03.2020
6486 Clear 16 1013 51 10000 3.1 170 07:18 16.03.2020
6487 Clear 18 1013 45 10000 2.6 170 06:28 16.03.2020
6488 Clear 18 1013 45 10000 2.6 170 05:54 16.03.2020
6489 Clear 21 1013 37 10000 4.6 140 03:36 16.03.2020
6490 Clear 25 1013 29 10000 5.1 170 01:44 16.03.2020
6491 Clear 26 1015 27 10000 3.1 230 00:43 16.03.2020
6492 Clear 28 1014 25 10000 3.6 240 23:56 15.03.2020
6493 Clear 28 1014 25 10000 3.6 240 23:37 15.03.2020
6494 Clear 28 1014 25 10000 3.6 240 23:18 15.03.2020
6495 Clear 30 1014 22 10000 3.6 240 22:41 15.03.2020
6496 Clear 30 1014 22 10000 3.6 240 22:20 15.03.2020
6497 Clear 31 1014 25 10000 4.1 230 21:39 15.03.2020
6498 Clear 31 1014 25 10000 4.1 230 21:21 15.03.2020
6499 Clear 31 1014 25 10000 3.1 230 20:55 15.03.2020
6500 Clear 31 1014 25 10000 3.1 230 20:36 15.03.2020
6501 Clear 31 1014 25 10000 3.1 230 20:18 15.03.2020
6502 Clear 31 1015 25 10000 2.6 0 19:42 15.03.2020
6503 Clear 31 1015 25 10000 2.6 0 19:24 15.03.2020
6504 Clear 29 1015 30 10000 2.1 220 18:59 15.03.2020
6505 Clear 29 1015 30 10000 2.1 220 18:40 15.03.2020
6506 Clear 29 1015 30 10000 2.1 220 18:22 15.03.2020
6507 Clear 28 1016 32 10000 2.1 200 17:57 15.03.2020
6508 Clear 28 1016 32 10000 2.1 200 17:38 15.03.2020
6509 Clear 27 1016 38 10000 2.76 261 17:18 15.03.2020
6510 Clear 26 1016 38 10000 2.76 261 16:43 15.03.2020
6511 Clear 26 1016 38 10000 2.76 261 16:25 15.03.2020
6512 Clear 23 1016 38 10000 1 310 15:58 15.03.2020
6513 Clear 23 1016 38 10000 1 310 15:40 15.03.2020
6514 Clear 23 1016 38 10000 1 310 15:19 15.03.2020
6515 Clear 19 1016 48 10000 2.76 261 14:46 15.03.2020
6516 Clear 19 1016 48 10000 0.52 287 14:24 15.03.2020
6517 Clear 15 1016 67 10000 0.52 287 13:58 15.03.2020
6518 Clear 15 1016 67 10000 0.52 287 13:38 15.03.2020
6519 Clear 15 1016 67 10000 0.52 287 13:38 15.03.2020
6520 Clear 15 1016 67 10000 0.46 302 13:20 15.03.2020
6521 Clear 16 1016 71 10000 1.5 60 12:44 15.03.2020
6522 Clear 15 1016 71 10000 1.5 60 12:25 15.03.2020
6523 Clear 15 1015 62 10000 1.5 20 11:56 15.03.2020
6524 Clear 15 1015 62 10000 1.5 20 11:38 15.03.2020
6525 Clear 14 1015 62 10000 1.5 20 11:20 15.03.2020
6526 Clear 15 1015 62 10000 1.5 310 10:55 15.03.2020
6527 Clear 15 1015 62 10000 1.5 310 10:36 15.03.2020
6528 Clear 15 1015 62 10000 1.5 310 10:18 15.03.2020
6529 Clear 17 1015 55 10000 1.5 270 09:39 15.03.2020
6530 -273 0 0 0 0 0 09:21 15.03.2020
6531 Clear 17 1015 51 10000 1.5 220 08:42 15.03.2020
6532 Clear 17 1015 51 10000 1.5 220 08:20 15.03.2020
6533 Clear 19 1015 45 10000 2.1 180 07:51 15.03.2020
6534 Clear 19 1015 45 10000 2.1 180 07:29 15.03.2020
6535 Clear 19 1015 45 10000 0.24 298 06:49 15.03.2020
6536 Clear 20 1015 42 10000 1.5 190 05:50 15.03.2020
6537 Clear 20 1015 42 10000 1.5 190 05:18 15.03.2020
6538 Clear 21 1015 40 10000 3.1 160 04:43 15.03.2020
6539 Clear 21 1015 40 10000 3.1 160 04:24 15.03.2020
6540 Clear 22 1015 37 10000 3.6 150 03:38 15.03.2020
6541 Clear 23 1015 38 10000 3.1 150 02:37 15.03.2020
6542 Clear 24 1014 33 10000 6.7 200 01:34 15.03.2020
6543 Clear 26 1016 36 10000 2.6 250 00:46 15.03.2020
6544 Clear 26 1016 36 10000 2.6 250 00:24 15.03.2020
6545 Clear 28 1015 30 10000 3.1 250 23:55 14.03.2020
6546 Clear 28 1015 30 10000 3.1 250 23:36 14.03.2020
6547 Clear 28 1015 30 10000 3.1 250 23:18 14.03.2020
6548 Clear 30 1015 30 10000 3.6 250 22:41 14.03.2020
6549 Clear 30 1015 30 10000 3.6 250 22:23 14.03.2020
6550 Clear 30 1015 30 10000 4.1 240 21:56 14.03.2020
6551 Clear 30 1015 30 10000 4.1 240 21:36 14.03.2020
6552 Clear 30 1015 30 10000 4.1 240 21:36 14.03.2020
6553 Clear 30 1015 30 10000 4.1 240 21:18 14.03.2020
6554 Clear 30 1015 30 10000 2.6 0 20:58 14.03.2020
6555 Clear 30 1015 30 10000 2.6 0 20:40 14.03.2020
6556 Clouds 30 1015 30 10000 2.6 0 20:19 14.03.2020
6557 Clouds 29 1016 34 10000 2.6 0 19:43 14.03.2020
6558 Clouds 29 1016 34 10000 2.6 0 19:25 14.03.2020
6559 Clouds 28 1017 36 10000 2.6 0 18:42 14.03.2020
6560 Clouds 28 1017 36 10000 2.6 0 18:23 14.03.2020
6561 Clouds 27 1017 36 10000 2.6 0 17:56 14.03.2020
6562 Clouds 26 1017 41 10000 2.1 270 17:38 14.03.2020
6563 Clouds 23 1017 49 10000 2.1 170 17:20 14.03.2020
6564 Clouds 24 1017 49 10000 2.1 170 16:41 14.03.2020
6565 Clouds 23 1017 49 10000 2.1 170 16:23 14.03.2020
6566 Clouds 21 1017 52 10000 3.05 259 15:58 14.03.2020
6567 Clouds 21 1017 52 10000 3.05 259 15:27 14.03.2020
6568 Clouds 18 1018 63 10000 3.05 259 14:58 14.03.2020
6569 Clouds 18 1018 63 10000 3.05 259 14:36 14.03.2020
6570 Clouds 18 1018 63 10000 1.03 284 14:18 14.03.2020
6571 Clouds 15 1018 77 10000 1.03 284 13:42 14.03.2020
6572 Clouds 15 1018 77 10000 1.14 297 13:23 14.03.2020
6573 Clouds 14 1017 82 10000 1.14 297 12:47 14.03.2020
6574 Clouds 15 1017 82 10000 1.14 297 12:27 14.03.2020
6575 Clouds 14 1017 82 10000 1.14 297 11:59 14.03.2020
6576 Clouds 15 1016 72 8000 1.5 20 11:39 14.03.2020
6577 Clouds 15 1016 72 8000 1.5 20 11:20 14.03.2020
6578 Clouds 16 1016 72 8000 1 0 10:46 14.03.2020
6579 Clouds 16 1016 72 8000 1 0 10:27 14.03.2020
6580 Clouds 16 1015 72 10000 1.5 10 09:58 14.03.2020
6581 Clouds 16 1015 72 10000 1.5 10 09:39 14.03.2020
6582 Clouds 16 1015 72 10000 1.5 10 09:20 14.03.2020
6583 Clouds 16 1015 72 10000 0.57 292 08:45 14.03.2020
6584 Clouds 16 1015 72 10000 0.57 292 08:45 14.03.2020
6585 Clouds 16 1015 72 10000 0.57 294 08:23 14.03.2020
6586 Clouds 17 1016 72 10000 1.5 280 07:39 14.03.2020
6587 Clouds 17 1016 72 10000 1.5 280 07:39 14.03.2020
6588 Clouds 17 1016 72 10000 1.5 280 07:20 14.03.2020
6589 Clouds 19 1016 59 10000 3.1 170 06:41 14.03.2020
6590 Clouds 19 1016 59 10000 3.1 170 05:56 14.03.2020
6591 Clear 20 1016 60 10000 3.6 170 04:52 14.03.2020
6592 Clear 21 1017 56 10000 3.6 150 03:25 14.03.2020
6593 Clear 23 1017 46 10000 6.2 190 02:35 14.03.2020
6594 Clear 23 1017 46 10000 6.2 190 02:35 14.03.2020
6595 Clear 24 1016 44 10000 6.7 210 01:39 14.03.2020
6596 Clear 25 1017 41 10000 3.1 250 00:22 14.03.2020
6597 Clear 27 1017 36 10000 2.1 240 23:38 13.03.2020
6598 Clear 27 1017 36 10000 2.1 240 23:38 13.03.2020
6599 Clear 27 1017 36 10000 2.1 240 23:18 13.03.2020
6600 Clear 28 1017 34 10000 2.6 210 22:41 13.03.2020
6601 Clear 28 1017 34 10000 2.6 210 22:20 13.03.2020
6602 Clear 28 1017 37 8000 3.6 210 21:40 13.03.2020
6603 Clear 28 1017 37 8000 3.6 210 21:18 13.03.2020
6604 Clear 27 1018 39 8000 4.1 0 20:42 13.03.2020
6605 Clear 28 1018 39 8000 4.1 0 20:22 13.03.2020
6606 Clear 28 1018 39 10000 3.1 250 19:55 13.03.2020
6607 Clear 28 1018 39 10000 3.1 250 19:36 13.03.2020
6608 Clear 27 1018 39 10000 3.1 250 19:18 13.03.2020
6609 Clear 27 1018 39 10000 3.1 250 18:39 13.03.2020
6610 Clear 26 1018 39 10000 3.1 250 18:21 13.03.2020
6611 Clear 25 1018 47 10000 2.1 300 17:42 13.03.2020
6612 Clear 25 1018 47 10000 2.1 300 17:21 13.03.2020
6613 Clear 24 1019 53 10000 3.13 256 16:56 13.03.2020
6614 Clear 23 1019 53 10000 3.13 256 16:38 13.03.2020
6615 Clear 22 1019 53 10000 3.13 256 16:19 13.03.2020
6616 Clear 21 1019 56 10000 1.5 0 15:42 13.03.2020
6617 Clear 20 1019 56 10000 1.5 0 15:21 13.03.2020
6618 Clear 18 1018 68 10000 2.1 220 14:55 13.03.2020
6619 Clear 19 1018 68 10000 2.1 220 14:36 13.03.2020
6620 Clear 18 1018 68 10000 2.1 220 14:18 13.03.2020
6621 Clear 15 1017 77 10000 1.42 254 13:42 13.03.2020
6622 Clear 15 1017 77 10000 1.45 252 13:21 13.03.2020
6623 Clear 17 1017 67 10000 1.45 252 12:57 13.03.2020
6624 Clear 16 1017 67 10000 1.45 252 12:38 13.03.2020
6625 Clear 16 1017 67 10000 1.45 252 12:19 13.03.2020
6626 Clear 16 1015 82 10000 1 0 11:46 13.03.2020
6627 Clear 15 1015 82 10000 1 0 11:26 13.03.2020
6628 Clear 15 1015 82 10000 2.6 160 10:59 13.03.2020
6629 Clear 15 1015 82 10000 2.6 160 10:41 13.03.2020
6630 Clear 15 1015 82 10000 2.6 160 10:23 13.03.2020
6631 Clear 15 1014 82 10000 3.1 150 09:45 13.03.2020
6632 Clear 15 1014 82 10000 3.1 150 09:26 13.03.2020
6633 Clear 16 1014 77 10000 2.6 160 08:48 13.03.2020
6634 Clear 16 1014 77 10000 2.6 160 08:48 13.03.2020
6635 Clear 16 1014 77 10000 2.6 160 08:24 13.03.2020
6636 Clear 16 1014 77 10000 2.6 170 07:59 13.03.2020
6637 Clear 16 1014 77 10000 2.6 170 07:38 13.03.2020
6638 Clear 16 1014 77 10000 2.6 170 07:20 13.03.2020
6639 Clear 16 1014 61 0 1.05 257 06:45 13.03.2020
6640 Clear 18 1014 68 10000 3.1 150 06:20 13.03.2020
6641 Clear 18 1014 68 10000 3.1 150 05:43 13.03.2020
6642 Clear 19 1014 63 10000 3.6 160 04:39 13.03.2020
6643 Clear 20 1014 60 10000 4.1 140 03:50 13.03.2020
6644 Clear 23 1013 49 10000 5.7 200 01:49 13.03.2020
6645 Clear 23 1013 49 10000 5.7 200 01:19 13.03.2020
6646 Clear 24 1014 41 10000 2.6 230 00:56 13.03.2020
6647 Clear 25 1014 41 10000 2.6 230 00:38 13.03.2020
6648 Clear 25 1014 41 10000 2.6 230 00:18 13.03.2020
6649 Clear 26 1013 34 10000 3.1 240 23:37 12.03.2020
6650 Clear 26 1013 34 10000 3.1 240 23:18 12.03.2020
6651 Clear 27 1013 32 10000 4.6 240 22:44 12.03.2020
6652 Clear 28 1013 32 10000 4.6 240 22:25 12.03.2020
6653 Clear 28 1013 27 10000 3.6 220 21:55 12.03.2020
6654 Clear 29 1013 27 10000 3.6 220 21:36 12.03.2020
6655 Clear 29 1013 27 10000 3.6 220 21:18 12.03.2020
6656 Clear 28 1014 30 10000 4.1 230 20:42 12.03.2020
6657 Clear 28 1014 30 10000 4.1 230 20:20 12.03.2020
6658 Clear 28 1014 30 10000 3.6 250 19:42 12.03.2020
6659 Clear 28 1014 30 10000 3.6 250 19:21 12.03.2020
6660 Clear 27 1014 34 10000 3.1 240 18:45 12.03.2020
6661 Clear 27 1014 34 10000 3.1 240 18:25 12.03.2020
6662 Clear 27 1013 44 10000 4.1 180 17:58 12.03.2020
6663 Clear 26 1013 44 10000 4.1 180 17:40 12.03.2020
6664 Clear 25 1013 44 10000 4.1 180 17:22 12.03.2020
6665 Clear 25 1015 41 10000 1.5 230 16:58 12.03.2020
6666 Clear 24 1015 41 10000 1.5 230 16:39 12.03.2020
6667 Clear 23 1015 41 10000 1.5 230 16:20 12.03.2020
6668 Clear 23 1015 46 10000 1 270 15:47 12.03.2020
6669 Clear 23 1015 46 10000 1 270 15:27 12.03.2020
6670 Clear 21 1014 59 10000 2.6 210 14:54 12.03.2020
6671 Clear 21 1014 59 10000 2.6 210 14:54 12.03.2020
6672 Clear 21 1014 59 10000 2.6 210 14:36 12.03.2020
6673 Clear 19 1014 59 10000 2.6 210 14:18 12.03.2020
6674 Clear 17 1014 77 10000 0.84 271 13:38 12.03.2020
6675 Clouds 15 1014 77 10000 1.08 263 13:20 12.03.2020
6676 Clouds 16 1014 77 10000 1.08 263 12:43 12.03.2020
6677 Clouds 16 1014 77 10000 1.08 263 12:23 12.03.2020
6678 Clouds 15 1012 77 10000 2.6 150 11:59 12.03.2020
6679 Clouds 15 1012 77 10000 2.6 150 11:59 12.03.2020
6680 Clouds 16 1012 77 10000 2.6 150 11:39 12.03.2020
6681 Clouds 15 1012 77 10000 2.6 150 11:21 12.03.2020
6682 Clouds 15 1012 77 10000 2.6 150 11:21 12.03.2020
6683 Clouds 16 1012 72 10000 2.1 170 10:59 12.03.2020
6684 Clouds 17 1013 43 0 0.44 281 10:41 12.03.2020
6685 -273 0 0 0 0 0 10:22 12.03.2020
6686 Clouds 17 1013 43 0 0.44 281 10:22 12.03.2020
6687 Clouds 17 1013 43 0 0.44 281 09:49 12.03.2020
6688 Clouds 17 1013 43 0 0.44 281 09:29 12.03.2020
6689 Clouds 17 1013 43 0 0.44 281 08:55 12.03.2020
6690 Clouds 17 1013 43 0 0.44 281 08:37 12.03.2020
6691 Clouds 17 1014 46 0 0.27 323 08:18 12.03.2020
6692 Clouds 17 1014 46 0 0.27 323 07:47 12.03.2020
6693 Clouds 17 1014 46 0 0.27 323 07:21 12.03.2020
6694 Clouds 19 1012 55 10000 4.1 160 06:18 12.03.2020
6695 Clouds 19 1012 55 10000 4.1 160 05:33 12.03.2020
6696 Clouds 24 1011 38 10000 4.1 140 02:54 12.03.2020
6697 Clouds 25 1011 36 10000 6.2 180 01:57 12.03.2020
6698 Clouds 25 1011 36 10000 6.2 180 01:21 12.03.2020
6699 Clouds 26 1012 36 10000 2.1 250 00:42 12.03.2020
6700 Clouds 27 1010 36 10000 8.2 210 23:57 11.03.2020
6701 Clouds 27 1012 32 10000 3.6 230 23:28 11.03.2020
6702 Clouds 28 1012 25 10000 3.6 250 22:59 11.03.2020
6703 Clouds 29 1012 25 10000 3.6 250 22:39 11.03.2020
6704 Clouds 29 1012 25 10000 3.6 250 22:21 11.03.2020
6705 Clouds 30 1012 19 10000 2.6 240 21:56 11.03.2020
6706 Clouds 30 1012 19 10000 2.6 240 21:37 11.03.2020
6707 Clouds 30 1012 19 10000 2.6 240 21:37 11.03.2020
6708 Clouds 30 1012 19 10000 2.6 240 21:19 11.03.2020
6709 Clouds 30 1012 20 10000 2.6 210 20:56 11.03.2020
6710 Clouds 30 1012 20 10000 2.6 210 20:36 11.03.2020
6711 Clouds 30 1012 20 10000 2.6 210 20:18 11.03.2020
6712 Clouds 29 1013 22 10000 2.6 0 19:42 11.03.2020
6713 Clouds 29 1013 22 10000 2.6 0 19:24 11.03.2020
6714 Clouds 29 1013 26 10000 2.1 240 18:56 11.03.2020
6715 Clouds 29 1013 26 10000 2.1 240 18:37 11.03.2020
6716 Clouds 29 1013 26 10000 2.1 240 18:18 11.03.2020
6717 Clouds 28 1014 28 10000 2.6 210 17:54 11.03.2020
6718 Clouds 28 1014 28 10000 2.6 210 17:36 11.03.2020
671